<?xml version="1.0" encoding="UTF-8" standalone="no" ?><gpx xmlns="http://www.topografix.com/GPX/1/1" xmlns:gpxx="http://www.garmin.com/xmlschemas/GpxExtensions/v3" xmlns:wptx1="http://www.garmin.com/xmlschemas/WaypointExtension/v1" xmlns:gpxtpx="http://www.garmin.com/xmlschemas/TrackPointExtension/v1" creator="GuideVTT.com" version="1.1" xmlns:xsi="http://www.w3.org/2001/XMLSchema-instance" xsi:schemaLocation="http://www.topografix.com/GPX/1/1 http://www.topografix.com/GPX/1/1/gpx.xsd http://www.garmin.com/xmlschemas/GpxExtensions/v3 http://www8.garmin.com/xmlschemas/GpxExtensionsv3.xsd http://www.garmin.com/xmlschemas/WaypointExtension/v1 http://www8.garmin.com/xmlschemas/WaypointExtensionv1.xsd http://www.garmin.com/xmlschemas/TrackPointExtension/v1 http://www.garmin.com/xmlschemas/TrackPointExtensionv1.xsd">
<metadata><link href="http://www.garmin.com"><text>Garmin International</text></link><time>2013-06-22T15:13:50Z</time></metadata>
<trk><name>la_vertonne.gpx</name><extensions><gpxx:TrackExtension><gpxx:DisplayColor>Cyan</gpxx:DisplayColor></gpxx:TrackExtension></extensions><trkseg>
<trkpt lat="47.17428667" lon="-1.48404333"><ele>25.9</ele><time>2017-11-18T08:09:59Z</time></trkpt>
<trkpt lat="47.17428667" lon="-1.48404333"><ele>25.9</ele><time>2017-11-18T08:11:35Z</time></trkpt>
<trkpt lat="47.17414924" lon="-1.48401788"><ele>18.299999</ele><time>2017-11-18T08:11:38Z</time></trkpt>
<trkpt lat="47.17404905" lon="-1.48394429"><ele>17.5</ele><time>2017-11-18T08:11:43Z</time></trkpt>
<trkpt lat="47.17393367" lon="-1.48394967"><ele>17.1</ele><time>2017-11-18T08:11:47Z</time></trkpt>
<trkpt lat="47.17384033" lon="-1.48399400"><ele>17.200001</ele><time>2017-11-18T08:11:50Z</time></trkpt>
<trkpt lat="47.17374700" lon="-1.48404233"><ele>17.6</ele><time>2017-11-18T08:11:53Z</time></trkpt>
<trkpt lat="47.17363952" lon="-1.48409238"><ele>18.1</ele><time>2017-11-18T08:11:56Z</time></trkpt>
<trkpt lat="47.17353733" lon="-1.48414433"><ele>18.700001</ele><time>2017-11-18T08:12:00Z</time></trkpt>
<trkpt lat="47.17343238" lon="-1.48419357"><ele>19.1</ele><time>2017-11-18T08:12:03Z</time></trkpt>
<trkpt lat="47.17331905" lon="-1.48424952"><ele>19.9</ele><time>2017-11-18T08:12:07Z</time></trkpt>
<trkpt lat="47.17321190" lon="-1.48430500"><ele>20.4</ele><time>2017-11-18T08:12:11Z</time></trkpt>
<trkpt lat="47.17311524" lon="-1.48437524"><ele>21.1</ele><time>2017-11-18T08:12:15Z</time></trkpt>
<trkpt lat="47.17305767" lon="-1.48447333"><ele>21.700001</ele><time>2017-11-18T08:12:19Z</time></trkpt>
<trkpt lat="47.17299214" lon="-1.48457143"><ele>22</ele><time>2017-11-18T08:12:22Z</time></trkpt>
<trkpt lat="47.17289792" lon="-1.48462792"><ele>21.9</ele><time>2017-11-18T08:12:25Z</time></trkpt>
<trkpt lat="47.17280600" lon="-1.48471533"><ele>22.299999</ele><time>2017-11-18T08:12:29Z</time></trkpt>
<trkpt lat="47.17272533" lon="-1.48479600"><ele>23.4</ele><time>2017-11-18T08:12:32Z</time></trkpt>
<trkpt lat="47.17263200" lon="-1.48481333"><ele>24</ele><time>2017-11-18T08:12:35Z</time></trkpt>
<trkpt lat="47.17252619" lon="-1.48477048"><ele>24.5</ele><time>2017-11-18T08:12:38Z</time></trkpt>
<trkpt lat="47.17241310" lon="-1.48468810"><ele>25</ele><time>2017-11-18T08:12:42Z</time></trkpt>
<trkpt lat="47.17230167" lon="-1.48460333"><ele>25.1</ele><time>2017-11-18T08:12:46Z</time></trkpt>
<trkpt lat="47.17219524" lon="-1.48452119"><ele>25.299999</ele><time>2017-11-18T08:12:50Z</time></trkpt>
<trkpt lat="47.17208786" lon="-1.48443690"><ele>25.6</ele><time>2017-11-18T08:12:54Z</time></trkpt>
<trkpt lat="47.17197643" lon="-1.48435310"><ele>26</ele><time>2017-11-18T08:12:58Z</time></trkpt>
<trkpt lat="47.17186357" lon="-1.48427095"><ele>25.9</ele><time>2017-11-18T08:13:02Z</time></trkpt>
<trkpt lat="47.17175143" lon="-1.48418405"><ele>25.9</ele><time>2017-11-18T08:13:06Z</time></trkpt>
<trkpt lat="47.17163619" lon="-1.48410071"><ele>26</ele><time>2017-11-18T08:13:10Z</time></trkpt>
<trkpt lat="47.17152000" lon="-1.48405619"><ele>26.299999</ele><time>2017-11-18T08:13:14Z</time></trkpt>
<trkpt lat="47.17139976" lon="-1.48403810"><ele>26.299999</ele><time>2017-11-18T08:13:18Z</time></trkpt>
<trkpt lat="47.17134889" lon="-1.48391778"><ele>25.799999</ele><time>2017-11-18T08:13:21Z</time></trkpt>
<trkpt lat="47.17136389" lon="-1.48379000"><ele>25.4</ele><time>2017-11-18T08:13:23Z</time></trkpt>
<trkpt lat="47.17135611" lon="-1.48364222"><ele>24.799999</ele><time>2017-11-18T08:13:25Z</time></trkpt>
<trkpt lat="47.17129167" lon="-1.48348167"><ele>24.299999</ele><time>2017-11-18T08:13:28Z</time></trkpt>
<trkpt lat="47.17123367" lon="-1.48337667"><ele>23.799999</ele><time>2017-11-18T08:13:30Z</time></trkpt>
<trkpt lat="47.17116537" lon="-1.48327000"><ele>22.799999</ele><time>2017-11-18T08:13:34Z</time></trkpt>
<trkpt lat="47.17110974" lon="-1.48318513"><ele>22.1</ele><time>2017-11-18T08:13:40Z</time></trkpt>
<trkpt lat="47.17108333" lon="-1.48313167"><ele>22.299999</ele><time>2017-11-18T08:13:44Z</time></trkpt>
<trkpt lat="47.17097948" lon="-1.48289479"><ele>26.4</ele><time>2017-11-18T08:14:41Z</time></trkpt>
<trkpt lat="47.17086778" lon="-1.48281278"><ele>22.200001</ele><time>2017-11-18T08:14:53Z</time></trkpt>
<trkpt lat="47.17080333" lon="-1.48275424"><ele>20</ele><time>2017-11-18T08:14:56Z</time></trkpt>
<trkpt lat="47.17070367" lon="-1.48271200"><ele>17.6</ele><time>2017-11-18T08:15:01Z</time></trkpt>
<trkpt lat="47.17059119" lon="-1.48269786"><ele>16.5</ele><time>2017-11-18T08:15:04Z</time></trkpt>
<trkpt lat="47.17048167" lon="-1.48267200"><ele>14.8</ele><time>2017-11-18T08:15:08Z</time></trkpt>
<trkpt lat="47.17039767" lon="-1.48262400"><ele>12.7</ele><time>2017-11-18T08:15:11Z</time></trkpt>
<trkpt lat="47.17036722" lon="-1.48251833"><ele>10.8</ele><time>2017-11-18T08:15:13Z</time></trkpt>
<trkpt lat="47.17036667" lon="-1.48240167"><ele>9.8</ele><time>2017-11-18T08:15:15Z</time></trkpt>
<trkpt lat="47.17034500" lon="-1.48223833"><ele>8.8</ele><time>2017-11-18T08:15:18Z</time></trkpt>
<trkpt lat="47.17032556" lon="-1.48214667"><ele>7.4</ele><time>2017-11-18T08:15:19Z</time></trkpt>
<trkpt lat="47.17025685" lon="-1.48205481"><ele>5.5</ele><time>2017-11-18T08:15:23Z</time></trkpt>
<trkpt lat="47.17013133" lon="-1.48208067"><ele>3.6</ele><time>2017-11-18T08:15:27Z</time></trkpt>
<trkpt lat="47.17000633" lon="-1.48212633"><ele>1.3</ele><time>2017-11-18T08:15:30Z</time></trkpt>
<trkpt lat="47.16988889" lon="-1.48216333"><ele>1</ele><time>2017-11-18T08:15:33Z</time></trkpt>
<trkpt lat="47.16978167" lon="-1.48219000"><ele>0.9</ele><time>2017-11-18T08:15:34Z</time></trkpt>
<trkpt lat="47.16968083" lon="-1.48221000"><ele>1.1</ele><time>2017-11-18T08:15:36Z</time></trkpt>
<trkpt lat="47.16956944" lon="-1.48223611"><ele>1.2</ele><time>2017-11-18T08:15:38Z</time></trkpt>
<trkpt lat="47.16945500" lon="-1.48228548"><ele>0.9</ele><time>2017-11-18T08:15:41Z</time></trkpt>
<trkpt lat="47.16937574" lon="-1.48227204"><ele>2.8</ele><time>2017-11-18T08:15:58Z</time></trkpt>
<trkpt lat="47.16928167" lon="-1.48215333"><ele>6</ele><time>2017-11-18T08:16:27Z</time></trkpt>
<trkpt lat="47.16922667" lon="-1.48207333"><ele>5.9</ele><time>2017-11-18T08:16:29Z</time></trkpt>
<trkpt lat="47.16915389" lon="-1.48196667"><ele>5.9</ele><time>2017-11-18T08:16:31Z</time></trkpt>
<trkpt lat="47.16909056" lon="-1.48185667"><ele>5.9</ele><time>2017-11-18T08:16:33Z</time></trkpt>
<trkpt lat="47.16904000" lon="-1.48175000"><ele>5.7</ele><time>2017-11-18T08:16:35Z</time></trkpt>
<trkpt lat="47.16896933" lon="-1.48163667"><ele>5.8</ele><time>2017-11-18T08:16:38Z</time></trkpt>
<trkpt lat="47.16889800" lon="-1.48150233"><ele>5.5</ele><time>2017-11-18T08:16:41Z</time></trkpt>
<trkpt lat="47.16883722" lon="-1.48139667"><ele>5.6</ele><time>2017-11-18T08:16:43Z</time></trkpt>
<trkpt lat="47.16877767" lon="-1.48128400"><ele>5.3</ele><time>2017-11-18T08:16:46Z</time></trkpt>
<trkpt lat="47.16869533" lon="-1.48115667"><ele>5.5</ele><time>2017-11-18T08:16:49Z</time></trkpt>
<trkpt lat="47.16861500" lon="-1.48103633"><ele>6.3</ele><time>2017-11-18T08:16:52Z</time></trkpt>
<trkpt lat="47.16853200" lon="-1.48091633"><ele>6.8</ele><time>2017-11-18T08:16:55Z</time></trkpt>
<trkpt lat="47.16843933" lon="-1.48080600"><ele>7.2</ele><time>2017-11-18T08:16:58Z</time></trkpt>
<trkpt lat="47.16835333" lon="-1.48069167"><ele>7.5</ele><time>2017-11-18T08:17:01Z</time></trkpt>
<trkpt lat="47.16827433" lon="-1.48056767"><ele>7.7</ele><time>2017-11-18T08:17:04Z</time></trkpt>
<trkpt lat="47.16820778" lon="-1.48045889"><ele>7.7</ele><time>2017-11-18T08:17:07Z</time></trkpt>
<trkpt lat="47.16815944" lon="-1.48036722"><ele>7.7</ele><time>2017-11-18T08:17:08Z</time></trkpt>
<trkpt lat="47.16810667" lon="-1.48026033"><ele>7.5</ele><time>2017-11-18T08:17:11Z</time></trkpt>
<trkpt lat="47.16802697" lon="-1.48014576"><ele>7.5</ele><time>2017-11-18T08:17:15Z</time></trkpt>
<trkpt lat="47.16791800" lon="-1.48009600"><ele>7.3</ele><time>2017-11-18T08:17:20Z</time></trkpt>
<trkpt lat="47.16781433" lon="-1.48007367"><ele>7.2</ele><time>2017-11-18T08:17:23Z</time></trkpt>
<trkpt lat="47.16770167" lon="-1.48004208"><ele>7</ele><time>2017-11-18T08:17:25Z</time></trkpt>
<trkpt lat="47.16757944" lon="-1.48002278"><ele>7.1</ele><time>2017-11-18T08:17:28Z</time></trkpt>
<trkpt lat="47.16748556" lon="-1.48002667"><ele>7.1</ele><time>2017-11-18T08:17:30Z</time></trkpt>
<trkpt lat="47.16737500" lon="-1.48003500"><ele>6.9</ele><time>2017-11-18T08:17:33Z</time></trkpt>
<trkpt lat="47.16724500" lon="-1.48005167"><ele>6.8</ele><time>2017-11-18T08:17:36Z</time></trkpt>
<trkpt lat="47.16711167" lon="-1.48010600"><ele>6.7</ele><time>2017-11-18T08:17:39Z</time></trkpt>
<trkpt lat="47.16697667" lon="-1.48016133"><ele>6.5</ele><time>2017-11-18T08:17:42Z</time></trkpt>
<trkpt lat="47.16686556" lon="-1.48021667"><ele>6.4</ele><time>2017-11-18T08:17:44Z</time></trkpt>
<trkpt lat="47.16675167" lon="-1.48028433"><ele>6.5</ele><time>2017-11-18T08:17:47Z</time></trkpt>
<trkpt lat="47.16662700" lon="-1.48036900"><ele>6.7</ele><time>2017-11-18T08:17:50Z</time></trkpt>
<trkpt lat="47.16649667" lon="-1.48045500"><ele>6.7</ele><time>2017-11-18T08:17:53Z</time></trkpt>
<trkpt lat="47.16639167" lon="-1.48053233"><ele>6.4</ele><time>2017-11-18T08:17:56Z</time></trkpt>
<trkpt lat="47.16627700" lon="-1.48061800"><ele>6.4</ele><time>2017-11-18T08:17:59Z</time></trkpt>
<trkpt lat="47.16615800" lon="-1.48070833"><ele>6.5</ele><time>2017-11-18T08:18:02Z</time></trkpt>
<trkpt lat="47.16603767" lon="-1.48080200"><ele>6.4</ele><time>2017-11-18T08:18:05Z</time></trkpt>
<trkpt lat="47.16591633" lon="-1.48088400"><ele>6.3</ele><time>2017-11-18T08:18:08Z</time></trkpt>
<trkpt lat="47.16579833" lon="-1.48095333"><ele>6.1</ele><time>2017-11-18T08:18:11Z</time></trkpt>
<trkpt lat="47.16569133" lon="-1.48101833"><ele>6.1</ele><time>2017-11-18T08:18:14Z</time></trkpt>
<trkpt lat="47.16560033" lon="-1.48108700"><ele>6</ele><time>2017-11-18T08:18:17Z</time></trkpt>
<trkpt lat="47.16552967" lon="-1.48118933"><ele>5.9</ele><time>2017-11-18T08:18:20Z</time></trkpt>
<trkpt lat="47.16545310" lon="-1.48128714"><ele>5.6</ele><time>2017-11-18T08:18:23Z</time></trkpt>
<trkpt lat="47.16534625" lon="-1.48131083"><ele>5.7</ele><time>2017-11-18T08:18:27Z</time></trkpt>
<trkpt lat="47.16523900" lon="-1.48133800"><ele>5.7</ele><time>2017-11-18T08:18:30Z</time></trkpt>
<trkpt lat="47.16511333" lon="-1.48135667"><ele>5.8</ele><time>2017-11-18T08:18:33Z</time></trkpt>
<trkpt lat="47.16505222" lon="-1.48127778"><ele>5.6</ele><time>2017-11-18T08:18:35Z</time></trkpt>
<trkpt lat="47.16501500" lon="-1.48117278"><ele>5.4</ele><time>2017-11-18T08:18:38Z</time></trkpt>
<trkpt lat="47.16497667" lon="-1.48104933"><ele>5.1</ele><time>2017-11-18T08:18:40Z</time></trkpt>
<trkpt lat="47.16494524" lon="-1.48092976"><ele>5.4</ele><time>2017-11-18T08:18:43Z</time></trkpt>
<trkpt lat="47.16491833" lon="-1.48083452"><ele>6.2</ele><time>2017-11-18T08:18:47Z</time></trkpt>
<trkpt lat="47.16485500" lon="-1.48074567"><ele>7</ele><time>2017-11-18T08:18:51Z</time></trkpt>
<trkpt lat="47.16482100" lon="-1.48062867"><ele>6.7</ele><time>2017-11-18T08:18:54Z</time></trkpt>
<trkpt lat="47.16475033" lon="-1.48053367"><ele>6.6</ele><time>2017-11-18T08:18:57Z</time></trkpt>
<trkpt lat="47.16466778" lon="-1.48045444"><ele>6.5</ele><time>2017-11-18T08:18:59Z</time></trkpt>
<trkpt lat="47.16461667" lon="-1.48035056"><ele>6.2</ele><time>2017-11-18T08:19:02Z</time></trkpt>
<trkpt lat="47.16458611" lon="-1.48023222"><ele>6.4</ele><time>2017-11-18T08:19:03Z</time></trkpt>
<trkpt lat="47.16455833" lon="-1.48011444"><ele>6.4</ele><time>2017-11-18T08:19:05Z</time></trkpt>
<trkpt lat="47.16453111" lon="-1.47999500"><ele>6.2</ele><time>2017-11-18T08:19:07Z</time></trkpt>
<trkpt lat="47.16450444" lon="-1.47987222"><ele>6.2</ele><time>2017-11-18T08:19:09Z</time></trkpt>
<trkpt lat="47.16447667" lon="-1.47974611"><ele>6.2</ele><time>2017-11-18T08:19:11Z</time></trkpt>
<trkpt lat="47.16444556" lon="-1.47961944"><ele>6.2</ele><time>2017-11-18T08:19:13Z</time></trkpt>
<trkpt lat="47.16441833" lon="-1.47948833"><ele>6.5</ele><time>2017-11-18T08:19:15Z</time></trkpt>
<trkpt lat="47.16438833" lon="-1.47935833"><ele>6.6</ele><time>2017-11-18T08:19:18Z</time></trkpt>
<trkpt lat="47.16435944" lon="-1.47923278"><ele>6.5</ele><time>2017-11-18T08:19:19Z</time></trkpt>
<trkpt lat="47.16433111" lon="-1.47910500"><ele>6.6</ele><time>2017-11-18T08:19:21Z</time></trkpt>
<trkpt lat="47.16430722" lon="-1.47897500"><ele>7</ele><time>2017-11-18T08:19:23Z</time></trkpt>
<trkpt lat="47.16428111" lon="-1.47884222"><ele>7.3</ele><time>2017-11-18T08:19:25Z</time></trkpt>
<trkpt lat="47.16425444" lon="-1.47871056"><ele>7.3</ele><time>2017-11-18T08:19:28Z</time></trkpt>
<trkpt lat="47.16422778" lon="-1.47858000"><ele>7.5</ele><time>2017-11-18T08:19:29Z</time></trkpt>
<trkpt lat="47.16419944" lon="-1.47845111"><ele>7.6</ele><time>2017-11-18T08:19:32Z</time></trkpt>
<trkpt lat="47.16417278" lon="-1.47832333"><ele>7.7</ele><time>2017-11-18T08:19:33Z</time></trkpt>
<trkpt lat="47.16414611" lon="-1.47819611"><ele>7.9</ele><time>2017-11-18T08:19:35Z</time></trkpt>
<trkpt lat="47.16411500" lon="-1.47804667"><ele>8.1</ele><time>2017-11-18T08:19:37Z</time></trkpt>
<trkpt lat="47.16409444" lon="-1.47794000"><ele>8.3</ele><time>2017-11-18T08:19:39Z</time></trkpt>
<trkpt lat="47.16406778" lon="-1.47781167"><ele>8.3</ele><time>2017-11-18T08:19:42Z</time></trkpt>
<trkpt lat="47.16404111" lon="-1.47768167"><ele>8.4</ele><time>2017-11-18T08:19:43Z</time></trkpt>
<trkpt lat="47.16401556" lon="-1.47755167"><ele>8.5</ele><time>2017-11-18T08:19:45Z</time></trkpt>
<trkpt lat="47.16398944" lon="-1.47742167"><ele>8.5</ele><time>2017-11-18T08:19:48Z</time></trkpt>
<trkpt lat="47.16396278" lon="-1.47729167"><ele>8.6</ele><time>2017-11-18T08:19:49Z</time></trkpt>
<trkpt lat="47.16393500" lon="-1.47716167"><ele>8.6</ele><time>2017-11-18T08:19:51Z</time></trkpt>
<trkpt lat="47.16390778" lon="-1.47703000"><ele>8.6</ele><time>2017-11-18T08:19:53Z</time></trkpt>
<trkpt lat="47.16387944" lon="-1.47690111"><ele>8.7</ele><time>2017-11-18T08:19:55Z</time></trkpt>
<trkpt lat="47.16384833" lon="-1.47675000"><ele>9</ele><time>2017-11-18T08:19:58Z</time></trkpt>
<trkpt lat="47.16382333" lon="-1.47664167"><ele>9.1</ele><time>2017-11-18T08:19:59Z</time></trkpt>
<trkpt lat="47.16379389" lon="-1.47651056"><ele>9.5</ele><time>2017-11-18T08:20:01Z</time></trkpt>
<trkpt lat="47.16376778" lon="-1.47637667"><ele>9.9</ele><time>2017-11-18T08:20:03Z</time></trkpt>
<trkpt lat="47.16374111" lon="-1.47624500"><ele>10.3</ele><time>2017-11-18T08:20:05Z</time></trkpt>
<trkpt lat="47.16371333" lon="-1.47609000"><ele>11.1</ele><time>2017-11-18T08:20:07Z</time></trkpt>
<trkpt lat="47.16368944" lon="-1.47598222"><ele>11.4</ele><time>2017-11-18T08:20:09Z</time></trkpt>
<trkpt lat="47.16366556" lon="-1.47584889"><ele>11.8</ele><time>2017-11-18T08:20:12Z</time></trkpt>
<trkpt lat="47.16364222" lon="-1.47571556"><ele>12.2</ele><time>2017-11-18T08:20:13Z</time></trkpt>
<trkpt lat="47.16361500" lon="-1.47558500"><ele>12.3</ele><time>2017-11-18T08:20:15Z</time></trkpt>
<trkpt lat="47.16359389" lon="-1.47545333"><ele>12.6</ele><time>2017-11-18T08:20:17Z</time></trkpt>
<trkpt lat="47.16356778" lon="-1.47532333"><ele>12.4</ele><time>2017-11-18T08:20:19Z</time></trkpt>
<trkpt lat="47.16353889" lon="-1.47519611"><ele>12.2</ele><time>2017-11-18T08:20:22Z</time></trkpt>
<trkpt lat="47.16350833" lon="-1.47506833"><ele>12.2</ele><time>2017-11-18T08:20:23Z</time></trkpt>
<trkpt lat="47.16347889" lon="-1.47493833"><ele>12.2</ele><time>2017-11-18T08:20:25Z</time></trkpt>
<trkpt lat="47.16343833" lon="-1.47478833"><ele>12.1</ele><time>2017-11-18T08:20:28Z</time></trkpt>
<trkpt lat="47.16340889" lon="-1.47468278"><ele>11.8</ele><time>2017-11-18T08:20:29Z</time></trkpt>
<trkpt lat="47.16337611" lon="-1.47455722"><ele>11.9</ele><time>2017-11-18T08:20:31Z</time></trkpt>
<trkpt lat="47.16334167" lon="-1.47443389"><ele>12</ele><time>2017-11-18T08:20:33Z</time></trkpt>
<trkpt lat="47.16331167" lon="-1.47431056"><ele>12</ele><time>2017-11-18T08:20:35Z</time></trkpt>
<trkpt lat="47.16328556" lon="-1.47418889"><ele>12.2</ele><time>2017-11-18T08:20:38Z</time></trkpt>
<trkpt lat="47.16326056" lon="-1.47406944"><ele>12.4</ele><time>2017-11-18T08:20:39Z</time></trkpt>
<trkpt lat="47.16323917" lon="-1.47396250"><ele>12.6</ele><time>2017-11-18T08:20:41Z</time></trkpt>
<trkpt lat="47.16321889" lon="-1.47383333"><ele>12.8</ele><time>2017-11-18T08:20:43Z</time></trkpt>
<trkpt lat="47.16320722" lon="-1.47371056"><ele>13.1</ele><time>2017-11-18T08:20:45Z</time></trkpt>
<trkpt lat="47.16318611" lon="-1.47358833"><ele>13.6</ele><time>2017-11-18T08:20:47Z</time></trkpt>
<trkpt lat="47.16316111" lon="-1.47346889"><ele>13.7</ele><time>2017-11-18T08:20:49Z</time></trkpt>
<trkpt lat="47.16316389" lon="-1.47334278"><ele>14.1</ele><time>2017-11-18T08:20:52Z</time></trkpt>
<trkpt lat="47.16318444" lon="-1.47321667"><ele>14.4</ele><time>2017-11-18T08:20:53Z</time></trkpt>
<trkpt lat="47.16318944" lon="-1.47308556"><ele>14.8</ele><time>2017-11-18T08:20:55Z</time></trkpt>
<trkpt lat="47.16316278" lon="-1.47295722"><ele>15.2</ele><time>2017-11-18T08:20:57Z</time></trkpt>
<trkpt lat="47.16312500" lon="-1.47283778"><ele>15.5</ele><time>2017-11-18T08:20:59Z</time></trkpt>
<trkpt lat="47.16308667" lon="-1.47272111"><ele>15.7</ele><time>2017-11-18T08:21:01Z</time></trkpt>
<trkpt lat="47.16304944" lon="-1.47260611"><ele>16</ele><time>2017-11-18T08:21:03Z</time></trkpt>
<trkpt lat="47.16301167" lon="-1.47248944"><ele>16.200001</ele><time>2017-11-18T08:21:05Z</time></trkpt>
<trkpt lat="47.16297611" lon="-1.47237167"><ele>16.5</ele><time>2017-11-18T08:21:08Z</time></trkpt>
<trkpt lat="47.16293944" lon="-1.47225444"><ele>16.799999</ele><time>2017-11-18T08:21:09Z</time></trkpt>
<trkpt lat="47.16290111" lon="-1.47213778"><ele>17.1</ele><time>2017-11-18T08:21:11Z</time></trkpt>
<trkpt lat="47.16286722" lon="-1.47202222"><ele>17.299999</ele><time>2017-11-18T08:21:13Z</time></trkpt>
<trkpt lat="47.16283389" lon="-1.47190889"><ele>17.700001</ele><time>2017-11-18T08:21:15Z</time></trkpt>
<trkpt lat="47.16279833" lon="-1.47178167"><ele>18.200001</ele><time>2017-11-18T08:21:18Z</time></trkpt>
<trkpt lat="47.16277333" lon="-1.47169278"><ele>18.5</ele><time>2017-11-18T08:21:19Z</time></trkpt>
<trkpt lat="47.16274444" lon="-1.47158889"><ele>18.799999</ele><time>2017-11-18T08:21:22Z</time></trkpt>
<trkpt lat="47.16271889" lon="-1.47148444"><ele>19.200001</ele><time>2017-11-18T08:21:23Z</time></trkpt>
<trkpt lat="47.16269389" lon="-1.47138056"><ele>19.5</ele><time>2017-11-18T08:21:25Z</time></trkpt>
<trkpt lat="47.16266667" lon="-1.47125833"><ele>19.9</ele><time>2017-11-18T08:21:27Z</time></trkpt>
<trkpt lat="47.16264889" lon="-1.47117056"><ele>20.200001</ele><time>2017-11-18T08:21:29Z</time></trkpt>
<trkpt lat="47.16263056" lon="-1.47106444"><ele>20.6</ele><time>2017-11-18T08:21:32Z</time></trkpt>
<trkpt lat="47.16261556" lon="-1.47095667"><ele>20.9</ele><time>2017-11-18T08:21:33Z</time></trkpt>
<trkpt lat="47.16259944" lon="-1.47084667"><ele>21.4</ele><time>2017-11-18T08:21:35Z</time></trkpt>
<trkpt lat="47.16258278" lon="-1.47073667"><ele>21.799999</ele><time>2017-11-18T08:21:37Z</time></trkpt>
<trkpt lat="47.16256722" lon="-1.47062667"><ele>22.200001</ele><time>2017-11-18T08:21:39Z</time></trkpt>
<trkpt lat="47.16255500" lon="-1.47051556"><ele>22.700001</ele><time>2017-11-18T08:21:41Z</time></trkpt>
<trkpt lat="47.16254444" lon="-1.47040389"><ele>23.1</ele><time>2017-11-18T08:21:43Z</time></trkpt>
<trkpt lat="47.16253667" lon="-1.47029056"><ele>23.5</ele><time>2017-11-18T08:21:45Z</time></trkpt>
<trkpt lat="47.16252944" lon="-1.47017833"><ele>23.799999</ele><time>2017-11-18T08:21:48Z</time></trkpt>
<trkpt lat="47.16252667" lon="-1.47006556"><ele>24.200001</ele><time>2017-11-18T08:21:49Z</time></trkpt>
<trkpt lat="47.16252500" lon="-1.46995389"><ele>24.6</ele><time>2017-11-18T08:21:51Z</time></trkpt>
<trkpt lat="47.16252500" lon="-1.46984222"><ele>25</ele><time>2017-11-18T08:21:53Z</time></trkpt>
<trkpt lat="47.16252611" lon="-1.46972889"><ele>25.4</ele><time>2017-11-18T08:21:55Z</time></trkpt>
<trkpt lat="47.16252778" lon="-1.46961556"><ele>25.700001</ele><time>2017-11-18T08:21:58Z</time></trkpt>
<trkpt lat="47.16253389" lon="-1.46950222"><ele>26</ele><time>2017-11-18T08:21:59Z</time></trkpt>
<trkpt lat="47.16254056" lon="-1.46938611"><ele>26.200001</ele><time>2017-11-18T08:22:02Z</time></trkpt>
<trkpt lat="47.16254722" lon="-1.46927111"><ele>26.5</ele><time>2017-11-18T08:22:03Z</time></trkpt>
<trkpt lat="47.16255389" lon="-1.46915722"><ele>26.700001</ele><time>2017-11-18T08:22:05Z</time></trkpt>
<trkpt lat="47.16256056" lon="-1.46904389"><ele>26.9</ele><time>2017-11-18T08:22:07Z</time></trkpt>
<trkpt lat="47.16256611" lon="-1.46893222"><ele>27</ele><time>2017-11-18T08:22:09Z</time></trkpt>
<trkpt lat="47.16257222" lon="-1.46881889"><ele>27.200001</ele><time>2017-11-18T08:22:12Z</time></trkpt>
<trkpt lat="47.16257889" lon="-1.46870389"><ele>27.299999</ele><time>2017-11-18T08:22:13Z</time></trkpt>
<trkpt lat="47.16258556" lon="-1.46859056"><ele>27.6</ele><time>2017-11-18T08:22:15Z</time></trkpt>
<trkpt lat="47.16259000" lon="-1.46845667"><ele>27.799999</ele><time>2017-11-18T08:22:17Z</time></trkpt>
<trkpt lat="47.16257889" lon="-1.46836333"><ele>28</ele><time>2017-11-18T08:22:19Z</time></trkpt>
<trkpt lat="47.16255333" lon="-1.46826250"><ele>28.1</ele><time>2017-11-18T08:22:21Z</time></trkpt>
<trkpt lat="47.16253722" lon="-1.46814056"><ele>28.299999</ele><time>2017-11-18T08:22:23Z</time></trkpt>
<trkpt lat="47.16255333" lon="-1.46803111"><ele>28.4</ele><time>2017-11-18T08:22:25Z</time></trkpt>
<trkpt lat="47.16259278" lon="-1.46792833"><ele>28.5</ele><time>2017-11-18T08:22:28Z</time></trkpt>
<trkpt lat="47.16263389" lon="-1.46782056"><ele>28.5</ele><time>2017-11-18T08:22:29Z</time></trkpt>
<trkpt lat="47.16266000" lon="-1.46770333"><ele>28.6</ele><time>2017-11-18T08:22:31Z</time></trkpt>
<trkpt lat="47.16267611" lon="-1.46758056"><ele>28.6</ele><time>2017-11-18T08:22:33Z</time></trkpt>
<trkpt lat="47.16268944" lon="-1.46745556"><ele>28.700001</ele><time>2017-11-18T08:22:35Z</time></trkpt>
<trkpt lat="47.16270278" lon="-1.46732944"><ele>28.799999</ele><time>2017-11-18T08:22:38Z</time></trkpt>
<trkpt lat="47.16271778" lon="-1.46720556"><ele>29</ele><time>2017-11-18T08:22:39Z</time></trkpt>
<trkpt lat="47.16273167" lon="-1.46709083"><ele>29.1</ele><time>2017-11-18T08:22:41Z</time></trkpt>
<trkpt lat="47.16274611" lon="-1.46695611"><ele>29.4</ele><time>2017-11-18T08:22:43Z</time></trkpt>
<trkpt lat="47.16275944" lon="-1.46683389"><ele>29.700001</ele><time>2017-11-18T08:22:45Z</time></trkpt>
<trkpt lat="47.16277500" lon="-1.46669333"><ele>30.1</ele><time>2017-11-18T08:22:47Z</time></trkpt>
<trkpt lat="47.16278444" lon="-1.46659611"><ele>30.4</ele><time>2017-11-18T08:22:49Z</time></trkpt>
<trkpt lat="47.16279667" lon="-1.46648333"><ele>30.700001</ele><time>2017-11-18T08:22:52Z</time></trkpt>
<trkpt lat="47.16280667" lon="-1.46637333"><ele>31.1</ele><time>2017-11-18T08:22:53Z</time></trkpt>
<trkpt lat="47.16281667" lon="-1.46626333"><ele>31.5</ele><time>2017-11-18T08:22:55Z</time></trkpt>
<trkpt lat="47.16282667" lon="-1.46615500"><ele>31.9</ele><time>2017-11-18T08:22:57Z</time></trkpt>
<trkpt lat="47.16283944" lon="-1.46604389"><ele>32.299999</ele><time>2017-11-18T08:22:59Z</time></trkpt>
<trkpt lat="47.16285000" lon="-1.46593222"><ele>32.599998</ele><time>2017-11-18T08:23:01Z</time></trkpt>
<trkpt lat="47.16286111" lon="-1.46581778"><ele>33</ele><time>2017-11-18T08:23:03Z</time></trkpt>
<trkpt lat="47.16287167" lon="-1.46570278"><ele>33.299999</ele><time>2017-11-18T08:23:05Z</time></trkpt>
<trkpt lat="47.16288278" lon="-1.46558611"><ele>33.700001</ele><time>2017-11-18T08:23:07Z</time></trkpt>
<trkpt lat="47.16289444" lon="-1.46546833"><ele>34</ele><time>2017-11-18T08:23:09Z</time></trkpt>
<trkpt lat="47.16290500" lon="-1.46535000"><ele>34.299999</ele><time>2017-11-18T08:23:11Z</time></trkpt>
<trkpt lat="47.16291667" lon="-1.46523000"><ele>34.599998</ele><time>2017-11-18T08:23:13Z</time></trkpt>
<trkpt lat="47.16292944" lon="-1.46511000"><ele>34.900002</ele><time>2017-11-18T08:23:15Z</time></trkpt>
<trkpt lat="47.16294667" lon="-1.46497000"><ele>35.200001</ele><time>2017-11-18T08:23:18Z</time></trkpt>
<trkpt lat="47.16295778" lon="-1.46487000"><ele>35.400002</ele><time>2017-11-18T08:23:19Z</time></trkpt>
<trkpt lat="47.16297222" lon="-1.46474611"><ele>35.5</ele><time>2017-11-18T08:23:22Z</time></trkpt>
<trkpt lat="47.16299000" lon="-1.46461667"><ele>35.700001</ele><time>2017-11-18T08:23:23Z</time></trkpt>
<trkpt lat="47.16300833" lon="-1.46449222"><ele>35.900002</ele><time>2017-11-18T08:23:25Z</time></trkpt>
<trkpt lat="47.16302833" lon="-1.46436889"><ele>36.099998</ele><time>2017-11-18T08:23:27Z</time></trkpt>
<trkpt lat="47.16305111" lon="-1.46424444"><ele>36.200001</ele><time>2017-11-18T08:23:29Z</time></trkpt>
<trkpt lat="47.16307722" lon="-1.46411944"><ele>36.299999</ele><time>2017-11-18T08:23:32Z</time></trkpt>
<trkpt lat="47.16310667" lon="-1.46399389"><ele>36.5</ele><time>2017-11-18T08:23:33Z</time></trkpt>
<trkpt lat="47.16313778" lon="-1.46387222"><ele>36.599998</ele><time>2017-11-18T08:23:35Z</time></trkpt>
<trkpt lat="47.16316944" lon="-1.46375333"><ele>36.700001</ele><time>2017-11-18T08:23:37Z</time></trkpt>
<trkpt lat="47.16320556" lon="-1.46363333"><ele>36.799999</ele><time>2017-11-18T08:23:39Z</time></trkpt>
<trkpt lat="47.16324500" lon="-1.46351167"><ele>36.900002</ele><time>2017-11-18T08:23:41Z</time></trkpt>
<trkpt lat="47.16328611" lon="-1.46339000"><ele>37</ele><time>2017-11-18T08:23:43Z</time></trkpt>
<trkpt lat="47.16332944" lon="-1.46327278"><ele>37.099998</ele><time>2017-11-18T08:23:45Z</time></trkpt>
<trkpt lat="47.16337444" lon="-1.46315611"><ele>37.200001</ele><time>2017-11-18T08:23:48Z</time></trkpt>
<trkpt lat="47.16342167" lon="-1.46304222"><ele>37.299999</ele><time>2017-11-18T08:23:49Z</time></trkpt>
<trkpt lat="47.16347167" lon="-1.46293278"><ele>37.400002</ele><time>2017-11-18T08:23:51Z</time></trkpt>
<trkpt lat="47.16352278" lon="-1.46282611"><ele>37.400002</ele><time>2017-11-18T08:23:53Z</time></trkpt>
<trkpt lat="47.16357444" lon="-1.46272056"><ele>37.5</ele><time>2017-11-18T08:23:55Z</time></trkpt>
<trkpt lat="47.16362778" lon="-1.46261833"><ele>37.599998</ele><time>2017-11-18T08:23:58Z</time></trkpt>
<trkpt lat="47.16368500" lon="-1.46252056"><ele>37.599998</ele><time>2017-11-18T08:23:59Z</time></trkpt>
<trkpt lat="47.16374333" lon="-1.46242556"><ele>37.700001</ele><time>2017-11-18T08:24:02Z</time></trkpt>
<trkpt lat="47.16380167" lon="-1.46233389"><ele>37.799999</ele><time>2017-11-18T08:24:03Z</time></trkpt>
<trkpt lat="47.16386556" lon="-1.46223944"><ele>37.799999</ele><time>2017-11-18T08:24:05Z</time></trkpt>
<trkpt lat="47.16393056" lon="-1.46214556"><ele>37.900002</ele><time>2017-11-18T08:24:07Z</time></trkpt>
<trkpt lat="47.16399722" lon="-1.46205500"><ele>38</ele><time>2017-11-18T08:24:09Z</time></trkpt>
<trkpt lat="47.16408533" lon="-1.46194300"><ele>38</ele><time>2017-11-18T08:24:12Z</time></trkpt>
<trkpt lat="47.16419467" lon="-1.46181167"><ele>38</ele><time>2017-11-18T08:24:15Z</time></trkpt>
<trkpt lat="47.16430700" lon="-1.46167967"><ele>38.200001</ele><time>2017-11-18T08:24:18Z</time></trkpt>
<trkpt lat="47.16442200" lon="-1.46154900"><ele>38.299999</ele><time>2017-11-18T08:24:21Z</time></trkpt>
<trkpt lat="47.16453700" lon="-1.46141733"><ele>38.400002</ele><time>2017-11-18T08:24:24Z</time></trkpt>
<trkpt lat="47.16464958" lon="-1.46128583"><ele>38.400002</ele><time>2017-11-18T08:24:27Z</time></trkpt>
<trkpt lat="47.16475300" lon="-1.46116767"><ele>38.400002</ele><time>2017-11-18T08:24:30Z</time></trkpt>
<trkpt lat="47.16486750" lon="-1.46103333"><ele>38.5</ele><time>2017-11-18T08:24:33Z</time></trkpt>
<trkpt lat="47.16496133" lon="-1.46092467"><ele>38.700001</ele><time>2017-11-18T08:24:36Z</time></trkpt>
<trkpt lat="47.16503944" lon="-1.46080833"><ele>38.700001</ele><time>2017-11-18T08:24:38Z</time></trkpt>
<trkpt lat="47.16507278" lon="-1.46068111"><ele>38.5</ele><time>2017-11-18T08:24:40Z</time></trkpt>
<trkpt lat="47.16510833" lon="-1.46052333"><ele>38.299999</ele><time>2017-11-18T08:24:42Z</time></trkpt>
<trkpt lat="47.16515722" lon="-1.46042611"><ele>38.099998</ele><time>2017-11-18T08:24:44Z</time></trkpt>
<trkpt lat="47.16523833" lon="-1.46035056"><ele>38</ele><time>2017-11-18T08:24:47Z</time></trkpt>
<trkpt lat="47.16535567" lon="-1.46034167"><ele>38.200001</ele><time>2017-11-18T08:24:49Z</time></trkpt>
<trkpt lat="47.16545700" lon="-1.46041867"><ele>38.599998</ele><time>2017-11-18T08:24:52Z</time></trkpt>
<trkpt lat="47.16552533" lon="-1.46052833"><ele>39</ele><time>2017-11-18T08:24:55Z</time></trkpt>
<trkpt lat="47.16560933" lon="-1.46059533"><ele>39.400002</ele><time>2017-11-18T08:24:58Z</time></trkpt>
<trkpt lat="47.16570300" lon="-1.46053800"><ele>39.799999</ele><time>2017-11-18T08:25:01Z</time></trkpt>
<trkpt lat="47.16580100" lon="-1.46044400"><ele>40.200001</ele><time>2017-11-18T08:25:04Z</time></trkpt>
<trkpt lat="47.16590167" lon="-1.46033542"><ele>40.599998</ele><time>2017-11-18T08:25:07Z</time></trkpt>
<trkpt lat="47.16600167" lon="-1.46023133"><ele>40.900002</ele><time>2017-11-18T08:25:10Z</time></trkpt>
<trkpt lat="47.16610100" lon="-1.46012800"><ele>41</ele><time>2017-11-18T08:25:13Z</time></trkpt>
<trkpt lat="47.16620433" lon="-1.46002000"><ele>41.200001</ele><time>2017-11-18T08:25:16Z</time></trkpt>
<trkpt lat="47.16631033" lon="-1.45991233"><ele>41.200001</ele><time>2017-11-18T08:25:19Z</time></trkpt>
<trkpt lat="47.16641600" lon="-1.45980967"><ele>41.200001</ele><time>2017-11-18T08:25:22Z</time></trkpt>
<trkpt lat="47.16652700" lon="-1.45971700"><ele>41.299999</ele><time>2017-11-18T08:25:25Z</time></trkpt>
<trkpt lat="47.16664167" lon="-1.45962100"><ele>41.400002</ele><time>2017-11-18T08:25:28Z</time></trkpt>
<trkpt lat="47.16676233" lon="-1.45953267"><ele>41.599998</ele><time>2017-11-18T08:25:31Z</time></trkpt>
<trkpt lat="47.16688133" lon="-1.45945300"><ele>41.799999</ele><time>2017-11-18T08:25:34Z</time></trkpt>
<trkpt lat="47.16700400" lon="-1.45937000"><ele>42</ele><time>2017-11-18T08:25:37Z</time></trkpt>
<trkpt lat="47.16713433" lon="-1.45927933"><ele>42.099998</ele><time>2017-11-18T08:25:40Z</time></trkpt>
<trkpt lat="47.16726700" lon="-1.45918733"><ele>42.200001</ele><time>2017-11-18T08:25:43Z</time></trkpt>
<trkpt lat="47.16739133" lon="-1.45909733"><ele>42.299999</ele><time>2017-11-18T08:25:46Z</time></trkpt>
<trkpt lat="47.16751133" lon="-1.45901000"><ele>42.400002</ele><time>2017-11-18T08:25:49Z</time></trkpt>
<trkpt lat="47.16763067" lon="-1.45893700"><ele>42.599998</ele><time>2017-11-18T08:25:52Z</time></trkpt>
<trkpt lat="47.16774767" lon="-1.45885900"><ele>42.700001</ele><time>2017-11-18T08:25:55Z</time></trkpt>
<trkpt lat="47.16786133" lon="-1.45877867"><ele>42.799999</ele><time>2017-11-18T08:25:58Z</time></trkpt>
<trkpt lat="47.16797433" lon="-1.45869833"><ele>42.900002</ele><time>2017-11-18T08:26:01Z</time></trkpt>
<trkpt lat="47.16809367" lon="-1.45861433"><ele>43</ele><time>2017-11-18T08:26:04Z</time></trkpt>
<trkpt lat="47.16822033" lon="-1.45852933"><ele>43.099998</ele><time>2017-11-18T08:26:07Z</time></trkpt>
<trkpt lat="47.16835267" lon="-1.45844367"><ele>43.099998</ele><time>2017-11-18T08:26:10Z</time></trkpt>
<trkpt lat="47.16848100" lon="-1.45836400"><ele>43.099998</ele><time>2017-11-18T08:26:13Z</time></trkpt>
<trkpt lat="47.16859200" lon="-1.45829133"><ele>43.099998</ele><time>2017-11-18T08:26:16Z</time></trkpt>
<trkpt lat="47.16868967" lon="-1.45822433"><ele>43.099998</ele><time>2017-11-18T08:26:19Z</time></trkpt>
<trkpt lat="47.16876750" lon="-1.45812875"><ele>43.299999</ele><time>2017-11-18T08:26:22Z</time></trkpt>
<trkpt lat="47.16877444" lon="-1.45801000"><ele>43.400002</ele><time>2017-11-18T08:26:24Z</time></trkpt>
<trkpt lat="47.16876167" lon="-1.45789278"><ele>43.400002</ele><time>2017-11-18T08:26:26Z</time></trkpt>
<trkpt lat="47.16876889" lon="-1.45775944"><ele>43.299999</ele><time>2017-11-18T08:26:28Z</time></trkpt>
<trkpt lat="47.16878833" lon="-1.45761889"><ele>43.5</ele><time>2017-11-18T08:26:30Z</time></trkpt>
<trkpt lat="47.16879500" lon="-1.45747556"><ele>43.599998</ele><time>2017-11-18T08:26:32Z</time></trkpt>
<trkpt lat="47.16878944" lon="-1.45733167"><ele>43.599998</ele><time>2017-11-18T08:26:34Z</time></trkpt>
<trkpt lat="47.16878000" lon="-1.45719278"><ele>43.799999</ele><time>2017-11-18T08:26:37Z</time></trkpt>
<trkpt lat="47.16877167" lon="-1.45705722"><ele>43.900002</ele><time>2017-11-18T08:26:38Z</time></trkpt>
<trkpt lat="47.16876167" lon="-1.45692500"><ele>43.900002</ele><time>2017-11-18T08:26:40Z</time></trkpt>
<trkpt lat="47.16875167" lon="-1.45679222"><ele>43.900002</ele><time>2017-11-18T08:26:42Z</time></trkpt>
<trkpt lat="47.16873889" lon="-1.45665611"><ele>43.799999</ele><time>2017-11-18T08:26:44Z</time></trkpt>
<trkpt lat="47.16872556" lon="-1.45651556"><ele>43.599998</ele><time>2017-11-18T08:26:47Z</time></trkpt>
<trkpt lat="47.16871333" lon="-1.45636944"><ele>43.5</ele><time>2017-11-18T08:26:48Z</time></trkpt>
<trkpt lat="47.16870611" lon="-1.45622167"><ele>43.5</ele><time>2017-11-18T08:26:50Z</time></trkpt>
<trkpt lat="47.16869667" lon="-1.45605000"><ele>43.299999</ele><time>2017-11-18T08:26:53Z</time></trkpt>
<trkpt lat="47.16869111" lon="-1.45592611"><ele>43.200001</ele><time>2017-11-18T08:26:54Z</time></trkpt>
<trkpt lat="47.16868444" lon="-1.45577944"><ele>43.099998</ele><time>2017-11-18T08:26:56Z</time></trkpt>
<trkpt lat="47.16867778" lon="-1.45563167"><ele>43</ele><time>2017-11-18T08:26:58Z</time></trkpt>
<trkpt lat="47.16867278" lon="-1.45548444"><ele>42.900002</ele><time>2017-11-18T08:27:00Z</time></trkpt>
<trkpt lat="47.16866833" lon="-1.45531500"><ele>42.900002</ele><time>2017-11-18T08:27:03Z</time></trkpt>
<trkpt lat="47.16866944" lon="-1.45519556"><ele>42.900002</ele><time>2017-11-18T08:27:04Z</time></trkpt>
<trkpt lat="47.16867167" lon="-1.45506500"><ele>42.900002</ele><time>2017-11-18T08:27:06Z</time></trkpt>
<trkpt lat="47.16867722" lon="-1.45491167"><ele>42.700001</ele><time>2017-11-18T08:27:08Z</time></trkpt>
<trkpt lat="47.16868389" lon="-1.45476889"><ele>42.599998</ele><time>2017-11-18T08:27:10Z</time></trkpt>
<trkpt lat="47.16869167" lon="-1.45459833"><ele>42.299999</ele><time>2017-11-18T08:27:12Z</time></trkpt>
<trkpt lat="47.16869444" lon="-1.45447611"><ele>42.299999</ele><time>2017-11-18T08:27:14Z</time></trkpt>
<trkpt lat="47.16869833" lon="-1.45434250"><ele>42.200001</ele><time>2017-11-18T08:27:16Z</time></trkpt>
<trkpt lat="47.16870444" lon="-1.45419167"><ele>42.200001</ele><time>2017-11-18T08:27:18Z</time></trkpt>
<trkpt lat="47.16870500" lon="-1.45405333"><ele>42.099998</ele><time>2017-11-18T08:27:20Z</time></trkpt>
<trkpt lat="47.16870500" lon="-1.45389000"><ele>42.099998</ele><time>2017-11-18T08:27:22Z</time></trkpt>
<trkpt lat="47.16870667" lon="-1.45377333"><ele>42.200001</ele><time>2017-11-18T08:27:24Z</time></trkpt>
<trkpt lat="47.16870556" lon="-1.45363333"><ele>42.299999</ele><time>2017-11-18T08:27:27Z</time></trkpt>
<trkpt lat="47.16870611" lon="-1.45348944"><ele>42.700001</ele><time>2017-11-18T08:27:28Z</time></trkpt>
<trkpt lat="47.16870389" lon="-1.45334444"><ele>42.900002</ele><time>2017-11-18T08:27:30Z</time></trkpt>
<trkpt lat="47.16870444" lon="-1.45319389"><ele>43.200001</ele><time>2017-11-18T08:27:33Z</time></trkpt>
<trkpt lat="47.16870222" lon="-1.45304056"><ele>43.299999</ele><time>2017-11-18T08:27:34Z</time></trkpt>
<trkpt lat="47.16870000" lon="-1.45289917"><ele>43.299999</ele><time>2017-11-18T08:27:36Z</time></trkpt>
<trkpt lat="47.16869778" lon="-1.45272944"><ele>43.299999</ele><time>2017-11-18T08:27:38Z</time></trkpt>
<trkpt lat="47.16869000" lon="-1.45257389"><ele>43.400002</ele><time>2017-11-18T08:27:40Z</time></trkpt>
<trkpt lat="47.16867889" lon="-1.45242167"><ele>43.599998</ele><time>2017-11-18T08:27:43Z</time></trkpt>
<trkpt lat="47.16866667" lon="-1.45227333"><ele>43.700001</ele><time>2017-11-18T08:27:44Z</time></trkpt>
<trkpt lat="47.16865667" lon="-1.45213750"><ele>43.799999</ele><time>2017-11-18T08:27:46Z</time></trkpt>
<trkpt lat="47.16864611" lon="-1.45197500"><ele>44</ele><time>2017-11-18T08:27:48Z</time></trkpt>
<trkpt lat="47.16864500" lon="-1.45182500"><ele>44</ele><time>2017-11-18T08:27:50Z</time></trkpt>
<trkpt lat="47.16864889" lon="-1.45167333"><ele>44.099998</ele><time>2017-11-18T08:27:52Z</time></trkpt>
<trkpt lat="47.16865833" lon="-1.45152722"><ele>44.299999</ele><time>2017-11-18T08:27:54Z</time></trkpt>
<trkpt lat="47.16867167" lon="-1.45139417"><ele>44.5</ele><time>2017-11-18T08:27:56Z</time></trkpt>
<trkpt lat="47.16868778" lon="-1.45123889"><ele>44.599998</ele><time>2017-11-18T08:27:58Z</time></trkpt>
<trkpt lat="47.16870000" lon="-1.45110056"><ele>44.799999</ele><time>2017-11-18T08:28:00Z</time></trkpt>
<trkpt lat="47.16871167" lon="-1.45097500"><ele>44.900002</ele><time>2017-11-18T08:28:02Z</time></trkpt>
<trkpt lat="47.16872167" lon="-1.45086611"><ele>45.200001</ele><time>2017-11-18T08:28:04Z</time></trkpt>
<trkpt lat="47.16873000" lon="-1.45076278"><ele>45.5</ele><time>2017-11-18T08:28:06Z</time></trkpt>
<trkpt lat="47.16877405" lon="-1.45065262"><ele>45.599998</ele><time>2017-11-18T08:28:09Z</time></trkpt>
<trkpt lat="47.16889333" lon="-1.45063600"><ele>45.200001</ele><time>2017-11-18T08:28:13Z</time></trkpt>
<trkpt lat="47.16901042" lon="-1.45064125"><ele>44.799999</ele><time>2017-11-18T08:28:16Z</time></trkpt>
<trkpt lat="47.16913444" lon="-1.45064611"><ele>44.400002</ele><time>2017-11-18T08:28:18Z</time></trkpt>
<trkpt lat="47.16922778" lon="-1.45064944"><ele>44.099998</ele><time>2017-11-18T08:28:20Z</time></trkpt>
<trkpt lat="47.16933500" lon="-1.45065333"><ele>43.700001</ele><time>2017-11-18T08:28:23Z</time></trkpt>
<trkpt lat="47.16941389" lon="-1.45065611"><ele>43.5</ele><time>2017-11-18T08:28:24Z</time></trkpt>
<trkpt lat="47.16950167" lon="-1.45065750"><ele>43.200001</ele><time>2017-11-18T08:28:26Z</time></trkpt>
<trkpt lat="47.16961367" lon="-1.45065633"><ele>42.900002</ele><time>2017-11-18T08:28:29Z</time></trkpt>
<trkpt lat="47.16971648" lon="-1.45065074"><ele>42.5</ele><time>2017-11-18T08:28:33Z</time></trkpt>
<trkpt lat="47.16978133" lon="-1.45057233"><ele>42.200001</ele><time>2017-11-18T08:28:37Z</time></trkpt>
<trkpt lat="47.16977611" lon="-1.45044778"><ele>42.200001</ele><time>2017-11-18T08:28:39Z</time></trkpt>
<trkpt lat="47.16976556" lon="-1.45033833"><ele>42.299999</ele><time>2017-11-18T08:28:42Z</time></trkpt>
<trkpt lat="47.16974833" lon="-1.45022278"><ele>42.299999</ele><time>2017-11-18T08:28:43Z</time></trkpt>
<trkpt lat="47.16973222" lon="-1.45010611"><ele>42.400002</ele><time>2017-11-18T08:28:45Z</time></trkpt>
<trkpt lat="47.16971500" lon="-1.44999222"><ele>42.5</ele><time>2017-11-18T08:28:48Z</time></trkpt>
<trkpt lat="47.16969722" lon="-1.44987778"><ele>42.5</ele><time>2017-11-18T08:28:49Z</time></trkpt>
<trkpt lat="47.16968667" lon="-1.44976000"><ele>42.5</ele><time>2017-11-18T08:28:51Z</time></trkpt>
<trkpt lat="47.16968111" lon="-1.44963444"><ele>42.400002</ele><time>2017-11-18T08:28:53Z</time></trkpt>
<trkpt lat="47.16967944" lon="-1.44950778"><ele>42.400002</ele><time>2017-11-18T08:28:55Z</time></trkpt>
<trkpt lat="47.16968667" lon="-1.44938000"><ele>42.200001</ele><time>2017-11-18T08:28:58Z</time></trkpt>
<trkpt lat="47.16969944" lon="-1.44925278"><ele>42.099998</ele><time>2017-11-18T08:28:59Z</time></trkpt>
<trkpt lat="47.16971333" lon="-1.44913250"><ele>42</ele><time>2017-11-18T08:29:01Z</time></trkpt>
<trkpt lat="47.16972222" lon="-1.44899444"><ele>41.700001</ele><time>2017-11-18T08:29:03Z</time></trkpt>
<trkpt lat="47.16972889" lon="-1.44886889"><ele>41.5</ele><time>2017-11-18T08:29:05Z</time></trkpt>
<trkpt lat="47.16974000" lon="-1.44873167"><ele>41.299999</ele><time>2017-11-18T08:29:07Z</time></trkpt>
<trkpt lat="47.16975111" lon="-1.44864000"><ele>41.099998</ele><time>2017-11-18T08:29:09Z</time></trkpt>
<trkpt lat="47.16976556" lon="-1.44853000"><ele>40.900002</ele><time>2017-11-18T08:29:12Z</time></trkpt>
<trkpt lat="47.16978222" lon="-1.44842056"><ele>40.599998</ele><time>2017-11-18T08:29:13Z</time></trkpt>
<trkpt lat="47.16980278" lon="-1.44830833"><ele>40.299999</ele><time>2017-11-18T08:29:15Z</time></trkpt>
<trkpt lat="47.16982722" lon="-1.44819944"><ele>40</ele><time>2017-11-18T08:29:17Z</time></trkpt>
<trkpt lat="47.16985389" lon="-1.44809778"><ele>39.799999</ele><time>2017-11-18T08:29:19Z</time></trkpt>
<trkpt lat="47.16989767" lon="-1.44798700"><ele>39.599998</ele><time>2017-11-18T08:29:22Z</time></trkpt>
<trkpt lat="47.16997524" lon="-1.44787810"><ele>39.200001</ele><time>2017-11-18T08:29:25Z</time></trkpt>
<trkpt lat="47.17007067" lon="-1.44787367"><ele>39.099998</ele><time>2017-11-18T08:29:29Z</time></trkpt>
<trkpt lat="47.17017750" lon="-1.44792833"><ele>38.799999</ele><time>2017-11-18T08:29:32Z</time></trkpt>
<trkpt lat="47.17028300" lon="-1.44800367"><ele>38.700001</ele><time>2017-11-18T08:29:35Z</time></trkpt>
<trkpt lat="47.17040667" lon="-1.44804083"><ele>38.599998</ele><time>2017-11-18T08:29:39Z</time></trkpt>
<trkpt lat="47.17041667" lon="-1.44789500"><ele>38.5</ele><time>2017-11-18T08:29:43Z</time></trkpt>
<trkpt lat="47.17040000" lon="-1.44779722"><ele>38.400002</ele><time>2017-11-18T08:29:44Z</time></trkpt>
<trkpt lat="47.17037917" lon="-1.44768417"><ele>38.299999</ele><time>2017-11-18T08:29:46Z</time></trkpt>
<trkpt lat="47.17035778" lon="-1.44755056"><ele>38.200001</ele><time>2017-11-18T08:29:48Z</time></trkpt>
<trkpt lat="47.17033944" lon="-1.44742444"><ele>38.099998</ele><time>2017-11-18T08:29:50Z</time></trkpt>
<trkpt lat="47.17032000" lon="-1.44727000"><ele>38</ele><time>2017-11-18T08:29:52Z</time></trkpt>
<trkpt lat="47.17030778" lon="-1.44716389"><ele>38</ele><time>2017-11-18T08:29:54Z</time></trkpt>
<trkpt lat="47.17030389" lon="-1.44704000"><ele>38.099998</ele><time>2017-11-18T08:29:57Z</time></trkpt>
<trkpt lat="47.17035467" lon="-1.44690867"><ele>37.799999</ele><time>2017-11-18T08:29:59Z</time></trkpt>
<trkpt lat="47.17045000" lon="-1.44681722"><ele>37.299999</ele><time>2017-11-18T08:30:01Z</time></trkpt>
<trkpt lat="47.17054278" lon="-1.44675500"><ele>36.900002</ele><time>2017-11-18T08:30:03Z</time></trkpt>
<trkpt lat="47.17064167" lon="-1.44669611"><ele>36.700001</ele><time>2017-11-18T08:30:05Z</time></trkpt>
<trkpt lat="47.17074056" lon="-1.44664500"><ele>36.599998</ele><time>2017-11-18T08:30:08Z</time></trkpt>
<trkpt lat="47.17083889" lon="-1.44659889"><ele>36.5</ele><time>2017-11-18T08:30:09Z</time></trkpt>
<trkpt lat="47.17093556" lon="-1.44655833"><ele>36.599998</ele><time>2017-11-18T08:30:11Z</time></trkpt>
<trkpt lat="47.17103222" lon="-1.44652111"><ele>36.700001</ele><time>2017-11-18T08:30:13Z</time></trkpt>
<trkpt lat="47.17112778" lon="-1.44648167"><ele>36.900002</ele><time>2017-11-18T08:30:15Z</time></trkpt>
<trkpt lat="47.17123500" lon="-1.44643500"><ele>36.799999</ele><time>2017-11-18T08:30:18Z</time></trkpt>
<trkpt lat="47.17131167" lon="-1.44640722"><ele>36.900002</ele><time>2017-11-18T08:30:19Z</time></trkpt>
<trkpt lat="47.17140444" lon="-1.44637778"><ele>36.900002</ele><time>2017-11-18T08:30:22Z</time></trkpt>
<trkpt lat="47.17149889" lon="-1.44635389"><ele>37.099998</ele><time>2017-11-18T08:30:23Z</time></trkpt>
<trkpt lat="47.17159833" lon="-1.44633056"><ele>37.200001</ele><time>2017-11-18T08:30:25Z</time></trkpt>
<trkpt lat="47.17171500" lon="-1.44629833"><ele>37.099998</ele><time>2017-11-18T08:30:27Z</time></trkpt>
<trkpt lat="47.17179944" lon="-1.44627444"><ele>37.200001</ele><time>2017-11-18T08:30:29Z</time></trkpt>
<trkpt lat="47.17189250" lon="-1.44625667"><ele>37.200001</ele><time>2017-11-18T08:30:31Z</time></trkpt>
<trkpt lat="47.17200167" lon="-1.44624167"><ele>37.299999</ele><time>2017-11-18T08:30:33Z</time></trkpt>
<trkpt lat="47.17210167" lon="-1.44622667"><ele>37.5</ele><time>2017-11-18T08:30:35Z</time></trkpt>
<trkpt lat="47.17221667" lon="-1.44619667"><ele>37.400002</ele><time>2017-11-18T08:30:37Z</time></trkpt>
<trkpt lat="47.17229556" lon="-1.44617167"><ele>37.400002</ele><time>2017-11-18T08:30:39Z</time></trkpt>
<trkpt lat="47.17238333" lon="-1.44615417"><ele>37.5</ele><time>2017-11-18T08:30:41Z</time></trkpt>
<trkpt lat="47.17248333" lon="-1.44612611"><ele>37.799999</ele><time>2017-11-18T08:30:43Z</time></trkpt>
<trkpt lat="47.17257722" lon="-1.44609667"><ele>38.099998</ele><time>2017-11-18T08:30:45Z</time></trkpt>
<trkpt lat="47.17268500" lon="-1.44606167"><ele>38.700001</ele><time>2017-11-18T08:30:48Z</time></trkpt>
<trkpt lat="47.17276611" lon="-1.44603556"><ele>38.700001</ele><time>2017-11-18T08:30:49Z</time></trkpt>
<trkpt lat="47.17287800" lon="-1.44599933"><ele>38.900002</ele><time>2017-11-18T08:30:52Z</time></trkpt>
<trkpt lat="47.17301000" lon="-1.44595833"><ele>39.400002</ele><time>2017-11-18T08:30:55Z</time></trkpt>
<trkpt lat="47.17312278" lon="-1.44592167"><ele>39.200001</ele><time>2017-11-18T08:30:58Z</time></trkpt>
<trkpt lat="47.17323467" lon="-1.44588200"><ele>39.200001</ele><time>2017-11-18T08:31:00Z</time></trkpt>
<trkpt lat="47.17336000" lon="-1.44584000"><ele>39.099998</ele><time>2017-11-18T08:31:03Z</time></trkpt>
<trkpt lat="47.17343944" lon="-1.44580667"><ele>39</ele><time>2017-11-18T08:31:04Z</time></trkpt>
<trkpt lat="47.17353111" lon="-1.44577333"><ele>39.299999</ele><time>2017-11-18T08:31:07Z</time></trkpt>
<trkpt lat="47.17362444" lon="-1.44574778"><ele>39.599998</ele><time>2017-11-18T08:31:08Z</time></trkpt>
<trkpt lat="47.17372056" lon="-1.44574667"><ele>39.799999</ele><time>2017-11-18T08:31:10Z</time></trkpt>
<trkpt lat="47.17381722" lon="-1.44577278"><ele>39.900002</ele><time>2017-11-18T08:31:12Z</time></trkpt>
<trkpt lat="47.17391278" lon="-1.44580722"><ele>39.900002</ele><time>2017-11-18T08:31:14Z</time></trkpt>
<trkpt lat="47.17400722" lon="-1.44584500"><ele>39.799999</ele><time>2017-11-18T08:31:17Z</time></trkpt>
<trkpt lat="47.17410278" lon="-1.44588611"><ele>39.799999</ele><time>2017-11-18T08:31:18Z</time></trkpt>
<trkpt lat="47.17419778" lon="-1.44593333"><ele>39.799999</ele><time>2017-11-18T08:31:20Z</time></trkpt>
<trkpt lat="47.17429222" lon="-1.44598389"><ele>39.700001</ele><time>2017-11-18T08:31:23Z</time></trkpt>
<trkpt lat="47.17438611" lon="-1.44602944"><ele>39.700001</ele><time>2017-11-18T08:31:24Z</time></trkpt>
<trkpt lat="47.17447944" lon="-1.44607278"><ele>39.5</ele><time>2017-11-18T08:31:26Z</time></trkpt>
<trkpt lat="47.17457278" lon="-1.44611944"><ele>39.5</ele><time>2017-11-18T08:31:28Z</time></trkpt>
<trkpt lat="47.17466444" lon="-1.44616278"><ele>39.400002</ele><time>2017-11-18T08:31:30Z</time></trkpt>
<trkpt lat="47.17477833" lon="-1.44619467"><ele>39.5</ele><time>2017-11-18T08:31:33Z</time></trkpt>
<trkpt lat="47.17486667" lon="-1.44612444"><ele>39.5</ele><time>2017-11-18T08:31:35Z</time></trkpt>
<trkpt lat="47.17489944" lon="-1.44599500"><ele>39.5</ele><time>2017-11-18T08:31:38Z</time></trkpt>
<trkpt lat="47.17492944" lon="-1.44585556"><ele>39.599998</ele><time>2017-11-18T08:31:39Z</time></trkpt>
<trkpt lat="47.17496722" lon="-1.44571389"><ele>39.599998</ele><time>2017-11-18T08:31:42Z</time></trkpt>
<trkpt lat="47.17501333" lon="-1.44557444"><ele>39.799999</ele><time>2017-11-18T08:31:43Z</time></trkpt>
<trkpt lat="47.17506333" lon="-1.44543722"><ele>39.700001</ele><time>2017-11-18T08:31:45Z</time></trkpt>
<trkpt lat="47.17511222" lon="-1.44530278"><ele>39.700001</ele><time>2017-11-18T08:31:47Z</time></trkpt>
<trkpt lat="47.17515500" lon="-1.44516389"><ele>39.700001</ele><time>2017-11-18T08:31:49Z</time></trkpt>
<trkpt lat="47.17519000" lon="-1.44501778"><ele>39.700001</ele><time>2017-11-18T08:31:52Z</time></trkpt>
<trkpt lat="47.17521889" lon="-1.44487111"><ele>39.799999</ele><time>2017-11-18T08:31:53Z</time></trkpt>
<trkpt lat="47.17524056" lon="-1.44472333"><ele>39.900002</ele><time>2017-11-18T08:31:55Z</time></trkpt>
<trkpt lat="47.17525500" lon="-1.44457500"><ele>39.799999</ele><time>2017-11-18T08:31:57Z</time></trkpt>
<trkpt lat="47.17526611" lon="-1.44442778"><ele>39.700001</ele><time>2017-11-18T08:31:59Z</time></trkpt>
<trkpt lat="47.17528722" lon="-1.44427444"><ele>39.400002</ele><time>2017-11-18T08:32:01Z</time></trkpt>
<trkpt lat="47.17531333" lon="-1.44411333"><ele>39</ele><time>2017-11-18T08:32:03Z</time></trkpt>
<trkpt lat="47.17532389" lon="-1.44396111"><ele>38.599998</ele><time>2017-11-18T08:32:05Z</time></trkpt>
<trkpt lat="47.17533444" lon="-1.44382111"><ele>38.299999</ele><time>2017-11-18T08:32:08Z</time></trkpt>
<trkpt lat="47.17535278" lon="-1.44369111"><ele>38.099998</ele><time>2017-11-18T08:32:09Z</time></trkpt>
<trkpt lat="47.17537167" lon="-1.44358500"><ele>37.799999</ele><time>2017-11-18T08:32:11Z</time></trkpt>
<trkpt lat="47.17539722" lon="-1.44347333"><ele>37.5</ele><time>2017-11-18T08:32:13Z</time></trkpt>
<trkpt lat="47.17544633" lon="-1.44335667"><ele>37.099998</ele><time>2017-11-18T08:32:16Z</time></trkpt>
<trkpt lat="47.17553400" lon="-1.44324700"><ele>36.700001</ele><time>2017-11-18T08:32:19Z</time></trkpt>
<trkpt lat="47.17562600" lon="-1.44316233"><ele>36.5</ele><time>2017-11-18T08:32:22Z</time></trkpt>
<trkpt lat="47.17571900" lon="-1.44309667"><ele>36.099998</ele><time>2017-11-18T08:32:25Z</time></trkpt>
<trkpt lat="47.17581667" lon="-1.44302500"><ele>35.799999</ele><time>2017-11-18T08:32:28Z</time></trkpt>
<trkpt lat="47.17591867" lon="-1.44295267"><ele>35.5</ele><time>2017-11-18T08:32:31Z</time></trkpt>
<trkpt lat="47.17602567" lon="-1.44288900"><ele>35.200001</ele><time>2017-11-18T08:32:34Z</time></trkpt>
<trkpt lat="47.17613233" lon="-1.44282533"><ele>35</ele><time>2017-11-18T08:32:37Z</time></trkpt>
<trkpt lat="47.17622933" lon="-1.44275700"><ele>34.900002</ele><time>2017-11-18T08:32:40Z</time></trkpt>
<trkpt lat="47.17634033" lon="-1.44268733"><ele>34.700001</ele><time>2017-11-18T08:32:43Z</time></trkpt>
<trkpt lat="47.17645500" lon="-1.44262200"><ele>34.400002</ele><time>2017-11-18T08:32:46Z</time></trkpt>
<trkpt lat="47.17656900" lon="-1.44255633"><ele>34.200001</ele><time>2017-11-18T08:32:49Z</time></trkpt>
<trkpt lat="47.17667700" lon="-1.44248200"><ele>34.099998</ele><time>2017-11-18T08:32:52Z</time></trkpt>
<trkpt lat="47.17678452" lon="-1.44248452"><ele>33.700001</ele><time>2017-11-18T08:32:55Z</time></trkpt>
<trkpt lat="47.17682778" lon="-1.44263333"><ele>33.299999</ele><time>2017-11-18T08:32:58Z</time></trkpt>
<trkpt lat="47.17685333" lon="-1.44276611"><ele>33.200001</ele><time>2017-11-18T08:33:00Z</time></trkpt>
<trkpt lat="47.17687944" lon="-1.44289667"><ele>33</ele><time>2017-11-18T08:33:02Z</time></trkpt>
<trkpt lat="47.17690500" lon="-1.44302944"><ele>32.799999</ele><time>2017-11-18T08:33:04Z</time></trkpt>
<trkpt lat="47.17693500" lon="-1.44316278"><ele>32.599998</ele><time>2017-11-18T08:33:07Z</time></trkpt>
<trkpt lat="47.17697000" lon="-1.44329111"><ele>32.400002</ele><time>2017-11-18T08:33:08Z</time></trkpt>
<trkpt lat="47.17701833" lon="-1.44340833"><ele>32.400002</ele><time>2017-11-18T08:33:10Z</time></trkpt>
<trkpt lat="47.17706333" lon="-1.44352111"><ele>32.400002</ele><time>2017-11-18T08:33:12Z</time></trkpt>
<trkpt lat="47.17709889" lon="-1.44363556"><ele>32.200001</ele><time>2017-11-18T08:33:14Z</time></trkpt>
<trkpt lat="47.17713667" lon="-1.44374083"><ele>32</ele><time>2017-11-18T08:33:16Z</time></trkpt>
<trkpt lat="47.17719000" lon="-1.44385889"><ele>31.700001</ele><time>2017-11-18T08:33:18Z</time></trkpt>
<trkpt lat="47.17724000" lon="-1.44396222"><ele>31.4</ele><time>2017-11-18T08:33:20Z</time></trkpt>
<trkpt lat="47.17729667" lon="-1.44407667"><ele>31.1</ele><time>2017-11-18T08:33:23Z</time></trkpt>
<trkpt lat="47.17733722" lon="-1.44416167"><ele>30.799999</ele><time>2017-11-18T08:33:24Z</time></trkpt>
<trkpt lat="47.17738000" lon="-1.44425500"><ele>30.799999</ele><time>2017-11-18T08:33:26Z</time></trkpt>
<trkpt lat="47.17742889" lon="-1.44437111"><ele>30.700001</ele><time>2017-11-18T08:33:28Z</time></trkpt>
<trkpt lat="47.17747167" lon="-1.44448444"><ele>30.5</ele><time>2017-11-18T08:33:30Z</time></trkpt>
<trkpt lat="47.17753250" lon="-1.44462250"><ele>30.299999</ele><time>2017-11-18T08:33:33Z</time></trkpt>
<trkpt lat="47.17761125" lon="-1.44464250"><ele>30.1</ele><time>2017-11-18T08:33:35Z</time></trkpt>
<trkpt lat="47.17771567" lon="-1.44454267"><ele>30.299999</ele><time>2017-11-18T08:33:39Z</time></trkpt>
<trkpt lat="47.17781433" lon="-1.44443000"><ele>30.299999</ele><time>2017-11-18T08:33:42Z</time></trkpt>
<trkpt lat="47.17790767" lon="-1.44430400"><ele>30.299999</ele><time>2017-11-18T08:33:45Z</time></trkpt>
<trkpt lat="47.17799333" lon="-1.44417567"><ele>30.299999</ele><time>2017-11-18T08:33:48Z</time></trkpt>
<trkpt lat="47.17807967" lon="-1.44406700"><ele>30.200001</ele><time>2017-11-18T08:33:51Z</time></trkpt>
<trkpt lat="47.17817167" lon="-1.44407200"><ele>30</ele><time>2017-11-18T08:33:54Z</time></trkpt>
<trkpt lat="47.17823056" lon="-1.44417722"><ele>29.700001</ele><time>2017-11-18T08:33:56Z</time></trkpt>
<trkpt lat="47.17826444" lon="-1.44429056"><ele>29.5</ele><time>2017-11-18T08:33:58Z</time></trkpt>
<trkpt lat="47.17829500" lon="-1.44440833"><ele>29.299999</ele><time>2017-11-18T08:34:00Z</time></trkpt>
<trkpt lat="47.17832667" lon="-1.44454167"><ele>29.299999</ele><time>2017-11-18T08:34:03Z</time></trkpt>
<trkpt lat="47.17834889" lon="-1.44462500"><ele>29.200001</ele><time>2017-11-18T08:34:04Z</time></trkpt>
<trkpt lat="47.17838056" lon="-1.44472333"><ele>29.200001</ele><time>2017-11-18T08:34:06Z</time></trkpt>
<trkpt lat="47.17842111" lon="-1.44482667"><ele>29</ele><time>2017-11-18T08:34:08Z</time></trkpt>
<trkpt lat="47.17846222" lon="-1.44494056"><ele>28.9</ele><time>2017-11-18T08:34:10Z</time></trkpt>
<trkpt lat="47.17850333" lon="-1.44507833"><ele>28.799999</ele><time>2017-11-18T08:34:13Z</time></trkpt>
<trkpt lat="47.17853111" lon="-1.44517944"><ele>28.799999</ele><time>2017-11-18T08:34:14Z</time></trkpt>
<trkpt lat="47.17855667" lon="-1.44529167"><ele>28.799999</ele><time>2017-11-18T08:34:16Z</time></trkpt>
<trkpt lat="47.17858722" lon="-1.44541611"><ele>28.6</ele><time>2017-11-18T08:34:18Z</time></trkpt>
<trkpt lat="47.17861278" lon="-1.44553333"><ele>28.5</ele><time>2017-11-18T08:34:20Z</time></trkpt>
<trkpt lat="47.17864167" lon="-1.44567333"><ele>28.4</ele><time>2017-11-18T08:34:22Z</time></trkpt>
<trkpt lat="47.17866000" lon="-1.44577222"><ele>28.4</ele><time>2017-11-18T08:34:24Z</time></trkpt>
<trkpt lat="47.17867722" lon="-1.44588389"><ele>28.5</ele><time>2017-11-18T08:34:27Z</time></trkpt>
<trkpt lat="47.17869167" lon="-1.44598944"><ele>28.4</ele><time>2017-11-18T08:34:28Z</time></trkpt>
<trkpt lat="47.17869733" lon="-1.44610633"><ele>28.4</ele><time>2017-11-18T08:34:31Z</time></trkpt>
<trkpt lat="47.17869833" lon="-1.44622021"><ele>28.6</ele><time>2017-11-18T08:34:34Z</time></trkpt>
<trkpt lat="47.17866619" lon="-1.44631333"><ele>31.799999</ele><time>2017-11-18T08:37:02Z</time></trkpt>
<trkpt lat="47.17870722" lon="-1.44639306"><ele>32.099998</ele><time>2017-11-18T08:37:06Z</time></trkpt>
<trkpt lat="47.17881595" lon="-1.44640690"><ele>32.400002</ele><time>2017-11-18T08:37:10Z</time></trkpt>
<trkpt lat="47.17892571" lon="-1.44635143"><ele>32.099998</ele><time>2017-11-18T08:37:14Z</time></trkpt>
<trkpt lat="47.17895944" lon="-1.44625056"><ele>32.099998</ele><time>2017-11-18T08:37:18Z</time></trkpt>
<trkpt lat="47.17893500" lon="-1.44614222"><ele>31.6</ele><time>2017-11-18T08:37:19Z</time></trkpt>
<trkpt lat="47.17890222" lon="-1.44602611"><ele>31.299999</ele><time>2017-11-18T08:37:21Z</time></trkpt>
<trkpt lat="47.17887000" lon="-1.44590167"><ele>31.1</ele><time>2017-11-18T08:37:23Z</time></trkpt>
<trkpt lat="47.17883722" lon="-1.44576944"><ele>31</ele><time>2017-11-18T08:37:25Z</time></trkpt>
<trkpt lat="47.17880556" lon="-1.44564000"><ele>30.799999</ele><time>2017-11-18T08:37:28Z</time></trkpt>
<trkpt lat="47.17877500" lon="-1.44550611"><ele>30.6</ele><time>2017-11-18T08:37:29Z</time></trkpt>
<trkpt lat="47.17874333" lon="-1.44536944"><ele>30.299999</ele><time>2017-11-18T08:37:32Z</time></trkpt>
<trkpt lat="47.17871056" lon="-1.44523167"><ele>30.1</ele><time>2017-11-18T08:37:33Z</time></trkpt>
<trkpt lat="47.17867722" lon="-1.44508889"><ele>29.9</ele><time>2017-11-18T08:37:35Z</time></trkpt>
<trkpt lat="47.17864000" lon="-1.44492167"><ele>29.700001</ele><time>2017-11-18T08:37:37Z</time></trkpt>
<trkpt lat="47.17861222" lon="-1.44480333"><ele>29.6</ele><time>2017-11-18T08:37:39Z</time></trkpt>
<trkpt lat="47.17858250" lon="-1.44467583"><ele>29.6</ele><time>2017-11-18T08:37:41Z</time></trkpt>
<trkpt lat="47.17854833" lon="-1.44452778"><ele>29.5</ele><time>2017-11-18T08:37:43Z</time></trkpt>
<trkpt lat="47.17851556" lon="-1.44439222"><ele>29.5</ele><time>2017-11-18T08:37:45Z</time></trkpt>
<trkpt lat="47.17847667" lon="-1.44423833"><ele>29.5</ele><time>2017-11-18T08:37:48Z</time></trkpt>
<trkpt lat="47.17844889" lon="-1.44412889"><ele>29.5</ele><time>2017-11-18T08:37:49Z</time></trkpt>
<trkpt lat="47.17841917" lon="-1.44400917"><ele>29.6</ele><time>2017-11-18T08:37:51Z</time></trkpt>
<trkpt lat="47.17839278" lon="-1.44386556"><ele>29.700001</ele><time>2017-11-18T08:37:53Z</time></trkpt>
<trkpt lat="47.17839500" lon="-1.44373333"><ele>29.9</ele><time>2017-11-18T08:37:55Z</time></trkpt>
<trkpt lat="47.17844167" lon="-1.44359333"><ele>30</ele><time>2017-11-18T08:37:58Z</time></trkpt>
<trkpt lat="47.17851000" lon="-1.44349467"><ele>30.200001</ele><time>2017-11-18T08:38:00Z</time></trkpt>
<trkpt lat="47.17862467" lon="-1.44340733"><ele>30.200001</ele><time>2017-11-18T08:38:03Z</time></trkpt>
<trkpt lat="47.17874033" lon="-1.44334067"><ele>30.299999</ele><time>2017-11-18T08:38:06Z</time></trkpt>
<trkpt lat="47.17885167" lon="-1.44326533"><ele>30.5</ele><time>2017-11-18T08:38:09Z</time></trkpt>
<trkpt lat="47.17894250" lon="-1.44315083"><ele>30.6</ele><time>2017-11-18T08:38:12Z</time></trkpt>
<trkpt lat="47.17898944" lon="-1.44302889"><ele>30.700001</ele><time>2017-11-18T08:38:14Z</time></trkpt>
<trkpt lat="47.17905100" lon="-1.44292000"><ele>31.299999</ele><time>2017-11-18T08:38:17Z</time></trkpt>
<trkpt lat="47.17914867" lon="-1.44282367"><ele>32.299999</ele><time>2017-11-18T08:38:20Z</time></trkpt>
<trkpt lat="47.17925733" lon="-1.44274300"><ele>32.799999</ele><time>2017-11-18T08:38:23Z</time></trkpt>
<trkpt lat="47.17937100" lon="-1.44266233"><ele>32.900002</ele><time>2017-11-18T08:38:26Z</time></trkpt>
<trkpt lat="47.17948167" lon="-1.44258067"><ele>33.400002</ele><time>2017-11-18T08:38:29Z</time></trkpt>
<trkpt lat="47.17959167" lon="-1.44250700"><ele>33.599998</ele><time>2017-11-18T08:38:32Z</time></trkpt>
<trkpt lat="47.17970700" lon="-1.44243900"><ele>34</ele><time>2017-11-18T08:38:35Z</time></trkpt>
<trkpt lat="47.17984167" lon="-1.44238417"><ele>34.5</ele><time>2017-11-18T08:38:38Z</time></trkpt>
<trkpt lat="47.17994633" lon="-1.44235167"><ele>35</ele><time>2017-11-18T08:38:41Z</time></trkpt>
<trkpt lat="47.18005833" lon="-1.44230267"><ele>35.700001</ele><time>2017-11-18T08:38:44Z</time></trkpt>
<trkpt lat="47.18017300" lon="-1.44223467"><ele>36.400002</ele><time>2017-11-18T08:38:47Z</time></trkpt>
<trkpt lat="47.18028900" lon="-1.44214567"><ele>36.400002</ele><time>2017-11-18T08:38:50Z</time></trkpt>
<trkpt lat="47.18040500" lon="-1.44205067"><ele>36.599998</ele><time>2017-11-18T08:38:53Z</time></trkpt>
<trkpt lat="47.18051125" lon="-1.44194792"><ele>36.700001</ele><time>2017-11-18T08:38:55Z</time></trkpt>
<trkpt lat="47.18059167" lon="-1.44182389"><ele>36.900002</ele><time>2017-11-18T08:38:58Z</time></trkpt>
<trkpt lat="47.18060444" lon="-1.44170222"><ele>37</ele><time>2017-11-18T08:39:00Z</time></trkpt>
<trkpt lat="47.18057833" lon="-1.44156000"><ele>37.400002</ele><time>2017-11-18T08:39:02Z</time></trkpt>
<trkpt lat="47.18054389" lon="-1.44146000"><ele>37.599998</ele><time>2017-11-18T08:39:04Z</time></trkpt>
<trkpt lat="47.18049778" lon="-1.44134278"><ele>37.900002</ele><time>2017-11-18T08:39:06Z</time></trkpt>
<trkpt lat="47.18045111" lon="-1.44122889"><ele>38</ele><time>2017-11-18T08:39:08Z</time></trkpt>
<trkpt lat="47.18040167" lon="-1.44111833"><ele>38.299999</ele><time>2017-11-18T08:39:10Z</time></trkpt>
<trkpt lat="47.18035389" lon="-1.44101778"><ele>38.700001</ele><time>2017-11-18T08:39:13Z</time></trkpt>
<trkpt lat="47.18030500" lon="-1.44092500"><ele>39.200001</ele><time>2017-11-18T08:39:14Z</time></trkpt>
<trkpt lat="47.18026083" lon="-1.44083750"><ele>39.5</ele><time>2017-11-18T08:39:16Z</time></trkpt>
<trkpt lat="47.18021222" lon="-1.44073111"><ele>39.700001</ele><time>2017-11-18T08:39:18Z</time></trkpt>
<trkpt lat="47.18016722" lon="-1.44063167"><ele>39.799999</ele><time>2017-11-18T08:39:20Z</time></trkpt>
<trkpt lat="47.18012222" lon="-1.44052944"><ele>39.799999</ele><time>2017-11-18T08:39:23Z</time></trkpt>
<trkpt lat="47.18007722" lon="-1.44042000"><ele>39.799999</ele><time>2017-11-18T08:39:24Z</time></trkpt>
<trkpt lat="47.18003583" lon="-1.44032167"><ele>39.799999</ele><time>2017-11-18T08:39:26Z</time></trkpt>
<trkpt lat="47.17998722" lon="-1.44020500"><ele>39.700001</ele><time>2017-11-18T08:39:28Z</time></trkpt>
<trkpt lat="47.17994556" lon="-1.44009778"><ele>39.700001</ele><time>2017-11-18T08:39:30Z</time></trkpt>
<trkpt lat="47.17989333" lon="-1.43997333"><ele>39.799999</ele><time>2017-11-18T08:39:32Z</time></trkpt>
<trkpt lat="47.17985833" lon="-1.43988333"><ele>39.799999</ele><time>2017-11-18T08:39:34Z</time></trkpt>
<trkpt lat="47.17981556" lon="-1.43977056"><ele>39.700001</ele><time>2017-11-18T08:39:37Z</time></trkpt>
<trkpt lat="47.17976722" lon="-1.43966333"><ele>39.599998</ele><time>2017-11-18T08:39:38Z</time></trkpt>
<trkpt lat="47.17968833" lon="-1.43954500"><ele>39.5</ele><time>2017-11-18T08:39:41Z</time></trkpt>
<trkpt lat="47.17958033" lon="-1.43941733"><ele>39.299999</ele><time>2017-11-18T08:39:44Z</time></trkpt>
<trkpt lat="47.17946633" lon="-1.43930267"><ele>39.099998</ele><time>2017-11-18T08:39:47Z</time></trkpt>
<trkpt lat="47.17935833" lon="-1.43919433"><ele>38.799999</ele><time>2017-11-18T08:39:50Z</time></trkpt>
<trkpt lat="47.17925467" lon="-1.43908700"><ele>38.5</ele><time>2017-11-18T08:39:53Z</time></trkpt>
<trkpt lat="47.17916250" lon="-1.43899500"><ele>38.200001</ele><time>2017-11-18T08:39:55Z</time></trkpt>
<trkpt lat="47.17907767" lon="-1.43889667"><ele>37.900002</ele><time>2017-11-18T08:39:59Z</time></trkpt>
<trkpt lat="47.17905722" lon="-1.43880333"><ele>37.700001</ele><time>2017-11-18T08:40:02Z</time></trkpt>
<trkpt lat="47.17908222" lon="-1.43870778"><ele>37.700001</ele><time>2017-11-18T08:40:03Z</time></trkpt>
<trkpt lat="47.17912111" lon="-1.43861222"><ele>37.799999</ele><time>2017-11-18T08:40:05Z</time></trkpt>
<trkpt lat="47.17916333" lon="-1.43852000"><ele>37.799999</ele><time>2017-11-18T08:40:07Z</time></trkpt>
<trkpt lat="47.17920167" lon="-1.43842833"><ele>37.900002</ele><time>2017-11-18T08:40:09Z</time></trkpt>
<trkpt lat="47.17924611" lon="-1.43833722"><ele>38</ele><time>2017-11-18T08:40:12Z</time></trkpt>
<trkpt lat="47.17928667" lon="-1.43824111"><ele>37.900002</ele><time>2017-11-18T08:40:13Z</time></trkpt>
<trkpt lat="47.17932944" lon="-1.43814000"><ele>38</ele><time>2017-11-18T08:40:15Z</time></trkpt>
<trkpt lat="47.17937833" lon="-1.43801167"><ele>38</ele><time>2017-11-18T08:40:17Z</time></trkpt>
<trkpt lat="47.17941444" lon="-1.43791500"><ele>38.099998</ele><time>2017-11-18T08:40:19Z</time></trkpt>
<trkpt lat="47.17945000" lon="-1.43780583"><ele>38.099998</ele><time>2017-11-18T08:40:21Z</time></trkpt>
<trkpt lat="47.17948889" lon="-1.43767389"><ele>38.200001</ele><time>2017-11-18T08:40:23Z</time></trkpt>
<trkpt lat="47.17952278" lon="-1.43755056"><ele>38.299999</ele><time>2017-11-18T08:40:25Z</time></trkpt>
<trkpt lat="47.17956167" lon="-1.43740833"><ele>38.299999</ele><time>2017-11-18T08:40:28Z</time></trkpt>
<trkpt lat="47.17959056" lon="-1.43730778"><ele>38.400002</ele><time>2017-11-18T08:40:29Z</time></trkpt>
<trkpt lat="47.17962500" lon="-1.43719750"><ele>38.400002</ele><time>2017-11-18T08:40:31Z</time></trkpt>
<trkpt lat="47.17966556" lon="-1.43706500"><ele>38.5</ele><time>2017-11-18T08:40:33Z</time></trkpt>
<trkpt lat="47.17969944" lon="-1.43695167"><ele>38.599998</ele><time>2017-11-18T08:40:35Z</time></trkpt>
<trkpt lat="47.17974000" lon="-1.43681667"><ele>38.599998</ele><time>2017-11-18T08:40:38Z</time></trkpt>
<trkpt lat="47.17977056" lon="-1.43671500"><ele>38.700001</ele><time>2017-11-18T08:40:39Z</time></trkpt>
<trkpt lat="47.17979917" lon="-1.43660917"><ele>38.700001</ele><time>2017-11-18T08:40:41Z</time></trkpt>
<trkpt lat="47.17982944" lon="-1.43649333"><ele>38.799999</ele><time>2017-11-18T08:40:43Z</time></trkpt>
<trkpt lat="47.17985389" lon="-1.43638111"><ele>38.900002</ele><time>2017-11-18T08:40:45Z</time></trkpt>
<trkpt lat="47.17988333" lon="-1.43624500"><ele>38.900002</ele><time>2017-11-18T08:40:47Z</time></trkpt>
<trkpt lat="47.17990444" lon="-1.43615167"><ele>39</ele><time>2017-11-18T08:40:49Z</time></trkpt>
<trkpt lat="47.17992944" lon="-1.43604278"><ele>39.099998</ele><time>2017-11-18T08:40:52Z</time></trkpt>
<trkpt lat="47.17995278" lon="-1.43593500"><ele>39.200001</ele><time>2017-11-18T08:40:53Z</time></trkpt>
<trkpt lat="47.17997333" lon="-1.43582667"><ele>39.299999</ele><time>2017-11-18T08:40:55Z</time></trkpt>
<trkpt lat="47.17998944" lon="-1.43571667"><ele>39.299999</ele><time>2017-11-18T08:40:57Z</time></trkpt>
<trkpt lat="47.18000056" lon="-1.43560278"><ele>39.400002</ele><time>2017-11-18T08:40:59Z</time></trkpt>
<trkpt lat="47.18000500" lon="-1.43548500"><ele>39.299999</ele><time>2017-11-18T08:41:01Z</time></trkpt>
<trkpt lat="47.18000500" lon="-1.43536500"><ele>39.299999</ele><time>2017-11-18T08:41:03Z</time></trkpt>
<trkpt lat="47.18000611" lon="-1.43524778"><ele>39.200001</ele><time>2017-11-18T08:41:05Z</time></trkpt>
<trkpt lat="47.18000889" lon="-1.43513500"><ele>39.200001</ele><time>2017-11-18T08:41:08Z</time></trkpt>
<trkpt lat="47.18001278" lon="-1.43503111"><ele>39.200001</ele><time>2017-11-18T08:41:09Z</time></trkpt>
<trkpt lat="47.18001556" lon="-1.43493556"><ele>39.200001</ele><time>2017-11-18T08:41:11Z</time></trkpt>
<trkpt lat="47.18002167" lon="-1.43483667"><ele>39.099998</ele><time>2017-11-18T08:41:13Z</time></trkpt>
<trkpt lat="47.18003278" lon="-1.43473222"><ele>39.099998</ele><time>2017-11-18T08:41:15Z</time></trkpt>
<trkpt lat="47.18004611" lon="-1.43463111"><ele>39</ele><time>2017-11-18T08:41:18Z</time></trkpt>
<trkpt lat="47.18006444" lon="-1.43453556"><ele>39</ele><time>2017-11-18T08:41:19Z</time></trkpt>
<trkpt lat="47.18008889" lon="-1.43443944"><ele>38.900002</ele><time>2017-11-18T08:41:22Z</time></trkpt>
<trkpt lat="47.18011833" lon="-1.43434111"><ele>38.799999</ele><time>2017-11-18T08:41:23Z</time></trkpt>
<trkpt lat="47.18015111" lon="-1.43424444"><ele>38.700001</ele><time>2017-11-18T08:41:25Z</time></trkpt>
<trkpt lat="47.18018722" lon="-1.43414500"><ele>38.599998</ele><time>2017-11-18T08:41:27Z</time></trkpt>
<trkpt lat="47.18022111" lon="-1.43404778"><ele>38.599998</ele><time>2017-11-18T08:41:29Z</time></trkpt>
<trkpt lat="47.18025611" lon="-1.43395000"><ele>38.599998</ele><time>2017-11-18T08:41:32Z</time></trkpt>
<trkpt lat="47.18028833" lon="-1.43385444"><ele>38.599998</ele><time>2017-11-18T08:41:33Z</time></trkpt>
<trkpt lat="47.18029556" lon="-1.43374889"><ele>38.5</ele><time>2017-11-18T08:41:35Z</time></trkpt>
<trkpt lat="47.18027833" lon="-1.43362944"><ele>38.400002</ele><time>2017-11-18T08:41:37Z</time></trkpt>
<trkpt lat="47.18029889" lon="-1.43350722"><ele>38.5</ele><time>2017-11-18T08:41:39Z</time></trkpt>
<trkpt lat="47.18033556" lon="-1.43339278"><ele>38.5</ele><time>2017-11-18T08:41:41Z</time></trkpt>
<trkpt lat="47.18037333" lon="-1.43326667"><ele>38.700001</ele><time>2017-11-18T08:41:43Z</time></trkpt>
<trkpt lat="47.18041222" lon="-1.43313778"><ele>39.099998</ele><time>2017-11-18T08:41:45Z</time></trkpt>
<trkpt lat="47.18045056" lon="-1.43301222"><ele>39.400002</ele><time>2017-11-18T08:41:48Z</time></trkpt>
<trkpt lat="47.18048611" lon="-1.43289056"><ele>39.700001</ele><time>2017-11-18T08:41:49Z</time></trkpt>
<trkpt lat="47.18052222" lon="-1.43277000"><ele>40</ele><time>2017-11-18T08:41:51Z</time></trkpt>
<trkpt lat="47.18055333" lon="-1.43264944"><ele>40.200001</ele><time>2017-11-18T08:41:53Z</time></trkpt>
<trkpt lat="47.18057556" lon="-1.43253167"><ele>40.400002</ele><time>2017-11-18T08:41:55Z</time></trkpt>
<trkpt lat="47.18059167" lon="-1.43238833"><ele>40.5</ele><time>2017-11-18T08:41:58Z</time></trkpt>
<trkpt lat="47.18059500" lon="-1.43228444"><ele>40.5</ele><time>2017-11-18T08:41:59Z</time></trkpt>
<trkpt lat="47.18057944" lon="-1.43215778"><ele>40.400002</ele><time>2017-11-18T08:42:02Z</time></trkpt>
<trkpt lat="47.18054889" lon="-1.43203111"><ele>40.400002</ele><time>2017-11-18T08:42:03Z</time></trkpt>
<trkpt lat="47.18051389" lon="-1.43190444"><ele>40.400002</ele><time>2017-11-18T08:42:05Z</time></trkpt>
<trkpt lat="47.18048000" lon="-1.43175667"><ele>40.299999</ele><time>2017-11-18T08:42:07Z</time></trkpt>
<trkpt lat="47.18046722" lon="-1.43164333"><ele>40.299999</ele><time>2017-11-18T08:42:09Z</time></trkpt>
<trkpt lat="47.18046278" lon="-1.43150222"><ele>40.299999</ele><time>2017-11-18T08:42:12Z</time></trkpt>
<trkpt lat="47.18047111" lon="-1.43136167"><ele>40.299999</ele><time>2017-11-18T08:42:13Z</time></trkpt>
<trkpt lat="47.18048278" lon="-1.43122444"><ele>40.400002</ele><time>2017-11-18T08:42:15Z</time></trkpt>
<trkpt lat="47.18049222" lon="-1.43108778"><ele>40.5</ele><time>2017-11-18T08:42:18Z</time></trkpt>
<trkpt lat="47.18049778" lon="-1.43095333"><ele>40.400002</ele><time>2017-11-18T08:42:19Z</time></trkpt>
<trkpt lat="47.18049611" lon="-1.43083111"><ele>40.400002</ele><time>2017-11-18T08:42:21Z</time></trkpt>
<trkpt lat="47.18047467" lon="-1.43070567"><ele>40.299999</ele><time>2017-11-18T08:42:24Z</time></trkpt>
<trkpt lat="47.18044500" lon="-1.43058750"><ele>40.200001</ele><time>2017-11-18T08:42:27Z</time></trkpt>
<trkpt lat="47.18044758" lon="-1.43046879"><ele>40.099998</ele><time>2017-11-18T08:42:32Z</time></trkpt>
<trkpt lat="47.18053537" lon="-1.43043778"><ele>40.400002</ele><time>2017-11-18T08:42:38Z</time></trkpt>
<trkpt lat="47.18064452" lon="-1.43044619"><ele>41.099998</ele><time>2017-11-18T08:42:42Z</time></trkpt>
<trkpt lat="47.18075983" lon="-1.43045733"><ele>41.799999</ele><time>2017-11-18T08:42:47Z</time></trkpt>
<trkpt lat="47.18085152" lon="-1.43047652"><ele>42.200001</ele><time>2017-11-18T08:42:53Z</time></trkpt>
<trkpt lat="47.18096204" lon="-1.43052833"><ele>43</ele><time>2017-11-18T08:42:59Z</time></trkpt>
<trkpt lat="47.18106500" lon="-1.43057833"><ele>43.799999</ele><time>2017-11-18T08:43:03Z</time></trkpt>
<trkpt lat="47.18114857" lon="-1.43053929"><ele>44.5</ele><time>2017-11-18T08:43:07Z</time></trkpt>
<trkpt lat="47.18122200" lon="-1.43043900"><ele>45.299999</ele><time>2017-11-18T08:43:11Z</time></trkpt>
<trkpt lat="47.18128100" lon="-1.43034333"><ele>45.700001</ele><time>2017-11-18T08:43:14Z</time></trkpt>
<trkpt lat="47.18134233" lon="-1.43025100"><ele>45.599998</ele><time>2017-11-18T08:43:17Z</time></trkpt>
<trkpt lat="47.18140267" lon="-1.43013900"><ele>45.5</ele><time>2017-11-18T08:43:20Z</time></trkpt>
<trkpt lat="47.18149333" lon="-1.43000167"><ele>45.799999</ele><time>2017-11-18T08:43:23Z</time></trkpt>
<trkpt lat="47.18159433" lon="-1.42990433"><ele>46.400002</ele><time>2017-11-18T08:43:26Z</time></trkpt>
<trkpt lat="47.18171367" lon="-1.42979767"><ele>46.799999</ele><time>2017-11-18T08:43:29Z</time></trkpt>
<trkpt lat="47.18183533" lon="-1.42970967"><ele>47.200001</ele><time>2017-11-18T08:43:32Z</time></trkpt>
<trkpt lat="47.18195400" lon="-1.42963033"><ele>48</ele><time>2017-11-18T08:43:35Z</time></trkpt>
<trkpt lat="47.18207867" lon="-1.42955933"><ele>48.5</ele><time>2017-11-18T08:43:38Z</time></trkpt>
<trkpt lat="47.18218708" lon="-1.42950000"><ele>49.400002</ele><time>2017-11-18T08:43:41Z</time></trkpt>
<trkpt lat="47.18230167" lon="-1.42941100"><ele>50</ele><time>2017-11-18T08:43:44Z</time></trkpt>
<trkpt lat="47.18233750" lon="-1.42928250"><ele>50.200001</ele><time>2017-11-18T08:43:46Z</time></trkpt>
<trkpt lat="47.18231111" lon="-1.42913389"><ele>50.200001</ele><time>2017-11-18T08:43:48Z</time></trkpt>
<trkpt lat="47.18226889" lon="-1.42898944"><ele>49.900002</ele><time>2017-11-18T08:43:50Z</time></trkpt>
<trkpt lat="47.18222722" lon="-1.42884056"><ele>49.400002</ele><time>2017-11-18T08:43:53Z</time></trkpt>
<trkpt lat="47.18218389" lon="-1.42868556"><ele>48.900002</ele><time>2017-11-18T08:43:54Z</time></trkpt>
<trkpt lat="47.18213000" lon="-1.42853444"><ele>48.400002</ele><time>2017-11-18T08:43:57Z</time></trkpt>
<trkpt lat="47.18205667" lon="-1.42840056"><ele>48</ele><time>2017-11-18T08:43:58Z</time></trkpt>
<trkpt lat="47.18197278" lon="-1.42828278"><ele>47.599998</ele><time>2017-11-18T08:44:00Z</time></trkpt>
<trkpt lat="47.18188722" lon="-1.42817500"><ele>47.099998</ele><time>2017-11-18T08:44:02Z</time></trkpt>
<trkpt lat="47.18182200" lon="-1.42807367"><ele>46.299999</ele><time>2017-11-18T08:44:05Z</time></trkpt>
<trkpt lat="47.18184700" lon="-1.42797167"><ele>45.700001</ele><time>2017-11-18T08:44:08Z</time></trkpt>
<trkpt lat="47.18190611" lon="-1.42787000"><ele>45.400002</ele><time>2017-11-18T08:44:10Z</time></trkpt>
<trkpt lat="47.18198067" lon="-1.42775700"><ele>45.299999</ele><time>2017-11-18T08:44:13Z</time></trkpt>
<trkpt lat="47.18210133" lon="-1.42766367"><ele>45.099998</ele><time>2017-11-18T08:44:16Z</time></trkpt>
<trkpt lat="47.18221133" lon="-1.42757567"><ele>45.799999</ele><time>2017-11-18T08:44:19Z</time></trkpt>
<trkpt lat="47.18228222" lon="-1.42746111"><ele>46</ele><time>2017-11-18T08:44:21Z</time></trkpt>
<trkpt lat="47.18233889" lon="-1.42736056"><ele>45.599998</ele><time>2017-11-18T08:44:23Z</time></trkpt>
<trkpt lat="47.18238889" lon="-1.42725611"><ele>45.599998</ele><time>2017-11-18T08:44:25Z</time></trkpt>
<trkpt lat="47.18243556" lon="-1.42714667"><ele>45.799999</ele><time>2017-11-18T08:44:28Z</time></trkpt>
<trkpt lat="47.18247833" lon="-1.42703444"><ele>45.900002</ele><time>2017-11-18T08:44:29Z</time></trkpt>
<trkpt lat="47.18251778" lon="-1.42691889"><ele>46</ele><time>2017-11-18T08:44:32Z</time></trkpt>
<trkpt lat="47.18256056" lon="-1.42680833"><ele>46.099998</ele><time>2017-11-18T08:44:33Z</time></trkpt>
<trkpt lat="47.18260500" lon="-1.42669722"><ele>46.200001</ele><time>2017-11-18T08:44:35Z</time></trkpt>
<trkpt lat="47.18264222" lon="-1.42657333"><ele>46</ele><time>2017-11-18T08:44:37Z</time></trkpt>
<trkpt lat="47.18267944" lon="-1.42644056"><ele>46.099998</ele><time>2017-11-18T08:44:39Z</time></trkpt>
<trkpt lat="47.18271833" lon="-1.42629889"><ele>46.299999</ele><time>2017-11-18T08:44:42Z</time></trkpt>
<trkpt lat="47.18275722" lon="-1.42615111"><ele>46.099998</ele><time>2017-11-18T08:44:43Z</time></trkpt>
<trkpt lat="47.18279944" lon="-1.42600389"><ele>45.799999</ele><time>2017-11-18T08:44:45Z</time></trkpt>
<trkpt lat="47.18284667" lon="-1.42586778"><ele>45.700001</ele><time>2017-11-18T08:44:47Z</time></trkpt>
<trkpt lat="47.18289778" lon="-1.42573889"><ele>46</ele><time>2017-11-18T08:44:49Z</time></trkpt>
<trkpt lat="47.18295222" lon="-1.42563556"><ele>46.599998</ele><time>2017-11-18T08:44:51Z</time></trkpt>
<trkpt lat="47.18300556" lon="-1.42552778"><ele>47</ele><time>2017-11-18T08:44:53Z</time></trkpt>
<trkpt lat="47.18304722" lon="-1.42539444"><ele>47</ele><time>2017-11-18T08:44:55Z</time></trkpt>
<trkpt lat="47.18312611" lon="-1.42530278"><ele>46.900002</ele><time>2017-11-18T08:44:58Z</time></trkpt>
<trkpt lat="47.18322611" lon="-1.42525167"><ele>46.799999</ele><time>2017-11-18T08:44:59Z</time></trkpt>
<trkpt lat="47.18332083" lon="-1.42522250"><ele>46.5</ele><time>2017-11-18T08:45:01Z</time></trkpt>
<trkpt lat="47.18343444" lon="-1.42519000"><ele>46.599998</ele><time>2017-11-18T08:45:03Z</time></trkpt>
<trkpt lat="47.18353556" lon="-1.42516500"><ele>47.099998</ele><time>2017-11-18T08:45:05Z</time></trkpt>
<trkpt lat="47.18365000" lon="-1.42514833"><ele>47.200001</ele><time>2017-11-18T08:45:08Z</time></trkpt>
<trkpt lat="47.18374333" lon="-1.42512633"><ele>47.200001</ele><time>2017-11-18T08:45:10Z</time></trkpt>
<trkpt lat="47.18385667" lon="-1.42506976"><ele>47.299999</ele><time>2017-11-18T08:45:13Z</time></trkpt>
<trkpt lat="47.18393000" lon="-1.42503571"><ele>47.400002</ele><time>2017-11-18T08:45:18Z</time></trkpt>
<trkpt lat="47.18405762" lon="-1.42493690"><ele>47.5</ele><time>2017-11-18T08:45:32Z</time></trkpt>
<trkpt lat="47.18417315" lon="-1.42495981"><ele>47.299999</ele><time>2017-11-18T08:45:37Z</time></trkpt>
<trkpt lat="47.18419833" lon="-1.42510433"><ele>47.099998</ele><time>2017-11-18T08:45:41Z</time></trkpt>
<trkpt lat="47.18419262" lon="-1.42522452"><ele>46.700001</ele><time>2017-11-18T08:45:44Z</time></trkpt>
<trkpt lat="47.18419167" lon="-1.42527667"><ele>46.799999</ele><time>2017-11-18T08:45:48Z</time></trkpt>
<trkpt lat="47.18426593" lon="-1.42543241"><ele>48.200001</ele><time>2017-11-18T08:45:59Z</time></trkpt>
<trkpt lat="47.18437889" lon="-1.42546333"><ele>48</ele><time>2017-11-18T08:46:04Z</time></trkpt>
<trkpt lat="47.18447600" lon="-1.42548433"><ele>48.200001</ele><time>2017-11-18T08:46:07Z</time></trkpt>
<trkpt lat="47.18456833" lon="-1.42550367"><ele>48.299999</ele><time>2017-11-18T08:46:10Z</time></trkpt>
<trkpt lat="47.18466333" lon="-1.42552933"><ele>48.299999</ele><time>2017-11-18T08:46:13Z</time></trkpt>
<trkpt lat="47.18476767" lon="-1.42555700"><ele>48.299999</ele><time>2017-11-18T08:46:16Z</time></trkpt>
<trkpt lat="47.18487767" lon="-1.42558500"><ele>48.5</ele><time>2017-11-18T08:46:19Z</time></trkpt>
<trkpt lat="47.18499467" lon="-1.42560800"><ele>49</ele><time>2017-11-18T08:46:22Z</time></trkpt>
<trkpt lat="47.18510967" lon="-1.42562100"><ele>49.599998</ele><time>2017-11-18T08:46:25Z</time></trkpt>
<trkpt lat="47.18522567" lon="-1.42562833"><ele>50.099998</ele><time>2017-11-18T08:46:28Z</time></trkpt>
<trkpt lat="47.18533867" lon="-1.42562300"><ele>49.400002</ele><time>2017-11-18T08:46:31Z</time></trkpt>
<trkpt lat="47.18545600" lon="-1.42561033"><ele>49.200001</ele><time>2017-11-18T08:46:34Z</time></trkpt>
<trkpt lat="47.18558633" lon="-1.42561433"><ele>48.299999</ele><time>2017-11-18T08:46:37Z</time></trkpt>
<trkpt lat="47.18570222" lon="-1.42563444"><ele>47.900002</ele><time>2017-11-18T08:46:39Z</time></trkpt>
<trkpt lat="47.18580611" lon="-1.42564556"><ele>47.799999</ele><time>2017-11-18T08:46:42Z</time></trkpt>
<trkpt lat="47.18591278" lon="-1.42567667"><ele>47.400002</ele><time>2017-11-18T08:46:43Z</time></trkpt>
<trkpt lat="47.18602000" lon="-1.42572444"><ele>47.299999</ele><time>2017-11-18T08:46:45Z</time></trkpt>
<trkpt lat="47.18613500" lon="-1.42580167"><ele>47.799999</ele><time>2017-11-18T08:46:48Z</time></trkpt>
<trkpt lat="47.18624100" lon="-1.42588767"><ele>47.700001</ele><time>2017-11-18T08:46:51Z</time></trkpt>
<trkpt lat="47.18635214" lon="-1.42598452"><ele>46.900002</ele><time>2017-11-18T08:46:54Z</time></trkpt>
<trkpt lat="47.18646733" lon="-1.42609233"><ele>46</ele><time>2017-11-18T08:46:58Z</time></trkpt>
<trkpt lat="47.18657000" lon="-1.42615375"><ele>46.5</ele><time>2017-11-18T08:47:00Z</time></trkpt>
<trkpt lat="47.18669100" lon="-1.42624633"><ele>46.599998</ele><time>2017-11-18T08:47:04Z</time></trkpt>
<trkpt lat="47.18681167" lon="-1.42634300"><ele>47</ele><time>2017-11-18T08:47:07Z</time></trkpt>
<trkpt lat="47.18693444" lon="-1.42643556"><ele>46</ele><time>2017-11-18T08:47:09Z</time></trkpt>
<trkpt lat="47.18705133" lon="-1.42652500"><ele>45.5</ele><time>2017-11-18T08:47:12Z</time></trkpt>
<trkpt lat="47.18717267" lon="-1.42662500"><ele>44.599998</ele><time>2017-11-18T08:47:15Z</time></trkpt>
<trkpt lat="47.18729400" lon="-1.42673367"><ele>44.400002</ele><time>2017-11-18T08:47:18Z</time></trkpt>
<trkpt lat="47.18741300" lon="-1.42683867"><ele>45.099998</ele><time>2017-11-18T08:47:21Z</time></trkpt>
<trkpt lat="47.18752048" lon="-1.42694476"><ele>46.299999</ele><time>2017-11-18T08:47:24Z</time></trkpt>
<trkpt lat="47.18761800" lon="-1.42699233"><ele>47.299999</ele><time>2017-11-18T08:47:28Z</time></trkpt>
<trkpt lat="47.18768389" lon="-1.42692000"><ele>48.099998</ele><time>2017-11-18T08:47:30Z</time></trkpt>
<trkpt lat="47.18771667" lon="-1.42681889"><ele>48.099998</ele><time>2017-11-18T08:47:33Z</time></trkpt>
<trkpt lat="47.18773056" lon="-1.42670444"><ele>47.599998</ele><time>2017-11-18T08:47:34Z</time></trkpt>
<trkpt lat="47.18775444" lon="-1.42659000"><ele>47.099998</ele><time>2017-11-18T08:47:36Z</time></trkpt>
<trkpt lat="47.18782000" lon="-1.42650714"><ele>47</ele><time>2017-11-18T08:47:39Z</time></trkpt>
<trkpt lat="47.18792167" lon="-1.42657667"><ele>46.5</ele><time>2017-11-18T08:47:43Z</time></trkpt>
<trkpt lat="47.18799222" lon="-1.42667778"><ele>46.099998</ele><time>2017-11-18T08:47:44Z</time></trkpt>
<trkpt lat="47.18805250" lon="-1.42680000"><ele>46</ele><time>2017-11-18T08:47:46Z</time></trkpt>
<trkpt lat="47.18812278" lon="-1.42696833"><ele>46</ele><time>2017-11-18T08:47:48Z</time></trkpt>
<trkpt lat="47.18818611" lon="-1.42713056"><ele>46.200001</ele><time>2017-11-18T08:47:50Z</time></trkpt>
<trkpt lat="47.18826333" lon="-1.42730500"><ele>46.400002</ele><time>2017-11-18T08:47:52Z</time></trkpt>
<trkpt lat="47.18831500" lon="-1.42742556"><ele>46.599998</ele><time>2017-11-18T08:47:54Z</time></trkpt>
<trkpt lat="47.18837222" lon="-1.42756833"><ele>46.799999</ele><time>2017-11-18T08:47:57Z</time></trkpt>
<trkpt lat="47.18843056" lon="-1.42770444"><ele>47</ele><time>2017-11-18T08:47:58Z</time></trkpt>
<trkpt lat="47.18848444" lon="-1.42783111"><ele>47.200001</ele><time>2017-11-18T08:48:00Z</time></trkpt>
<trkpt lat="47.18853500" lon="-1.42794667"><ele>47.299999</ele><time>2017-11-18T08:48:02Z</time></trkpt>
<trkpt lat="47.18858111" lon="-1.42805389"><ele>47.5</ele><time>2017-11-18T08:48:04Z</time></trkpt>
<trkpt lat="47.18862333" lon="-1.42816056"><ele>47.599998</ele><time>2017-11-18T08:48:06Z</time></trkpt>
<trkpt lat="47.18866611" lon="-1.42826444"><ele>47.700001</ele><time>2017-11-18T08:48:08Z</time></trkpt>
<trkpt lat="47.18870833" lon="-1.42836500"><ele>48</ele><time>2017-11-18T08:48:10Z</time></trkpt>
<trkpt lat="47.18875167" lon="-1.42847833"><ele>48.200001</ele><time>2017-11-18T08:48:13Z</time></trkpt>
<trkpt lat="47.18878722" lon="-1.42856056"><ele>48.5</ele><time>2017-11-18T08:48:14Z</time></trkpt>
<trkpt lat="47.18883222" lon="-1.42866000"><ele>49</ele><time>2017-11-18T08:48:16Z</time></trkpt>
<trkpt lat="47.18887778" lon="-1.42876111"><ele>49.200001</ele><time>2017-11-18T08:48:18Z</time></trkpt>
<trkpt lat="47.18892500" lon="-1.42887056"><ele>49.400002</ele><time>2017-11-18T08:48:20Z</time></trkpt>
<trkpt lat="47.18897333" lon="-1.42899111"><ele>49.700001</ele><time>2017-11-18T08:48:23Z</time></trkpt>
<trkpt lat="47.18902167" lon="-1.42911722"><ele>49.900002</ele><time>2017-11-18T08:48:24Z</time></trkpt>
<trkpt lat="47.18906500" lon="-1.42924667"><ele>50</ele><time>2017-11-18T08:48:27Z</time></trkpt>
<trkpt lat="47.18909444" lon="-1.42938111"><ele>50.200001</ele><time>2017-11-18T08:48:28Z</time></trkpt>
<trkpt lat="47.18910611" lon="-1.42951889"><ele>50.400002</ele><time>2017-11-18T08:48:30Z</time></trkpt>
<trkpt lat="47.18909889" lon="-1.42965722"><ele>50.700001</ele><time>2017-11-18T08:48:32Z</time></trkpt>
<trkpt lat="47.18908833" lon="-1.42978222"><ele>51.099998</ele><time>2017-11-18T08:48:34Z</time></trkpt>
<trkpt lat="47.18907722" lon="-1.42989222"><ele>51.5</ele><time>2017-11-18T08:48:37Z</time></trkpt>
<trkpt lat="47.18906667" lon="-1.43000000"><ele>51.799999</ele><time>2017-11-18T08:48:38Z</time></trkpt>
<trkpt lat="47.18905500" lon="-1.43011222"><ele>52.099998</ele><time>2017-11-18T08:48:40Z</time></trkpt>
<trkpt lat="47.18904333" lon="-1.43023111"><ele>52.400002</ele><time>2017-11-18T08:48:42Z</time></trkpt>
<trkpt lat="47.18903056" lon="-1.43035444"><ele>52.799999</ele><time>2017-11-18T08:48:44Z</time></trkpt>
<trkpt lat="47.18901722" lon="-1.43047611"><ele>53.400002</ele><time>2017-11-18T08:48:46Z</time></trkpt>
<trkpt lat="47.18900500" lon="-1.43059500"><ele>54.099998</ele><time>2017-11-18T08:48:48Z</time></trkpt>
<trkpt lat="47.18899278" lon="-1.43071611"><ele>54.400002</ele><time>2017-11-18T08:48:50Z</time></trkpt>
<trkpt lat="47.18897500" lon="-1.43083944"><ele>54.700001</ele><time>2017-11-18T08:48:53Z</time></trkpt>
<trkpt lat="47.18895889" lon="-1.43096000"><ele>55</ele><time>2017-11-18T08:48:54Z</time></trkpt>
<trkpt lat="47.18894167" lon="-1.43108167"><ele>55.400002</ele><time>2017-11-18T08:48:56Z</time></trkpt>
<trkpt lat="47.18892444" lon="-1.43120722"><ele>55.700001</ele><time>2017-11-18T08:48:58Z</time></trkpt>
<trkpt lat="47.18890889" lon="-1.43133500"><ele>55.900002</ele><time>2017-11-18T08:49:00Z</time></trkpt>
<trkpt lat="47.18890000" lon="-1.43146389"><ele>56</ele><time>2017-11-18T08:49:02Z</time></trkpt>
<trkpt lat="47.18889389" lon="-1.43158667"><ele>55.900002</ele><time>2017-11-18T08:49:04Z</time></trkpt>
<trkpt lat="47.18889556" lon="-1.43171556"><ele>55.900002</ele><time>2017-11-18T08:49:07Z</time></trkpt>
<trkpt lat="47.18891389" lon="-1.43186444"><ele>56</ele><time>2017-11-18T08:49:08Z</time></trkpt>
<trkpt lat="47.18895000" lon="-1.43201667"><ele>55.799999</ele><time>2017-11-18T08:49:10Z</time></trkpt>
<trkpt lat="47.18899778" lon="-1.43216667"><ele>55.5</ele><time>2017-11-18T08:49:12Z</time></trkpt>
<trkpt lat="47.18906611" lon="-1.43231167"><ele>54.700001</ele><time>2017-11-18T08:49:14Z</time></trkpt>
<trkpt lat="47.18913917" lon="-1.43243500"><ele>53.700001</ele><time>2017-11-18T08:49:16Z</time></trkpt>
<trkpt lat="47.18922944" lon="-1.43257944"><ele>52.900002</ele><time>2017-11-18T08:49:18Z</time></trkpt>
<trkpt lat="47.18931389" lon="-1.43271389"><ele>52.400002</ele><time>2017-11-18T08:49:20Z</time></trkpt>
<trkpt lat="47.18941500" lon="-1.43287167"><ele>51.799999</ele><time>2017-11-18T08:49:23Z</time></trkpt>
<trkpt lat="47.18948889" lon="-1.43298556"><ele>51.299999</ele><time>2017-11-18T08:49:24Z</time></trkpt>
<trkpt lat="47.18957611" lon="-1.43312889"><ele>50.700001</ele><time>2017-11-18T08:49:26Z</time></trkpt>
<trkpt lat="47.18965944" lon="-1.43328333"><ele>50.099998</ele><time>2017-11-18T08:49:28Z</time></trkpt>
<trkpt lat="47.18973889" lon="-1.43345111"><ele>49.400002</ele><time>2017-11-18T08:49:30Z</time></trkpt>
<trkpt lat="47.18982167" lon="-1.43365833"><ele>48.700001</ele><time>2017-11-18T08:49:33Z</time></trkpt>
<trkpt lat="47.18986944" lon="-1.43380278"><ele>48.299999</ele><time>2017-11-18T08:49:34Z</time></trkpt>
<trkpt lat="47.18991583" lon="-1.43396083"><ele>47.799999</ele><time>2017-11-18T08:49:36Z</time></trkpt>
<trkpt lat="47.18995333" lon="-1.43409167"><ele>47.5</ele><time>2017-11-18T08:49:38Z</time></trkpt>
<trkpt lat="47.18997833" lon="-1.43418167"><ele>47.200001</ele><time>2017-11-18T08:49:38Z</time></trkpt>
<trkpt lat="47.19000167" lon="-1.43427333"><ele>46.900002</ele><time>2017-11-18T08:49:40Z</time></trkpt>
<trkpt lat="47.19002500" lon="-1.43436667"><ele>46.700001</ele><time>2017-11-18T08:49:40Z</time></trkpt>
<trkpt lat="47.19004500" lon="-1.43446167"><ele>46.599998</ele><time>2017-11-18T08:49:42Z</time></trkpt>
<trkpt lat="47.19006500" lon="-1.43455833"><ele>46.400002</ele><time>2017-11-18T08:49:42Z</time></trkpt>
<trkpt lat="47.19008167" lon="-1.43465500"><ele>46.200001</ele><time>2017-11-18T08:49:43Z</time></trkpt>
<trkpt lat="47.19009667" lon="-1.43475167"><ele>46.099998</ele><time>2017-11-18T08:49:45Z</time></trkpt>
<trkpt lat="47.19010833" lon="-1.43484833"><ele>45.900002</ele><time>2017-11-18T08:49:45Z</time></trkpt>
<trkpt lat="47.19011500" lon="-1.43494000"><ele>45.700001</ele><time>2017-11-18T08:49:47Z</time></trkpt>
<trkpt lat="47.19012444" lon="-1.43508889"><ele>45.5</ele><time>2017-11-18T08:49:48Z</time></trkpt>
<trkpt lat="47.19015389" lon="-1.43525833"><ele>45.400002</ele><time>2017-11-18T08:49:50Z</time></trkpt>
<trkpt lat="47.19022778" lon="-1.43538444"><ele>45.099998</ele><time>2017-11-18T08:49:52Z</time></trkpt>
<trkpt lat="47.19033833" lon="-1.43542833"><ele>44.900002</ele><time>2017-11-18T08:49:54Z</time></trkpt>
<trkpt lat="47.19045167" lon="-1.43543083"><ele>44.400002</ele><time>2017-11-18T08:49:56Z</time></trkpt>
<trkpt lat="47.19059278" lon="-1.43540778"><ele>44</ele><time>2017-11-18T08:49:58Z</time></trkpt>
<trkpt lat="47.19072889" lon="-1.43538778"><ele>43.900002</ele><time>2017-11-18T08:50:00Z</time></trkpt>
<trkpt lat="47.19086611" lon="-1.43537389"><ele>43.799999</ele><time>2017-11-18T08:50:03Z</time></trkpt>
<trkpt lat="47.19099667" lon="-1.43536222"><ele>43.799999</ele><time>2017-11-18T08:50:04Z</time></trkpt>
<trkpt lat="47.19112278" lon="-1.43534500"><ele>43.900002</ele><time>2017-11-18T08:50:06Z</time></trkpt>
<trkpt lat="47.19124333" lon="-1.43532000"><ele>43.900002</ele><time>2017-11-18T08:50:08Z</time></trkpt>
<trkpt lat="47.19136222" lon="-1.43528889"><ele>43.900002</ele><time>2017-11-18T08:50:10Z</time></trkpt>
<trkpt lat="47.19148056" lon="-1.43525167"><ele>43.900002</ele><time>2017-11-18T08:50:13Z</time></trkpt>
<trkpt lat="47.19160111" lon="-1.43520889"><ele>43.799999</ele><time>2017-11-18T08:50:14Z</time></trkpt>
<trkpt lat="47.19171250" lon="-1.43517083"><ele>43.700001</ele><time>2017-11-18T08:50:16Z</time></trkpt>
<trkpt lat="47.19184444" lon="-1.43511556"><ele>43.5</ele><time>2017-11-18T08:50:18Z</time></trkpt>
<trkpt lat="47.19196500" lon="-1.43506111"><ele>43.200001</ele><time>2017-11-18T08:50:20Z</time></trkpt>
<trkpt lat="47.19208556" lon="-1.43501000"><ele>43</ele><time>2017-11-18T08:50:22Z</time></trkpt>
<trkpt lat="47.19220333" lon="-1.43496000"><ele>42.700001</ele><time>2017-11-18T08:50:24Z</time></trkpt>
<trkpt lat="47.19232056" lon="-1.43490444"><ele>42.400002</ele><time>2017-11-18T08:50:27Z</time></trkpt>
<trkpt lat="47.19243722" lon="-1.43484389"><ele>42</ele><time>2017-11-18T08:50:28Z</time></trkpt>
<trkpt lat="47.19254889" lon="-1.43477722"><ele>41.5</ele><time>2017-11-18T08:50:30Z</time></trkpt>
<trkpt lat="47.19264167" lon="-1.43469167"><ele>40.900002</ele><time>2017-11-18T08:50:32Z</time></trkpt>
<trkpt lat="47.19268500" lon="-1.43455389"><ele>40.400002</ele><time>2017-11-18T08:50:34Z</time></trkpt>
<trkpt lat="47.19267167" lon="-1.43443833"><ele>40</ele><time>2017-11-18T08:50:36Z</time></trkpt>
<trkpt lat="47.19264667" lon="-1.43434833"><ele>39.900002</ele><time>2017-11-18T08:50:36Z</time></trkpt>
<trkpt lat="47.19259278" lon="-1.43419778"><ele>40.099998</ele><time>2017-11-18T08:50:38Z</time></trkpt>
<trkpt lat="47.19252611" lon="-1.43402778"><ele>40.299999</ele><time>2017-11-18T08:50:40Z</time></trkpt>
<trkpt lat="47.19245167" lon="-1.43384000"><ele>40.599998</ele><time>2017-11-18T08:50:43Z</time></trkpt>
<trkpt lat="47.19240444" lon="-1.43370778"><ele>40.900002</ele><time>2017-11-18T08:50:44Z</time></trkpt>
<trkpt lat="47.19235167" lon="-1.43355389"><ele>41.200001</ele><time>2017-11-18T08:50:46Z</time></trkpt>
<trkpt lat="47.19230611" lon="-1.43340278"><ele>41.700001</ele><time>2017-11-18T08:50:48Z</time></trkpt>
<trkpt lat="47.19225722" lon="-1.43325667"><ele>42.5</ele><time>2017-11-18T08:50:50Z</time></trkpt>
<trkpt lat="47.19219333" lon="-1.43310000"><ele>42.900002</ele><time>2017-11-18T08:50:53Z</time></trkpt>
<trkpt lat="47.19214944" lon="-1.43299389"><ele>43.299999</ele><time>2017-11-18T08:50:54Z</time></trkpt>
<trkpt lat="47.19209111" lon="-1.43287167"><ele>43.5</ele><time>2017-11-18T08:50:57Z</time></trkpt>
<trkpt lat="47.19203556" lon="-1.43275000"><ele>43.599998</ele><time>2017-11-18T08:50:58Z</time></trkpt>
<trkpt lat="47.19198056" lon="-1.43263111"><ele>43.700001</ele><time>2017-11-18T08:51:00Z</time></trkpt>
<trkpt lat="47.19192722" lon="-1.43251278"><ele>43.900002</ele><time>2017-11-18T08:51:02Z</time></trkpt>
<trkpt lat="47.19187389" lon="-1.43239444"><ele>44.200001</ele><time>2017-11-18T08:51:04Z</time></trkpt>
<trkpt lat="47.19182167" lon="-1.43227778"><ele>44.599998</ele><time>2017-11-18T08:51:07Z</time></trkpt>
<trkpt lat="47.19177000" lon="-1.43216389"><ele>45</ele><time>2017-11-18T08:51:08Z</time></trkpt>
<trkpt lat="47.19172111" lon="-1.43204889"><ele>45.400002</ele><time>2017-11-18T08:51:10Z</time></trkpt>
<trkpt lat="47.19167278" lon="-1.43193444"><ele>45.700001</ele><time>2017-11-18T08:51:12Z</time></trkpt>
<trkpt lat="47.19162611" lon="-1.43182056"><ele>46.099998</ele><time>2017-11-18T08:51:14Z</time></trkpt>
<trkpt lat="47.19157778" lon="-1.43170833"><ele>46.5</ele><time>2017-11-18T08:51:16Z</time></trkpt>
<trkpt lat="47.19153111" lon="-1.43159833"><ele>46.799999</ele><time>2017-11-18T08:51:18Z</time></trkpt>
<trkpt lat="47.19148444" lon="-1.43149111"><ele>47.099998</ele><time>2017-11-18T08:51:20Z</time></trkpt>
<trkpt lat="47.19143500" lon="-1.43138222"><ele>47.400002</ele><time>2017-11-18T08:51:23Z</time></trkpt>
<trkpt lat="47.19138667" lon="-1.43126889"><ele>47.599998</ele><time>2017-11-18T08:51:24Z</time></trkpt>
<trkpt lat="47.19133944" lon="-1.43115389"><ele>47.799999</ele><time>2017-11-18T08:51:26Z</time></trkpt>
<trkpt lat="47.19129278" lon="-1.43104444"><ele>48.099998</ele><time>2017-11-18T08:51:28Z</time></trkpt>
<trkpt lat="47.19124611" lon="-1.43094167"><ele>48.200001</ele><time>2017-11-18T08:51:30Z</time></trkpt>
<trkpt lat="47.19120056" lon="-1.43084000"><ele>48.400002</ele><time>2017-11-18T08:51:33Z</time></trkpt>
<trkpt lat="47.19114700" lon="-1.43072233"><ele>48.5</ele><time>2017-11-18T08:51:35Z</time></trkpt>
<trkpt lat="47.19109778" lon="-1.43060778"><ele>48.799999</ele><time>2017-11-18T08:51:37Z</time></trkpt>
<trkpt lat="47.19107944" lon="-1.43049889"><ele>48.799999</ele><time>2017-11-18T08:51:39Z</time></trkpt>
<trkpt lat="47.19109611" lon="-1.43038500"><ele>48.700001</ele><time>2017-11-18T08:51:42Z</time></trkpt>
<trkpt lat="47.19116967" lon="-1.43026100"><ele>48.700001</ele><time>2017-11-18T08:51:44Z</time></trkpt>
<trkpt lat="47.19129000" lon="-1.43014500"><ele>48.599998</ele><time>2017-11-18T08:51:47Z</time></trkpt>
<trkpt lat="47.19141500" lon="-1.43004700"><ele>48.5</ele><time>2017-11-18T08:51:50Z</time></trkpt>
<trkpt lat="47.19153800" lon="-1.42995767"><ele>48.299999</ele><time>2017-11-18T08:51:53Z</time></trkpt>
<trkpt lat="47.19165033" lon="-1.42987100"><ele>48.099998</ele><time>2017-11-18T08:51:56Z</time></trkpt>
<trkpt lat="47.19175300" lon="-1.42979133"><ele>48.099998</ele><time>2017-11-18T08:51:59Z</time></trkpt>
<trkpt lat="47.19184500" lon="-1.42971033"><ele>48</ele><time>2017-11-18T08:52:02Z</time></trkpt>
<trkpt lat="47.19194967" lon="-1.42962900"><ele>47.599998</ele><time>2017-11-18T08:52:05Z</time></trkpt>
<trkpt lat="47.19206433" lon="-1.42952900"><ele>47.200001</ele><time>2017-11-18T08:52:08Z</time></trkpt>
<trkpt lat="47.19217708" lon="-1.42943167"><ele>46.799999</ele><time>2017-11-18T08:52:10Z</time></trkpt>
<trkpt lat="47.19229500" lon="-1.42933722"><ele>46.299999</ele><time>2017-11-18T08:52:13Z</time></trkpt>
<trkpt lat="47.19240767" lon="-1.42924067"><ele>46</ele><time>2017-11-18T08:52:16Z</time></trkpt>
<trkpt lat="47.19253267" lon="-1.42912867"><ele>45.599998</ele><time>2017-11-18T08:52:19Z</time></trkpt>
<trkpt lat="47.19265433" lon="-1.42901600"><ele>45.099998</ele><time>2017-11-18T08:52:22Z</time></trkpt>
<trkpt lat="47.19276567" lon="-1.42890733"><ele>44.599998</ele><time>2017-11-18T08:52:25Z</time></trkpt>
<trkpt lat="47.19279167" lon="-1.42878900"><ele>44.599998</ele><time>2017-11-18T08:52:28Z</time></trkpt>
<trkpt lat="47.19274500" lon="-1.42868222"><ele>44.599998</ele><time>2017-11-18T08:52:30Z</time></trkpt>
<trkpt lat="47.19269222" lon="-1.42858167"><ele>44.700001</ele><time>2017-11-18T08:52:32Z</time></trkpt>
<trkpt lat="47.19263333" lon="-1.42847778"><ele>44.700001</ele><time>2017-11-18T08:52:34Z</time></trkpt>
<trkpt lat="47.19257444" lon="-1.42836556"><ele>44.799999</ele><time>2017-11-18T08:52:36Z</time></trkpt>
<trkpt lat="47.19251778" lon="-1.42825222"><ele>44.900002</ele><time>2017-11-18T08:52:38Z</time></trkpt>
<trkpt lat="47.19246056" lon="-1.42813889"><ele>44.900002</ele><time>2017-11-18T08:52:40Z</time></trkpt>
<trkpt lat="47.19240444" lon="-1.42802833"><ele>44.900002</ele><time>2017-11-18T08:52:43Z</time></trkpt>
<trkpt lat="47.19235056" lon="-1.42792389"><ele>44.900002</ele><time>2017-11-18T08:52:44Z</time></trkpt>
<trkpt lat="47.19231667" lon="-1.42783083"><ele>44.799999</ele><time>2017-11-18T08:52:46Z</time></trkpt>
<trkpt lat="47.19235733" lon="-1.42772367"><ele>44.599998</ele><time>2017-11-18T08:52:49Z</time></trkpt>
<trkpt lat="47.19245400" lon="-1.42763333"><ele>44.200001</ele><time>2017-11-18T08:52:52Z</time></trkpt>
<trkpt lat="47.19255800" lon="-1.42753400"><ele>43.799999</ele><time>2017-11-18T08:52:55Z</time></trkpt>
<trkpt lat="47.19266000" lon="-1.42743933"><ele>43.299999</ele><time>2017-11-18T08:52:58Z</time></trkpt>
<trkpt lat="47.19275867" lon="-1.42734800"><ele>42.900002</ele><time>2017-11-18T08:53:01Z</time></trkpt>
<trkpt lat="47.19286133" lon="-1.42725600"><ele>42.299999</ele><time>2017-11-18T08:53:04Z</time></trkpt>
<trkpt lat="47.19296133" lon="-1.42716867"><ele>41.799999</ele><time>2017-11-18T08:53:07Z</time></trkpt>
<trkpt lat="47.19305500" lon="-1.42708400"><ele>41.5</ele><time>2017-11-18T08:53:10Z</time></trkpt>
<trkpt lat="47.19307800" lon="-1.42697400"><ele>41.299999</ele><time>2017-11-18T08:53:13Z</time></trkpt>
<trkpt lat="47.19303667" lon="-1.42685778"><ele>41.299999</ele><time>2017-11-18T08:53:15Z</time></trkpt>
<trkpt lat="47.19299167" lon="-1.42674167"><ele>41.200001</ele><time>2017-11-18T08:53:18Z</time></trkpt>
<trkpt lat="47.19295833" lon="-1.42665833"><ele>41.099998</ele><time>2017-11-18T08:53:19Z</time></trkpt>
<trkpt lat="47.19292167" lon="-1.42656417"><ele>41</ele><time>2017-11-18T08:53:21Z</time></trkpt>
<trkpt lat="47.19287556" lon="-1.42645611"><ele>40.900002</ele><time>2017-11-18T08:53:23Z</time></trkpt>
<trkpt lat="47.19284533" lon="-1.42634233"><ele>40.700001</ele><time>2017-11-18T08:53:26Z</time></trkpt>
<trkpt lat="47.19290233" lon="-1.42626300"><ele>40.5</ele><time>2017-11-18T08:53:29Z</time></trkpt>
<trkpt lat="47.19300867" lon="-1.42622767"><ele>40.299999</ele><time>2017-11-18T08:53:32Z</time></trkpt>
<trkpt lat="47.19311389" lon="-1.42619444"><ele>40.099998</ele><time>2017-11-18T08:53:34Z</time></trkpt>
<trkpt lat="47.19320611" lon="-1.42616500"><ele>39.900002</ele><time>2017-11-18T08:53:37Z</time></trkpt>
<trkpt lat="47.19329889" lon="-1.42613056"><ele>39.700001</ele><time>2017-11-18T08:53:38Z</time></trkpt>
<trkpt lat="47.19339167" lon="-1.42610111"><ele>39.599998</ele><time>2017-11-18T08:53:40Z</time></trkpt>
<trkpt lat="47.19348167" lon="-1.42607278"><ele>39.400002</ele><time>2017-11-18T08:53:42Z</time></trkpt>
<trkpt lat="47.19357611" lon="-1.42604222"><ele>39.299999</ele><time>2017-11-18T08:53:44Z</time></trkpt>
<trkpt lat="47.19366500" lon="-1.42601000"><ele>39.200001</ele><time>2017-11-18T08:53:47Z</time></trkpt>
<trkpt lat="47.19375778" lon="-1.42597833"><ele>38.900002</ele><time>2017-11-18T08:53:48Z</time></trkpt>
<trkpt lat="47.19385000" lon="-1.42594833"><ele>38.799999</ele><time>2017-11-18T08:53:50Z</time></trkpt>
<trkpt lat="47.19394167" lon="-1.42591778"><ele>38.799999</ele><time>2017-11-18T08:53:53Z</time></trkpt>
<trkpt lat="47.19403500" lon="-1.42588722"><ele>38.5</ele><time>2017-11-18T08:53:54Z</time></trkpt>
<trkpt lat="47.19413333" lon="-1.42585222"><ele>38.299999</ele><time>2017-11-18T08:53:56Z</time></trkpt>
<trkpt lat="47.19423611" lon="-1.42581778"><ele>38</ele><time>2017-11-18T08:53:58Z</time></trkpt>
<trkpt lat="47.19434333" lon="-1.42578222"><ele>37.799999</ele><time>2017-11-18T08:54:00Z</time></trkpt>
<trkpt lat="47.19445333" lon="-1.42574611"><ele>37.599998</ele><time>2017-11-18T08:54:03Z</time></trkpt>
<trkpt lat="47.19456500" lon="-1.42571056"><ele>37.299999</ele><time>2017-11-18T08:54:04Z</time></trkpt>
<trkpt lat="47.19467778" lon="-1.42567389"><ele>37.099998</ele><time>2017-11-18T08:54:06Z</time></trkpt>
<trkpt lat="47.19479000" lon="-1.42563778"><ele>36.900002</ele><time>2017-11-18T08:54:08Z</time></trkpt>
<trkpt lat="47.19490167" lon="-1.42560111"><ele>36.799999</ele><time>2017-11-18T08:54:10Z</time></trkpt>
<trkpt lat="47.19503000" lon="-1.42556000"><ele>36.599998</ele><time>2017-11-18T08:54:12Z</time></trkpt>
<trkpt lat="47.19511889" lon="-1.42553111"><ele>36.599998</ele><time>2017-11-18T08:54:14Z</time></trkpt>
<trkpt lat="47.19522167" lon="-1.42549611"><ele>36.400002</ele><time>2017-11-18T08:54:17Z</time></trkpt>
<trkpt lat="47.19532333" lon="-1.42546111"><ele>36.400002</ele><time>2017-11-18T08:54:18Z</time></trkpt>
<trkpt lat="47.19542222" lon="-1.42542944"><ele>36.299999</ele><time>2017-11-18T08:54:20Z</time></trkpt>
<trkpt lat="47.19552000" lon="-1.42540611"><ele>36.200001</ele><time>2017-11-18T08:54:22Z</time></trkpt>
<trkpt lat="47.19561611" lon="-1.42537333"><ele>36.099998</ele><time>2017-11-18T08:54:24Z</time></trkpt>
<trkpt lat="47.19572367" lon="-1.42531200"><ele>36.099998</ele><time>2017-11-18T08:54:27Z</time></trkpt>
<trkpt lat="47.19584476" lon="-1.42523905"><ele>36</ele><time>2017-11-18T08:54:30Z</time></trkpt>
<trkpt lat="47.19594909" lon="-1.42516727"><ele>35.599998</ele><time>2017-11-18T08:54:35Z</time></trkpt>
<trkpt lat="47.19599367" lon="-1.42506733"><ele>34.700001</ele><time>2017-11-18T08:54:40Z</time></trkpt>
<trkpt lat="47.19592633" lon="-1.42495733"><ele>34.299999</ele><time>2017-11-18T08:54:43Z</time></trkpt>
<trkpt lat="47.19584333" lon="-1.42485056"><ele>34.200001</ele><time>2017-11-18T08:54:45Z</time></trkpt>
<trkpt lat="47.19575833" lon="-1.42473667"><ele>34.099998</ele><time>2017-11-18T08:54:48Z</time></trkpt>
<trkpt lat="47.19569167" lon="-1.42465611"><ele>34</ele><time>2017-11-18T08:54:49Z</time></trkpt>
<trkpt lat="47.19561917" lon="-1.42456500"><ele>33.900002</ele><time>2017-11-18T08:54:51Z</time></trkpt>
<trkpt lat="47.19553056" lon="-1.42445667"><ele>33.799999</ele><time>2017-11-18T08:54:53Z</time></trkpt>
<trkpt lat="47.19544611" lon="-1.42435389"><ele>33.700001</ele><time>2017-11-18T08:54:55Z</time></trkpt>
<trkpt lat="47.19534500" lon="-1.42423667"><ele>33.599998</ele><time>2017-11-18T08:54:57Z</time></trkpt>
<trkpt lat="47.19527278" lon="-1.42415500"><ele>33.400002</ele><time>2017-11-18T08:54:59Z</time></trkpt>
<trkpt lat="47.19518222" lon="-1.42406167"><ele>33.400002</ele><time>2017-11-18T08:55:02Z</time></trkpt>
<trkpt lat="47.19508722" lon="-1.42397556"><ele>33.299999</ele><time>2017-11-18T08:55:03Z</time></trkpt>
<trkpt lat="47.19499278" lon="-1.42389333"><ele>33.099998</ele><time>2017-11-18T08:55:05Z</time></trkpt>
<trkpt lat="47.19488000" lon="-1.42379333"><ele>32.900002</ele><time>2017-11-18T08:55:07Z</time></trkpt>
<trkpt lat="47.19480167" lon="-1.42372278"><ele>32.700001</ele><time>2017-11-18T08:55:09Z</time></trkpt>
<trkpt lat="47.19471667" lon="-1.42364583"><ele>32.5</ele><time>2017-11-18T08:55:11Z</time></trkpt>
<trkpt lat="47.19461278" lon="-1.42355722"><ele>32.200001</ele><time>2017-11-18T08:55:13Z</time></trkpt>
<trkpt lat="47.19451778" lon="-1.42347333"><ele>32</ele><time>2017-11-18T08:55:15Z</time></trkpt>
<trkpt lat="47.19440833" lon="-1.42337833"><ele>31.799999</ele><time>2017-11-18T08:55:18Z</time></trkpt>
<trkpt lat="47.19433333" lon="-1.42330889"><ele>31.6</ele><time>2017-11-18T08:55:19Z</time></trkpt>
<trkpt lat="47.19424333" lon="-1.42322833"><ele>31.4</ele><time>2017-11-18T08:55:21Z</time></trkpt>
<trkpt lat="47.19413200" lon="-1.42313033"><ele>31.299999</ele><time>2017-11-18T08:55:24Z</time></trkpt>
<trkpt lat="47.19401167" lon="-1.42302567"><ele>31.200001</ele><time>2017-11-18T08:55:27Z</time></trkpt>
<trkpt lat="47.19388967" lon="-1.42292267"><ele>30.9</ele><time>2017-11-18T08:55:30Z</time></trkpt>
<trkpt lat="47.19377467" lon="-1.42281167"><ele>30.799999</ele><time>2017-11-18T08:55:33Z</time></trkpt>
<trkpt lat="47.19366600" lon="-1.42270200"><ele>30.799999</ele><time>2017-11-18T08:55:36Z</time></trkpt>
<trkpt lat="47.19355433" lon="-1.42258833"><ele>30.799999</ele><time>2017-11-18T08:55:39Z</time></trkpt>
<trkpt lat="47.19344167" lon="-1.42246600"><ele>30.6</ele><time>2017-11-18T08:55:42Z</time></trkpt>
<trkpt lat="47.19334611" lon="-1.42235833"><ele>30.6</ele><time>2017-11-18T08:55:44Z</time></trkpt>
<trkpt lat="47.19326833" lon="-1.42226833"><ele>30.6</ele><time>2017-11-18T08:55:46Z</time></trkpt>
<trkpt lat="47.19318722" lon="-1.42217833"><ele>30.5</ele><time>2017-11-18T08:55:48Z</time></trkpt>
<trkpt lat="47.19308333" lon="-1.42206500"><ele>30.5</ele><time>2017-11-18T08:55:51Z</time></trkpt>
<trkpt lat="47.19298444" lon="-1.42195556"><ele>30.4</ele><time>2017-11-18T08:55:53Z</time></trkpt>
<trkpt lat="47.19292389" lon="-1.42184333"><ele>30.5</ele><time>2017-11-18T08:55:55Z</time></trkpt>
<trkpt lat="47.19292611" lon="-1.42169889"><ele>30.5</ele><time>2017-11-18T08:55:58Z</time></trkpt>
<trkpt lat="47.19299000" lon="-1.42157444"><ele>30.299999</ele><time>2017-11-18T08:55:59Z</time></trkpt>
<trkpt lat="47.19307000" lon="-1.42145833"><ele>29.9</ele><time>2017-11-18T08:56:01Z</time></trkpt>
<trkpt lat="47.19315278" lon="-1.42133833"><ele>29.799999</ele><time>2017-11-18T08:56:03Z</time></trkpt>
<trkpt lat="47.19323333" lon="-1.42121278"><ele>29.4</ele><time>2017-11-18T08:56:05Z</time></trkpt>
<trkpt lat="47.19331389" lon="-1.42109111"><ele>29.1</ele><time>2017-11-18T08:56:07Z</time></trkpt>
<trkpt lat="47.19339778" lon="-1.42096889"><ele>28.9</ele><time>2017-11-18T08:56:09Z</time></trkpt>
<trkpt lat="47.19348389" lon="-1.42084389"><ele>28.799999</ele><time>2017-11-18T08:56:12Z</time></trkpt>
<trkpt lat="47.19356778" lon="-1.42071944"><ele>28.700001</ele><time>2017-11-18T08:56:13Z</time></trkpt>
<trkpt lat="47.19365111" lon="-1.42059833"><ele>28.6</ele><time>2017-11-18T08:56:15Z</time></trkpt>
<trkpt lat="47.19373167" lon="-1.42047833"><ele>28.5</ele><time>2017-11-18T08:56:17Z</time></trkpt>
<trkpt lat="47.19380889" lon="-1.42035833"><ele>28.5</ele><time>2017-11-18T08:56:19Z</time></trkpt>
<trkpt lat="47.19387750" lon="-1.42025083"><ele>28.5</ele><time>2017-11-18T08:56:21Z</time></trkpt>
<trkpt lat="47.19395667" lon="-1.42012722"><ele>28.700001</ele><time>2017-11-18T08:56:23Z</time></trkpt>
<trkpt lat="47.19402778" lon="-1.42001778"><ele>28.6</ele><time>2017-11-18T08:56:25Z</time></trkpt>
<trkpt lat="47.19410000" lon="-1.41991278"><ele>28.4</ele><time>2017-11-18T08:56:27Z</time></trkpt>
<trkpt lat="47.19417167" lon="-1.41981000"><ele>28.299999</ele><time>2017-11-18T08:56:29Z</time></trkpt>
<trkpt lat="47.19424056" lon="-1.41971000"><ele>28.299999</ele><time>2017-11-18T08:56:31Z</time></trkpt>
<trkpt lat="47.19430056" lon="-1.41959722"><ele>28</ele><time>2017-11-18T08:56:33Z</time></trkpt>
<trkpt lat="47.19433167" lon="-1.41945667"><ele>27.6</ele><time>2017-11-18T08:56:35Z</time></trkpt>
<trkpt lat="47.19430889" lon="-1.41930500"><ele>27.5</ele><time>2017-11-18T08:56:38Z</time></trkpt>
<trkpt lat="47.19425222" lon="-1.41916611"><ele>27.5</ele><time>2017-11-18T08:56:39Z</time></trkpt>
<trkpt lat="47.19418111" lon="-1.41903500"><ele>27.299999</ele><time>2017-11-18T08:56:42Z</time></trkpt>
<trkpt lat="47.19410444" lon="-1.41890389"><ele>27</ele><time>2017-11-18T08:56:43Z</time></trkpt>
<trkpt lat="47.19402500" lon="-1.41876778"><ele>26.799999</ele><time>2017-11-18T08:56:45Z</time></trkpt>
<trkpt lat="47.19394000" lon="-1.41860167"><ele>26.799999</ele><time>2017-11-18T08:56:47Z</time></trkpt>
<trkpt lat="47.19388778" lon="-1.41847833"><ele>26.9</ele><time>2017-11-18T08:56:49Z</time></trkpt>
<trkpt lat="47.19383722" lon="-1.41832278"><ele>27.1</ele><time>2017-11-18T08:56:52Z</time></trkpt>
<trkpt lat="47.19379778" lon="-1.41816833"><ele>27.299999</ele><time>2017-11-18T08:56:53Z</time></trkpt>
<trkpt lat="47.19376333" lon="-1.41801667"><ele>27.299999</ele><time>2017-11-18T08:56:55Z</time></trkpt>
<trkpt lat="47.19372944" lon="-1.41786778"><ele>27.200001</ele><time>2017-11-18T08:56:57Z</time></trkpt>
<trkpt lat="47.19369667" lon="-1.41771944"><ele>27</ele><time>2017-11-18T08:56:59Z</time></trkpt>
<trkpt lat="47.19367333" lon="-1.41757500"><ele>27.1</ele><time>2017-11-18T08:57:01Z</time></trkpt>
<trkpt lat="47.19365611" lon="-1.41743500"><ele>27.200001</ele><time>2017-11-18T08:57:03Z</time></trkpt>
<trkpt lat="47.19364111" lon="-1.41729722"><ele>27.5</ele><time>2017-11-18T08:57:05Z</time></trkpt>
<trkpt lat="47.19363000" lon="-1.41716667"><ele>27.700001</ele><time>2017-11-18T08:57:08Z</time></trkpt>
<trkpt lat="47.19362500" lon="-1.41703722"><ele>28.1</ele><time>2017-11-18T08:57:09Z</time></trkpt>
<trkpt lat="47.19362778" lon="-1.41690778"><ele>28.5</ele><time>2017-11-18T08:57:11Z</time></trkpt>
<trkpt lat="47.19363056" lon="-1.41678333"><ele>28.9</ele><time>2017-11-18T08:57:13Z</time></trkpt>
<trkpt lat="47.19364333" lon="-1.41666333"><ele>29.200001</ele><time>2017-11-18T08:57:15Z</time></trkpt>
<trkpt lat="47.19364944" lon="-1.41654944"><ele>29.6</ele><time>2017-11-18T08:57:18Z</time></trkpt>
<trkpt lat="47.19362310" lon="-1.41643405"><ele>30.200001</ele><time>2017-11-18T08:57:20Z</time></trkpt>
<trkpt lat="47.19353700" lon="-1.41637967"><ele>31</ele><time>2017-11-18T08:57:24Z</time></trkpt>
<trkpt lat="47.19344125" lon="-1.41635333"><ele>31.5</ele><time>2017-11-18T08:57:27Z</time></trkpt>
<trkpt lat="47.19334133" lon="-1.41631367"><ele>31.9</ele><time>2017-11-18T08:57:30Z</time></trkpt>
<trkpt lat="47.19324067" lon="-1.41626500"><ele>32.400002</ele><time>2017-11-18T08:57:33Z</time></trkpt>
<trkpt lat="47.19314533" lon="-1.41621667"><ele>32.900002</ele><time>2017-11-18T08:57:36Z</time></trkpt>
<trkpt lat="47.19305400" lon="-1.41616400"><ele>33.5</ele><time>2017-11-18T08:57:39Z</time></trkpt>
<trkpt lat="47.19296133" lon="-1.41610867"><ele>34</ele><time>2017-11-18T08:57:42Z</time></trkpt>
<trkpt lat="47.19285767" lon="-1.41605633"><ele>34.299999</ele><time>2017-11-18T08:57:45Z</time></trkpt>
<trkpt lat="47.19274767" lon="-1.41599833"><ele>34.599998</ele><time>2017-11-18T08:57:48Z</time></trkpt>
<trkpt lat="47.19263933" lon="-1.41594067"><ele>34.799999</ele><time>2017-11-18T08:57:51Z</time></trkpt>
<trkpt lat="47.19253233" lon="-1.41588467"><ele>34.900002</ele><time>2017-11-18T08:57:54Z</time></trkpt>
<trkpt lat="47.19242633" lon="-1.41583200"><ele>34.799999</ele><time>2017-11-18T08:57:57Z</time></trkpt>
<trkpt lat="47.19232467" lon="-1.41576600"><ele>34.599998</ele><time>2017-11-18T08:58:00Z</time></trkpt>
<trkpt lat="47.19226389" lon="-1.41566278"><ele>34.599998</ele><time>2017-11-18T08:58:03Z</time></trkpt>
<trkpt lat="47.19225278" lon="-1.41555556"><ele>34.599998</ele><time>2017-11-18T08:58:04Z</time></trkpt>
<trkpt lat="47.19226556" lon="-1.41544000"><ele>34.400002</ele><time>2017-11-18T08:58:07Z</time></trkpt>
<trkpt lat="47.19229167" lon="-1.41532278"><ele>34.099998</ele><time>2017-11-18T08:58:08Z</time></trkpt>
<trkpt lat="47.19232444" lon="-1.41520111"><ele>33.599998</ele><time>2017-11-18T08:58:10Z</time></trkpt>
<trkpt lat="47.19235778" lon="-1.41507722"><ele>33</ele><time>2017-11-18T08:58:12Z</time></trkpt>
<trkpt lat="47.19239111" lon="-1.41494889"><ele>32.299999</ele><time>2017-11-18T08:58:14Z</time></trkpt>
<trkpt lat="47.19242167" lon="-1.41481167"><ele>31.700001</ele><time>2017-11-18T08:58:17Z</time></trkpt>
<trkpt lat="47.19244667" lon="-1.41466778"><ele>31.200001</ele><time>2017-11-18T08:58:18Z</time></trkpt>
<trkpt lat="47.19245667" lon="-1.41451611"><ele>30.4</ele><time>2017-11-18T08:58:20Z</time></trkpt>
<trkpt lat="47.19244389" lon="-1.41435778"><ele>29.5</ele><time>2017-11-18T08:58:23Z</time></trkpt>
<trkpt lat="47.19240944" lon="-1.41420111"><ele>28.6</ele><time>2017-11-18T08:58:24Z</time></trkpt>
<trkpt lat="47.19235444" lon="-1.41405333"><ele>27.799999</ele><time>2017-11-18T08:58:26Z</time></trkpt>
<trkpt lat="47.19231167" lon="-1.41391389"><ele>27.200001</ele><time>2017-11-18T08:58:28Z</time></trkpt>
<trkpt lat="47.19229944" lon="-1.41376889"><ele>26.799999</ele><time>2017-11-18T08:58:30Z</time></trkpt>
<trkpt lat="47.19228111" lon="-1.41363056"><ele>26.4</ele><time>2017-11-18T08:58:33Z</time></trkpt>
<trkpt lat="47.19221567" lon="-1.41349200"><ele>26.200001</ele><time>2017-11-18T08:58:35Z</time></trkpt>
<trkpt lat="47.19209833" lon="-1.41340333"><ele>26.1</ele><time>2017-11-18T08:58:38Z</time></trkpt>
<trkpt lat="47.19201944" lon="-1.41336667"><ele>26.200001</ele><time>2017-11-18T08:58:39Z</time></trkpt>
<trkpt lat="47.19192167" lon="-1.41334889"><ele>26.4</ele><time>2017-11-18T08:58:42Z</time></trkpt>
<trkpt lat="47.19180267" lon="-1.41331900"><ele>26.4</ele><time>2017-11-18T08:58:44Z</time></trkpt>
<trkpt lat="47.19171222" lon="-1.41320722"><ele>26.1</ele><time>2017-11-18T08:58:47Z</time></trkpt>
<trkpt lat="47.19167722" lon="-1.41307167"><ele>25.9</ele><time>2017-11-18T08:58:48Z</time></trkpt>
<trkpt lat="47.19166056" lon="-1.41294667"><ele>25.700001</ele><time>2017-11-18T08:58:50Z</time></trkpt>
<trkpt lat="47.19165889" lon="-1.41284000"><ele>25.299999</ele><time>2017-11-18T08:58:52Z</time></trkpt>
<trkpt lat="47.19169200" lon="-1.41272600"><ele>25.1</ele><time>2017-11-18T08:58:55Z</time></trkpt>
<trkpt lat="47.19176967" lon="-1.41261867"><ele>24.9</ele><time>2017-11-18T08:58:58Z</time></trkpt>
<trkpt lat="47.19187500" lon="-1.41254067"><ele>24.799999</ele><time>2017-11-18T08:59:01Z</time></trkpt>
<trkpt lat="47.19199400" lon="-1.41247100"><ele>24.6</ele><time>2017-11-18T08:59:04Z</time></trkpt>
<trkpt lat="47.19211733" lon="-1.41239033"><ele>24.200001</ele><time>2017-11-18T08:59:07Z</time></trkpt>
<trkpt lat="47.19222667" lon="-1.41231889"><ele>23.9</ele><time>2017-11-18T08:59:09Z</time></trkpt>
<trkpt lat="47.19231667" lon="-1.41226167"><ele>23.6</ele><time>2017-11-18T08:59:11Z</time></trkpt>
<trkpt lat="47.19240667" lon="-1.41220333"><ele>23.6</ele><time>2017-11-18T08:59:13Z</time></trkpt>
<trkpt lat="47.19249778" lon="-1.41214722"><ele>23.4</ele><time>2017-11-18T08:59:15Z</time></trkpt>
<trkpt lat="47.19261167" lon="-1.41207500"><ele>23.200001</ele><time>2017-11-18T08:59:18Z</time></trkpt>
<trkpt lat="47.19272167" lon="-1.41200111"><ele>22.9</ele><time>2017-11-18T08:59:20Z</time></trkpt>
<trkpt lat="47.19284667" lon="-1.41192417"><ele>22.6</ele><time>2017-11-18T08:59:23Z</time></trkpt>
<trkpt lat="47.19296167" lon="-1.41185500"><ele>22.4</ele><time>2017-11-18T08:59:26Z</time></trkpt>
<trkpt lat="47.19306867" lon="-1.41178467"><ele>22.1</ele><time>2017-11-18T08:59:29Z</time></trkpt>
<trkpt lat="47.19316870" lon="-1.41171741"><ele>21.9</ele><time>2017-11-18T08:59:33Z</time></trkpt>
<trkpt lat="47.19325324" lon="-1.41166304"><ele>21.9</ele><time>2017-11-18T08:59:43Z</time></trkpt>
<trkpt lat="47.19335619" lon="-1.41164071"><ele>21.700001</ele><time>2017-11-18T08:59:53Z</time></trkpt>
<trkpt lat="47.19345652" lon="-1.41158045"><ele>21.5</ele><time>2017-11-18T09:00:00Z</time></trkpt>
<trkpt lat="47.19353500" lon="-1.41152090"><ele>21.799999</ele><time>2017-11-18T09:01:55Z</time></trkpt>
<trkpt lat="47.19364433" lon="-1.41148733"><ele>22.299999</ele><time>2017-11-18T09:04:53Z</time></trkpt>
<trkpt lat="47.19375222" lon="-1.41143278"><ele>22.299999</ele><time>2017-11-18T09:04:55Z</time></trkpt>
<trkpt lat="47.19385556" lon="-1.41137944"><ele>22.1</ele><time>2017-11-18T09:04:58Z</time></trkpt>
<trkpt lat="47.19397389" lon="-1.41131889"><ele>21.700001</ele><time>2017-11-18T09:04:59Z</time></trkpt>
<trkpt lat="47.19410056" lon="-1.41123833"><ele>21.4</ele><time>2017-11-18T09:05:01Z</time></trkpt>
<trkpt lat="47.19422222" lon="-1.41113667"><ele>21.200001</ele><time>2017-11-18T09:05:03Z</time></trkpt>
<trkpt lat="47.19433778" lon="-1.41102111"><ele>20.799999</ele><time>2017-11-18T09:05:05Z</time></trkpt>
<trkpt lat="47.19444833" lon="-1.41090222"><ele>20.200001</ele><time>2017-11-18T09:05:07Z</time></trkpt>
<trkpt lat="47.19455556" lon="-1.41078000"><ele>20.1</ele><time>2017-11-18T09:05:09Z</time></trkpt>
<trkpt lat="47.19465833" lon="-1.41066111"><ele>20.1</ele><time>2017-11-18T09:05:12Z</time></trkpt>
<trkpt lat="47.19475722" lon="-1.41054722"><ele>20</ele><time>2017-11-18T09:05:13Z</time></trkpt>
<trkpt lat="47.19485222" lon="-1.41043167"><ele>19.700001</ele><time>2017-11-18T09:05:15Z</time></trkpt>
<trkpt lat="47.19495000" lon="-1.41031333"><ele>19.5</ele><time>2017-11-18T09:05:17Z</time></trkpt>
<trkpt lat="47.19505167" lon="-1.41019167"><ele>19.4</ele><time>2017-11-18T09:05:19Z</time></trkpt>
<trkpt lat="47.19514278" lon="-1.41007944"><ele>19.200001</ele><time>2017-11-18T09:05:22Z</time></trkpt>
<trkpt lat="47.19522611" lon="-1.40997944"><ele>19</ele><time>2017-11-18T09:05:23Z</time></trkpt>
<trkpt lat="47.19531222" lon="-1.40987500"><ele>19.299999</ele><time>2017-11-18T09:05:25Z</time></trkpt>
<trkpt lat="47.19542167" lon="-1.40974667"><ele>19.200001</ele><time>2017-11-18T09:05:28Z</time></trkpt>
<trkpt lat="47.19550500" lon="-1.40966333"><ele>19.1</ele><time>2017-11-18T09:05:29Z</time></trkpt>
<trkpt lat="47.19559083" lon="-1.40955833"><ele>18.9</ele><time>2017-11-18T09:05:31Z</time></trkpt>
<trkpt lat="47.19567222" lon="-1.40939889"><ele>18.799999</ele><time>2017-11-18T09:05:33Z</time></trkpt>
<trkpt lat="47.19571333" lon="-1.40928333"><ele>18.700001</ele><time>2017-11-18T09:05:35Z</time></trkpt>
<trkpt lat="47.19574333" lon="-1.40919333"><ele>18.700001</ele><time>2017-11-18T09:05:36Z</time></trkpt>
<trkpt lat="47.19577500" lon="-1.40910333"><ele>18.5</ele><time>2017-11-18T09:05:36Z</time></trkpt>
<trkpt lat="47.19580500" lon="-1.40901167"><ele>18.5</ele><time>2017-11-18T09:05:38Z</time></trkpt>
<trkpt lat="47.19583500" lon="-1.40891833"><ele>18.5</ele><time>2017-11-18T09:05:38Z</time></trkpt>
<trkpt lat="47.19586500" lon="-1.40882000"><ele>18.6</ele><time>2017-11-18T09:05:40Z</time></trkpt>
<trkpt lat="47.19588833" lon="-1.40872167"><ele>18.4</ele><time>2017-11-18T09:05:40Z</time></trkpt>
<trkpt lat="47.19591000" lon="-1.40862167"><ele>18.1</ele><time>2017-11-18T09:05:43Z</time></trkpt>
<trkpt lat="47.19593167" lon="-1.40852000"><ele>17.9</ele><time>2017-11-18T09:05:43Z</time></trkpt>
<trkpt lat="47.19595500" lon="-1.40841833"><ele>17.9</ele><time>2017-11-18T09:05:43Z</time></trkpt>
<trkpt lat="47.19597667" lon="-1.40831667"><ele>18</ele><time>2017-11-18T09:05:45Z</time></trkpt>
<trkpt lat="47.19599667" lon="-1.40821667"><ele>18</ele><time>2017-11-18T09:05:45Z</time></trkpt>
<trkpt lat="47.19601833" lon="-1.40812000"><ele>17.9</ele><time>2017-11-18T09:05:47Z</time></trkpt>
<trkpt lat="47.19603667" lon="-1.40802167"><ele>17.6</ele><time>2017-11-18T09:05:47Z</time></trkpt>
<trkpt lat="47.19605500" lon="-1.40792500"><ele>17.4</ele><time>2017-11-18T09:05:48Z</time></trkpt>
<trkpt lat="47.19607500" lon="-1.40782667"><ele>17.200001</ele><time>2017-11-18T09:05:50Z</time></trkpt>
<trkpt lat="47.19609167" lon="-1.40772833"><ele>17</ele><time>2017-11-18T09:05:50Z</time></trkpt>
<trkpt lat="47.19611000" lon="-1.40762833"><ele>17.1</ele><time>2017-11-18T09:05:52Z</time></trkpt>
<trkpt lat="47.19613333" lon="-1.40753167"><ele>17</ele><time>2017-11-18T09:05:52Z</time></trkpt>
<trkpt lat="47.19618611" lon="-1.40738722"><ele>16.9</ele><time>2017-11-18T09:05:54Z</time></trkpt>
<trkpt lat="47.19626500" lon="-1.40723556"><ele>16.799999</ele><time>2017-11-18T09:05:57Z</time></trkpt>
<trkpt lat="47.19634778" lon="-1.40709778"><ele>16.5</ele><time>2017-11-18T09:05:58Z</time></trkpt>
<trkpt lat="47.19642056" lon="-1.40695611"><ele>16.1</ele><time>2017-11-18T09:06:00Z</time></trkpt>
<trkpt lat="47.19649500" lon="-1.40678167"><ele>15.7</ele><time>2017-11-18T09:06:02Z</time></trkpt>
<trkpt lat="47.19654778" lon="-1.40665500"><ele>15.6</ele><time>2017-11-18T09:06:04Z</time></trkpt>
<trkpt lat="47.19660833" lon="-1.40650444"><ele>15.5</ele><time>2017-11-18T09:06:06Z</time></trkpt>
<trkpt lat="47.19666278" lon="-1.40636000"><ele>15.3</ele><time>2017-11-18T09:06:08Z</time></trkpt>
<trkpt lat="47.19671333" lon="-1.40622389"><ele>15.1</ele><time>2017-11-18T09:06:10Z</time></trkpt>
<trkpt lat="47.19676333" lon="-1.40608889"><ele>14.9</ele><time>2017-11-18T09:06:13Z</time></trkpt>
<trkpt lat="47.19681444" lon="-1.40595944"><ele>14.7</ele><time>2017-11-18T09:06:14Z</time></trkpt>
<trkpt lat="47.19686333" lon="-1.40583278"><ele>14.6</ele><time>2017-11-18T09:06:16Z</time></trkpt>
<trkpt lat="47.19691056" lon="-1.40570611"><ele>14.5</ele><time>2017-11-18T09:06:18Z</time></trkpt>
<trkpt lat="47.19695556" lon="-1.40558222"><ele>14.4</ele><time>2017-11-18T09:06:20Z</time></trkpt>
<trkpt lat="47.19700056" lon="-1.40545722"><ele>14.3</ele><time>2017-11-18T09:06:23Z</time></trkpt>
<trkpt lat="47.19704722" lon="-1.40532500"><ele>14</ele><time>2017-11-18T09:06:24Z</time></trkpt>
<trkpt lat="47.19709500" lon="-1.40519833"><ele>13.8</ele><time>2017-11-18T09:06:26Z</time></trkpt>
<trkpt lat="47.19715056" lon="-1.40504944"><ele>13.5</ele><time>2017-11-18T09:06:28Z</time></trkpt>
<trkpt lat="47.19719722" lon="-1.40491389"><ele>13.4</ele><time>2017-11-18T09:06:30Z</time></trkpt>
<trkpt lat="47.19725333" lon="-1.40476500"><ele>13.2</ele><time>2017-11-18T09:06:32Z</time></trkpt>
<trkpt lat="47.19729500" lon="-1.40466222"><ele>12.9</ele><time>2017-11-18T09:06:34Z</time></trkpt>
<trkpt lat="47.19734167" lon="-1.40453778"><ele>12.6</ele><time>2017-11-18T09:06:37Z</time></trkpt>
<trkpt lat="47.19738722" lon="-1.40441000"><ele>12.3</ele><time>2017-11-18T09:06:38Z</time></trkpt>
<trkpt lat="47.19743778" lon="-1.40428000"><ele>12.1</ele><time>2017-11-18T09:06:40Z</time></trkpt>
<trkpt lat="47.19748556" lon="-1.40415111"><ele>12</ele><time>2017-11-18T09:06:42Z</time></trkpt>
<trkpt lat="47.19753500" lon="-1.40402556"><ele>12</ele><time>2017-11-18T09:06:44Z</time></trkpt>
<trkpt lat="47.19758167" lon="-1.40391333"><ele>11.9</ele><time>2017-11-18T09:06:46Z</time></trkpt>
<trkpt lat="47.19763222" lon="-1.40378611"><ele>11.6</ele><time>2017-11-18T09:06:48Z</time></trkpt>
<trkpt lat="47.19767500" lon="-1.40367111"><ele>11.3</ele><time>2017-11-18T09:06:50Z</time></trkpt>
<trkpt lat="47.19772167" lon="-1.40352667"><ele>11.1</ele><time>2017-11-18T09:06:53Z</time></trkpt>
<trkpt lat="47.19775167" lon="-1.40342111"><ele>10.9</ele><time>2017-11-18T09:06:54Z</time></trkpt>
<trkpt lat="47.19776444" lon="-1.40328722"><ele>10.8</ele><time>2017-11-18T09:06:56Z</time></trkpt>
<trkpt lat="47.19775000" lon="-1.40314944"><ele>11.2</ele><time>2017-11-18T09:06:58Z</time></trkpt>
<trkpt lat="47.19770500" lon="-1.40302500"><ele>11.7</ele><time>2017-11-18T09:07:00Z</time></trkpt>
<trkpt lat="47.19765111" lon="-1.40290889"><ele>12.3</ele><time>2017-11-18T09:07:02Z</time></trkpt>
<trkpt lat="47.19758778" lon="-1.40279667"><ele>12.6</ele><time>2017-11-18T09:07:04Z</time></trkpt>
<trkpt lat="47.19752667" lon="-1.40268389"><ele>13</ele><time>2017-11-18T09:07:07Z</time></trkpt>
<trkpt lat="47.19746778" lon="-1.40257056"><ele>13.3</ele><time>2017-11-18T09:07:08Z</time></trkpt>
<trkpt lat="47.19741111" lon="-1.40245500"><ele>13.1</ele><time>2017-11-18T09:07:10Z</time></trkpt>
<trkpt lat="47.19735611" lon="-1.40232778"><ele>13.2</ele><time>2017-11-18T09:07:12Z</time></trkpt>
<trkpt lat="47.19729556" lon="-1.40218556"><ele>13</ele><time>2017-11-18T09:07:14Z</time></trkpt>
<trkpt lat="47.19723889" lon="-1.40204056"><ele>12.5</ele><time>2017-11-18T09:07:17Z</time></trkpt>
<trkpt lat="47.19719500" lon="-1.40190444"><ele>12.5</ele><time>2017-11-18T09:07:18Z</time></trkpt>
<trkpt lat="47.19717556" lon="-1.40177889"><ele>12.4</ele><time>2017-11-18T09:07:20Z</time></trkpt>
<trkpt lat="47.19719333" lon="-1.40166056"><ele>12.4</ele><time>2017-11-18T09:07:23Z</time></trkpt>
<trkpt lat="47.19724333" lon="-1.40154333"><ele>12.2</ele><time>2017-11-18T09:07:24Z</time></trkpt>
<trkpt lat="47.19728750" lon="-1.40143750"><ele>12.3</ele><time>2017-11-18T09:07:26Z</time></trkpt>
<trkpt lat="47.19734167" lon="-1.40131556"><ele>12.4</ele><time>2017-11-18T09:07:28Z</time></trkpt>
<trkpt lat="47.19738111" lon="-1.40119944"><ele>12.8</ele><time>2017-11-18T09:07:30Z</time></trkpt>
<trkpt lat="47.19741278" lon="-1.40108778"><ele>12.8</ele><time>2017-11-18T09:07:32Z</time></trkpt>
<trkpt lat="47.19744167" lon="-1.40098222"><ele>12.5</ele><time>2017-11-18T09:07:34Z</time></trkpt>
<trkpt lat="47.19747444" lon="-1.40088000"><ele>12</ele><time>2017-11-18T09:07:36Z</time></trkpt>
<trkpt lat="47.19750722" lon="-1.40077611"><ele>11.6</ele><time>2017-11-18T09:07:38Z</time></trkpt>
<trkpt lat="47.19754000" lon="-1.40066556"><ele>11.5</ele><time>2017-11-18T09:07:40Z</time></trkpt>
<trkpt lat="47.19756889" lon="-1.40055222"><ele>11.7</ele><time>2017-11-18T09:07:42Z</time></trkpt>
<trkpt lat="47.19759444" lon="-1.40043333"><ele>12</ele><time>2017-11-18T09:07:44Z</time></trkpt>
<trkpt lat="47.19761667" lon="-1.40030944"><ele>12.4</ele><time>2017-11-18T09:07:47Z</time></trkpt>
<trkpt lat="47.19763444" lon="-1.40018667"><ele>12.8</ele><time>2017-11-18T09:07:48Z</time></trkpt>
<trkpt lat="47.19764667" lon="-1.40006222"><ele>12.5</ele><time>2017-11-18T09:07:50Z</time></trkpt>
<trkpt lat="47.19765667" lon="-1.39994111"><ele>12.5</ele><time>2017-11-18T09:07:52Z</time></trkpt>
<trkpt lat="47.19766556" lon="-1.39981556"><ele>12.2</ele><time>2017-11-18T09:07:54Z</time></trkpt>
<trkpt lat="47.19767417" lon="-1.39970417"><ele>12.1</ele><time>2017-11-18T09:07:56Z</time></trkpt>
<trkpt lat="47.19768222" lon="-1.39958000"><ele>12.1</ele><time>2017-11-18T09:07:58Z</time></trkpt>
<trkpt lat="47.19768778" lon="-1.39947389"><ele>12.1</ele><time>2017-11-18T09:08:00Z</time></trkpt>
<trkpt lat="47.19769111" lon="-1.39937056"><ele>12.2</ele><time>2017-11-18T09:08:02Z</time></trkpt>
<trkpt lat="47.19769833" lon="-1.39926778"><ele>12.2</ele><time>2017-11-18T09:08:04Z</time></trkpt>
<trkpt lat="47.19771000" lon="-1.39915722"><ele>12.1</ele><time>2017-11-18T09:08:06Z</time></trkpt>
<trkpt lat="47.19772167" lon="-1.39904111"><ele>12</ele><time>2017-11-18T09:08:08Z</time></trkpt>
<trkpt lat="47.19773167" lon="-1.39892222"><ele>12</ele><time>2017-11-18T09:08:10Z</time></trkpt>
<trkpt lat="47.19773889" lon="-1.39879500"><ele>11.6</ele><time>2017-11-18T09:08:13Z</time></trkpt>
<trkpt lat="47.19774167" lon="-1.39866111"><ele>11.6</ele><time>2017-11-18T09:08:14Z</time></trkpt>
<trkpt lat="47.19774111" lon="-1.39852444"><ele>11.2</ele><time>2017-11-18T09:08:17Z</time></trkpt>
<trkpt lat="47.19774167" lon="-1.39838778"><ele>11.1</ele><time>2017-11-18T09:08:18Z</time></trkpt>
<trkpt lat="47.19774056" lon="-1.39825111"><ele>11.1</ele><time>2017-11-18T09:08:20Z</time></trkpt>
<trkpt lat="47.19773611" lon="-1.39811333"><ele>11.3</ele><time>2017-11-18T09:08:22Z</time></trkpt>
<trkpt lat="47.19772833" lon="-1.39797722"><ele>11.2</ele><time>2017-11-18T09:08:24Z</time></trkpt>
<trkpt lat="47.19771667" lon="-1.39785417"><ele>11.2</ele><time>2017-11-18T09:08:26Z</time></trkpt>
<trkpt lat="47.19770056" lon="-1.39770389"><ele>11</ele><time>2017-11-18T09:08:28Z</time></trkpt>
<trkpt lat="47.19769333" lon="-1.39756056"><ele>10.9</ele><time>2017-11-18T09:08:30Z</time></trkpt>
<trkpt lat="47.19769667" lon="-1.39739333"><ele>11.2</ele><time>2017-11-18T09:08:32Z</time></trkpt>
<trkpt lat="47.19770111" lon="-1.39727667"><ele>11.2</ele><time>2017-11-18T09:08:34Z</time></trkpt>
<trkpt lat="47.19770500" lon="-1.39713778"><ele>11.3</ele><time>2017-11-18T09:08:36Z</time></trkpt>
<trkpt lat="47.19770833" lon="-1.39700389"><ele>11.6</ele><time>2017-11-18T09:08:38Z</time></trkpt>
<trkpt lat="47.19772611" lon="-1.39686889"><ele>11.9</ele><time>2017-11-18T09:08:40Z</time></trkpt>
<trkpt lat="47.19775278" lon="-1.39673278"><ele>12.5</ele><time>2017-11-18T09:08:43Z</time></trkpt>
<trkpt lat="47.19778444" lon="-1.39659500"><ele>12.7</ele><time>2017-11-18T09:08:44Z</time></trkpt>
<trkpt lat="47.19781889" lon="-1.39645500"><ele>12.8</ele><time>2017-11-18T09:08:46Z</time></trkpt>
<trkpt lat="47.19785444" lon="-1.39631778"><ele>13</ele><time>2017-11-18T09:08:48Z</time></trkpt>
<trkpt lat="47.19788889" lon="-1.39618278"><ele>13.4</ele><time>2017-11-18T09:08:50Z</time></trkpt>
<trkpt lat="47.19792556" lon="-1.39604667"><ele>13.4</ele><time>2017-11-18T09:08:52Z</time></trkpt>
<trkpt lat="47.19796500" lon="-1.39591000"><ele>13.4</ele><time>2017-11-18T09:08:54Z</time></trkpt>
<trkpt lat="47.19800222" lon="-1.39578778"><ele>13.3</ele><time>2017-11-18T09:08:57Z</time></trkpt>
<trkpt lat="47.19803667" lon="-1.39567000"><ele>13.4</ele><time>2017-11-18T09:08:58Z</time></trkpt>
<trkpt lat="47.19808333" lon="-1.39555000"><ele>13.6</ele><time>2017-11-18T09:09:00Z</time></trkpt>
<trkpt lat="47.19813333" lon="-1.39542500"><ele>13.7</ele><time>2017-11-18T09:09:02Z</time></trkpt>
<trkpt lat="47.19817889" lon="-1.39529111"><ele>13.8</ele><time>2017-11-18T09:09:04Z</time></trkpt>
<trkpt lat="47.19822250" lon="-1.39516833"><ele>13.9</ele><time>2017-11-18T09:09:06Z</time></trkpt>
<trkpt lat="47.19827667" lon="-1.39502944"><ele>14.1</ele><time>2017-11-18T09:09:08Z</time></trkpt>
<trkpt lat="47.19832833" lon="-1.39490556"><ele>14.3</ele><time>2017-11-18T09:09:10Z</time></trkpt>
<trkpt lat="47.19839000" lon="-1.39477333"><ele>14.2</ele><time>2017-11-18T09:09:12Z</time></trkpt>
<trkpt lat="47.19843444" lon="-1.39468444"><ele>14.2</ele><time>2017-11-18T09:09:14Z</time></trkpt>
<trkpt lat="47.19848778" lon="-1.39457667"><ele>14.1</ele><time>2017-11-18T09:09:16Z</time></trkpt>
<trkpt lat="47.19853056" lon="-1.39446000"><ele>14.1</ele><time>2017-11-18T09:09:18Z</time></trkpt>
<trkpt lat="47.19854333" lon="-1.39433833"><ele>14.2</ele><time>2017-11-18T09:09:20Z</time></trkpt>
<trkpt lat="47.19851556" lon="-1.39422722"><ele>14.5</ele><time>2017-11-18T09:09:22Z</time></trkpt>
<trkpt lat="47.19844167" lon="-1.39411300"><ele>15.1</ele><time>2017-11-18T09:09:25Z</time></trkpt>
<trkpt lat="47.19836500" lon="-1.39397250"><ele>15.9</ele><time>2017-11-18T09:09:28Z</time></trkpt>
<trkpt lat="47.19832667" lon="-1.39387625"><ele>16.5</ele><time>2017-11-18T09:09:30Z</time></trkpt>
<trkpt lat="47.19831889" lon="-1.39376000"><ele>16.9</ele><time>2017-11-18T09:09:33Z</time></trkpt>
<trkpt lat="47.19833500" lon="-1.39366722"><ele>17.200001</ele><time>2017-11-18T09:09:35Z</time></trkpt>
<trkpt lat="47.19836833" lon="-1.39357111"><ele>17.5</ele><time>2017-11-18T09:09:37Z</time></trkpt>
<trkpt lat="47.19840778" lon="-1.39347333"><ele>17.799999</ele><time>2017-11-18T09:09:39Z</time></trkpt>
<trkpt lat="47.19844056" lon="-1.39336722"><ele>17.9</ele><time>2017-11-18T09:09:42Z</time></trkpt>
<trkpt lat="47.19847944" lon="-1.39326222"><ele>18</ele><time>2017-11-18T09:09:43Z</time></trkpt>
<trkpt lat="47.19852111" lon="-1.39315500"><ele>18</ele><time>2017-11-18T09:09:45Z</time></trkpt>
<trkpt lat="47.19856444" lon="-1.39304111"><ele>17.700001</ele><time>2017-11-18T09:09:47Z</time></trkpt>
<trkpt lat="47.19861056" lon="-1.39292722"><ele>17.5</ele><time>2017-11-18T09:09:49Z</time></trkpt>
<trkpt lat="47.19865667" lon="-1.39282250"><ele>17.4</ele><time>2017-11-18T09:09:51Z</time></trkpt>
<trkpt lat="47.19871056" lon="-1.39270333"><ele>17.4</ele><time>2017-11-18T09:09:53Z</time></trkpt>
<trkpt lat="47.19875889" lon="-1.39259944"><ele>17.4</ele><time>2017-11-18T09:09:55Z</time></trkpt>
<trkpt lat="47.19880667" lon="-1.39250389"><ele>17.299999</ele><time>2017-11-18T09:09:57Z</time></trkpt>
<trkpt lat="47.19885667" lon="-1.39240111"><ele>17.200001</ele><time>2017-11-18T09:09:59Z</time></trkpt>
<trkpt lat="47.19890833" lon="-1.39229444"><ele>17</ele><time>2017-11-18T09:10:01Z</time></trkpt>
<trkpt lat="47.19895556" lon="-1.39218778"><ele>16.9</ele><time>2017-11-18T09:10:03Z</time></trkpt>
<trkpt lat="47.19900333" lon="-1.39207722"><ele>16.799999</ele><time>2017-11-18T09:10:05Z</time></trkpt>
<trkpt lat="47.19905611" lon="-1.39196389"><ele>16.700001</ele><time>2017-11-18T09:10:08Z</time></trkpt>
<trkpt lat="47.19910944" lon="-1.39184944"><ele>16.5</ele><time>2017-11-18T09:10:09Z</time></trkpt>
<trkpt lat="47.19916167" lon="-1.39173389"><ele>16.5</ele><time>2017-11-18T09:10:12Z</time></trkpt>
<trkpt lat="47.19921278" lon="-1.39162333"><ele>16.4</ele><time>2017-11-18T09:10:13Z</time></trkpt>
<trkpt lat="47.19926722" lon="-1.39151167"><ele>16.299999</ele><time>2017-11-18T09:10:15Z</time></trkpt>
<trkpt lat="47.19932278" lon="-1.39140278"><ele>16.200001</ele><time>2017-11-18T09:10:17Z</time></trkpt>
<trkpt lat="47.19937222" lon="-1.39129722"><ele>16.1</ele><time>2017-11-18T09:10:19Z</time></trkpt>
<trkpt lat="47.19942056" lon="-1.39119778"><ele>15.9</ele><time>2017-11-18T09:10:22Z</time></trkpt>
<trkpt lat="47.19947389" lon="-1.39110111"><ele>15.7</ele><time>2017-11-18T09:10:23Z</time></trkpt>
<trkpt lat="47.19953111" lon="-1.39099944"><ele>15.6</ele><time>2017-11-18T09:10:25Z</time></trkpt>
<trkpt lat="47.19958278" lon="-1.39089278"><ele>15.3</ele><time>2017-11-18T09:10:27Z</time></trkpt>
<trkpt lat="47.19963611" lon="-1.39079056"><ele>15.1</ele><time>2017-11-18T09:10:29Z</time></trkpt>
<trkpt lat="47.19968222" lon="-1.39068611"><ele>14.9</ele><time>2017-11-18T09:10:31Z</time></trkpt>
<trkpt lat="47.19970556" lon="-1.39057167"><ele>14.8</ele><time>2017-11-18T09:10:33Z</time></trkpt>
<trkpt lat="47.19971500" lon="-1.39044444"><ele>14.8</ele><time>2017-11-18T09:10:35Z</time></trkpt>
<trkpt lat="47.19972500" lon="-1.39030667"><ele>14.5</ele><time>2017-11-18T09:10:38Z</time></trkpt>
<trkpt lat="47.19974444" lon="-1.39016278"><ele>14.3</ele><time>2017-11-18T09:10:39Z</time></trkpt>
<trkpt lat="47.19977556" lon="-1.39001500"><ele>14.2</ele><time>2017-11-18T09:10:41Z</time></trkpt>
<trkpt lat="47.19982778" lon="-1.38987222"><ele>13.8</ele><time>2017-11-18T09:10:43Z</time></trkpt>
<trkpt lat="47.19989667" lon="-1.38975611"><ele>13.4</ele><time>2017-11-18T09:10:45Z</time></trkpt>
<trkpt lat="47.19995833" lon="-1.38964722"><ele>13.2</ele><time>2017-11-18T09:10:48Z</time></trkpt>
<trkpt lat="47.19996722" lon="-1.38952111"><ele>13</ele><time>2017-11-18T09:10:49Z</time></trkpt>
<trkpt lat="47.19992667" lon="-1.38940667"><ele>13</ele><time>2017-11-18T09:10:51Z</time></trkpt>
<trkpt lat="47.19986111" lon="-1.38927944"><ele>13</ele><time>2017-11-18T09:10:53Z</time></trkpt>
<trkpt lat="47.19979222" lon="-1.38917611"><ele>13</ele><time>2017-11-18T09:10:55Z</time></trkpt>
<trkpt lat="47.19968333" lon="-1.38905167"><ele>12.8</ele><time>2017-11-18T09:10:58Z</time></trkpt>
<trkpt lat="47.19959433" lon="-1.38895133"><ele>12.6</ele><time>2017-11-18T09:11:01Z</time></trkpt>
<trkpt lat="47.19955167" lon="-1.38885222"><ele>12.4</ele><time>2017-11-18T09:11:03Z</time></trkpt>
<trkpt lat="47.19956944" lon="-1.38874944"><ele>12.5</ele><time>2017-11-18T09:11:05Z</time></trkpt>
<trkpt lat="47.19961833" lon="-1.38864389"><ele>12.5</ele><time>2017-11-18T09:11:07Z</time></trkpt>
<trkpt lat="47.19968556" lon="-1.38853667"><ele>12.4</ele><time>2017-11-18T09:11:09Z</time></trkpt>
<trkpt lat="47.19975500" lon="-1.38842778"><ele>12.2</ele><time>2017-11-18T09:11:11Z</time></trkpt>
<trkpt lat="47.19982889" lon="-1.38832111"><ele>12.1</ele><time>2017-11-18T09:11:13Z</time></trkpt>
<trkpt lat="47.19990667" lon="-1.38821444"><ele>11.9</ele><time>2017-11-18T09:11:15Z</time></trkpt>
<trkpt lat="47.19999056" lon="-1.38811167"><ele>11.8</ele><time>2017-11-18T09:11:18Z</time></trkpt>
<trkpt lat="47.20007556" lon="-1.38801444"><ele>11.8</ele><time>2017-11-18T09:11:19Z</time></trkpt>
<trkpt lat="47.20018600" lon="-1.38790833"><ele>11.8</ele><time>2017-11-18T09:11:22Z</time></trkpt>
<trkpt lat="47.20029944" lon="-1.38781944"><ele>11.9</ele><time>2017-11-18T09:11:24Z</time></trkpt>
<trkpt lat="47.20039444" lon="-1.38775278"><ele>12</ele><time>2017-11-18T09:11:26Z</time></trkpt>
<trkpt lat="47.20049222" lon="-1.38769000"><ele>12.1</ele><time>2017-11-18T09:11:28Z</time></trkpt>
<trkpt lat="47.20059278" lon="-1.38763111"><ele>12.3</ele><time>2017-11-18T09:11:30Z</time></trkpt>
<trkpt lat="47.20069389" lon="-1.38758000"><ele>12.6</ele><time>2017-11-18T09:11:32Z</time></trkpt>
<trkpt lat="47.20080595" lon="-1.38751905"><ele>13.2</ele><time>2017-11-18T09:11:35Z</time></trkpt>
<trkpt lat="47.20089700" lon="-1.38745783"><ele>13.6</ele><time>2017-11-18T09:11:40Z</time></trkpt>
<trkpt lat="47.20102500" lon="-1.38754500"><ele>13.1</ele><time>2017-11-18T09:11:58Z</time></trkpt>
<trkpt lat="47.20106500" lon="-1.38763611"><ele>12.9</ele><time>2017-11-18T09:11:59Z</time></trkpt>
<trkpt lat="47.20110333" lon="-1.38775444"><ele>12.7</ele><time>2017-11-18T09:12:01Z</time></trkpt>
<trkpt lat="47.20112889" lon="-1.38787556"><ele>12.6</ele><time>2017-11-18T09:12:03Z</time></trkpt>
<trkpt lat="47.20117300" lon="-1.38800033"><ele>12.8</ele><time>2017-11-18T09:12:06Z</time></trkpt>
<trkpt lat="47.20125567" lon="-1.38806733"><ele>12.7</ele><time>2017-11-18T09:12:09Z</time></trkpt>
<trkpt lat="47.20135567" lon="-1.38806600"><ele>12.5</ele><time>2017-11-18T09:12:12Z</time></trkpt>
<trkpt lat="47.20145148" lon="-1.38807593"><ele>12.4</ele><time>2017-11-18T09:12:16Z</time></trkpt>
<trkpt lat="47.20154759" lon="-1.38807981"><ele>12.4</ele><time>2017-11-18T09:12:21Z</time></trkpt>
<trkpt lat="47.20164208" lon="-1.38808236"><ele>11.7</ele><time>2017-11-18T09:12:26Z</time></trkpt>
<trkpt lat="47.20194306" lon="-1.38815917"><ele>17.5</ele><time>2017-11-18T09:13:41Z</time></trkpt>
<trkpt lat="47.20202667" lon="-1.38818033"><ele>15.7</ele><time>2017-11-18T09:13:48Z</time></trkpt>
<trkpt lat="47.20207667" lon="-1.38819083"><ele>15.1</ele><time>2017-11-18T09:13:52Z</time></trkpt>
<trkpt lat="47.20218296" lon="-1.38815500"><ele>13.8</ele><time>2017-11-18T09:14:02Z</time></trkpt>
<trkpt lat="47.20227767" lon="-1.38811100"><ele>11.6</ele><time>2017-11-18T09:14:06Z</time></trkpt>
<trkpt lat="47.20238767" lon="-1.38818267"><ele>10.6</ele><time>2017-11-18T09:14:09Z</time></trkpt>
<trkpt lat="47.20251800" lon="-1.38820800"><ele>10.6</ele><time>2017-11-18T09:14:12Z</time></trkpt>
<trkpt lat="47.20262900" lon="-1.38821533"><ele>10</ele><time>2017-11-18T09:14:15Z</time></trkpt>
<trkpt lat="47.20272767" lon="-1.38819033"><ele>9.6</ele><time>2017-11-18T09:14:18Z</time></trkpt>
<trkpt lat="47.20280556" lon="-1.38827111"><ele>8.5</ele><time>2017-11-18T09:14:20Z</time></trkpt>
<trkpt lat="47.20285611" lon="-1.38837500"><ele>7.8</ele><time>2017-11-18T09:14:22Z</time></trkpt>
<trkpt lat="47.20292667" lon="-1.38847867"><ele>8</ele><time>2017-11-18T09:14:25Z</time></trkpt>
<trkpt lat="47.20302708" lon="-1.38847417"><ele>8.4</ele><time>2017-11-18T09:14:28Z</time></trkpt>
<trkpt lat="47.20310222" lon="-1.38838111"><ele>8.2</ele><time>2017-11-18T09:14:30Z</time></trkpt>
<trkpt lat="47.20317467" lon="-1.38826733"><ele>8</ele><time>2017-11-18T09:14:33Z</time></trkpt>
<trkpt lat="47.20325278" lon="-1.38815722"><ele>8.3</ele><time>2017-11-18T09:14:35Z</time></trkpt>
<trkpt lat="47.20331611" lon="-1.38806000"><ele>9.2</ele><time>2017-11-18T09:14:38Z</time></trkpt>
<trkpt lat="47.20339333" lon="-1.38794700"><ele>9.4</ele><time>2017-11-18T09:14:40Z</time></trkpt>
<trkpt lat="47.20350167" lon="-1.38783667"><ele>9.5</ele><time>2017-11-18T09:14:43Z</time></trkpt>
<trkpt lat="47.20360000" lon="-1.38781300"><ele>9.2</ele><time>2017-11-18T09:14:46Z</time></trkpt>
<trkpt lat="47.20371042" lon="-1.38779188"><ele>9.1</ele><time>2017-11-18T09:14:50Z</time></trkpt>
<trkpt lat="47.20371900" lon="-1.38766567"><ele>9.2</ele><time>2017-11-18T09:14:54Z</time></trkpt>
<trkpt lat="47.20366267" lon="-1.38757067"><ele>9</ele><time>2017-11-18T09:14:57Z</time></trkpt>
<trkpt lat="47.20361233" lon="-1.38745733"><ele>9</ele><time>2017-11-18T09:15:00Z</time></trkpt>
<trkpt lat="47.20360000" lon="-1.38732500"><ele>9.1</ele><time>2017-11-18T09:15:02Z</time></trkpt>
<trkpt lat="47.20360944" lon="-1.38720667"><ele>8.9</ele><time>2017-11-18T09:15:04Z</time></trkpt>
<trkpt lat="47.20363111" lon="-1.38708056"><ele>8.6</ele><time>2017-11-18T09:15:06Z</time></trkpt>
<trkpt lat="47.20363722" lon="-1.38694056"><ele>8.4</ele><time>2017-11-18T09:15:08Z</time></trkpt>
<trkpt lat="47.20362500" lon="-1.38679556"><ele>8.6</ele><time>2017-11-18T09:15:10Z</time></trkpt>
<trkpt lat="47.20360000" lon="-1.38665056"><ele>8.8</ele><time>2017-11-18T09:15:13Z</time></trkpt>
<trkpt lat="47.20356778" lon="-1.38650556"><ele>8.9</ele><time>2017-11-18T09:15:14Z</time></trkpt>
<trkpt lat="47.20353417" lon="-1.38637750"><ele>8.9</ele><time>2017-11-18T09:15:16Z</time></trkpt>
<trkpt lat="47.20349444" lon="-1.38623667"><ele>8.9</ele><time>2017-11-18T09:15:18Z</time></trkpt>
<trkpt lat="47.20345444" lon="-1.38611167"><ele>8.9</ele><time>2017-11-18T09:15:20Z</time></trkpt>
<trkpt lat="47.20339500" lon="-1.38597833"><ele>8.9</ele><time>2017-11-18T09:15:23Z</time></trkpt>
<trkpt lat="47.20334778" lon="-1.38589333"><ele>8.9</ele><time>2017-11-18T09:15:24Z</time></trkpt>
<trkpt lat="47.20325929" lon="-1.38578643"><ele>8.9</ele><time>2017-11-18T09:15:27Z</time></trkpt>
<trkpt lat="47.20320881" lon="-1.38570214"><ele>8.9</ele><time>2017-11-18T09:15:31Z</time></trkpt>
<trkpt lat="47.20328967" lon="-1.38559300"><ele>8.7</ele><time>2017-11-18T09:15:35Z</time></trkpt>
<trkpt lat="47.20330667" lon="-1.38543889"><ele>8.1</ele><time>2017-11-18T09:15:37Z</time></trkpt>
<trkpt lat="47.20328444" lon="-1.38527778"><ele>7.8</ele><time>2017-11-18T09:15:39Z</time></trkpt>
<trkpt lat="47.20325778" lon="-1.38511389"><ele>7.5</ele><time>2017-11-18T09:15:41Z</time></trkpt>
<trkpt lat="47.20322889" lon="-1.38496000"><ele>7.4</ele><time>2017-11-18T09:15:43Z</time></trkpt>
<trkpt lat="47.20319111" lon="-1.38481389"><ele>7.2</ele><time>2017-11-18T09:15:45Z</time></trkpt>
<trkpt lat="47.20314333" lon="-1.38468778"><ele>7.3</ele><time>2017-11-18T09:15:48Z</time></trkpt>
<trkpt lat="47.20309333" lon="-1.38455722"><ele>6.3</ele><time>2017-11-18T09:15:49Z</time></trkpt>
<trkpt lat="47.20303444" lon="-1.38443389"><ele>5.5</ele><time>2017-11-18T09:15:51Z</time></trkpt>
<trkpt lat="47.20294633" lon="-1.38431967"><ele>4.9</ele><time>2017-11-18T09:15:54Z</time></trkpt>
<trkpt lat="47.20284567" lon="-1.38423400"><ele>4.4</ele><time>2017-11-18T09:15:57Z</time></trkpt>
<trkpt lat="47.20274738" lon="-1.38415571"><ele>4.2</ele><time>2017-11-18T09:16:00Z</time></trkpt>
<trkpt lat="47.20264944" lon="-1.38407833"><ele>4</ele><time>2017-11-18T09:16:05Z</time></trkpt>
<trkpt lat="47.20256258" lon="-1.38404530"><ele>5.4</ele><time>2017-11-18T09:18:09Z</time></trkpt>
<trkpt lat="47.20245667" lon="-1.38399167"><ele>6.8</ele><time>2017-11-18T09:20:37Z</time></trkpt>
<trkpt lat="47.20235357" lon="-1.38392214"><ele>6.5</ele><time>2017-11-18T09:20:41Z</time></trkpt>
<trkpt lat="47.20224786" lon="-1.38383881"><ele>6.4</ele><time>2017-11-18T09:20:45Z</time></trkpt>
<trkpt lat="47.20214000" lon="-1.38372762"><ele>6.2</ele><time>2017-11-18T09:20:49Z</time></trkpt>
<trkpt lat="47.20202167" lon="-1.38362000"><ele>6.2</ele><time>2017-11-18T09:20:53Z</time></trkpt>
<trkpt lat="47.20192600" lon="-1.38351000"><ele>6.5</ele><time>2017-11-18T09:20:57Z</time></trkpt>
<trkpt lat="47.20185000" lon="-1.38342133"><ele>6.5</ele><time>2017-11-18T09:21:00Z</time></trkpt>
<trkpt lat="47.20177733" lon="-1.38332200"><ele>6.4</ele><time>2017-11-18T09:21:03Z</time></trkpt>
<trkpt lat="47.20171889" lon="-1.38322056"><ele>7</ele><time>2017-11-18T09:21:05Z</time></trkpt>
<trkpt lat="47.20166733" lon="-1.38310200"><ele>7.3</ele><time>2017-11-18T09:21:08Z</time></trkpt>
<trkpt lat="47.20160533" lon="-1.38300367"><ele>6.9</ele><time>2017-11-18T09:21:11Z</time></trkpt>
<trkpt lat="47.20153214" lon="-1.38289952"><ele>6.3</ele><time>2017-11-18T09:21:14Z</time></trkpt>
<trkpt lat="47.20143900" lon="-1.38281700"><ele>6.6</ele><time>2017-11-18T09:21:18Z</time></trkpt>
<trkpt lat="47.20133600" lon="-1.38274400"><ele>6.8</ele><time>2017-11-18T09:21:21Z</time></trkpt>
<trkpt lat="47.20121767" lon="-1.38265233"><ele>7.6</ele><time>2017-11-18T09:21:24Z</time></trkpt>
<trkpt lat="47.20109833" lon="-1.38256700"><ele>7.7</ele><time>2017-11-18T09:21:27Z</time></trkpt>
<trkpt lat="47.20097333" lon="-1.38248333"><ele>5.5</ele><time>2017-11-18T09:21:30Z</time></trkpt>
<trkpt lat="47.20085400" lon="-1.38244233"><ele>5.1</ele><time>2017-11-18T09:21:33Z</time></trkpt>
<trkpt lat="47.20075300" lon="-1.38241533"><ele>6.3</ele><time>2017-11-18T09:21:36Z</time></trkpt>
<trkpt lat="47.20065133" lon="-1.38235400"><ele>6.3</ele><time>2017-11-18T09:21:39Z</time></trkpt>
<trkpt lat="47.20053400" lon="-1.38223400"><ele>4.9</ele><time>2017-11-18T09:21:42Z</time></trkpt>
<trkpt lat="47.20041833" lon="-1.38213700"><ele>4.8</ele><time>2017-11-18T09:21:45Z</time></trkpt>
<trkpt lat="47.20029733" lon="-1.38211000"><ele>3.5</ele><time>2017-11-18T09:21:48Z</time></trkpt>
<trkpt lat="47.20022500" lon="-1.38218389"><ele>3.7</ele><time>2017-11-18T09:21:50Z</time></trkpt>
<trkpt lat="47.20020111" lon="-1.38227889"><ele>4.1</ele><time>2017-11-18T09:21:52Z</time></trkpt>
<trkpt lat="47.20019233" lon="-1.38239033"><ele>4.1</ele><time>2017-11-18T09:21:55Z</time></trkpt>
<trkpt lat="47.20019476" lon="-1.38248595"><ele>4.6</ele><time>2017-11-18T09:21:58Z</time></trkpt>
<trkpt lat="47.20019315" lon="-1.38259630"><ele>5.1</ele><time>2017-11-18T09:22:03Z</time></trkpt>
<trkpt lat="47.20019000" lon="-1.38268167"><ele>5.3</ele><time>2017-11-18T09:22:08Z</time></trkpt>
<trkpt lat="47.20019000" lon="-1.38277567"><ele>5.3</ele><time>2017-11-18T09:22:11Z</time></trkpt>
<trkpt lat="47.20017458" lon="-1.38285542"><ele>5.3</ele><time>2017-11-18T09:22:14Z</time></trkpt>
<trkpt lat="47.20015262" lon="-1.38304262"><ele>7</ele><time>2017-11-18T09:22:44Z</time></trkpt>
<trkpt lat="47.20013444" lon="-1.38315222"><ele>7.3</ele><time>2017-11-18T09:22:48Z</time></trkpt>
<trkpt lat="47.20012000" lon="-1.38325000"><ele>7.4</ele><time>2017-11-18T09:22:49Z</time></trkpt>
<trkpt lat="47.20010722" lon="-1.38334611"><ele>7.4</ele><time>2017-11-18T09:22:51Z</time></trkpt>
<trkpt lat="47.20009111" lon="-1.38344056"><ele>7.6</ele><time>2017-11-18T09:22:53Z</time></trkpt>
<trkpt lat="47.20007556" lon="-1.38353611"><ele>7.6</ele><time>2017-11-18T09:22:55Z</time></trkpt>
<trkpt lat="47.20006278" lon="-1.38363111"><ele>7.6</ele><time>2017-11-18T09:22:57Z</time></trkpt>
<trkpt lat="47.20004611" lon="-1.38373444"><ele>7.6</ele><time>2017-11-18T09:22:59Z</time></trkpt>
<trkpt lat="47.20002778" lon="-1.38383556"><ele>7.7</ele><time>2017-11-18T09:23:01Z</time></trkpt>
<trkpt lat="47.20000944" lon="-1.38393500"><ele>7.8</ele><time>2017-11-18T09:23:03Z</time></trkpt>
<trkpt lat="47.19999500" lon="-1.38403389"><ele>8</ele><time>2017-11-18T09:23:05Z</time></trkpt>
<trkpt lat="47.19997767" lon="-1.38414900"><ele>8.2</ele><time>2017-11-18T09:23:08Z</time></trkpt>
<trkpt lat="47.19997648" lon="-1.38427185"><ele>8.6</ele><time>2017-11-18T09:23:12Z</time></trkpt>
<trkpt lat="47.20003519" lon="-1.38435074"><ele>9.3</ele><time>2017-11-18T09:23:17Z</time></trkpt>
<trkpt lat="47.20009367" lon="-1.38444667"><ele>7.9</ele><time>2017-11-18T09:23:21Z</time></trkpt>
<trkpt lat="47.20014467" lon="-1.38454433"><ele>7.9</ele><time>2017-11-18T09:23:24Z</time></trkpt>
<trkpt lat="47.20018067" lon="-1.38464100"><ele>7.6</ele><time>2017-11-18T09:23:27Z</time></trkpt>
<trkpt lat="47.20013700" lon="-1.38475033"><ele>6.8</ele><time>2017-11-18T09:23:30Z</time></trkpt>
<trkpt lat="47.20003667" lon="-1.38482000"><ele>6.3</ele><time>2017-11-18T09:23:33Z</time></trkpt>
<trkpt lat="47.19992667" lon="-1.38487300"><ele>6.6</ele><time>2017-11-18T09:23:35Z</time></trkpt>
<trkpt lat="47.19980833" lon="-1.38494367"><ele>6.4</ele><time>2017-11-18T09:23:38Z</time></trkpt>
<trkpt lat="47.19968400" lon="-1.38500300"><ele>6.3</ele><time>2017-11-18T09:23:41Z</time></trkpt>
<trkpt lat="47.19955800" lon="-1.38507100"><ele>5.9</ele><time>2017-11-18T09:23:44Z</time></trkpt>
<trkpt lat="47.19945056" lon="-1.38513667"><ele>5.6</ele><time>2017-11-18T09:23:47Z</time></trkpt>
<trkpt lat="47.19933567" lon="-1.38519800"><ele>5.7</ele><time>2017-11-18T09:23:49Z</time></trkpt>
<trkpt lat="47.19921267" lon="-1.38526000"><ele>5.5</ele><time>2017-11-18T09:23:52Z</time></trkpt>
<trkpt lat="47.19909548" lon="-1.38531286"><ele>5.3</ele><time>2017-11-18T09:23:55Z</time></trkpt>
<trkpt lat="47.19898417" lon="-1.38524083"><ele>5.4</ele><time>2017-11-18T09:23:59Z</time></trkpt>
<trkpt lat="47.19888300" lon="-1.38524000"><ele>5.6</ele><time>2017-11-18T09:24:02Z</time></trkpt>
<trkpt lat="47.19877033" lon="-1.38524900"><ele>5.5</ele><time>2017-11-18T09:24:05Z</time></trkpt>
<trkpt lat="47.19865800" lon="-1.38524467"><ele>5.8</ele><time>2017-11-18T09:24:08Z</time></trkpt>
<trkpt lat="47.19854900" lon="-1.38525167"><ele>5.7</ele><time>2017-11-18T09:24:11Z</time></trkpt>
<trkpt lat="47.19843367" lon="-1.38528400"><ele>5.5</ele><time>2017-11-18T09:24:14Z</time></trkpt>
<trkpt lat="47.19831433" lon="-1.38531967"><ele>5.1</ele><time>2017-11-18T09:24:17Z</time></trkpt>
<trkpt lat="47.19819700" lon="-1.38538567"><ele>5.4</ele><time>2017-11-18T09:24:20Z</time></trkpt>
<trkpt lat="47.19808500" lon="-1.38549067"><ele>5.5</ele><time>2017-11-18T09:24:23Z</time></trkpt>
<trkpt lat="47.19796933" lon="-1.38559567"><ele>5.2</ele><time>2017-11-18T09:24:26Z</time></trkpt>
<trkpt lat="47.19786056" lon="-1.38566389"><ele>4.8</ele><time>2017-11-18T09:24:28Z</time></trkpt>
<trkpt lat="47.19774800" lon="-1.38572200"><ele>4.8</ele><time>2017-11-18T09:24:31Z</time></trkpt>
<trkpt lat="47.19763567" lon="-1.38582433"><ele>4.9</ele><time>2017-11-18T09:24:34Z</time></trkpt>
<trkpt lat="47.19753467" lon="-1.38593733"><ele>5.2</ele><time>2017-11-18T09:24:37Z</time></trkpt>
<trkpt lat="47.19741767" lon="-1.38602900"><ele>5.3</ele><time>2017-11-18T09:24:40Z</time></trkpt>
<trkpt lat="47.19730767" lon="-1.38613200"><ele>5.2</ele><time>2017-11-18T09:24:43Z</time></trkpt>
<trkpt lat="47.19720400" lon="-1.38623567"><ele>5.5</ele><time>2017-11-18T09:24:46Z</time></trkpt>
<trkpt lat="47.19710900" lon="-1.38635300"><ele>5.9</ele><time>2017-11-18T09:24:49Z</time></trkpt>
<trkpt lat="47.19704278" lon="-1.38645611"><ele>6.4</ele><time>2017-11-18T09:24:51Z</time></trkpt>
<trkpt lat="47.19700278" lon="-1.38656278"><ele>6.6</ele><time>2017-11-18T09:24:53Z</time></trkpt>
<trkpt lat="47.19696889" lon="-1.38667889"><ele>6.8</ele><time>2017-11-18T09:24:55Z</time></trkpt>
<trkpt lat="47.19692611" lon="-1.38677833"><ele>7.2</ele><time>2017-11-18T09:24:58Z</time></trkpt>
<trkpt lat="47.19688833" lon="-1.38687056"><ele>8</ele><time>2017-11-18T09:24:59Z</time></trkpt>
<trkpt lat="47.19684433" lon="-1.38697833"><ele>8.9</ele><time>2017-11-18T09:25:02Z</time></trkpt>
<trkpt lat="47.19678000" lon="-1.38709048"><ele>10</ele><time>2017-11-18T09:25:05Z</time></trkpt>
<trkpt lat="47.19671889" lon="-1.38719889"><ele>11.7</ele><time>2017-11-18T09:25:08Z</time></trkpt>
<trkpt lat="47.19666467" lon="-1.38730933"><ele>12.7</ele><time>2017-11-18T09:25:11Z</time></trkpt>
<trkpt lat="47.19660833" lon="-1.38743400"><ele>13.4</ele><time>2017-11-18T09:25:14Z</time></trkpt>
<trkpt lat="47.19653067" lon="-1.38756733"><ele>12.8</ele><time>2017-11-18T09:25:17Z</time></trkpt>
<trkpt lat="47.19644367" lon="-1.38767033"><ele>12.7</ele><time>2017-11-18T09:25:20Z</time></trkpt>
<trkpt lat="47.19633500" lon="-1.38777429"><ele>11.9</ele><time>2017-11-18T09:25:23Z</time></trkpt>
<trkpt lat="47.19621619" lon="-1.38786619"><ele>12</ele><time>2017-11-18T09:25:27Z</time></trkpt>
<trkpt lat="47.19609690" lon="-1.38796167"><ele>13.5</ele><time>2017-11-18T09:25:31Z</time></trkpt>
<trkpt lat="47.19598548" lon="-1.38806095"><ele>14.1</ele><time>2017-11-18T09:25:35Z</time></trkpt>
<trkpt lat="47.19589133" lon="-1.38815400"><ele>14.5</ele><time>2017-11-18T09:25:39Z</time></trkpt>
<trkpt lat="47.19581067" lon="-1.38825900"><ele>15</ele><time>2017-11-18T09:25:42Z</time></trkpt>
<trkpt lat="47.19573033" lon="-1.38837900"><ele>15.7</ele><time>2017-11-18T09:25:45Z</time></trkpt>
<trkpt lat="47.19563333" lon="-1.38850833"><ele>15.9</ele><time>2017-11-18T09:25:48Z</time></trkpt>
<trkpt lat="47.19555100" lon="-1.38861433"><ele>16.200001</ele><time>2017-11-18T09:25:51Z</time></trkpt>
<trkpt lat="47.19545733" lon="-1.38871600"><ele>16.4</ele><time>2017-11-18T09:25:54Z</time></trkpt>
<trkpt lat="47.19536733" lon="-1.38880833"><ele>16.299999</ele><time>2017-11-18T09:25:57Z</time></trkpt>
<trkpt lat="47.19527300" lon="-1.38891767"><ele>15.9</ele><time>2017-11-18T09:26:00Z</time></trkpt>
<trkpt lat="47.19517833" lon="-1.38904167"><ele>15.8</ele><time>2017-11-18T09:26:03Z</time></trkpt>
<trkpt lat="47.19512000" lon="-1.38911667"><ele>15.7</ele><time>2017-11-18T09:26:04Z</time></trkpt>
<trkpt lat="47.19505111" lon="-1.38921222"><ele>15.6</ele><time>2017-11-18T09:26:06Z</time></trkpt>
<trkpt lat="47.19498222" lon="-1.38930611"><ele>15.4</ele><time>2017-11-18T09:26:08Z</time></trkpt>
<trkpt lat="47.19491167" lon="-1.38940222"><ele>15.5</ele><time>2017-11-18T09:26:10Z</time></trkpt>
<trkpt lat="47.19481233" lon="-1.38951833"><ele>15.4</ele><time>2017-11-18T09:26:13Z</time></trkpt>
<trkpt lat="47.19468167" lon="-1.38963667"><ele>15.2</ele><time>2017-11-18T09:26:16Z</time></trkpt>
<trkpt lat="47.19455633" lon="-1.38974133"><ele>15</ele><time>2017-11-18T09:26:19Z</time></trkpt>
<trkpt lat="47.19444528" lon="-1.38977833"><ele>14.8</ele><time>2017-11-18T09:26:22Z</time></trkpt>
<trkpt lat="47.19436000" lon="-1.38966944"><ele>14.9</ele><time>2017-11-18T09:26:25Z</time></trkpt>
<trkpt lat="47.19430167" lon="-1.38955500"><ele>14.8</ele><time>2017-11-18T09:26:27Z</time></trkpt>
<trkpt lat="47.19424500" lon="-1.38942833"><ele>14.4</ele><time>2017-11-18T09:26:29Z</time></trkpt>
<trkpt lat="47.19418500" lon="-1.38930222"><ele>14.2</ele><time>2017-11-18T09:26:32Z</time></trkpt>
<trkpt lat="47.19411833" lon="-1.38917889"><ele>13.4</ele><time>2017-11-18T09:26:33Z</time></trkpt>
<trkpt lat="47.19404611" lon="-1.38905556"><ele>12.9</ele><time>2017-11-18T09:26:35Z</time></trkpt>
<trkpt lat="47.19396667" lon="-1.38894056"><ele>12.4</ele><time>2017-11-18T09:26:37Z</time></trkpt>
<trkpt lat="47.19388500" lon="-1.38882944"><ele>12</ele><time>2017-11-18T09:26:39Z</time></trkpt>
<trkpt lat="47.19380333" lon="-1.38872944"><ele>11.5</ele><time>2017-11-18T09:26:41Z</time></trkpt>
<trkpt lat="47.19371944" lon="-1.38863722"><ele>11</ele><time>2017-11-18T09:26:43Z</time></trkpt>
<trkpt lat="47.19363167" lon="-1.38854778"><ele>10.5</ele><time>2017-11-18T09:26:45Z</time></trkpt>
<trkpt lat="47.19350917" lon="-1.38842000"><ele>9.9</ele><time>2017-11-18T09:26:48Z</time></trkpt>
<trkpt lat="47.19339167" lon="-1.38830500"><ele>9.3</ele><time>2017-11-18T09:26:51Z</time></trkpt>
<trkpt lat="47.19328167" lon="-1.38819944"><ele>8.7</ele><time>2017-11-18T09:26:53Z</time></trkpt>
<trkpt lat="47.19316967" lon="-1.38809233"><ele>8.2</ele><time>2017-11-18T09:26:56Z</time></trkpt>
<trkpt lat="47.19304033" lon="-1.38797333"><ele>7.7</ele><time>2017-11-18T09:26:59Z</time></trkpt>
<trkpt lat="47.19291867" lon="-1.38785467"><ele>7.3</ele><time>2017-11-18T09:27:02Z</time></trkpt>
<trkpt lat="47.19280800" lon="-1.38773000"><ele>6.9</ele><time>2017-11-18T09:27:05Z</time></trkpt>
<trkpt lat="47.19270967" lon="-1.38761667"><ele>6.5</ele><time>2017-11-18T09:27:08Z</time></trkpt>
<trkpt lat="47.19260500" lon="-1.38752300"><ele>6.3</ele><time>2017-11-18T09:27:11Z</time></trkpt>
<trkpt lat="47.19249433" lon="-1.38741600"><ele>6.1</ele><time>2017-11-18T09:27:14Z</time></trkpt>
<trkpt lat="47.19238000" lon="-1.38730733"><ele>5.7</ele><time>2017-11-18T09:27:17Z</time></trkpt>
<trkpt lat="47.19225600" lon="-1.38720000"><ele>5.3</ele><time>2017-11-18T09:27:20Z</time></trkpt>
<trkpt lat="47.19213067" lon="-1.38708967"><ele>4.9</ele><time>2017-11-18T09:27:23Z</time></trkpt>
<trkpt lat="47.19201500" lon="-1.38697533"><ele>4.7</ele><time>2017-11-18T09:27:26Z</time></trkpt>
<trkpt lat="47.19190300" lon="-1.38687167"><ele>4.4</ele><time>2017-11-18T09:27:29Z</time></trkpt>
<trkpt lat="47.19179476" lon="-1.38677667"><ele>4.1</ele><time>2017-11-18T09:27:32Z</time></trkpt>
<trkpt lat="47.19169567" lon="-1.38668267"><ele>3.8</ele><time>2017-11-18T09:27:36Z</time></trkpt>
<trkpt lat="47.19159119" lon="-1.38669500"><ele>4.7</ele><time>2017-11-18T09:27:39Z</time></trkpt>
<trkpt lat="47.19149972" lon="-1.38679167"><ele>5.5</ele><time>2017-11-18T09:27:44Z</time></trkpt>
<trkpt lat="47.19141556" lon="-1.38690000"><ele>6.8</ele><time>2017-11-18T09:27:47Z</time></trkpt>
<trkpt lat="47.19134333" lon="-1.38700333"><ele>7.1</ele><time>2017-11-18T09:27:51Z</time></trkpt>
<trkpt lat="47.19129208" lon="-1.38710681"><ele>7.5</ele><time>2017-11-18T09:27:56Z</time></trkpt>
<trkpt lat="47.19120758" lon="-1.38723227"><ele>6.8</ele><time>2017-11-18T09:28:06Z</time></trkpt>
<trkpt lat="47.19114183" lon="-1.38733400"><ele>6.7</ele><time>2017-11-18T09:28:13Z</time></trkpt>
<trkpt lat="47.19108667" lon="-1.38739071"><ele>7</ele><time>2017-11-18T09:28:19Z</time></trkpt>
<trkpt lat="47.19096000" lon="-1.38735500"><ele>8.2</ele><time>2017-11-18T09:28:30Z</time></trkpt>
<trkpt lat="47.19086000" lon="-1.38739714"><ele>7.9</ele><time>2017-11-18T09:28:33Z</time></trkpt>
<trkpt lat="47.19074786" lon="-1.38747024"><ele>7.4</ele><time>2017-11-18T09:28:37Z</time></trkpt>
<trkpt lat="47.19064600" lon="-1.38753033"><ele>7.3</ele><time>2017-11-18T09:28:41Z</time></trkpt>
<trkpt lat="47.19053310" lon="-1.38760381"><ele>6.8</ele><time>2017-11-18T09:28:44Z</time></trkpt>
<trkpt lat="47.19042405" lon="-1.38770048"><ele>6.5</ele><time>2017-11-18T09:28:48Z</time></trkpt>
<trkpt lat="47.19033133" lon="-1.38780133"><ele>7.6</ele><time>2017-11-18T09:28:52Z</time></trkpt>
<trkpt lat="47.19023700" lon="-1.38791200"><ele>8.8</ele><time>2017-11-18T09:28:55Z</time></trkpt>
<trkpt lat="47.19015833" lon="-1.38802100"><ele>8.3</ele><time>2017-11-18T09:28:58Z</time></trkpt>
<trkpt lat="47.19009633" lon="-1.38815167"><ele>9.3</ele><time>2017-11-18T09:29:01Z</time></trkpt>
<trkpt lat="47.18999857" lon="-1.38824762"><ele>9.8</ele><time>2017-11-18T09:29:04Z</time></trkpt>
<trkpt lat="47.18990933" lon="-1.38820333"><ele>10</ele><time>2017-11-18T09:29:08Z</time></trkpt>
<trkpt lat="47.18983310" lon="-1.38809548"><ele>10.3</ele><time>2017-11-18T09:29:11Z</time></trkpt>
<trkpt lat="47.18975467" lon="-1.38800400"><ele>9.6</ele><time>2017-11-18T09:29:15Z</time></trkpt>
<trkpt lat="47.18974000" lon="-1.38787556"><ele>9.8</ele><time>2017-11-18T09:29:17Z</time></trkpt>
<trkpt lat="47.18974000" lon="-1.38774111"><ele>9.8</ele><time>2017-11-18T09:29:19Z</time></trkpt>
<trkpt lat="47.18973833" lon="-1.38761000"><ele>9.6</ele><time>2017-11-18T09:29:21Z</time></trkpt>
<trkpt lat="47.18973833" lon="-1.38743611"><ele>8.3</ele><time>2017-11-18T09:29:23Z</time></trkpt>
<trkpt lat="47.18973278" lon="-1.38726667"><ele>7.7</ele><time>2017-11-18T09:29:25Z</time></trkpt>
<trkpt lat="47.18973167" lon="-1.38715500"><ele>7.8</ele><time>2017-11-18T09:29:26Z</time></trkpt>
<trkpt lat="47.18972500" lon="-1.38706500"><ele>7.4</ele><time>2017-11-18T09:29:28Z</time></trkpt>
<trkpt lat="47.18971833" lon="-1.38697500"><ele>7.2</ele><time>2017-11-18T09:29:28Z</time></trkpt>
<trkpt lat="47.18971333" lon="-1.38688500"><ele>7.1</ele><time>2017-11-18T09:29:30Z</time></trkpt>
<trkpt lat="47.18971000" lon="-1.38679500"><ele>7</ele><time>2017-11-18T09:29:30Z</time></trkpt>
<trkpt lat="47.18970833" lon="-1.38670333"><ele>7</ele><time>2017-11-18T09:29:32Z</time></trkpt>
<trkpt lat="47.18970333" lon="-1.38661000"><ele>7</ele><time>2017-11-18T09:29:32Z</time></trkpt>
<trkpt lat="47.18969333" lon="-1.38651667"><ele>6.8</ele><time>2017-11-18T09:29:33Z</time></trkpt>
<trkpt lat="47.18968167" lon="-1.38642000"><ele>6.8</ele><time>2017-11-18T09:29:35Z</time></trkpt>
<trkpt lat="47.18967000" lon="-1.38632167"><ele>6.8</ele><time>2017-11-18T09:29:35Z</time></trkpt>
<trkpt lat="47.18965500" lon="-1.38622500"><ele>6.7</ele><time>2017-11-18T09:29:37Z</time></trkpt>
<trkpt lat="47.18963667" lon="-1.38612833"><ele>6.5</ele><time>2017-11-18T09:29:37Z</time></trkpt>
<trkpt lat="47.18961667" lon="-1.38603667"><ele>6.4</ele><time>2017-11-18T09:29:39Z</time></trkpt>
<trkpt lat="47.18959667" lon="-1.38594667"><ele>6.3</ele><time>2017-11-18T09:29:40Z</time></trkpt>
<trkpt lat="47.18956056" lon="-1.38579889"><ele>6.1</ele><time>2017-11-18T09:29:42Z</time></trkpt>
<trkpt lat="47.18951278" lon="-1.38562944"><ele>6.2</ele><time>2017-11-18T09:29:43Z</time></trkpt>
<trkpt lat="47.18946889" lon="-1.38546389"><ele>6.3</ele><time>2017-11-18T09:29:45Z</time></trkpt>
<trkpt lat="47.18942944" lon="-1.38530444"><ele>6.4</ele><time>2017-11-18T09:29:47Z</time></trkpt>
<trkpt lat="47.18939278" lon="-1.38514611"><ele>6.3</ele><time>2017-11-18T09:29:49Z</time></trkpt>
<trkpt lat="47.18935889" lon="-1.38498111"><ele>6.2</ele><time>2017-11-18T09:29:51Z</time></trkpt>
<trkpt lat="47.18932778" lon="-1.38481444"><ele>6.1</ele><time>2017-11-18T09:29:53Z</time></trkpt>
<trkpt lat="47.18929500" lon="-1.38465611"><ele>5.9</ele><time>2017-11-18T09:29:55Z</time></trkpt>
<trkpt lat="47.18923333" lon="-1.38456667"><ele>5.8</ele><time>2017-11-18T09:29:58Z</time></trkpt>
<trkpt lat="47.18910967" lon="-1.38458967"><ele>6.1</ele><time>2017-11-18T09:30:00Z</time></trkpt>
<trkpt lat="47.18902000" lon="-1.38457250"><ele>6</ele><time>2017-11-18T09:30:03Z</time></trkpt>
<trkpt lat="47.18898556" lon="-1.38444333"><ele>6.1</ele><time>2017-11-18T09:30:04Z</time></trkpt>
<trkpt lat="47.18896667" lon="-1.38428722"><ele>6.1</ele><time>2017-11-18T09:30:06Z</time></trkpt>
<trkpt lat="47.18894667" lon="-1.38412111"><ele>6.4</ele><time>2017-11-18T09:30:08Z</time></trkpt>
<trkpt lat="47.18892389" lon="-1.38395278"><ele>6.4</ele><time>2017-11-18T09:30:10Z</time></trkpt>
<trkpt lat="47.18890167" lon="-1.38378444"><ele>6.8</ele><time>2017-11-18T09:30:12Z</time></trkpt>
<trkpt lat="47.18888389" lon="-1.38362167"><ele>6.9</ele><time>2017-11-18T09:30:14Z</time></trkpt>
<trkpt lat="47.18886667" lon="-1.38346389"><ele>7.1</ele><time>2017-11-18T09:30:17Z</time></trkpt>
<trkpt lat="47.18884667" lon="-1.38330833"><ele>7.4</ele><time>2017-11-18T09:30:18Z</time></trkpt>
<trkpt lat="47.18882222" lon="-1.38315000"><ele>7.2</ele><time>2017-11-18T09:30:20Z</time></trkpt>
<trkpt lat="47.18880333" lon="-1.38298611"><ele>7.5</ele><time>2017-11-18T09:30:22Z</time></trkpt>
<trkpt lat="47.18878333" lon="-1.38282056"><ele>7.5</ele><time>2017-11-18T09:30:24Z</time></trkpt>
<trkpt lat="47.18875889" lon="-1.38266556"><ele>7.5</ele><time>2017-11-18T09:30:27Z</time></trkpt>
<trkpt lat="47.18874667" lon="-1.38251778"><ele>7.5</ele><time>2017-11-18T09:30:28Z</time></trkpt>
<trkpt lat="47.18876967" lon="-1.38237700"><ele>7.4</ele><time>2017-11-18T09:30:31Z</time></trkpt>
<trkpt lat="47.18887333" lon="-1.38230533"><ele>7.4</ele><time>2017-11-18T09:30:34Z</time></trkpt>
<trkpt lat="47.18899000" lon="-1.38227433"><ele>8</ele><time>2017-11-18T09:30:37Z</time></trkpt>
<trkpt lat="47.18911733" lon="-1.38223700"><ele>8.2</ele><time>2017-11-18T09:30:40Z</time></trkpt>
<trkpt lat="47.18924067" lon="-1.38222067"><ele>9.5</ele><time>2017-11-18T09:30:43Z</time></trkpt>
<trkpt lat="47.18935222" lon="-1.38221500"><ele>10.5</ele><time>2017-11-18T09:30:45Z</time></trkpt>
<trkpt lat="47.18944889" lon="-1.38220333"><ele>11.4</ele><time>2017-11-18T09:30:47Z</time></trkpt>
<trkpt lat="47.18954889" lon="-1.38219333"><ele>12.3</ele><time>2017-11-18T09:30:49Z</time></trkpt>
<trkpt lat="47.18966000" lon="-1.38220333"><ele>13.1</ele><time>2017-11-18T09:30:52Z</time></trkpt>
<trkpt lat="47.18976778" lon="-1.38220111"><ele>14.7</ele><time>2017-11-18T09:30:54Z</time></trkpt>
<trkpt lat="47.18985944" lon="-1.38217944"><ele>15.8</ele><time>2017-11-18T09:30:57Z</time></trkpt>
<trkpt lat="47.18997367" lon="-1.38214167"><ele>17.6</ele><time>2017-11-18T09:30:59Z</time></trkpt>
<trkpt lat="47.19008333" lon="-1.38210722"><ele>18.200001</ele><time>2017-11-18T09:31:02Z</time></trkpt>
<trkpt lat="47.19017833" lon="-1.38209444"><ele>19.1</ele><time>2017-11-18T09:31:03Z</time></trkpt>
<trkpt lat="47.19026833" lon="-1.38209389"><ele>19.700001</ele><time>2017-11-18T09:31:05Z</time></trkpt>
<trkpt lat="47.19037111" lon="-1.38209278"><ele>18</ele><time>2017-11-18T09:31:07Z</time></trkpt>
<trkpt lat="47.19046889" lon="-1.38207278"><ele>18.4</ele><time>2017-11-18T09:31:09Z</time></trkpt>
<trkpt lat="47.19058167" lon="-1.38209000"><ele>17.9</ele><time>2017-11-18T09:31:12Z</time></trkpt>
<trkpt lat="47.19067611" lon="-1.38217389"><ele>16.799999</ele><time>2017-11-18T09:31:14Z</time></trkpt>
<trkpt lat="47.19072833" lon="-1.38227333"><ele>15.1</ele><time>2017-11-18T09:31:16Z</time></trkpt>
<trkpt lat="47.19077222" lon="-1.38240778"><ele>13.7</ele><time>2017-11-18T09:31:18Z</time></trkpt>
<trkpt lat="47.19078833" lon="-1.38254500"><ele>12.9</ele><time>2017-11-18T09:31:20Z</time></trkpt>
<trkpt lat="47.19078000" lon="-1.38268111"><ele>12.5</ele><time>2017-11-18T09:31:22Z</time></trkpt>
<trkpt lat="47.19072833" lon="-1.38280167"><ele>12.7</ele><time>2017-11-18T09:31:24Z</time></trkpt>
<trkpt lat="47.19066056" lon="-1.38290444"><ele>12.7</ele><time>2017-11-18T09:31:27Z</time></trkpt>
<trkpt lat="47.19058722" lon="-1.38300556"><ele>12.4</ele><time>2017-11-18T09:31:28Z</time></trkpt>
<trkpt lat="47.19051167" lon="-1.38310111"><ele>11.9</ele><time>2017-11-18T09:31:30Z</time></trkpt>
<trkpt lat="47.19041200" lon="-1.38321300"><ele>11.4</ele><time>2017-11-18T09:31:33Z</time></trkpt>
<trkpt lat="47.19029200" lon="-1.38334200"><ele>11.2</ele><time>2017-11-18T09:31:36Z</time></trkpt>
<trkpt lat="47.19016800" lon="-1.38347367"><ele>11.1</ele><time>2017-11-18T09:31:39Z</time></trkpt>
<trkpt lat="47.19006111" lon="-1.38358333"><ele>11</ele><time>2017-11-18T09:31:42Z</time></trkpt>
<trkpt lat="47.18997556" lon="-1.38367722"><ele>10.6</ele><time>2017-11-18T09:31:43Z</time></trkpt>
<trkpt lat="47.18988833" lon="-1.38377111"><ele>10.4</ele><time>2017-11-18T09:31:45Z</time></trkpt>
<trkpt lat="47.18979944" lon="-1.38386167"><ele>10.4</ele><time>2017-11-18T09:31:48Z</time></trkpt>
<trkpt lat="47.18971556" lon="-1.38395333"><ele>9.9</ele><time>2017-11-18T09:31:49Z</time></trkpt>
<trkpt lat="47.18960625" lon="-1.38406542"><ele>9.8</ele><time>2017-11-18T09:31:52Z</time></trkpt>
<trkpt lat="47.18950667" lon="-1.38417111"><ele>9.7</ele><time>2017-11-18T09:31:54Z</time></trkpt>
<trkpt lat="47.18942500" lon="-1.38426889"><ele>9.6</ele><time>2017-11-18T09:31:56Z</time></trkpt>
<trkpt lat="47.18934889" lon="-1.38436833"><ele>9.5</ele><time>2017-11-18T09:31:58Z</time></trkpt>
<trkpt lat="47.18925100" lon="-1.38448733"><ele>9.3</ele><time>2017-11-18T09:32:01Z</time></trkpt>
<trkpt lat="47.18912300" lon="-1.38460567"><ele>9.1</ele><time>2017-11-18T09:32:04Z</time></trkpt>
<trkpt lat="47.18902583" lon="-1.38470417"><ele>8.9</ele><time>2017-11-18T09:32:06Z</time></trkpt>
<trkpt lat="47.18893667" lon="-1.38480278"><ele>8.9</ele><time>2017-11-18T09:32:08Z</time></trkpt>
<trkpt lat="47.18885556" lon="-1.38489333"><ele>8.8</ele><time>2017-11-18T09:32:10Z</time></trkpt>
<trkpt lat="47.18874083" lon="-1.38502000"><ele>8.6</ele><time>2017-11-18T09:32:13Z</time></trkpt>
<trkpt lat="47.18866167" lon="-1.38512222"><ele>8.7</ele><time>2017-11-18T09:32:15Z</time></trkpt>
<trkpt lat="47.18859222" lon="-1.38522611"><ele>8.6</ele><time>2017-11-18T09:32:17Z</time></trkpt>
<trkpt lat="47.18854056" lon="-1.38535389"><ele>8.9</ele><time>2017-11-18T09:32:19Z</time></trkpt>
<trkpt lat="47.18851556" lon="-1.38550000"><ele>9.4</ele><time>2017-11-18T09:32:22Z</time></trkpt>
<trkpt lat="47.18851389" lon="-1.38564889"><ele>9.7</ele><time>2017-11-18T09:32:23Z</time></trkpt>
<trkpt lat="47.18852833" lon="-1.38578389"><ele>9.7</ele><time>2017-11-18T09:32:25Z</time></trkpt>
<trkpt lat="47.18855222" lon="-1.38590389"><ele>10.1</ele><time>2017-11-18T09:32:28Z</time></trkpt>
<trkpt lat="47.18857889" lon="-1.38602056"><ele>10.4</ele><time>2017-11-18T09:32:29Z</time></trkpt>
<trkpt lat="47.18860833" lon="-1.38613722"><ele>10.3</ele><time>2017-11-18T09:32:31Z</time></trkpt>
<trkpt lat="47.18862778" lon="-1.38624833"><ele>10.3</ele><time>2017-11-18T09:32:33Z</time></trkpt>
<trkpt lat="47.18863611" lon="-1.38635667"><ele>10.2</ele><time>2017-11-18T09:32:35Z</time></trkpt>
<trkpt lat="47.18862889" lon="-1.38646778"><ele>10.2</ele><time>2017-11-18T09:32:38Z</time></trkpt>
<trkpt lat="47.18861056" lon="-1.38657833"><ele>10.3</ele><time>2017-11-18T09:32:39Z</time></trkpt>
<trkpt lat="47.18859000" lon="-1.38669000"><ele>10.3</ele><time>2017-11-18T09:32:42Z</time></trkpt>
<trkpt lat="47.18856889" lon="-1.38680111"><ele>10.5</ele><time>2017-11-18T09:32:43Z</time></trkpt>
<trkpt lat="47.18854833" lon="-1.38691667"><ele>10.6</ele><time>2017-11-18T09:32:45Z</time></trkpt>
<trkpt lat="47.18852944" lon="-1.38703944"><ele>10.5</ele><time>2017-11-18T09:32:47Z</time></trkpt>
<trkpt lat="47.18852500" lon="-1.38716111"><ele>10.5</ele><time>2017-11-18T09:32:49Z</time></trkpt>
<trkpt lat="47.18854111" lon="-1.38729500"><ele>10.6</ele><time>2017-11-18T09:32:51Z</time></trkpt>
<trkpt lat="47.18856056" lon="-1.38743222"><ele>10.6</ele><time>2017-11-18T09:32:53Z</time></trkpt>
<trkpt lat="47.18858111" lon="-1.38756778"><ele>10.4</ele><time>2017-11-18T09:32:55Z</time></trkpt>
<trkpt lat="47.18860833" lon="-1.38771667"><ele>10.1</ele><time>2017-11-18T09:32:57Z</time></trkpt>
<trkpt lat="47.18862222" lon="-1.38782389"><ele>9.9</ele><time>2017-11-18T09:32:59Z</time></trkpt>
<trkpt lat="47.18864444" lon="-1.38794667"><ele>9.7</ele><time>2017-11-18T09:33:01Z</time></trkpt>
<trkpt lat="47.18866889" lon="-1.38807167"><ele>9.4</ele><time>2017-11-18T09:33:03Z</time></trkpt>
<trkpt lat="47.18870056" lon="-1.38820556"><ele>9.2</ele><time>2017-11-18T09:33:05Z</time></trkpt>
<trkpt lat="47.18874111" lon="-1.38833667"><ele>9.1</ele><time>2017-11-18T09:33:08Z</time></trkpt>
<trkpt lat="47.18879722" lon="-1.38845000"><ele>9</ele><time>2017-11-18T09:33:09Z</time></trkpt>
<trkpt lat="47.18889467" lon="-1.38855800"><ele>8.8</ele><time>2017-11-18T09:33:12Z</time></trkpt>
<trkpt lat="47.18899222" lon="-1.38865889"><ele>8.7</ele><time>2017-11-18T09:33:14Z</time></trkpt>
<trkpt lat="47.18905889" lon="-1.38875722"><ele>8.6</ele><time>2017-11-18T09:33:16Z</time></trkpt>
<trkpt lat="47.18910278" lon="-1.38887611"><ele>8.6</ele><time>2017-11-18T09:33:18Z</time></trkpt>
<trkpt lat="47.18913500" lon="-1.38899556"><ele>8.5</ele><time>2017-11-18T09:33:20Z</time></trkpt>
<trkpt lat="47.18916389" lon="-1.38910944"><ele>8.3</ele><time>2017-11-18T09:33:23Z</time></trkpt>
<trkpt lat="47.18917222" lon="-1.38922444"><ele>8.2</ele><time>2017-11-18T09:33:24Z</time></trkpt>
<trkpt lat="47.18914583" lon="-1.38934083"><ele>8.4</ele><time>2017-11-18T09:33:27Z</time></trkpt>
<trkpt lat="47.18908100" lon="-1.38945967"><ele>8.8</ele><time>2017-11-18T09:33:30Z</time></trkpt>
<trkpt lat="47.18899083" lon="-1.38956500"><ele>8.9</ele><time>2017-11-18T09:33:33Z</time></trkpt>
<trkpt lat="47.18889867" lon="-1.38963267"><ele>9</ele><time>2017-11-18T09:33:36Z</time></trkpt>
<trkpt lat="47.18878033" lon="-1.38969833"><ele>9.1</ele><time>2017-11-18T09:33:39Z</time></trkpt>
<trkpt lat="47.18866233" lon="-1.38977867"><ele>9.1</ele><time>2017-11-18T09:33:42Z</time></trkpt>
<trkpt lat="47.18857167" lon="-1.38987667"><ele>9.1</ele><time>2017-11-18T09:33:44Z</time></trkpt>
<trkpt lat="47.18850667" lon="-1.38997056"><ele>9.1</ele><time>2017-11-18T09:33:46Z</time></trkpt>
<trkpt lat="47.18845278" lon="-1.39007778"><ele>8.9</ele><time>2017-11-18T09:33:48Z</time></trkpt>
<trkpt lat="47.18841111" lon="-1.39019056"><ele>8.8</ele><time>2017-11-18T09:33:50Z</time></trkpt>
<trkpt lat="47.18837444" lon="-1.39029889"><ele>8.7</ele><time>2017-11-18T09:33:53Z</time></trkpt>
<trkpt lat="47.18833944" lon="-1.39040833"><ele>8.8</ele><time>2017-11-18T09:33:54Z</time></trkpt>
<trkpt lat="47.18830833" lon="-1.39051333"><ele>8.8</ele><time>2017-11-18T09:33:56Z</time></trkpt>
<trkpt lat="47.18827389" lon="-1.39060611"><ele>8.8</ele><time>2017-11-18T09:33:58Z</time></trkpt>
<trkpt lat="47.18824611" lon="-1.39070611"><ele>8.9</ele><time>2017-11-18T09:34:00Z</time></trkpt>
<trkpt lat="47.18816889" lon="-1.39081667"><ele>9</ele><time>2017-11-18T09:34:03Z</time></trkpt>
<trkpt lat="47.18805767" lon="-1.39083833"><ele>9.1</ele><time>2017-11-18T09:34:07Z</time></trkpt>
<trkpt lat="47.18794767" lon="-1.39088767"><ele>9.3</ele><time>2017-11-18T09:34:10Z</time></trkpt>
<trkpt lat="47.18783548" lon="-1.39097738"><ele>9.5</ele><time>2017-11-18T09:34:13Z</time></trkpt>
<trkpt lat="47.18774367" lon="-1.39107667"><ele>9.6</ele><time>2017-11-18T09:34:17Z</time></trkpt>
<trkpt lat="47.18766833" lon="-1.39117400"><ele>9.4</ele><time>2017-11-18T09:34:20Z</time></trkpt>
<trkpt lat="47.18760389" lon="-1.39126722"><ele>9.5</ele><time>2017-11-18T09:34:23Z</time></trkpt>
<trkpt lat="47.18755667" lon="-1.39137000"><ele>9.4</ele><time>2017-11-18T09:34:24Z</time></trkpt>
<trkpt lat="47.18753000" lon="-1.39148167"><ele>9.4</ele><time>2017-11-18T09:34:26Z</time></trkpt>
<trkpt lat="47.18751567" lon="-1.39159867"><ele>9.4</ele><time>2017-11-18T09:34:29Z</time></trkpt>
<trkpt lat="47.18750389" lon="-1.39170722"><ele>9.5</ele><time>2017-11-18T09:34:31Z</time></trkpt>
<trkpt lat="47.18749333" lon="-1.39180056"><ele>9.5</ele><time>2017-11-18T09:34:33Z</time></trkpt>
<trkpt lat="47.18748389" lon="-1.39190111"><ele>9.6</ele><time>2017-11-18T09:34:35Z</time></trkpt>
<trkpt lat="47.18747000" lon="-1.39201833"><ele>9.8</ele><time>2017-11-18T09:34:38Z</time></trkpt>
<trkpt lat="47.18745889" lon="-1.39210556"><ele>9.9</ele><time>2017-11-18T09:34:39Z</time></trkpt>
<trkpt lat="47.18745667" lon="-1.39221000"><ele>10.1</ele><time>2017-11-18T09:34:41Z</time></trkpt>
<trkpt lat="47.18747833" lon="-1.39233611"><ele>10.2</ele><time>2017-11-18T09:34:43Z</time></trkpt>
<trkpt lat="47.18751111" lon="-1.39244556"><ele>10.2</ele><time>2017-11-18T09:34:45Z</time></trkpt>
<trkpt lat="47.18754222" lon="-1.39255111"><ele>10.3</ele><time>2017-11-18T09:34:47Z</time></trkpt>
<trkpt lat="47.18756967" lon="-1.39266533"><ele>11</ele><time>2017-11-18T09:34:50Z</time></trkpt>
<trkpt lat="47.18758567" lon="-1.39274333"><ele>11.9</ele><time>2017-11-18T09:34:53Z</time></trkpt>
<trkpt lat="47.18763024" lon="-1.39289905"><ele>12</ele><time>2017-11-18T09:35:03Z</time></trkpt>
<trkpt lat="47.18764417" lon="-1.39303083"><ele>11.8</ele><time>2017-11-18T09:35:07Z</time></trkpt>
<trkpt lat="47.18764667" lon="-1.39314933"><ele>11.7</ele><time>2017-11-18T09:35:10Z</time></trkpt>
<trkpt lat="47.18767400" lon="-1.39325567"><ele>12.4</ele><time>2017-11-18T09:35:13Z</time></trkpt>
<trkpt lat="47.18770556" lon="-1.39336222"><ele>13.2</ele><time>2017-11-18T09:35:15Z</time></trkpt>
<trkpt lat="47.18773556" lon="-1.39345778"><ele>12.9</ele><time>2017-11-18T09:35:18Z</time></trkpt>
<trkpt lat="47.18777867" lon="-1.39356667"><ele>13.6</ele><time>2017-11-18T09:35:20Z</time></trkpt>
<trkpt lat="47.18783250" lon="-1.39370583"><ele>13.9</ele><time>2017-11-18T09:35:23Z</time></trkpt>
<trkpt lat="47.18787133" lon="-1.39382267"><ele>13.3</ele><time>2017-11-18T09:35:26Z</time></trkpt>
<trkpt lat="47.18791067" lon="-1.39394900"><ele>12.6</ele><time>2017-11-18T09:35:29Z</time></trkpt>
<trkpt lat="47.18793900" lon="-1.39406733"><ele>13.3</ele><time>2017-11-18T09:35:32Z</time></trkpt>
<trkpt lat="47.18797106" lon="-1.39417652"><ele>14.4</ele><time>2017-11-18T09:35:36Z</time></trkpt>
<trkpt lat="47.18800778" lon="-1.39427648"><ele>15.6</ele><time>2017-11-18T09:35:42Z</time></trkpt>
<trkpt lat="47.18804028" lon="-1.39434972"><ele>15.9</ele><time>2017-11-18T09:35:46Z</time></trkpt>
<trkpt lat="47.18801310" lon="-1.39456929"><ele>14.7</ele><time>2017-11-18T09:36:02Z</time></trkpt>
<trkpt lat="47.18790967" lon="-1.39465000"><ele>15</ele><time>2017-11-18T09:36:06Z</time></trkpt>
<trkpt lat="47.18780067" lon="-1.39472300"><ele>14.9</ele><time>2017-11-18T09:36:09Z</time></trkpt>
<trkpt lat="47.18769333" lon="-1.39479433"><ele>14.9</ele><time>2017-11-18T09:36:12Z</time></trkpt>
<trkpt lat="47.18758500" lon="-1.39486100"><ele>15</ele><time>2017-11-18T09:36:15Z</time></trkpt>
<trkpt lat="47.18747250" lon="-1.39492250"><ele>14.6</ele><time>2017-11-18T09:36:18Z</time></trkpt>
<trkpt lat="47.18737667" lon="-1.39498000"><ele>14.4</ele><time>2017-11-18T09:36:21Z</time></trkpt>
<trkpt lat="47.18727214" lon="-1.39504524"><ele>14.1</ele><time>2017-11-18T09:36:25Z</time></trkpt>
<trkpt lat="47.18717426" lon="-1.39510667"><ele>13.8</ele><time>2017-11-18T09:36:30Z</time></trkpt>
<trkpt lat="47.18709576" lon="-1.39516939"><ele>13.9</ele><time>2017-11-18T09:36:37Z</time></trkpt>
<trkpt lat="47.18699567" lon="-1.39517033"><ele>13.4</ele><time>2017-11-18T09:36:46Z</time></trkpt>
<trkpt lat="47.18689133" lon="-1.39510867"><ele>12.9</ele><time>2017-11-18T09:36:49Z</time></trkpt>
<trkpt lat="47.18678389" lon="-1.39509167"><ele>12.4</ele><time>2017-11-18T09:36:51Z</time></trkpt>
<trkpt lat="47.18669000" lon="-1.39515056"><ele>12</ele><time>2017-11-18T09:36:53Z</time></trkpt>
<trkpt lat="47.18660278" lon="-1.39525500"><ele>11.8</ele><time>2017-11-18T09:36:55Z</time></trkpt>
<trkpt lat="47.18651444" lon="-1.39536500"><ele>11.6</ele><time>2017-11-18T09:36:58Z</time></trkpt>
<trkpt lat="47.18643167" lon="-1.39547222"><ele>11.4</ele><time>2017-11-18T09:36:59Z</time></trkpt>
<trkpt lat="47.18635278" lon="-1.39558278"><ele>11.4</ele><time>2017-11-18T09:37:01Z</time></trkpt>
<trkpt lat="47.18627222" lon="-1.39569222"><ele>11.3</ele><time>2017-11-18T09:37:03Z</time></trkpt>
<trkpt lat="47.18618889" lon="-1.39580056"><ele>11.2</ele><time>2017-11-18T09:37:05Z</time></trkpt>
<trkpt lat="47.18609167" lon="-1.39592167"><ele>11.3</ele><time>2017-11-18T09:37:08Z</time></trkpt>
<trkpt lat="47.18602500" lon="-1.39600778"><ele>11.3</ele><time>2017-11-18T09:37:09Z</time></trkpt>
<trkpt lat="47.18594889" lon="-1.39611222"><ele>11.4</ele><time>2017-11-18T09:37:12Z</time></trkpt>
<trkpt lat="47.18587778" lon="-1.39621389"><ele>11.7</ele><time>2017-11-18T09:37:13Z</time></trkpt>
<trkpt lat="47.18581444" lon="-1.39630778"><ele>11.7</ele><time>2017-11-18T09:37:15Z</time></trkpt>
<trkpt lat="47.18574567" lon="-1.39642100"><ele>11.8</ele><time>2017-11-18T09:37:18Z</time></trkpt>
<trkpt lat="47.18565167" lon="-1.39652800"><ele>11.8</ele><time>2017-11-18T09:37:21Z</time></trkpt>
<trkpt lat="47.18555133" lon="-1.39664867"><ele>11.9</ele><time>2017-11-18T09:37:24Z</time></trkpt>
<trkpt lat="47.18544933" lon="-1.39677867"><ele>12.1</ele><time>2017-11-18T09:37:27Z</time></trkpt>
<trkpt lat="47.18534467" lon="-1.39691100"><ele>12.5</ele><time>2017-11-18T09:37:30Z</time></trkpt>
<trkpt lat="47.18525833" lon="-1.39702167"><ele>12.8</ele><time>2017-11-18T09:37:32Z</time></trkpt>
<trkpt lat="47.18518667" lon="-1.39711056"><ele>13</ele><time>2017-11-18T09:37:34Z</time></trkpt>
<trkpt lat="47.18509625" lon="-1.39722417"><ele>13.1</ele><time>2017-11-18T09:37:37Z</time></trkpt>
<trkpt lat="47.18501444" lon="-1.39732667"><ele>13.3</ele><time>2017-11-18T09:37:39Z</time></trkpt>
<trkpt lat="47.18495056" lon="-1.39741889"><ele>13.5</ele><time>2017-11-18T09:37:41Z</time></trkpt>
<trkpt lat="47.18488722" lon="-1.39751111"><ele>13.2</ele><time>2017-11-18T09:37:43Z</time></trkpt>
<trkpt lat="47.18481000" lon="-1.39761500"><ele>13.3</ele><time>2017-11-18T09:37:46Z</time></trkpt>
<trkpt lat="47.18469933" lon="-1.39774967"><ele>14.1</ele><time>2017-11-18T09:37:49Z</time></trkpt>
<trkpt lat="47.18461556" lon="-1.39785722"><ele>14.4</ele><time>2017-11-18T09:37:52Z</time></trkpt>
<trkpt lat="47.18453400" lon="-1.39796500"><ele>14.8</ele><time>2017-11-18T09:37:54Z</time></trkpt>
<trkpt lat="47.18443800" lon="-1.39808767"><ele>15.2</ele><time>2017-11-18T09:37:57Z</time></trkpt>
<trkpt lat="47.18435611" lon="-1.39819278"><ele>16.200001</ele><time>2017-11-18T09:37:59Z</time></trkpt>
<trkpt lat="47.18428778" lon="-1.39828222"><ele>16.5</ele><time>2017-11-18T09:38:02Z</time></trkpt>
<trkpt lat="47.18422500" lon="-1.39837611"><ele>16.9</ele><time>2017-11-18T09:38:03Z</time></trkpt>
<trkpt lat="47.18414467" lon="-1.39848967"><ele>16.799999</ele><time>2017-11-18T09:38:06Z</time></trkpt>
<trkpt lat="47.18405611" lon="-1.39860111"><ele>16.6</ele><time>2017-11-18T09:38:08Z</time></trkpt>
<trkpt lat="47.18397467" lon="-1.39871233"><ele>16.5</ele><time>2017-11-18T09:38:11Z</time></trkpt>
<trkpt lat="47.18387700" lon="-1.39883400"><ele>16.6</ele><time>2017-11-18T09:38:14Z</time></trkpt>
<trkpt lat="47.18377700" lon="-1.39894933"><ele>16.4</ele><time>2017-11-18T09:38:17Z</time></trkpt>
<trkpt lat="47.18366200" lon="-1.39906167"><ele>16.4</ele><time>2017-11-18T09:38:20Z</time></trkpt>
<trkpt lat="47.18353417" lon="-1.39918583"><ele>16.4</ele><time>2017-11-18T09:38:23Z</time></trkpt>
<trkpt lat="47.18343567" lon="-1.39928567"><ele>16.299999</ele><time>2017-11-18T09:38:26Z</time></trkpt>
<trkpt lat="47.18332700" lon="-1.39939967"><ele>15.6</ele><time>2017-11-18T09:38:29Z</time></trkpt>
<trkpt lat="47.18322100" lon="-1.39951667"><ele>15.6</ele><time>2017-11-18T09:38:32Z</time></trkpt>
<trkpt lat="47.18312000" lon="-1.39962600"><ele>14.9</ele><time>2017-11-18T09:38:35Z</time></trkpt>
<trkpt lat="47.18301167" lon="-1.39974167"><ele>14.6</ele><time>2017-11-18T09:38:38Z</time></trkpt>
<trkpt lat="47.18292433" lon="-1.39980100"><ele>14.3</ele><time>2017-11-18T09:38:41Z</time></trkpt>
<trkpt lat="47.18280111" lon="-1.39977444"><ele>14.4</ele><time>2017-11-18T09:38:44Z</time></trkpt>
<trkpt lat="47.18270367" lon="-1.39969500"><ele>14.2</ele><time>2017-11-18T09:38:48Z</time></trkpt>
<trkpt lat="47.18259100" lon="-1.39960167"><ele>14.8</ele><time>2017-11-18T09:38:51Z</time></trkpt>
<trkpt lat="47.18248567" lon="-1.39951733"><ele>15</ele><time>2017-11-18T09:38:54Z</time></trkpt>
<trkpt lat="47.18238067" lon="-1.39944167"><ele>14.4</ele><time>2017-11-18T09:38:57Z</time></trkpt>
<trkpt lat="47.18228367" lon="-1.39935767"><ele>14.6</ele><time>2017-11-18T09:39:00Z</time></trkpt>
<trkpt lat="47.18218933" lon="-1.39927400"><ele>14.4</ele><time>2017-11-18T09:39:03Z</time></trkpt>
<trkpt lat="47.18209300" lon="-1.39918500"><ele>14.5</ele><time>2017-11-18T09:39:06Z</time></trkpt>
<trkpt lat="47.18198800" lon="-1.39907933"><ele>14.3</ele><time>2017-11-18T09:39:09Z</time></trkpt>
<trkpt lat="47.18188600" lon="-1.39896767"><ele>14.6</ele><time>2017-11-18T09:39:12Z</time></trkpt>
<trkpt lat="47.18179200" lon="-1.39886267"><ele>14.4</ele><time>2017-11-18T09:39:15Z</time></trkpt>
<trkpt lat="47.18171750" lon="-1.39874583"><ele>13</ele><time>2017-11-18T09:39:18Z</time></trkpt>
<trkpt lat="47.18165933" lon="-1.39864433"><ele>12.6</ele><time>2017-11-18T09:39:21Z</time></trkpt>
<trkpt lat="47.18156611" lon="-1.39860056"><ele>12.2</ele><time>2017-11-18T09:39:23Z</time></trkpt>
<trkpt lat="47.18147278" lon="-1.39857389"><ele>11.8</ele><time>2017-11-18T09:39:25Z</time></trkpt>
<trkpt lat="47.18137889" lon="-1.39851389"><ele>11.9</ele><time>2017-11-18T09:39:27Z</time></trkpt>
<trkpt lat="47.18128667" lon="-1.39843389"><ele>12</ele><time>2017-11-18T09:39:29Z</time></trkpt>
<trkpt lat="47.18117250" lon="-1.39833083"><ele>11.9</ele><time>2017-11-18T09:39:32Z</time></trkpt>
<trkpt lat="47.18104300" lon="-1.39821533"><ele>11.6</ele><time>2017-11-18T09:39:35Z</time></trkpt>
<trkpt lat="47.18091433" lon="-1.39809933"><ele>11.8</ele><time>2017-11-18T09:39:38Z</time></trkpt>
<trkpt lat="47.18079233" lon="-1.39798300"><ele>12</ele><time>2017-11-18T09:39:41Z</time></trkpt>
<trkpt lat="47.18067100" lon="-1.39787267"><ele>11.6</ele><time>2017-11-18T09:39:44Z</time></trkpt>
<trkpt lat="47.18056067" lon="-1.39776933"><ele>11.4</ele><time>2017-11-18T09:39:47Z</time></trkpt>
<trkpt lat="47.18045600" lon="-1.39768333"><ele>11.1</ele><time>2017-11-18T09:39:50Z</time></trkpt>
<trkpt lat="47.18034833" lon="-1.39758167"><ele>10.9</ele><time>2017-11-18T09:39:53Z</time></trkpt>
<trkpt lat="47.18025143" lon="-1.39749500"><ele>11.2</ele><time>2017-11-18T09:39:56Z</time></trkpt>
<trkpt lat="47.18014310" lon="-1.39740857"><ele>11.7</ele><time>2017-11-18T09:40:00Z</time></trkpt>
<trkpt lat="47.18003952" lon="-1.39732214"><ele>11.7</ele><time>2017-11-18T09:40:04Z</time></trkpt>
<trkpt lat="47.17994567" lon="-1.39725567"><ele>11.7</ele><time>2017-11-18T09:40:08Z</time></trkpt>
<trkpt lat="47.17985458" lon="-1.39722125"><ele>11.3</ele><time>2017-11-18T09:40:11Z</time></trkpt>
<trkpt lat="47.17973767" lon="-1.39721667"><ele>11.2</ele><time>2017-11-18T09:40:14Z</time></trkpt>
<trkpt lat="47.17963033" lon="-1.39724733"><ele>11.2</ele><time>2017-11-18T09:40:17Z</time></trkpt>
<trkpt lat="47.17952214" lon="-1.39730714"><ele>11.3</ele><time>2017-11-18T09:40:20Z</time></trkpt>
<trkpt lat="47.17941537" lon="-1.39736722"><ele>11.4</ele><time>2017-11-18T09:40:25Z</time></trkpt>
<trkpt lat="47.17937125" lon="-1.39736375"><ele>12.7</ele><time>2017-11-18T09:40:48Z</time></trkpt>
<trkpt lat="47.17951458" lon="-1.39732583"><ele>13</ele><time>2017-11-18T09:41:07Z</time></trkpt>
<trkpt lat="47.17961567" lon="-1.39726567"><ele>12.7</ele><time>2017-11-18T09:41:10Z</time></trkpt>
<trkpt lat="47.17973067" lon="-1.39721633"><ele>12.8</ele><time>2017-11-18T09:41:13Z</time></trkpt>
<trkpt lat="47.17985633" lon="-1.39720800"><ele>13</ele><time>2017-11-18T09:41:16Z</time></trkpt>
<trkpt lat="47.17997800" lon="-1.39726067"><ele>13.2</ele><time>2017-11-18T09:41:19Z</time></trkpt>
<trkpt lat="47.18009400" lon="-1.39735033"><ele>13.3</ele><time>2017-11-18T09:41:22Z</time></trkpt>
<trkpt lat="47.18019767" lon="-1.39743767"><ele>13.3</ele><time>2017-11-18T09:41:25Z</time></trkpt>
<trkpt lat="47.18029500" lon="-1.39752200"><ele>13.3</ele><time>2017-11-18T09:41:28Z</time></trkpt>
<trkpt lat="47.18036389" lon="-1.39761722"><ele>13.5</ele><time>2017-11-18T09:41:30Z</time></trkpt>
<trkpt lat="47.18036917" lon="-1.39771333"><ele>13.6</ele><time>2017-11-18T09:41:33Z</time></trkpt>
<trkpt lat="47.18031433" lon="-1.39783200"><ele>13.7</ele><time>2017-11-18T09:41:35Z</time></trkpt>
<trkpt lat="47.18022967" lon="-1.39796067"><ele>14.2</ele><time>2017-11-18T09:41:38Z</time></trkpt>
<trkpt lat="47.18016222" lon="-1.39807167"><ele>14</ele><time>2017-11-18T09:41:40Z</time></trkpt>
<trkpt lat="47.18010667" lon="-1.39816167"><ele>13.6</ele><time>2017-11-18T09:41:43Z</time></trkpt>
<trkpt lat="47.18004778" lon="-1.39825722"><ele>13.4</ele><time>2017-11-18T09:41:44Z</time></trkpt>
<trkpt lat="47.17999389" lon="-1.39836000"><ele>12.7</ele><time>2017-11-18T09:41:47Z</time></trkpt>
<trkpt lat="47.17993611" lon="-1.39845444"><ele>12.8</ele><time>2017-11-18T09:41:48Z</time></trkpt>
<trkpt lat="47.17989556" lon="-1.39855056"><ele>12.5</ele><time>2017-11-18T09:41:50Z</time></trkpt>
<trkpt lat="47.17987000" lon="-1.39865222"><ele>12.4</ele><time>2017-11-18T09:41:52Z</time></trkpt>
<trkpt lat="47.17985000" lon="-1.39875667"><ele>12.1</ele><time>2017-11-18T09:41:54Z</time></trkpt>
<trkpt lat="47.17983944" lon="-1.39886333"><ele>12.5</ele><time>2017-11-18T09:41:57Z</time></trkpt>
<trkpt lat="47.17987000" lon="-1.39898667"><ele>12.7</ele><time>2017-11-18T09:41:59Z</time></trkpt>
<trkpt lat="47.17990611" lon="-1.39907389"><ele>12.8</ele><time>2017-11-18T09:42:00Z</time></trkpt>
<trkpt lat="47.17994944" lon="-1.39917667"><ele>13.3</ele><time>2017-11-18T09:42:02Z</time></trkpt>
<trkpt lat="47.17999222" lon="-1.39928000"><ele>13.8</ele><time>2017-11-18T09:42:04Z</time></trkpt>
<trkpt lat="47.18004167" lon="-1.39937222"><ele>14.1</ele><time>2017-11-18T09:42:06Z</time></trkpt>
<trkpt lat="47.18009556" lon="-1.39946444"><ele>14.4</ele><time>2017-11-18T09:42:08Z</time></trkpt>
<trkpt lat="47.18015500" lon="-1.39955889"><ele>14.6</ele><time>2017-11-18T09:42:10Z</time></trkpt>
<trkpt lat="47.18022667" lon="-1.39967333"><ele>14.8</ele><time>2017-11-18T09:42:13Z</time></trkpt>
<trkpt lat="47.18028833" lon="-1.39976933"><ele>14.9</ele><time>2017-11-18T09:42:15Z</time></trkpt>
<trkpt lat="47.18037100" lon="-1.39988300"><ele>15</ele><time>2017-11-18T09:42:18Z</time></trkpt>
<trkpt lat="47.18044333" lon="-1.39999500"><ele>15.1</ele><time>2017-11-18T09:42:20Z</time></trkpt>
<trkpt lat="47.18052700" lon="-1.40012733"><ele>15.3</ele><time>2017-11-18T09:42:24Z</time></trkpt>
<trkpt lat="47.18058111" lon="-1.40023833"><ele>15.3</ele><time>2017-11-18T09:42:27Z</time></trkpt>
<trkpt lat="47.18062444" lon="-1.40033111"><ele>15.5</ele><time>2017-11-18T09:42:28Z</time></trkpt>
<trkpt lat="47.18066933" lon="-1.40044133"><ele>15.6</ele><time>2017-11-18T09:42:31Z</time></trkpt>
<trkpt lat="47.18065795" lon="-1.40052179"><ele>14.8</ele><time>2017-11-18T09:43:01Z</time></trkpt>
<trkpt lat="47.18055548" lon="-1.40059310"><ele>15.6</ele><time>2017-11-18T09:44:17Z</time></trkpt>
<trkpt lat="47.18047100" lon="-1.40064683"><ele>16.299999</ele><time>2017-11-18T09:44:42Z</time></trkpt>
<trkpt lat="47.18038296" lon="-1.40068907"><ele>16.4</ele><time>2017-11-18T09:44:48Z</time></trkpt>
<trkpt lat="47.18028143" lon="-1.40071429"><ele>16.5</ele><time>2017-11-18T09:44:52Z</time></trkpt>
<trkpt lat="47.18018233" lon="-1.40071533"><ele>16.299999</ele><time>2017-11-18T09:44:56Z</time></trkpt>
<trkpt lat="47.18008667" lon="-1.40068800"><ele>16.299999</ele><time>2017-11-18T09:44:59Z</time></trkpt>
<trkpt lat="47.17998800" lon="-1.40064500"><ele>16.1</ele><time>2017-11-18T09:45:02Z</time></trkpt>
<trkpt lat="47.17989267" lon="-1.40061300"><ele>16</ele><time>2017-11-18T09:45:05Z</time></trkpt>
<trkpt lat="47.17979381" lon="-1.40057048"><ele>15.9</ele><time>2017-11-18T09:45:08Z</time></trkpt>
<trkpt lat="47.17968000" lon="-1.40054048"><ele>16</ele><time>2017-11-18T09:45:12Z</time></trkpt>
<trkpt lat="47.17957633" lon="-1.40053900"><ele>15.9</ele><time>2017-11-18T09:45:16Z</time></trkpt>
<trkpt lat="47.17947405" lon="-1.40053595"><ele>15.9</ele><time>2017-11-18T09:45:19Z</time></trkpt>
<trkpt lat="47.17936786" lon="-1.40054857"><ele>15.9</ele><time>2017-11-18T09:45:23Z</time></trkpt>
<trkpt lat="47.17926900" lon="-1.40057567"><ele>16.700001</ele><time>2017-11-18T09:45:47Z</time></trkpt>
<trkpt lat="47.17920200" lon="-1.40045233"><ele>18.799999</ele><time>2017-11-18T09:47:06Z</time></trkpt>
<trkpt lat="47.17915633" lon="-1.40033300"><ele>18.9</ele><time>2017-11-18T09:47:09Z</time></trkpt>
<trkpt lat="47.17911556" lon="-1.40022222"><ele>18.700001</ele><time>2017-11-18T09:47:11Z</time></trkpt>
<trkpt lat="47.17907233" lon="-1.40011167"><ele>18.4</ele><time>2017-11-18T09:47:14Z</time></trkpt>
<trkpt lat="47.17899750" lon="-1.40003389"><ele>18.1</ele><time>2017-11-18T09:47:17Z</time></trkpt>
<trkpt lat="47.17889095" lon="-1.40003405"><ele>18.1</ele><time>2017-11-18T09:47:21Z</time></trkpt>
<trkpt lat="47.17881533" lon="-1.39992500"><ele>18.200001</ele><time>2017-11-18T09:47:25Z</time></trkpt>
<trkpt lat="47.17872167" lon="-1.39985000"><ele>18.200001</ele><time>2017-11-18T09:47:28Z</time></trkpt>
<trkpt lat="47.17865567" lon="-1.39992400"><ele>18.200001</ele><time>2017-11-18T09:47:32Z</time></trkpt>
<trkpt lat="47.17856333" lon="-1.40002476"><ele>18.200001</ele><time>2017-11-18T09:47:35Z</time></trkpt>
<trkpt lat="47.17845667" lon="-1.40000083"><ele>18.1</ele><time>2017-11-18T09:47:39Z</time></trkpt>
<trkpt lat="47.17836792" lon="-1.40000208"><ele>18.299999</ele><time>2017-11-18T09:47:42Z</time></trkpt>
<trkpt lat="47.17827200" lon="-1.40005100"><ele>18.200001</ele><time>2017-11-18T09:47:45Z</time></trkpt>
<trkpt lat="47.17817333" lon="-1.40010967"><ele>18.4</ele><time>2017-11-18T09:47:48Z</time></trkpt>
<trkpt lat="47.17807333" lon="-1.40016867"><ele>18.5</ele><time>2017-11-18T09:47:51Z</time></trkpt>
<trkpt lat="47.17797700" lon="-1.40022367"><ele>18.700001</ele><time>2017-11-18T09:47:54Z</time></trkpt>
<trkpt lat="47.17787833" lon="-1.40028233"><ele>18.799999</ele><time>2017-11-18T09:47:57Z</time></trkpt>
<trkpt lat="47.17780167" lon="-1.40036533"><ele>18.6</ele><time>2017-11-18T09:48:00Z</time></trkpt>
<trkpt lat="47.17781067" lon="-1.40049667"><ele>19.200001</ele><time>2017-11-18T09:48:03Z</time></trkpt>
<trkpt lat="47.17784167" lon="-1.40062125"><ele>20</ele><time>2017-11-18T09:48:05Z</time></trkpt>
<trkpt lat="47.17785867" lon="-1.40075900"><ele>20.6</ele><time>2017-11-18T09:48:09Z</time></trkpt>
<trkpt lat="47.17785000" lon="-1.40088333"><ele>21.5</ele><time>2017-11-18T09:48:12Z</time></trkpt>
<trkpt lat="47.17787389" lon="-1.40099389"><ele>21.9</ele><time>2017-11-18T09:48:14Z</time></trkpt>
<trkpt lat="47.17790222" lon="-1.40108889"><ele>22.200001</ele><time>2017-11-18T09:48:17Z</time></trkpt>
<trkpt lat="47.17792444" lon="-1.40118556"><ele>22.5</ele><time>2017-11-18T09:48:18Z</time></trkpt>
<trkpt lat="47.17794778" lon="-1.40128056"><ele>22.799999</ele><time>2017-11-18T09:48:20Z</time></trkpt>
<trkpt lat="47.17796722" lon="-1.40138111"><ele>22.9</ele><time>2017-11-18T09:48:22Z</time></trkpt>
<trkpt lat="47.17798667" lon="-1.40148556"><ele>23.200001</ele><time>2017-11-18T09:48:24Z</time></trkpt>
<trkpt lat="47.17801056" lon="-1.40159500"><ele>23.5</ele><time>2017-11-18T09:48:27Z</time></trkpt>
<trkpt lat="47.17803889" lon="-1.40170444"><ele>23.9</ele><time>2017-11-18T09:48:28Z</time></trkpt>
<trkpt lat="47.17806444" lon="-1.40182056"><ele>24.1</ele><time>2017-11-18T09:48:30Z</time></trkpt>
<trkpt lat="47.17809333" lon="-1.40195667"><ele>24.200001</ele><time>2017-11-18T09:48:33Z</time></trkpt>
<trkpt lat="47.17811278" lon="-1.40205111"><ele>24.4</ele><time>2017-11-18T09:48:34Z</time></trkpt>
<trkpt lat="47.17813389" lon="-1.40216444"><ele>24.4</ele><time>2017-11-18T09:48:36Z</time></trkpt>
<trkpt lat="47.17814333" lon="-1.40227889"><ele>24.700001</ele><time>2017-11-18T09:48:38Z</time></trkpt>
<trkpt lat="47.17812833" lon="-1.40239333"><ele>24.700001</ele><time>2017-11-18T09:48:40Z</time></trkpt>
<trkpt lat="47.17807400" lon="-1.40251033"><ele>25.1</ele><time>2017-11-18T09:48:43Z</time></trkpt>
<trkpt lat="47.17801389" lon="-1.40260444"><ele>25.700001</ele><time>2017-11-18T09:48:45Z</time></trkpt>
<trkpt lat="47.17798000" lon="-1.40272167"><ele>26.200001</ele><time>2017-11-18T09:48:48Z</time></trkpt>
<trkpt lat="47.17797056" lon="-1.40282667"><ele>26.5</ele><time>2017-11-18T09:48:49Z</time></trkpt>
<trkpt lat="47.17794722" lon="-1.40296056"><ele>26.700001</ele><time>2017-11-18T09:48:51Z</time></trkpt>
<trkpt lat="47.17789556" lon="-1.40308167"><ele>27.1</ele><time>2017-11-18T09:48:53Z</time></trkpt>
<trkpt lat="47.17780633" lon="-1.40318533"><ele>27.4</ele><time>2017-11-18T09:48:56Z</time></trkpt>
<trkpt lat="47.17770222" lon="-1.40323500"><ele>27.6</ele><time>2017-11-18T09:48:58Z</time></trkpt>
<trkpt lat="47.17760778" lon="-1.40323278"><ele>27.700001</ele><time>2017-11-18T09:49:00Z</time></trkpt>
<trkpt lat="47.17751389" lon="-1.40318833"><ele>27.6</ele><time>2017-11-18T09:49:02Z</time></trkpt>
<trkpt lat="47.17742111" lon="-1.40311833"><ele>27.4</ele><time>2017-11-18T09:49:04Z</time></trkpt>
<trkpt lat="47.17731556" lon="-1.40306611"><ele>27</ele><time>2017-11-18T09:49:06Z</time></trkpt>
<trkpt lat="47.17719833" lon="-1.40303889"><ele>26.5</ele><time>2017-11-18T09:49:08Z</time></trkpt>
<trkpt lat="47.17707556" lon="-1.40302000"><ele>26.1</ele><time>2017-11-18T09:49:10Z</time></trkpt>
<trkpt lat="47.17695056" lon="-1.40299833"><ele>25.6</ele><time>2017-11-18T09:49:13Z</time></trkpt>
<trkpt lat="47.17682833" lon="-1.40297556"><ele>25.200001</ele><time>2017-11-18T09:49:14Z</time></trkpt>
<trkpt lat="47.17670833" lon="-1.40295056"><ele>24.799999</ele><time>2017-11-18T09:49:16Z</time></trkpt>
<trkpt lat="47.17658833" lon="-1.40292333"><ele>24.200001</ele><time>2017-11-18T09:49:18Z</time></trkpt>
<trkpt lat="47.17646722" lon="-1.40289500"><ele>23.6</ele><time>2017-11-18T09:49:20Z</time></trkpt>
<trkpt lat="47.17633833" lon="-1.40285889"><ele>23.299999</ele><time>2017-11-18T09:49:23Z</time></trkpt>
<trkpt lat="47.17620278" lon="-1.40281167"><ele>23.1</ele><time>2017-11-18T09:49:24Z</time></trkpt>
<trkpt lat="47.17606444" lon="-1.40275389"><ele>22.9</ele><time>2017-11-18T09:49:27Z</time></trkpt>
<trkpt lat="47.17592889" lon="-1.40268611"><ele>22.6</ele><time>2017-11-18T09:49:28Z</time></trkpt>
<trkpt lat="47.17579889" lon="-1.40261722"><ele>22.4</ele><time>2017-11-18T09:49:30Z</time></trkpt>
<trkpt lat="47.17568444" lon="-1.40256111"><ele>21.6</ele><time>2017-11-18T09:49:32Z</time></trkpt>
<trkpt lat="47.17556611" lon="-1.40247222"><ele>21.200001</ele><time>2017-11-18T09:49:34Z</time></trkpt>
<trkpt lat="47.17544833" lon="-1.40238167"><ele>21.700001</ele><time>2017-11-18T09:49:37Z</time></trkpt>
<trkpt lat="47.17534278" lon="-1.40229833"><ele>21.9</ele><time>2017-11-18T09:49:38Z</time></trkpt>
<trkpt lat="47.17524833" lon="-1.40220556"><ele>23.1</ele><time>2017-11-18T09:49:40Z</time></trkpt>
<trkpt lat="47.17516833" lon="-1.40206667"><ele>24.1</ele><time>2017-11-18T09:49:42Z</time></trkpt>
<trkpt lat="47.17511333" lon="-1.40196944"><ele>25.200001</ele><time>2017-11-18T09:49:44Z</time></trkpt>
<trkpt lat="47.17502042" lon="-1.40186000"><ele>25.6</ele><time>2017-11-18T09:49:47Z</time></trkpt>
<trkpt lat="47.17491733" lon="-1.40175267"><ele>25.4</ele><time>2017-11-18T09:49:50Z</time></trkpt>
<trkpt lat="47.17481133" lon="-1.40164533"><ele>25.6</ele><time>2017-11-18T09:49:53Z</time></trkpt>
<trkpt lat="47.17470933" lon="-1.40152967"><ele>25.700001</ele><time>2017-11-18T09:49:56Z</time></trkpt>
<trkpt lat="47.17461467" lon="-1.40140900"><ele>25.4</ele><time>2017-11-18T09:49:59Z</time></trkpt>
<trkpt lat="47.17454233" lon="-1.40130467"><ele>25.1</ele><time>2017-11-18T09:50:02Z</time></trkpt>
<trkpt lat="47.17448367" lon="-1.40119433"><ele>25.1</ele><time>2017-11-18T09:50:05Z</time></trkpt>
<trkpt lat="47.17443567" lon="-1.40107000"><ele>25</ele><time>2017-11-18T09:50:08Z</time></trkpt>
<trkpt lat="47.17437133" lon="-1.40094067"><ele>24.799999</ele><time>2017-11-18T09:50:11Z</time></trkpt>
<trkpt lat="47.17427833" lon="-1.40082333"><ele>24.6</ele><time>2017-11-18T09:50:14Z</time></trkpt>
<trkpt lat="47.17418067" lon="-1.40070433"><ele>24.200001</ele><time>2017-11-18T09:50:17Z</time></trkpt>
<trkpt lat="47.17408100" lon="-1.40058000"><ele>23.799999</ele><time>2017-11-18T09:50:20Z</time></trkpt>
<trkpt lat="47.17397700" lon="-1.40045200"><ele>23.5</ele><time>2017-11-18T09:50:23Z</time></trkpt>
<trkpt lat="47.17387500" lon="-1.40033033"><ele>23.200001</ele><time>2017-11-18T09:50:26Z</time></trkpt>
<trkpt lat="47.17377667" lon="-1.40021100"><ele>23.1</ele><time>2017-11-18T09:50:29Z</time></trkpt>
<trkpt lat="47.17367667" lon="-1.40008800"><ele>23.1</ele><time>2017-11-18T09:50:32Z</time></trkpt>
<trkpt lat="47.17357667" lon="-1.39996200"><ele>23.200001</ele><time>2017-11-18T09:50:35Z</time></trkpt>
<trkpt lat="47.17346583" lon="-1.39982250"><ele>23.299999</ele><time>2017-11-18T09:50:38Z</time></trkpt>
<trkpt lat="47.17339111" lon="-1.39972278"><ele>23.5</ele><time>2017-11-18T09:50:40Z</time></trkpt>
<trkpt lat="47.17331833" lon="-1.39960333"><ele>23.5</ele><time>2017-11-18T09:50:43Z</time></trkpt>
<trkpt lat="47.17327222" lon="-1.39950944"><ele>23.5</ele><time>2017-11-18T09:50:44Z</time></trkpt>
<trkpt lat="47.17322417" lon="-1.39939917"><ele>23.4</ele><time>2017-11-18T09:50:46Z</time></trkpt>
<trkpt lat="47.17316444" lon="-1.39927556"><ele>23.200001</ele><time>2017-11-18T09:50:48Z</time></trkpt>
<trkpt lat="47.17309778" lon="-1.39917167"><ele>23</ele><time>2017-11-18T09:50:50Z</time></trkpt>
<trkpt lat="47.17302167" lon="-1.39904667"><ele>22.700001</ele><time>2017-11-18T09:50:52Z</time></trkpt>
<trkpt lat="47.17296389" lon="-1.39895000"><ele>22.299999</ele><time>2017-11-18T09:50:54Z</time></trkpt>
<trkpt lat="47.17288778" lon="-1.39882222"><ele>21.9</ele><time>2017-11-18T09:50:57Z</time></trkpt>
<trkpt lat="47.17280222" lon="-1.39869556"><ele>21.4</ele><time>2017-11-18T09:50:58Z</time></trkpt>
<trkpt lat="47.17270778" lon="-1.39857500"><ele>21.1</ele><time>2017-11-18T09:51:00Z</time></trkpt>
<trkpt lat="47.17261278" lon="-1.39845833"><ele>20.799999</ele><time>2017-11-18T09:51:02Z</time></trkpt>
<trkpt lat="47.17251444" lon="-1.39836000"><ele>20.6</ele><time>2017-11-18T09:51:04Z</time></trkpt>
<trkpt lat="47.17239667" lon="-1.39826233"><ele>20.4</ele><time>2017-11-18T09:51:07Z</time></trkpt>
<trkpt lat="47.17227133" lon="-1.39816100"><ele>20.1</ele><time>2017-11-18T09:51:10Z</time></trkpt>
<trkpt lat="47.17218611" lon="-1.39806000"><ele>19.799999</ele><time>2017-11-18T09:51:12Z</time></trkpt>
<trkpt lat="47.17214778" lon="-1.39794833"><ele>19.700001</ele><time>2017-11-18T09:51:14Z</time></trkpt>
<trkpt lat="47.17213889" lon="-1.39782778"><ele>19.799999</ele><time>2017-11-18T09:51:16Z</time></trkpt>
<trkpt lat="47.17211200" lon="-1.39770067"><ele>19.799999</ele><time>2017-11-18T09:51:19Z</time></trkpt>
<trkpt lat="47.17202400" lon="-1.39767500"><ele>19.700001</ele><time>2017-11-18T09:51:22Z</time></trkpt>
<trkpt lat="47.17197000" lon="-1.39780056"><ele>19.9</ele><time>2017-11-18T09:51:24Z</time></trkpt>
<trkpt lat="47.17193722" lon="-1.39792778"><ele>20</ele><time>2017-11-18T09:51:27Z</time></trkpt>
<trkpt lat="47.17187467" lon="-1.39804900"><ele>20.200001</ele><time>2017-11-18T09:51:29Z</time></trkpt>
<trkpt lat="47.17176933" lon="-1.39811833"><ele>20.299999</ele><time>2017-11-18T09:51:32Z</time></trkpt>
<trkpt lat="47.17166500" lon="-1.39811867"><ele>20.4</ele><time>2017-11-18T09:51:35Z</time></trkpt>
<trkpt lat="47.17157333" lon="-1.39816917"><ele>19.9</ele><time>2017-11-18T09:51:38Z</time></trkpt>
<trkpt lat="47.17158533" lon="-1.39828800"><ele>20</ele><time>2017-11-18T09:51:41Z</time></trkpt>
<trkpt lat="47.17165600" lon="-1.39839433"><ele>20.799999</ele><time>2017-11-18T09:51:44Z</time></trkpt>
<trkpt lat="47.17173700" lon="-1.39849600"><ele>21.5</ele><time>2017-11-18T09:51:47Z</time></trkpt>
<trkpt lat="47.17181333" lon="-1.39859767"><ele>22</ele><time>2017-11-18T09:51:50Z</time></trkpt>
<trkpt lat="47.17188500" lon="-1.39871167"><ele>22.299999</ele><time>2017-11-18T09:51:53Z</time></trkpt>
<trkpt lat="47.17192833" lon="-1.39879833"><ele>22.5</ele><time>2017-11-18T09:51:54Z</time></trkpt>
<trkpt lat="47.17197167" lon="-1.39890833"><ele>23</ele><time>2017-11-18T09:51:56Z</time></trkpt>
<trkpt lat="47.17200500" lon="-1.39901444"><ele>23.5</ele><time>2017-11-18T09:51:58Z</time></trkpt>
<trkpt lat="47.17203733" lon="-1.39913400"><ele>24.299999</ele><time>2017-11-18T09:52:01Z</time></trkpt>
<trkpt lat="47.17206467" lon="-1.39924833"><ele>25</ele><time>2017-11-18T09:52:04Z</time></trkpt>
<trkpt lat="47.17203048" lon="-1.39933238"><ele>25.1</ele><time>2017-11-18T09:52:07Z</time></trkpt>
<trkpt lat="47.17193067" lon="-1.39938067"><ele>25.1</ele><time>2017-11-18T09:52:11Z</time></trkpt>
<trkpt lat="47.17184067" lon="-1.39947800"><ele>24.9</ele><time>2017-11-18T09:52:14Z</time></trkpt>
<trkpt lat="47.17175000" lon="-1.39959833"><ele>24.6</ele><time>2017-11-18T09:52:17Z</time></trkpt>
<trkpt lat="47.17165533" lon="-1.39972933"><ele>24.200001</ele><time>2017-11-18T09:52:20Z</time></trkpt>
<trkpt lat="47.17155917" lon="-1.39986333"><ele>24.200001</ele><time>2017-11-18T09:52:23Z</time></trkpt>
<trkpt lat="47.17148133" lon="-1.39996733"><ele>24.200001</ele><time>2017-11-18T09:52:26Z</time></trkpt>
<trkpt lat="47.17139867" lon="-1.40007667"><ele>24.4</ele><time>2017-11-18T09:52:29Z</time></trkpt>
<trkpt lat="47.17133567" lon="-1.40016167"><ele>24.6</ele><time>2017-11-18T09:52:32Z</time></trkpt>
<trkpt lat="47.17134500" lon="-1.40026467"><ele>25.299999</ele><time>2017-11-18T09:52:35Z</time></trkpt>
<trkpt lat="47.17141833" lon="-1.40039333"><ele>26.1</ele><time>2017-11-18T09:52:38Z</time></trkpt>
<trkpt lat="47.17147533" lon="-1.40049700"><ele>26.700001</ele><time>2017-11-18T09:52:41Z</time></trkpt>
<trkpt lat="47.17153500" lon="-1.40061500"><ele>27.4</ele><time>2017-11-18T09:52:44Z</time></trkpt>
<trkpt lat="47.17159067" lon="-1.40072267"><ele>28.200001</ele><time>2017-11-18T09:52:47Z</time></trkpt>
<trkpt lat="47.17164500" lon="-1.40083067"><ele>28.9</ele><time>2017-11-18T09:52:50Z</time></trkpt>
<trkpt lat="47.17170133" lon="-1.40093800"><ele>29.700001</ele><time>2017-11-18T09:52:53Z</time></trkpt>
<trkpt lat="47.17175333" lon="-1.40105067"><ele>30.1</ele><time>2017-11-18T09:52:56Z</time></trkpt>
<trkpt lat="47.17180767" lon="-1.40116933"><ele>30.5</ele><time>2017-11-18T09:52:59Z</time></trkpt>
<trkpt lat="47.17186367" lon="-1.40128433"><ele>30.799999</ele><time>2017-11-18T09:53:02Z</time></trkpt>
<trkpt lat="47.17191600" lon="-1.40140367"><ele>31.1</ele><time>2017-11-18T09:53:05Z</time></trkpt>
<trkpt lat="47.17197300" lon="-1.40152667"><ele>31.4</ele><time>2017-11-18T09:53:08Z</time></trkpt>
<trkpt lat="47.17203833" lon="-1.40165600"><ele>31.5</ele><time>2017-11-18T09:53:11Z</time></trkpt>
<trkpt lat="47.17210100" lon="-1.40178467"><ele>31.700001</ele><time>2017-11-18T09:53:14Z</time></trkpt>
<trkpt lat="47.17215310" lon="-1.40188952"><ele>31.799999</ele><time>2017-11-18T09:53:17Z</time></trkpt>
<trkpt lat="47.17216704" lon="-1.40199204"><ele>31.799999</ele><time>2017-11-18T09:53:22Z</time></trkpt>
<trkpt lat="47.17209417" lon="-1.40210063"><ele>31.1</ele><time>2017-11-18T09:53:27Z</time></trkpt>
<trkpt lat="47.17200167" lon="-1.40219810"><ele>30.6</ele><time>2017-11-18T09:53:31Z</time></trkpt>
<trkpt lat="47.17190767" lon="-1.40228767"><ele>30.5</ele><time>2017-11-18T09:53:35Z</time></trkpt>
<trkpt lat="47.17180452" lon="-1.40237714"><ele>30.5</ele><time>2017-11-18T09:53:38Z</time></trkpt>
<trkpt lat="47.17171972" lon="-1.40247028"><ele>30.799999</ele><time>2017-11-18T09:53:42Z</time></trkpt>
<trkpt lat="47.17168786" lon="-1.40258405"><ele>31.200001</ele><time>2017-11-18T09:53:46Z</time></trkpt>
<trkpt lat="47.17164100" lon="-1.40269400"><ele>31.4</ele><time>2017-11-18T09:53:50Z</time></trkpt>
<trkpt lat="47.17159333" lon="-1.40279643"><ele>31.799999</ele><time>2017-11-18T09:53:53Z</time></trkpt>
<trkpt lat="47.17150643" lon="-1.40285833"><ele>32.900002</ele><time>2017-11-18T09:53:57Z</time></trkpt>
<trkpt lat="47.17140708" lon="-1.40285042"><ele>33.299999</ele><time>2017-11-18T09:54:00Z</time></trkpt>
<trkpt lat="47.17130867" lon="-1.40284000"><ele>33.799999</ele><time>2017-11-18T09:54:04Z</time></trkpt>
<trkpt lat="47.17121667" lon="-1.40284900"><ele>34.200001</ele><time>2017-11-18T09:54:07Z</time></trkpt>
<trkpt lat="47.17112000" lon="-1.40287100"><ele>34.599998</ele><time>2017-11-18T09:54:10Z</time></trkpt>
<trkpt lat="47.17102867" lon="-1.40293033"><ele>35.099998</ele><time>2017-11-18T09:54:13Z</time></trkpt>
<trkpt lat="47.17095867" lon="-1.40303900"><ele>35.099998</ele><time>2017-11-18T09:54:16Z</time></trkpt>
<trkpt lat="47.17090167" lon="-1.40316833"><ele>35.599998</ele><time>2017-11-18T09:54:19Z</time></trkpt>
<trkpt lat="47.17085500" lon="-1.40328111"><ele>35.299999</ele><time>2017-11-18T09:54:21Z</time></trkpt>
<trkpt lat="47.17081333" lon="-1.40337556"><ele>34.5</ele><time>2017-11-18T09:54:23Z</time></trkpt>
<trkpt lat="47.17077667" lon="-1.40347222"><ele>34.099998</ele><time>2017-11-18T09:54:25Z</time></trkpt>
<trkpt lat="47.17073700" lon="-1.40358467"><ele>34.400002</ele><time>2017-11-18T09:54:28Z</time></trkpt>
<trkpt lat="47.17068889" lon="-1.40369500"><ele>35.099998</ele><time>2017-11-18T09:54:30Z</time></trkpt>
<trkpt lat="47.17064833" lon="-1.40378889"><ele>35.5</ele><time>2017-11-18T09:54:33Z</time></trkpt>
<trkpt lat="47.17058900" lon="-1.40390667"><ele>35</ele><time>2017-11-18T09:54:35Z</time></trkpt>
<trkpt lat="47.17052533" lon="-1.40403733"><ele>35.599998</ele><time>2017-11-18T09:54:38Z</time></trkpt>
<trkpt lat="47.17046300" lon="-1.40416600"><ele>36.599998</ele><time>2017-11-18T09:54:41Z</time></trkpt>
<trkpt lat="47.17040200" lon="-1.40429567"><ele>37</ele><time>2017-11-18T09:54:44Z</time></trkpt>
<trkpt lat="47.17033867" lon="-1.40442033"><ele>36.599998</ele><time>2017-11-18T09:54:47Z</time></trkpt>
<trkpt lat="47.17027467" lon="-1.40455333"><ele>36.400002</ele><time>2017-11-18T09:54:50Z</time></trkpt>
<trkpt lat="47.17021933" lon="-1.40467800"><ele>36</ele><time>2017-11-18T09:54:53Z</time></trkpt>
<trkpt lat="47.17016292" lon="-1.40478833"><ele>35.799999</ele><time>2017-11-18T09:54:56Z</time></trkpt>
<trkpt lat="47.17009800" lon="-1.40492067"><ele>34.900002</ele><time>2017-11-18T09:54:59Z</time></trkpt>
<trkpt lat="47.17006167" lon="-1.40503958"><ele>34.700001</ele><time>2017-11-18T09:55:02Z</time></trkpt>
<trkpt lat="47.17009667" lon="-1.40517389"><ele>35.900002</ele><time>2017-11-18T09:55:04Z</time></trkpt>
<trkpt lat="47.17014750" lon="-1.40527083"><ele>36.299999</ele><time>2017-11-18T09:55:06Z</time></trkpt>
<trkpt lat="47.17021611" lon="-1.40538389"><ele>36.700001</ele><time>2017-11-18T09:55:08Z</time></trkpt>
<trkpt lat="47.17027056" lon="-1.40549667"><ele>37.299999</ele><time>2017-11-18T09:55:10Z</time></trkpt>
<trkpt lat="47.17031000" lon="-1.40564333"><ele>37.400002</ele><time>2017-11-18T09:55:13Z</time></trkpt>
<trkpt lat="47.17034222" lon="-1.40573889"><ele>37.799999</ele><time>2017-11-18T09:55:14Z</time></trkpt>
<trkpt lat="47.17041300" lon="-1.40585767"><ele>38.299999</ele><time>2017-11-18T09:55:17Z</time></trkpt>
<trkpt lat="47.17048867" lon="-1.40597633"><ele>38.799999</ele><time>2017-11-18T09:55:20Z</time></trkpt>
<trkpt lat="47.17053600" lon="-1.40609300"><ele>38.799999</ele><time>2017-11-18T09:55:23Z</time></trkpt>
<trkpt lat="47.17048867" lon="-1.40620467"><ele>38.700001</ele><time>2017-11-18T09:55:26Z</time></trkpt>
<trkpt lat="47.17039167" lon="-1.40623722"><ele>38.799999</ele><time>2017-11-18T09:55:28Z</time></trkpt>
<trkpt lat="47.17029500" lon="-1.40623889"><ele>38.799999</ele><time>2017-11-18T09:55:30Z</time></trkpt>
<trkpt lat="47.17017833" lon="-1.40623000"><ele>38.700001</ele><time>2017-11-18T09:55:32Z</time></trkpt>
<trkpt lat="47.17009111" lon="-1.40621944"><ele>38.799999</ele><time>2017-11-18T09:55:34Z</time></trkpt>
<trkpt lat="47.16998278" lon="-1.40619389"><ele>38.700001</ele><time>2017-11-18T09:55:36Z</time></trkpt>
<trkpt lat="47.16988111" lon="-1.40615111"><ele>38.5</ele><time>2017-11-18T09:55:38Z</time></trkpt>
<trkpt lat="47.16978278" lon="-1.40609889"><ele>38.599998</ele><time>2017-11-18T09:55:40Z</time></trkpt>
<trkpt lat="47.16968611" lon="-1.40604389"><ele>38.5</ele><time>2017-11-18T09:55:43Z</time></trkpt>
<trkpt lat="47.16958778" lon="-1.40598833"><ele>38.599998</ele><time>2017-11-18T09:55:44Z</time></trkpt>
<trkpt lat="47.16947233" lon="-1.40589900"><ele>38.700001</ele><time>2017-11-18T09:55:47Z</time></trkpt>
<trkpt lat="47.16937389" lon="-1.40579333"><ele>38.900002</ele><time>2017-11-18T09:55:49Z</time></trkpt>
<trkpt lat="47.16930167" lon="-1.40569889"><ele>39</ele><time>2017-11-18T09:55:52Z</time></trkpt>
<trkpt lat="47.16923278" lon="-1.40560389"><ele>39.099998</ele><time>2017-11-18T09:55:53Z</time></trkpt>
<trkpt lat="47.16916778" lon="-1.40551056"><ele>39.200001</ele><time>2017-11-18T09:55:55Z</time></trkpt>
<trkpt lat="47.16910556" lon="-1.40541444"><ele>39.400002</ele><time>2017-11-18T09:55:57Z</time></trkpt>
<trkpt lat="47.16904222" lon="-1.40531611"><ele>39.599998</ele><time>2017-11-18T09:55:59Z</time></trkpt>
<trkpt lat="47.16898167" lon="-1.40521389"><ele>40</ele><time>2017-11-18T09:56:02Z</time></trkpt>
<trkpt lat="47.16892278" lon="-1.40510667"><ele>40.400002</ele><time>2017-11-18T09:56:03Z</time></trkpt>
<trkpt lat="47.16886889" lon="-1.40500111"><ele>40.700001</ele><time>2017-11-18T09:56:05Z</time></trkpt>
<trkpt lat="47.16881833" lon="-1.40489056"><ele>41.200001</ele><time>2017-11-18T09:56:07Z</time></trkpt>
<trkpt lat="47.16876778" lon="-1.40478500"><ele>41.599998</ele><time>2017-11-18T09:56:09Z</time></trkpt>
<trkpt lat="47.16871944" lon="-1.40467833"><ele>41.900002</ele><time>2017-11-18T09:56:11Z</time></trkpt>
<trkpt lat="47.16867000" lon="-1.40457111"><ele>42.099998</ele><time>2017-11-18T09:56:13Z</time></trkpt>
<trkpt lat="47.16862000" lon="-1.40446389"><ele>42.299999</ele><time>2017-11-18T09:56:15Z</time></trkpt>
<trkpt lat="47.16856833" lon="-1.40435667"><ele>42.299999</ele><time>2017-11-18T09:56:18Z</time></trkpt>
<trkpt lat="47.16851556" lon="-1.40424778"><ele>42.299999</ele><time>2017-11-18T09:56:19Z</time></trkpt>
<trkpt lat="47.16846222" lon="-1.40413944"><ele>42.200001</ele><time>2017-11-18T09:56:21Z</time></trkpt>
<trkpt lat="47.16840889" lon="-1.40403000"><ele>42.200001</ele><time>2017-11-18T09:56:23Z</time></trkpt>
<trkpt lat="47.16835667" lon="-1.40392167"><ele>42.099998</ele><time>2017-11-18T09:56:25Z</time></trkpt>
<trkpt lat="47.16829667" lon="-1.40379333"><ele>42.099998</ele><time>2017-11-18T09:56:28Z</time></trkpt>
<trkpt lat="47.16825611" lon="-1.40370389"><ele>42.099998</ele><time>2017-11-18T09:56:29Z</time></trkpt>
<trkpt lat="47.16820944" lon="-1.40360222"><ele>42</ele><time>2017-11-18T09:56:32Z</time></trkpt>
<trkpt lat="47.16816167" lon="-1.40350056"><ele>42</ele><time>2017-11-18T09:56:33Z</time></trkpt>
<trkpt lat="47.16811444" lon="-1.40339833"><ele>42</ele><time>2017-11-18T09:56:35Z</time></trkpt>
<trkpt lat="47.16806500" lon="-1.40330111"><ele>41.799999</ele><time>2017-11-18T09:56:37Z</time></trkpt>
<trkpt lat="47.16801111" lon="-1.40320444"><ele>41.599998</ele><time>2017-11-18T09:56:39Z</time></trkpt>
<trkpt lat="47.16795222" lon="-1.40310333"><ele>41.400002</ele><time>2017-11-18T09:56:41Z</time></trkpt>
<trkpt lat="47.16788889" lon="-1.40300222"><ele>41.299999</ele><time>2017-11-18T09:56:43Z</time></trkpt>
<trkpt lat="47.16782556" lon="-1.40289778"><ele>41</ele><time>2017-11-18T09:56:45Z</time></trkpt>
<trkpt lat="47.16774833" lon="-1.40277167"><ele>40.900002</ele><time>2017-11-18T09:56:47Z</time></trkpt>
<trkpt lat="47.16769111" lon="-1.40267889"><ele>40.599998</ele><time>2017-11-18T09:56:49Z</time></trkpt>
<trkpt lat="47.16762167" lon="-1.40256556"><ele>40.299999</ele><time>2017-11-18T09:56:51Z</time></trkpt>
<trkpt lat="47.16755444" lon="-1.40245333"><ele>40</ele><time>2017-11-18T09:56:53Z</time></trkpt>
<trkpt lat="47.16748889" lon="-1.40234500"><ele>39.599998</ele><time>2017-11-18T09:56:55Z</time></trkpt>
<trkpt lat="47.16742278" lon="-1.40223500"><ele>39.099998</ele><time>2017-11-18T09:56:58Z</time></trkpt>
<trkpt lat="47.16735600" lon="-1.40212000"><ele>38.5</ele><time>2017-11-18T09:57:00Z</time></trkpt>
<trkpt lat="47.16730567" lon="-1.40200533"><ele>37.400002</ele><time>2017-11-18T09:57:03Z</time></trkpt>
<trkpt lat="47.16725278" lon="-1.40188500"><ele>36.400002</ele><time>2017-11-18T09:57:05Z</time></trkpt>
<trkpt lat="47.16717778" lon="-1.40180500"><ele>35.900002</ele><time>2017-11-18T09:57:08Z</time></trkpt>
<trkpt lat="47.16708444" lon="-1.40173556"><ele>35.299999</ele><time>2017-11-18T09:57:09Z</time></trkpt>
<trkpt lat="47.16697722" lon="-1.40169222"><ele>34.599998</ele><time>2017-11-18T09:57:12Z</time></trkpt>
<trkpt lat="47.16686222" lon="-1.40171111"><ele>33.900002</ele><time>2017-11-18T09:57:13Z</time></trkpt>
<trkpt lat="47.16675000" lon="-1.40176667"><ele>33.200001</ele><time>2017-11-18T09:57:15Z</time></trkpt>
<trkpt lat="47.16663722" lon="-1.40182500"><ele>32.599998</ele><time>2017-11-18T09:57:17Z</time></trkpt>
<trkpt lat="47.16652389" lon="-1.40188778"><ele>32</ele><time>2017-11-18T09:57:19Z</time></trkpt>
<trkpt lat="47.16640778" lon="-1.40192722"><ele>31.6</ele><time>2017-11-18T09:57:22Z</time></trkpt>
<trkpt lat="47.16628833" lon="-1.40191778"><ele>31.299999</ele><time>2017-11-18T09:57:23Z</time></trkpt>
<trkpt lat="47.16616167" lon="-1.40189444"><ele>30.4</ele><time>2017-11-18T09:57:25Z</time></trkpt>
<trkpt lat="47.16603000" lon="-1.40191167"><ele>29.700001</ele><time>2017-11-18T09:57:27Z</time></trkpt>
<trkpt lat="47.16591278" lon="-1.40199722"><ele>29.200001</ele><time>2017-11-18T09:57:29Z</time></trkpt>
<trkpt lat="47.16581500" lon="-1.40210667"><ele>29.1</ele><time>2017-11-18T09:57:31Z</time></trkpt>
<trkpt lat="47.16573278" lon="-1.40222333"><ele>28.6</ele><time>2017-11-18T09:57:33Z</time></trkpt>
<trkpt lat="47.16565767" lon="-1.40234133"><ele>28.4</ele><time>2017-11-18T09:57:36Z</time></trkpt>
<trkpt lat="47.16557233" lon="-1.40244633"><ele>27.9</ele><time>2017-11-18T09:57:39Z</time></trkpt>
<trkpt lat="47.16545233" lon="-1.40238967"><ele>27.299999</ele><time>2017-11-18T09:57:42Z</time></trkpt>
<trkpt lat="47.16538056" lon="-1.40225611"><ele>27.5</ele><time>2017-11-18T09:57:44Z</time></trkpt>
<trkpt lat="47.16532222" lon="-1.40214056"><ele>28.1</ele><time>2017-11-18T09:57:47Z</time></trkpt>
<trkpt lat="47.16525944" lon="-1.40203111"><ele>28.200001</ele><time>2017-11-18T09:57:48Z</time></trkpt>
<trkpt lat="47.16519667" lon="-1.40192833"><ele>28.299999</ele><time>2017-11-18T09:57:50Z</time></trkpt>
<trkpt lat="47.16513444" lon="-1.40182556"><ele>28.4</ele><time>2017-11-18T09:57:52Z</time></trkpt>
<trkpt lat="47.16507056" lon="-1.40172222"><ele>28.6</ele><time>2017-11-18T09:57:54Z</time></trkpt>
<trkpt lat="47.16501333" lon="-1.40162750"><ele>28.9</ele><time>2017-11-18T09:57:56Z</time></trkpt>
<trkpt lat="47.16495111" lon="-1.40151667"><ele>28.9</ele><time>2017-11-18T09:57:58Z</time></trkpt>
<trkpt lat="47.16489556" lon="-1.40142222"><ele>28.799999</ele><time>2017-11-18T09:58:00Z</time></trkpt>
<trkpt lat="47.16482417" lon="-1.40130167"><ele>28.9</ele><time>2017-11-18T09:58:03Z</time></trkpt>
<trkpt lat="47.16476611" lon="-1.40121000"><ele>28.9</ele><time>2017-11-18T09:58:05Z</time></trkpt>
<trkpt lat="47.16470278" lon="-1.40111778"><ele>29</ele><time>2017-11-18T09:58:07Z</time></trkpt>
<trkpt lat="47.16463611" lon="-1.40102111"><ele>29.299999</ele><time>2017-11-18T09:58:09Z</time></trkpt>
<trkpt lat="47.16455000" lon="-1.40090867"><ele>29.6</ele><time>2017-11-18T09:58:12Z</time></trkpt>
<trkpt lat="47.16443867" lon="-1.40079633"><ele>29.9</ele><time>2017-11-18T09:58:15Z</time></trkpt>
<trkpt lat="47.16430250" lon="-1.40072583"><ele>30.1</ele><time>2017-11-18T09:58:18Z</time></trkpt>
<trkpt lat="47.16419733" lon="-1.40068100"><ele>30.4</ele><time>2017-11-18T09:58:21Z</time></trkpt>
<trkpt lat="47.16408000" lon="-1.40062933"><ele>30.6</ele><time>2017-11-18T09:58:24Z</time></trkpt>
<trkpt lat="47.16395917" lon="-1.40057958"><ele>31.1</ele><time>2017-11-18T09:58:27Z</time></trkpt>
<trkpt lat="47.16384300" lon="-1.40052800"><ele>31.200001</ele><time>2017-11-18T09:58:30Z</time></trkpt>
<trkpt lat="47.16370667" lon="-1.40046083"><ele>31.5</ele><time>2017-11-18T09:58:33Z</time></trkpt>
<trkpt lat="47.16360133" lon="-1.40039767"><ele>31.9</ele><time>2017-11-18T09:58:36Z</time></trkpt>
<trkpt lat="47.16348800" lon="-1.40030967"><ele>32</ele><time>2017-11-18T09:58:39Z</time></trkpt>
<trkpt lat="47.16337700" lon="-1.40019533"><ele>32.299999</ele><time>2017-11-18T09:58:42Z</time></trkpt>
<trkpt lat="47.16326067" lon="-1.40007567"><ele>32.700001</ele><time>2017-11-18T09:58:45Z</time></trkpt>
<trkpt lat="47.16314917" lon="-1.39996250"><ele>33.200001</ele><time>2017-11-18T09:58:48Z</time></trkpt>
<trkpt lat="47.16306733" lon="-1.39987700"><ele>33.400002</ele><time>2017-11-18T09:58:51Z</time></trkpt>
<trkpt lat="47.16297533" lon="-1.39978167"><ele>33.700001</ele><time>2017-11-18T09:58:54Z</time></trkpt>
<trkpt lat="47.16288333" lon="-1.39967867"><ele>33.900002</ele><time>2017-11-18T09:58:57Z</time></trkpt>
<trkpt lat="47.16279200" lon="-1.39956900"><ele>34.099998</ele><time>2017-11-18T09:59:00Z</time></trkpt>
<trkpt lat="47.16270083" lon="-1.39945083"><ele>34.5</ele><time>2017-11-18T09:59:03Z</time></trkpt>
<trkpt lat="47.16262967" lon="-1.39935067"><ele>34.700001</ele><time>2017-11-18T09:59:06Z</time></trkpt>
<trkpt lat="47.16254467" lon="-1.39923633"><ele>34.900002</ele><time>2017-11-18T09:59:09Z</time></trkpt>
<trkpt lat="47.16245542" lon="-1.39911417"><ele>35.200001</ele><time>2017-11-18T09:59:12Z</time></trkpt>
<trkpt lat="47.16236967" lon="-1.39899533"><ele>35.400002</ele><time>2017-11-18T09:59:15Z</time></trkpt>
<trkpt lat="47.16228233" lon="-1.39887467"><ele>35.400002</ele><time>2017-11-18T09:59:18Z</time></trkpt>
<trkpt lat="47.16218367" lon="-1.39875633"><ele>35.400002</ele><time>2017-11-18T09:59:21Z</time></trkpt>
<trkpt lat="47.16208400" lon="-1.39865967"><ele>35.299999</ele><time>2017-11-18T09:59:24Z</time></trkpt>
<trkpt lat="47.16198967" lon="-1.39855367"><ele>35</ele><time>2017-11-18T09:59:27Z</time></trkpt>
<trkpt lat="47.16191056" lon="-1.39844111"><ele>34.900002</ele><time>2017-11-18T09:59:29Z</time></trkpt>
<trkpt lat="47.16185389" lon="-1.39833167"><ele>34.700001</ele><time>2017-11-18T09:59:31Z</time></trkpt>
<trkpt lat="47.16180667" lon="-1.39820278"><ele>34.5</ele><time>2017-11-18T09:59:33Z</time></trkpt>
<trkpt lat="47.16176944" lon="-1.39806500"><ele>34.400002</ele><time>2017-11-18T09:59:35Z</time></trkpt>
<trkpt lat="47.16173167" lon="-1.39792889"><ele>34.400002</ele><time>2017-11-18T09:59:37Z</time></trkpt>
<trkpt lat="47.16168556" lon="-1.39780556"><ele>34.5</ele><time>2017-11-18T09:59:39Z</time></trkpt>
<trkpt lat="47.16159633" lon="-1.39771800"><ele>34.5</ele><time>2017-11-18T09:59:42Z</time></trkpt>
<trkpt lat="47.16147300" lon="-1.39770867"><ele>34.5</ele><time>2017-11-18T09:59:45Z</time></trkpt>
<trkpt lat="47.16136333" lon="-1.39771778"><ele>34.5</ele><time>2017-11-18T09:59:47Z</time></trkpt>
<trkpt lat="47.16126944" lon="-1.39773056"><ele>34.599998</ele><time>2017-11-18T09:59:49Z</time></trkpt>
<trkpt lat="47.16117722" lon="-1.39774722"><ele>34.5</ele><time>2017-11-18T09:59:51Z</time></trkpt>
<trkpt lat="47.16106333" lon="-1.39775467"><ele>34.400002</ele><time>2017-11-18T09:59:54Z</time></trkpt>
<trkpt lat="47.16094067" lon="-1.39769833"><ele>35</ele><time>2017-11-18T09:59:57Z</time></trkpt>
<trkpt lat="47.16082900" lon="-1.39760567"><ele>35.599998</ele><time>2017-11-18T10:00:00Z</time></trkpt>
<trkpt lat="47.16070667" lon="-1.39750917"><ele>36.700001</ele><time>2017-11-18T10:00:03Z</time></trkpt>
<trkpt lat="47.16059867" lon="-1.39742433"><ele>37.400002</ele><time>2017-11-18T10:00:06Z</time></trkpt>
<trkpt lat="47.16047867" lon="-1.39733267"><ele>37.799999</ele><time>2017-11-18T10:00:09Z</time></trkpt>
<trkpt lat="47.16035767" lon="-1.39723400"><ele>37.299999</ele><time>2017-11-18T10:00:12Z</time></trkpt>
<trkpt lat="47.16025233" lon="-1.39712567"><ele>37.700001</ele><time>2017-11-18T10:00:15Z</time></trkpt>
<trkpt lat="47.16013333" lon="-1.39699417"><ele>37.299999</ele><time>2017-11-18T10:00:18Z</time></trkpt>
<trkpt lat="47.16003800" lon="-1.39689533"><ele>37.400002</ele><time>2017-11-18T10:00:21Z</time></trkpt>
<trkpt lat="47.15993357" lon="-1.39677357"><ele>37.700001</ele><time>2017-11-18T10:00:24Z</time></trkpt>
<trkpt lat="47.15983833" lon="-1.39666967"><ele>37.599998</ele><time>2017-11-18T10:00:28Z</time></trkpt>
<trkpt lat="47.15974833" lon="-1.39657033"><ele>37.799999</ele><time>2017-11-18T10:00:31Z</time></trkpt>
<trkpt lat="47.15964667" lon="-1.39652667"><ele>38.700001</ele><time>2017-11-18T10:00:34Z</time></trkpt>
<trkpt lat="47.15953722" lon="-1.39646278"><ele>39.299999</ele><time>2017-11-18T10:00:37Z</time></trkpt>
<trkpt lat="47.15943150" lon="-1.39635867"><ele>40.400002</ele><time>2017-11-18T10:00:42Z</time></trkpt>
<trkpt lat="47.15937097" lon="-1.39628069"><ele>40.900002</ele><time>2017-11-18T10:00:49Z</time></trkpt>
<trkpt lat="47.15926104" lon="-1.39619104"><ele>40.700001</ele><time>2017-11-18T10:05:53Z</time></trkpt>
<trkpt lat="47.15916694" lon="-1.39607222"><ele>42</ele><time>2017-11-18T10:05:57Z</time></trkpt>
<trkpt lat="47.15909767" lon="-1.39596667"><ele>42.599998</ele><time>2017-11-18T10:06:01Z</time></trkpt>
<trkpt lat="47.15904033" lon="-1.39586733"><ele>43</ele><time>2017-11-18T10:06:04Z</time></trkpt>
<trkpt lat="47.15899367" lon="-1.39577333"><ele>43.400002</ele><time>2017-11-18T10:06:07Z</time></trkpt>
<trkpt lat="47.15895000" lon="-1.39568133"><ele>43.900002</ele><time>2017-11-18T10:06:10Z</time></trkpt>
<trkpt lat="47.15890250" lon="-1.39556917"><ele>44.299999</ele><time>2017-11-18T10:06:13Z</time></trkpt>
<trkpt lat="47.15886333" lon="-1.39547933"><ele>44.400002</ele><time>2017-11-18T10:06:16Z</time></trkpt>
<trkpt lat="47.15882533" lon="-1.39538633"><ele>44.700001</ele><time>2017-11-18T10:06:19Z</time></trkpt>
<trkpt lat="47.15878367" lon="-1.39527833"><ele>45</ele><time>2017-11-18T10:06:22Z</time></trkpt>
<trkpt lat="47.15873867" lon="-1.39515300"><ele>45.200001</ele><time>2017-11-18T10:06:25Z</time></trkpt>
<trkpt lat="47.15868417" lon="-1.39500917"><ele>45.5</ele><time>2017-11-18T10:06:28Z</time></trkpt>
<trkpt lat="47.15863433" lon="-1.39489100"><ele>45.5</ele><time>2017-11-18T10:06:31Z</time></trkpt>
<trkpt lat="47.15857267" lon="-1.39477400"><ele>45.700001</ele><time>2017-11-18T10:06:34Z</time></trkpt>
<trkpt lat="47.15851767" lon="-1.39466367"><ele>46</ele><time>2017-11-18T10:06:37Z</time></trkpt>
<trkpt lat="47.15846367" lon="-1.39454700"><ele>46.099998</ele><time>2017-11-18T10:06:40Z</time></trkpt>
<trkpt lat="47.15842056" lon="-1.39444167"><ele>46.299999</ele><time>2017-11-18T10:06:42Z</time></trkpt>
<trkpt lat="47.15837767" lon="-1.39433033"><ele>46.400002</ele><time>2017-11-18T10:06:45Z</time></trkpt>
<trkpt lat="47.15832833" lon="-1.39420667"><ele>46.599998</ele><time>2017-11-18T10:06:48Z</time></trkpt>
<trkpt lat="47.15828967" lon="-1.39410967"><ele>46.700001</ele><time>2017-11-18T10:06:50Z</time></trkpt>
<trkpt lat="47.15824556" lon="-1.39400056"><ele>46.799999</ele><time>2017-11-18T10:06:52Z</time></trkpt>
<trkpt lat="47.15821056" lon="-1.39390611"><ele>47</ele><time>2017-11-18T10:06:54Z</time></trkpt>
<trkpt lat="47.15817444" lon="-1.39381222"><ele>46.900002</ele><time>2017-11-18T10:06:57Z</time></trkpt>
<trkpt lat="47.15813889" lon="-1.39372167"><ele>47.099998</ele><time>2017-11-18T10:06:58Z</time></trkpt>
<trkpt lat="47.15810389" lon="-1.39363167"><ele>47.200001</ele><time>2017-11-18T10:07:00Z</time></trkpt>
<trkpt lat="47.15806889" lon="-1.39353889"><ele>47.299999</ele><time>2017-11-18T10:07:02Z</time></trkpt>
<trkpt lat="47.15803111" lon="-1.39344556"><ele>47.5</ele><time>2017-11-18T10:07:04Z</time></trkpt>
<trkpt lat="47.15799583" lon="-1.39335917"><ele>47.5</ele><time>2017-11-18T10:07:06Z</time></trkpt>
<trkpt lat="47.15794633" lon="-1.39323567"><ele>47.799999</ele><time>2017-11-18T10:07:09Z</time></trkpt>
<trkpt lat="47.15789133" lon="-1.39311233"><ele>48.099998</ele><time>2017-11-18T10:07:12Z</time></trkpt>
<trkpt lat="47.15784000" lon="-1.39298233"><ele>48.299999</ele><time>2017-11-18T10:07:15Z</time></trkpt>
<trkpt lat="47.15780000" lon="-1.39287000"><ele>48.599998</ele><time>2017-11-18T10:07:18Z</time></trkpt>
<trkpt lat="47.15777167" lon="-1.39277556"><ele>48.700001</ele><time>2017-11-18T10:07:19Z</time></trkpt>
<trkpt lat="47.15774333" lon="-1.39268056"><ele>48.799999</ele><time>2017-11-18T10:07:21Z</time></trkpt>
<trkpt lat="47.15771778" lon="-1.39258333"><ele>48.799999</ele><time>2017-11-18T10:07:23Z</time></trkpt>
<trkpt lat="47.15769389" lon="-1.39248222"><ele>48.900002</ele><time>2017-11-18T10:07:25Z</time></trkpt>
<trkpt lat="47.15766333" lon="-1.39235833"><ele>49</ele><time>2017-11-18T10:07:28Z</time></trkpt>
<trkpt lat="47.15764111" lon="-1.39227500"><ele>49</ele><time>2017-11-18T10:07:29Z</time></trkpt>
<trkpt lat="47.15761833" lon="-1.39218333"><ele>49</ele><time>2017-11-18T10:07:31Z</time></trkpt>
<trkpt lat="47.15759111" lon="-1.39207500"><ele>49.099998</ele><time>2017-11-18T10:07:33Z</time></trkpt>
<trkpt lat="47.15756611" lon="-1.39197778"><ele>49.099998</ele><time>2017-11-18T10:07:35Z</time></trkpt>
<trkpt lat="47.15753500" lon="-1.39186167"><ele>49.200001</ele><time>2017-11-18T10:07:37Z</time></trkpt>
<trkpt lat="47.15751278" lon="-1.39177556"><ele>49.299999</ele><time>2017-11-18T10:07:39Z</time></trkpt>
<trkpt lat="47.15748722" lon="-1.39167056"><ele>49.400002</ele><time>2017-11-18T10:07:42Z</time></trkpt>
<trkpt lat="47.15746111" lon="-1.39156167"><ele>49.400002</ele><time>2017-11-18T10:07:43Z</time></trkpt>
<trkpt lat="47.15743722" lon="-1.39145278"><ele>49.5</ele><time>2017-11-18T10:07:45Z</time></trkpt>
<trkpt lat="47.15741389" lon="-1.39134611"><ele>49.5</ele><time>2017-11-18T10:07:48Z</time></trkpt>
<trkpt lat="47.15739056" lon="-1.39123944"><ele>49.5</ele><time>2017-11-18T10:07:49Z</time></trkpt>
<trkpt lat="47.15737000" lon="-1.39113000"><ele>49.599998</ele><time>2017-11-18T10:07:51Z</time></trkpt>
<trkpt lat="47.15734833" lon="-1.39102111"><ele>49.799999</ele><time>2017-11-18T10:07:53Z</time></trkpt>
<trkpt lat="47.15732833" lon="-1.39091667"><ele>49.700001</ele><time>2017-11-18T10:07:55Z</time></trkpt>
<trkpt lat="47.15730722" lon="-1.39080167"><ele>49.599998</ele><time>2017-11-18T10:07:57Z</time></trkpt>
<trkpt lat="47.15728500" lon="-1.39068056"><ele>49.5</ele><time>2017-11-18T10:07:59Z</time></trkpt>
<trkpt lat="47.15726389" lon="-1.39055556"><ele>49.5</ele><time>2017-11-18T10:08:01Z</time></trkpt>
<trkpt lat="47.15724167" lon="-1.39043056"><ele>49.5</ele><time>2017-11-18T10:08:03Z</time></trkpt>
<trkpt lat="47.15722278" lon="-1.39030556"><ele>49.5</ele><time>2017-11-18T10:08:05Z</time></trkpt>
<trkpt lat="47.15720889" lon="-1.39018222"><ele>49.5</ele><time>2017-11-18T10:08:07Z</time></trkpt>
<trkpt lat="47.15719667" lon="-1.39005778"><ele>49.5</ele><time>2017-11-18T10:08:09Z</time></trkpt>
<trkpt lat="47.15718500" lon="-1.38993278"><ele>49.5</ele><time>2017-11-18T10:08:12Z</time></trkpt>
<trkpt lat="47.15717611" lon="-1.38980500"><ele>49.400002</ele><time>2017-11-18T10:08:13Z</time></trkpt>
<trkpt lat="47.15716778" lon="-1.38967111"><ele>49.400002</ele><time>2017-11-18T10:08:15Z</time></trkpt>
<trkpt lat="47.15716111" lon="-1.38953333"><ele>49.5</ele><time>2017-11-18T10:08:17Z</time></trkpt>
<trkpt lat="47.15715444" lon="-1.38939556"><ele>49.5</ele><time>2017-11-18T10:08:19Z</time></trkpt>
<trkpt lat="47.15715417" lon="-1.38927667"><ele>49.700001</ele><time>2017-11-18T10:08:21Z</time></trkpt>
<trkpt lat="47.15716056" lon="-1.38914611"><ele>49.900002</ele><time>2017-11-18T10:08:23Z</time></trkpt>
<trkpt lat="47.15716500" lon="-1.38903056"><ele>50</ele><time>2017-11-18T10:08:25Z</time></trkpt>
<trkpt lat="47.15716833" lon="-1.38890000"><ele>50.299999</ele><time>2017-11-18T10:08:28Z</time></trkpt>
<trkpt lat="47.15716722" lon="-1.38881000"><ele>50.599998</ele><time>2017-11-18T10:08:29Z</time></trkpt>
<trkpt lat="47.15716250" lon="-1.38870417"><ele>50.799999</ele><time>2017-11-18T10:08:31Z</time></trkpt>
<trkpt lat="47.15715778" lon="-1.38857667"><ele>51.099998</ele><time>2017-11-18T10:08:33Z</time></trkpt>
<trkpt lat="47.15715278" lon="-1.38845833"><ele>51.400002</ele><time>2017-11-18T10:08:35Z</time></trkpt>
<trkpt lat="47.15714833" lon="-1.38831667"><ele>51.700001</ele><time>2017-11-18T10:08:38Z</time></trkpt>
<trkpt lat="47.15714333" lon="-1.38821389"><ele>52</ele><time>2017-11-18T10:08:39Z</time></trkpt>
<trkpt lat="47.15713056" lon="-1.38809500"><ele>52.299999</ele><time>2017-11-18T10:08:41Z</time></trkpt>
<trkpt lat="47.15711556" lon="-1.38797667"><ele>52.700001</ele><time>2017-11-18T10:08:43Z</time></trkpt>
<trkpt lat="47.15710000" lon="-1.38785778"><ele>53</ele><time>2017-11-18T10:08:45Z</time></trkpt>
<trkpt lat="47.15708278" lon="-1.38773944"><ele>53.299999</ele><time>2017-11-18T10:08:47Z</time></trkpt>
<trkpt lat="47.15706611" lon="-1.38762667"><ele>54</ele><time>2017-11-18T10:08:49Z</time></trkpt>
<trkpt lat="47.15704500" lon="-1.38751833"><ele>54.400002</ele><time>2017-11-18T10:08:52Z</time></trkpt>
<trkpt lat="47.15702500" lon="-1.38740278"><ele>54.700001</ele><time>2017-11-18T10:08:53Z</time></trkpt>
<trkpt lat="47.15700778" lon="-1.38728500"><ele>54.799999</ele><time>2017-11-18T10:08:55Z</time></trkpt>
<trkpt lat="47.15698722" lon="-1.38716000"><ele>54.700001</ele><time>2017-11-18T10:08:57Z</time></trkpt>
<trkpt lat="47.15696056" lon="-1.38702889"><ele>54.5</ele><time>2017-11-18T10:08:59Z</time></trkpt>
<trkpt lat="47.15693722" lon="-1.38689556"><ele>54.299999</ele><time>2017-11-18T10:09:01Z</time></trkpt>
<trkpt lat="47.15691556" lon="-1.38676111"><ele>54</ele><time>2017-11-18T10:09:03Z</time></trkpt>
<trkpt lat="47.15689611" lon="-1.38662611"><ele>53.599998</ele><time>2017-11-18T10:09:05Z</time></trkpt>
<trkpt lat="47.15688722" lon="-1.38648222"><ele>53.299999</ele><time>2017-11-18T10:09:08Z</time></trkpt>
<trkpt lat="47.15689444" lon="-1.38632611"><ele>52.900002</ele><time>2017-11-18T10:09:09Z</time></trkpt>
<trkpt lat="47.15692000" lon="-1.38617167"><ele>52.5</ele><time>2017-11-18T10:09:11Z</time></trkpt>
<trkpt lat="47.15695167" lon="-1.38601611"><ele>51.900002</ele><time>2017-11-18T10:09:13Z</time></trkpt>
<trkpt lat="47.15698056" lon="-1.38586944"><ele>51.200001</ele><time>2017-11-18T10:09:15Z</time></trkpt>
<trkpt lat="47.15700333" lon="-1.38574833"><ele>50.700001</ele><time>2017-11-18T10:09:18Z</time></trkpt>
<trkpt lat="47.15698409" lon="-1.38561818"><ele>50.5</ele><time>2017-11-18T10:09:21Z</time></trkpt>
<trkpt lat="47.15686238" lon="-1.38562405"><ele>51.299999</ele><time>2017-11-18T10:09:26Z</time></trkpt>
<trkpt lat="47.15676033" lon="-1.38567067"><ele>52.200001</ele><time>2017-11-18T10:09:30Z</time></trkpt>
<trkpt lat="47.15665500" lon="-1.38571750"><ele>52.900002</ele><time>2017-11-18T10:09:33Z</time></trkpt>
<trkpt lat="47.15656133" lon="-1.38575067"><ele>53.700001</ele><time>2017-11-18T10:09:36Z</time></trkpt>
<trkpt lat="47.15646000" lon="-1.38578600"><ele>54.200001</ele><time>2017-11-18T10:09:39Z</time></trkpt>
<trkpt lat="47.15636433" lon="-1.38580567"><ele>54.700001</ele><time>2017-11-18T10:09:42Z</time></trkpt>
<trkpt lat="47.15626900" lon="-1.38582033"><ele>55.299999</ele><time>2017-11-18T10:09:45Z</time></trkpt>
<trkpt lat="47.15615750" lon="-1.38583167"><ele>56.099998</ele><time>2017-11-18T10:09:48Z</time></trkpt>
<trkpt lat="47.15606467" lon="-1.38583633"><ele>56.700001</ele><time>2017-11-18T10:09:51Z</time></trkpt>
<trkpt lat="47.15595600" lon="-1.38582167"><ele>57.099998</ele><time>2017-11-18T10:09:54Z</time></trkpt>
<trkpt lat="47.15584967" lon="-1.38581500"><ele>57.299999</ele><time>2017-11-18T10:09:57Z</time></trkpt>
<trkpt lat="47.15574400" lon="-1.38581333"><ele>57.299999</ele><time>2017-11-18T10:10:00Z</time></trkpt>
<trkpt lat="47.15562333" lon="-1.38582417"><ele>57.299999</ele><time>2017-11-18T10:10:03Z</time></trkpt>
<trkpt lat="47.15552567" lon="-1.38584033"><ele>57.299999</ele><time>2017-11-18T10:10:06Z</time></trkpt>
<trkpt lat="47.15541967" lon="-1.38585167"><ele>57.5</ele><time>2017-11-18T10:10:09Z</time></trkpt>
<trkpt lat="47.15531467" lon="-1.38586233"><ele>57.599998</ele><time>2017-11-18T10:10:12Z</time></trkpt>
<trkpt lat="47.15520967" lon="-1.38587400"><ele>57.599998</ele><time>2017-11-18T10:10:15Z</time></trkpt>
<trkpt lat="47.15509667" lon="-1.38589917"><ele>57.900002</ele><time>2017-11-18T10:10:18Z</time></trkpt>
<trkpt lat="47.15500167" lon="-1.38593600"><ele>58</ele><time>2017-11-18T10:10:21Z</time></trkpt>
<trkpt lat="47.15489533" lon="-1.38597733"><ele>58</ele><time>2017-11-18T10:10:24Z</time></trkpt>
<trkpt lat="47.15479467" lon="-1.38602533"><ele>58.299999</ele><time>2017-11-18T10:10:27Z</time></trkpt>
<trkpt lat="47.15469433" lon="-1.38608067"><ele>58.599998</ele><time>2017-11-18T10:10:30Z</time></trkpt>
<trkpt lat="47.15458333" lon="-1.38613833"><ele>59.099998</ele><time>2017-11-18T10:10:33Z</time></trkpt>
<trkpt lat="47.15449633" lon="-1.38618933"><ele>59.299999</ele><time>2017-11-18T10:10:36Z</time></trkpt>
<trkpt lat="47.15439833" lon="-1.38623933"><ele>59.700001</ele><time>2017-11-18T10:10:39Z</time></trkpt>
<trkpt lat="47.15429600" lon="-1.38628400"><ele>60</ele><time>2017-11-18T10:10:42Z</time></trkpt>
<trkpt lat="47.15418900" lon="-1.38630967"><ele>60.200001</ele><time>2017-11-18T10:10:45Z</time></trkpt>
<trkpt lat="47.15407000" lon="-1.38632500"><ele>60.299999</ele><time>2017-11-18T10:10:48Z</time></trkpt>
<trkpt lat="47.15397267" lon="-1.38633200"><ele>60.400002</ele><time>2017-11-18T10:10:51Z</time></trkpt>
<trkpt lat="47.15386133" lon="-1.38633167"><ele>60.599998</ele><time>2017-11-18T10:10:54Z</time></trkpt>
<trkpt lat="47.15375100" lon="-1.38632333"><ele>60.700001</ele><time>2017-11-18T10:10:57Z</time></trkpt>
<trkpt lat="47.15364100" lon="-1.38630233"><ele>61</ele><time>2017-11-18T10:11:00Z</time></trkpt>
<trkpt lat="47.15352000" lon="-1.38627083"><ele>61.200001</ele><time>2017-11-18T10:11:03Z</time></trkpt>
<trkpt lat="47.15342033" lon="-1.38623367"><ele>61.299999</ele><time>2017-11-18T10:11:06Z</time></trkpt>
<trkpt lat="47.15330867" lon="-1.38618433"><ele>61.599998</ele><time>2017-11-18T10:11:09Z</time></trkpt>
<trkpt lat="47.15319633" lon="-1.38612567"><ele>61.700001</ele><time>2017-11-18T10:11:12Z</time></trkpt>
<trkpt lat="47.15308500" lon="-1.38606367"><ele>61.799999</ele><time>2017-11-18T10:11:15Z</time></trkpt>
<trkpt lat="47.15297800" lon="-1.38600600"><ele>61.700001</ele><time>2017-11-18T10:11:18Z</time></trkpt>
<trkpt lat="47.15288208" lon="-1.38595042"><ele>61.900002</ele><time>2017-11-18T10:11:20Z</time></trkpt>
<trkpt lat="47.15278233" lon="-1.38589633"><ele>61.700001</ele><time>2017-11-18T10:11:24Z</time></trkpt>
<trkpt lat="47.15267690" lon="-1.38584929"><ele>61.400002</ele><time>2017-11-18T10:11:27Z</time></trkpt>
<trkpt lat="47.15256929" lon="-1.38580429"><ele>61.400002</ele><time>2017-11-18T10:11:31Z</time></trkpt>
<trkpt lat="47.15246762" lon="-1.38572643"><ele>61.099998</ele><time>2017-11-18T10:11:35Z</time></trkpt>
<trkpt lat="47.15237033" lon="-1.38573767"><ele>60.700001</ele><time>2017-11-18T10:11:39Z</time></trkpt>
<trkpt lat="47.15232778" lon="-1.38583056"><ele>60.700001</ele><time>2017-11-18T10:11:41Z</time></trkpt>
<trkpt lat="47.15230500" lon="-1.38592667"><ele>60.799999</ele><time>2017-11-18T10:11:43Z</time></trkpt>
<trkpt lat="47.15228556" lon="-1.38602556"><ele>60.900002</ele><time>2017-11-18T10:11:45Z</time></trkpt>
<trkpt lat="47.15226500" lon="-1.38612389"><ele>61.200001</ele><time>2017-11-18T10:11:47Z</time></trkpt>
<trkpt lat="47.15224389" lon="-1.38622222"><ele>61.5</ele><time>2017-11-18T10:11:49Z</time></trkpt>
<trkpt lat="47.15222333" lon="-1.38631333"><ele>61.799999</ele><time>2017-11-18T10:11:51Z</time></trkpt>
<trkpt lat="47.15220278" lon="-1.38642833"><ele>62</ele><time>2017-11-18T10:11:53Z</time></trkpt>
<trkpt lat="47.15218056" lon="-1.38653389"><ele>62.299999</ele><time>2017-11-18T10:11:55Z</time></trkpt>
<trkpt lat="47.15215333" lon="-1.38665667"><ele>62.599998</ele><time>2017-11-18T10:11:58Z</time></trkpt>
<trkpt lat="47.15213278" lon="-1.38674444"><ele>62.799999</ele><time>2017-11-18T10:11:59Z</time></trkpt>
<trkpt lat="47.15210722" lon="-1.38685056"><ele>63.099998</ele><time>2017-11-18T10:12:02Z</time></trkpt>
<trkpt lat="47.15208278" lon="-1.38695889"><ele>63.299999</ele><time>2017-11-18T10:12:03Z</time></trkpt>
<trkpt lat="47.15205889" lon="-1.38706833"><ele>63.400002</ele><time>2017-11-18T10:12:05Z</time></trkpt>
<trkpt lat="47.15203667" lon="-1.38717778"><ele>63.400002</ele><time>2017-11-18T10:12:07Z</time></trkpt>
<trkpt lat="47.15201778" lon="-1.38729056"><ele>63.5</ele><time>2017-11-18T10:12:09Z</time></trkpt>
<trkpt lat="47.15200333" lon="-1.38740444"><ele>63.599998</ele><time>2017-11-18T10:12:12Z</time></trkpt>
<trkpt lat="47.15199333" lon="-1.38752056"><ele>63.700001</ele><time>2017-11-18T10:12:13Z</time></trkpt>
<trkpt lat="47.15197944" lon="-1.38764278"><ele>63.5</ele><time>2017-11-18T10:12:15Z</time></trkpt>
<trkpt lat="47.15195167" lon="-1.38778500"><ele>63.400002</ele><time>2017-11-18T10:12:18Z</time></trkpt>
<trkpt lat="47.15192444" lon="-1.38788667"><ele>63.400002</ele><time>2017-11-18T10:12:19Z</time></trkpt>
<trkpt lat="47.15188250" lon="-1.38799917"><ele>63.400002</ele><time>2017-11-18T10:12:21Z</time></trkpt>
<trkpt lat="47.15182722" lon="-1.38813056"><ele>63.299999</ele><time>2017-11-18T10:12:23Z</time></trkpt>
<trkpt lat="47.15177611" lon="-1.38825111"><ele>63.299999</ele><time>2017-11-18T10:12:25Z</time></trkpt>
<trkpt lat="47.15172667" lon="-1.38840167"><ele>63.200001</ele><time>2017-11-18T10:12:28Z</time></trkpt>
<trkpt lat="47.15170111" lon="-1.38850889"><ele>63.299999</ele><time>2017-11-18T10:12:29Z</time></trkpt>
<trkpt lat="47.15167444" lon="-1.38863556"><ele>63.400002</ele><time>2017-11-18T10:12:31Z</time></trkpt>
<trkpt lat="47.15164778" lon="-1.38875944"><ele>63.5</ele><time>2017-11-18T10:12:33Z</time></trkpt>
<trkpt lat="47.15162278" lon="-1.38888667"><ele>63.5</ele><time>2017-11-18T10:12:35Z</time></trkpt>
<trkpt lat="47.15159500" lon="-1.38901778"><ele>63.5</ele><time>2017-11-18T10:12:37Z</time></trkpt>
<trkpt lat="47.15156667" lon="-1.38914944"><ele>63.599998</ele><time>2017-11-18T10:12:39Z</time></trkpt>
<trkpt lat="47.15153944" lon="-1.38928278"><ele>63.700001</ele><time>2017-11-18T10:12:41Z</time></trkpt>
<trkpt lat="47.15151278" lon="-1.38941722"><ele>63.900002</ele><time>2017-11-18T10:12:43Z</time></trkpt>
<trkpt lat="47.15148500" lon="-1.38955111"><ele>64</ele><time>2017-11-18T10:12:45Z</time></trkpt>
<trkpt lat="47.15145333" lon="-1.38971000"><ele>64.099998</ele><time>2017-11-18T10:12:47Z</time></trkpt>
<trkpt lat="47.15142833" lon="-1.38982389"><ele>64.300003</ele><time>2017-11-18T10:12:49Z</time></trkpt>
<trkpt lat="47.15139556" lon="-1.38996056"><ele>64.400002</ele><time>2017-11-18T10:12:52Z</time></trkpt>
<trkpt lat="47.15136500" lon="-1.39009444"><ele>64.400002</ele><time>2017-11-18T10:12:53Z</time></trkpt>
<trkpt lat="47.15133389" lon="-1.39022500"><ele>64.5</ele><time>2017-11-18T10:12:55Z</time></trkpt>
<trkpt lat="47.15129778" lon="-1.39035111"><ele>64.400002</ele><time>2017-11-18T10:12:58Z</time></trkpt>
<trkpt lat="47.15126222" lon="-1.39046889"><ele>64.400002</ele><time>2017-11-18T10:12:59Z</time></trkpt>
<trkpt lat="47.15123056" lon="-1.39058056"><ele>64.400002</ele><time>2017-11-18T10:13:01Z</time></trkpt>
<trkpt lat="47.15119833" lon="-1.39068167"><ele>64.199997</ele><time>2017-11-18T10:13:03Z</time></trkpt>
<trkpt lat="47.15116278" lon="-1.39078167"><ele>64</ele><time>2017-11-18T10:13:05Z</time></trkpt>
<trkpt lat="47.15113000" lon="-1.39088389"><ele>63.799999</ele><time>2017-11-18T10:13:07Z</time></trkpt>
<trkpt lat="47.15110278" lon="-1.39099722"><ele>63.5</ele><time>2017-11-18T10:13:09Z</time></trkpt>
<trkpt lat="47.15104042" lon="-1.39112792"><ele>63.299999</ele><time>2017-11-18T10:13:12Z</time></trkpt>
<trkpt lat="47.15092133" lon="-1.39120900"><ele>62.900002</ele><time>2017-11-18T10:13:15Z</time></trkpt>
<trkpt lat="47.15081167" lon="-1.39127389"><ele>62.599998</ele><time>2017-11-18T10:13:17Z</time></trkpt>
<trkpt lat="47.15072056" lon="-1.39132500"><ele>62.400002</ele><time>2017-11-18T10:13:19Z</time></trkpt>
<trkpt lat="47.15063667" lon="-1.39137167"><ele>62.299999</ele><time>2017-11-18T10:13:21Z</time></trkpt>
<trkpt lat="47.15053722" lon="-1.39142556"><ele>62</ele><time>2017-11-18T10:13:23Z</time></trkpt>
<trkpt lat="47.15043208" lon="-1.39148583"><ele>61.799999</ele><time>2017-11-18T10:13:25Z</time></trkpt>
<trkpt lat="47.15029567" lon="-1.39159433"><ele>61.5</ele><time>2017-11-18T10:13:29Z</time></trkpt>
<trkpt lat="47.15019944" lon="-1.39170111"><ele>61.099998</ele><time>2017-11-18T10:13:31Z</time></trkpt>
<trkpt lat="47.15010233" lon="-1.39180933"><ele>60.900002</ele><time>2017-11-18T10:13:34Z</time></trkpt>
<trkpt lat="47.14998300" lon="-1.39192700"><ele>60.5</ele><time>2017-11-18T10:13:37Z</time></trkpt>
<trkpt lat="47.14985567" lon="-1.39203467"><ele>60.200001</ele><time>2017-11-18T10:13:40Z</time></trkpt>
<trkpt lat="47.14970917" lon="-1.39214167"><ele>60</ele><time>2017-11-18T10:13:43Z</time></trkpt>
<trkpt lat="47.14960100" lon="-1.39222300"><ele>59.700001</ele><time>2017-11-18T10:13:46Z</time></trkpt>
<trkpt lat="47.14948400" lon="-1.39230433"><ele>59.099998</ele><time>2017-11-18T10:13:49Z</time></trkpt>
<trkpt lat="47.14937167" lon="-1.39240067"><ele>58.400002</ele><time>2017-11-18T10:13:52Z</time></trkpt>
<trkpt lat="47.14926633" lon="-1.39251333"><ele>57.5</ele><time>2017-11-18T10:13:55Z</time></trkpt>
<trkpt lat="47.14915083" lon="-1.39265083"><ele>56.200001</ele><time>2017-11-18T10:13:58Z</time></trkpt>
<trkpt lat="47.14905200" lon="-1.39276700"><ele>55.200001</ele><time>2017-11-18T10:14:01Z</time></trkpt>
<trkpt lat="47.14893567" lon="-1.39285700"><ele>54</ele><time>2017-11-18T10:14:04Z</time></trkpt>
<trkpt lat="47.14881900" lon="-1.39292067"><ele>53</ele><time>2017-11-18T10:14:07Z</time></trkpt>
<trkpt lat="47.14871267" lon="-1.39294433"><ele>52.400002</ele><time>2017-11-18T10:14:10Z</time></trkpt>
<trkpt lat="47.14863167" lon="-1.39285667"><ele>52.700001</ele><time>2017-11-18T10:14:13Z</time></trkpt>
<trkpt lat="47.14857333" lon="-1.39274857"><ele>53.200001</ele><time>2017-11-18T10:14:16Z</time></trkpt>
<trkpt lat="47.14849069" lon="-1.39272625"><ele>53.299999</ele><time>2017-11-18T10:14:22Z</time></trkpt>
<trkpt lat="47.14840500" lon="-1.39275370"><ele>53.900002</ele><time>2017-11-18T10:14:28Z</time></trkpt>
<trkpt lat="47.14830667" lon="-1.39279143"><ele>54.400002</ele><time>2017-11-18T10:14:33Z</time></trkpt>
<trkpt lat="47.14819542" lon="-1.39282458"><ele>54.5</ele><time>2017-11-18T10:14:37Z</time></trkpt>
<trkpt lat="47.14810056" lon="-1.39283370"><ele>54.200001</ele><time>2017-11-18T10:14:41Z</time></trkpt>
<trkpt lat="47.14801306" lon="-1.39285667"><ele>51.900002</ele><time>2017-11-18T10:15:13Z</time></trkpt>
<trkpt lat="47.14794833" lon="-1.39295333"><ele>50.200001</ele><time>2017-11-18T10:15:17Z</time></trkpt>
<trkpt lat="47.14787524" lon="-1.39302452"><ele>49.200001</ele><time>2017-11-18T10:15:20Z</time></trkpt>
<trkpt lat="47.14778214" lon="-1.39301333"><ele>48.700001</ele><time>2017-11-18T10:15:24Z</time></trkpt>
<trkpt lat="47.14769625" lon="-1.39307000"><ele>48</ele><time>2017-11-18T10:15:29Z</time></trkpt>
<trkpt lat="47.14762333" lon="-1.39313667"><ele>47.200001</ele><time>2017-11-18T10:15:34Z</time></trkpt>
<trkpt lat="47.14749889" lon="-1.39318296"><ele>45.900002</ele><time>2017-11-18T10:15:38Z</time></trkpt>
<trkpt lat="47.14740667" lon="-1.39325567"><ele>43.700001</ele><time>2017-11-18T10:15:43Z</time></trkpt>
<trkpt lat="47.14730227" lon="-1.39321394"><ele>43.900002</ele><time>2017-11-18T10:15:49Z</time></trkpt>
<trkpt lat="47.14722262" lon="-1.39330524"><ele>41.299999</ele><time>2017-11-18T10:15:54Z</time></trkpt>
<trkpt lat="47.14711500" lon="-1.39332843"><ele>40.200001</ele><time>2017-11-18T10:16:01Z</time></trkpt>
<trkpt lat="47.14713357" lon="-1.39346310"><ele>36</ele><time>2017-11-18T10:16:08Z</time></trkpt>
<trkpt lat="47.14705367" lon="-1.39352600"><ele>33</ele><time>2017-11-18T10:16:12Z</time></trkpt>
<trkpt lat="47.14694233" lon="-1.39354333"><ele>31.5</ele><time>2017-11-18T10:16:15Z</time></trkpt>
<trkpt lat="47.14682389" lon="-1.39354630"><ele>29.9</ele><time>2017-11-18T10:16:19Z</time></trkpt>
<trkpt lat="47.14669786" lon="-1.39357929"><ele>30.5</ele><time>2017-11-18T10:16:23Z</time></trkpt>
<trkpt lat="47.14659690" lon="-1.39357452"><ele>31.5</ele><time>2017-11-18T10:16:27Z</time></trkpt>
<trkpt lat="47.14652733" lon="-1.39364767"><ele>30.5</ele><time>2017-11-18T10:16:31Z</time></trkpt>
<trkpt lat="47.14644333" lon="-1.39371333"><ele>29.700001</ele><time>2017-11-18T10:16:34Z</time></trkpt>
<trkpt lat="47.14635500" lon="-1.39376967"><ele>30.299999</ele><time>2017-11-18T10:16:38Z</time></trkpt>
<trkpt lat="47.14626033" lon="-1.39381033"><ele>30.6</ele><time>2017-11-18T10:16:41Z</time></trkpt>
<trkpt lat="47.14615367" lon="-1.39384900"><ele>30.9</ele><time>2017-11-18T10:16:44Z</time></trkpt>
<trkpt lat="47.14606278" lon="-1.39389389"><ele>31.1</ele><time>2017-11-18T10:16:46Z</time></trkpt>
<trkpt lat="47.14595300" lon="-1.39394567"><ele>31</ele><time>2017-11-18T10:16:49Z</time></trkpt>
<trkpt lat="47.14583786" lon="-1.39400143"><ele>31.200001</ele><time>2017-11-18T10:16:52Z</time></trkpt>
<trkpt lat="47.14575389" lon="-1.39400167"><ele>32.799999</ele><time>2017-11-18T10:16:57Z</time></trkpt>
<trkpt lat="47.14565786" lon="-1.39400738"><ele>32</ele><time>2017-11-18T10:17:01Z</time></trkpt>
<trkpt lat="47.14554722" lon="-1.39400611"><ele>34.299999</ele><time>2017-11-18T10:17:06Z</time></trkpt>
<trkpt lat="47.14545923" lon="-1.39398462"><ele>36.5</ele><time>2017-11-18T10:17:12Z</time></trkpt>
<trkpt lat="47.14536455" lon="-1.39399818"><ele>36.599998</ele><time>2017-11-18T10:17:19Z</time></trkpt>
<trkpt lat="47.14526758" lon="-1.39402864"><ele>36.5</ele><time>2017-11-18T10:17:25Z</time></trkpt>
<trkpt lat="47.14515389" lon="-1.39411361"><ele>35.700001</ele><time>2017-11-18T10:17:30Z</time></trkpt>
<trkpt lat="47.14507400" lon="-1.39414167"><ele>36</ele><time>2017-11-18T10:18:38Z</time></trkpt>
<trkpt lat="47.14496879" lon="-1.39414955"><ele>36.200001</ele><time>2017-11-18T10:19:26Z</time></trkpt>
<trkpt lat="47.14488233" lon="-1.39419600"><ele>34.900002</ele><time>2017-11-18T10:19:31Z</time></trkpt>
<trkpt lat="47.14489119" lon="-1.39432000"><ele>33.599998</ele><time>2017-11-18T10:19:34Z</time></trkpt>
<trkpt lat="47.14499405" lon="-1.39438690"><ele>32</ele><time>2017-11-18T10:19:38Z</time></trkpt>
<trkpt lat="47.14503250" lon="-1.39448944"><ele>30.5</ele><time>2017-11-18T10:19:42Z</time></trkpt>
<trkpt lat="47.14492571" lon="-1.39454500"><ele>29.6</ele><time>2017-11-18T10:19:46Z</time></trkpt>
<trkpt lat="47.14482583" lon="-1.39457646"><ele>28.5</ele><time>2017-11-18T10:19:51Z</time></trkpt>
<trkpt lat="47.14473227" lon="-1.39462788"><ele>28.1</ele><time>2017-11-18T10:19:56Z</time></trkpt>
<trkpt lat="47.14468467" lon="-1.39475500"><ele>26.6</ele><time>2017-11-18T10:20:01Z</time></trkpt>
<trkpt lat="47.14467370" lon="-1.39484315"><ele>25.6</ele><time>2017-11-18T10:20:05Z</time></trkpt>
<trkpt lat="47.14470857" lon="-1.39494167"><ele>23.6</ele><time>2017-11-18T10:20:09Z</time></trkpt>
<trkpt lat="47.14482100" lon="-1.39507167"><ele>21</ele><time>2017-11-18T10:20:13Z</time></trkpt>
<trkpt lat="47.14493033" lon="-1.39519433"><ele>19.1</ele><time>2017-11-18T10:20:16Z</time></trkpt>
<trkpt lat="47.14505000" lon="-1.39525100"><ele>17.6</ele><time>2017-11-18T10:20:19Z</time></trkpt>
<trkpt lat="47.14514933" lon="-1.39523867"><ele>16.700001</ele><time>2017-11-18T10:20:22Z</time></trkpt>
<trkpt lat="47.14524667" lon="-1.39521333"><ele>16</ele><time>2017-11-18T10:20:25Z</time></trkpt>
<trkpt lat="47.14534429" lon="-1.39516500"><ele>16.1</ele><time>2017-11-18T10:20:28Z</time></trkpt>
<trkpt lat="47.14542061" lon="-1.39513864"><ele>16.9</ele><time>2017-11-18T10:21:27Z</time></trkpt>
<trkpt lat="47.14552310" lon="-1.39504310"><ele>19.200001</ele><time>2017-11-18T10:22:36Z</time></trkpt>
<trkpt lat="47.14561067" lon="-1.39497667"><ele>18.700001</ele><time>2017-11-18T10:22:40Z</time></trkpt>
<trkpt lat="47.14570750" lon="-1.39486750"><ele>17.799999</ele><time>2017-11-18T10:22:43Z</time></trkpt>
<trkpt lat="47.14575367" lon="-1.39476900"><ele>18.200001</ele><time>2017-11-18T10:22:46Z</time></trkpt>
<trkpt lat="47.14582167" lon="-1.39467900"><ele>19.5</ele><time>2017-11-18T10:22:49Z</time></trkpt>
<trkpt lat="47.14592033" lon="-1.39460133"><ele>20.5</ele><time>2017-11-18T10:22:52Z</time></trkpt>
<trkpt lat="47.14603238" lon="-1.39450429"><ele>22</ele><time>2017-11-18T10:22:55Z</time></trkpt>
<trkpt lat="47.14613000" lon="-1.39443833"><ele>21.9</ele><time>2017-11-18T10:23:00Z</time></trkpt>
<trkpt lat="47.14621714" lon="-1.39433452"><ele>22</ele><time>2017-11-18T10:23:04Z</time></trkpt>
<trkpt lat="47.14631238" lon="-1.39425262"><ele>22.200001</ele><time>2017-11-18T10:23:08Z</time></trkpt>
<trkpt lat="47.14640513" lon="-1.39417346"><ele>22</ele><time>2017-11-18T10:23:14Z</time></trkpt>
<trkpt lat="47.14648583" lon="-1.39413417"><ele>23.9</ele><time>2017-11-18T10:23:20Z</time></trkpt>
<trkpt lat="47.14660636" lon="-1.39403167"><ele>26.299999</ele><time>2017-11-18T10:23:31Z</time></trkpt>
<trkpt lat="47.14669470" lon="-1.39398470"><ele>26.5</ele><time>2017-11-18T10:23:38Z</time></trkpt>
<trkpt lat="47.14684591" lon="-1.39396136"><ele>26.200001</ele><time>2017-11-18T10:23:55Z</time></trkpt>
<trkpt lat="47.14693393" lon="-1.39401238"><ele>23</ele><time>2017-11-18T10:24:02Z</time></trkpt>
<trkpt lat="47.14703792" lon="-1.39399625"><ele>24.1</ele><time>2017-11-18T10:24:09Z</time></trkpt>
<trkpt lat="47.14713667" lon="-1.39396778"><ele>23.6</ele><time>2017-11-18T10:24:14Z</time></trkpt>
<trkpt lat="47.14722833" lon="-1.39390429"><ele>24.1</ele><time>2017-11-18T10:24:18Z</time></trkpt>
<trkpt lat="47.14732300" lon="-1.39385700"><ele>24.4</ele><time>2017-11-18T10:24:22Z</time></trkpt>
<trkpt lat="47.14742633" lon="-1.39387700"><ele>24.299999</ele><time>2017-11-18T10:24:25Z</time></trkpt>
<trkpt lat="47.14752786" lon="-1.39388833"><ele>25</ele><time>2017-11-18T10:24:28Z</time></trkpt>
<trkpt lat="47.14764167" lon="-1.39384810"><ele>25.9</ele><time>2017-11-18T10:24:32Z</time></trkpt>
<trkpt lat="47.14773833" lon="-1.39382333"><ele>26.700001</ele><time>2017-11-18T10:24:37Z</time></trkpt>
<trkpt lat="47.14783750" lon="-1.39384500"><ele>25.1</ele><time>2017-11-18T10:24:41Z</time></trkpt>
<trkpt lat="47.14795400" lon="-1.39386167"><ele>24.700001</ele><time>2017-11-18T10:24:44Z</time></trkpt>
<trkpt lat="47.14807429" lon="-1.39385714"><ele>23.9</ele><time>2017-11-18T10:24:47Z</time></trkpt>
<trkpt lat="47.14816571" lon="-1.39382048"><ele>23.5</ele><time>2017-11-18T10:24:51Z</time></trkpt>
<trkpt lat="47.14828452" lon="-1.39384238"><ele>24.799999</ele><time>2017-11-18T10:24:55Z</time></trkpt>
<trkpt lat="47.14837050" lon="-1.39382000"><ele>24.5</ele><time>2017-11-18T10:25:00Z</time></trkpt>
<trkpt lat="47.14846944" lon="-1.39385130"><ele>23.5</ele><time>2017-11-18T10:25:06Z</time></trkpt>
<trkpt lat="47.14856357" lon="-1.39391238"><ele>21.6</ele><time>2017-11-18T10:25:10Z</time></trkpt>
<trkpt lat="47.14867093" lon="-1.39398704"><ele>16.799999</ele><time>2017-11-18T10:25:15Z</time></trkpt>
<trkpt lat="47.14876738" lon="-1.39404262"><ele>13.3</ele><time>2017-11-18T10:25:19Z</time></trkpt>
<trkpt lat="47.14886786" lon="-1.39405333"><ele>12.4</ele><time>2017-11-18T10:25:23Z</time></trkpt>
<trkpt lat="47.14896717" lon="-1.39408783"><ele>13.1</ele><time>2017-11-18T10:25:28Z</time></trkpt>
<trkpt lat="47.14906788" lon="-1.39415106"><ele>13.9</ele><time>2017-11-18T10:25:34Z</time></trkpt>
<trkpt lat="47.14914028" lon="-1.39421639"><ele>15.3</ele><time>2017-11-18T10:25:39Z</time></trkpt>
<trkpt lat="47.14923548" lon="-1.39432595"><ele>29.5</ele><time>2017-11-18T10:26:05Z</time></trkpt>
<trkpt lat="47.14923300" lon="-1.39444533"><ele>24.799999</ele><time>2017-11-18T10:26:09Z</time></trkpt>
<trkpt lat="47.14923333" lon="-1.39458389"><ele>25.4</ele><time>2017-11-18T10:26:12Z</time></trkpt>
<trkpt lat="47.14924000" lon="-1.39462333"><ele>26.299999</ele><time>2017-11-18T10:26:31Z</time></trkpt>
<trkpt lat="47.14938889" lon="-1.39479167"><ele>24.1</ele><time>2017-11-18T10:26:33Z</time></trkpt>
<trkpt lat="47.14945286" lon="-1.39489905"><ele>23.700001</ele><time>2017-11-18T10:26:37Z</time></trkpt>
<trkpt lat="47.14950700" lon="-1.39499833"><ele>20.9</ele><time>2017-11-18T10:26:41Z</time></trkpt>
<trkpt lat="47.14955967" lon="-1.39509500"><ele>21.299999</ele><time>2017-11-18T10:26:44Z</time></trkpt>
<trkpt lat="47.14963033" lon="-1.39518800"><ele>21.6</ele><time>2017-11-18T10:26:47Z</time></trkpt>
<trkpt lat="47.14970167" lon="-1.39528767"><ele>22.1</ele><time>2017-11-18T10:26:50Z</time></trkpt>
<trkpt lat="47.14975767" lon="-1.39539933"><ele>22.1</ele><time>2017-11-18T10:26:53Z</time></trkpt>
<trkpt lat="47.14980967" lon="-1.39552433"><ele>22</ele><time>2017-11-18T10:26:56Z</time></trkpt>
<trkpt lat="47.14985056" lon="-1.39562000"><ele>21.4</ele><time>2017-11-18T10:26:58Z</time></trkpt>
<trkpt lat="47.14989967" lon="-1.39573733"><ele>21.200001</ele><time>2017-11-18T10:27:01Z</time></trkpt>
<trkpt lat="47.14993315" lon="-1.39585741"><ele>21.4</ele><time>2017-11-18T10:27:05Z</time></trkpt>
<trkpt lat="47.14993500" lon="-1.39595667"><ele>21.1</ele><time>2017-11-18T10:27:09Z</time></trkpt>
<trkpt lat="47.14993722" lon="-1.39604389"><ele>20.4</ele><time>2017-11-18T10:27:11Z</time></trkpt>
<trkpt lat="47.14994333" lon="-1.39615967"><ele>19.700001</ele><time>2017-11-18T10:27:14Z</time></trkpt>
<trkpt lat="47.14994467" lon="-1.39626167"><ele>18.6</ele><time>2017-11-18T10:27:17Z</time></trkpt>
<trkpt lat="47.14994262" lon="-1.39637429"><ele>18.5</ele><time>2017-11-18T10:27:20Z</time></trkpt>
<trkpt lat="47.14991119" lon="-1.39647738"><ele>18.6</ele><time>2017-11-18T10:27:24Z</time></trkpt>
<trkpt lat="47.14987767" lon="-1.39659833"><ele>17.4</ele><time>2017-11-18T10:27:28Z</time></trkpt>
<trkpt lat="47.14986929" lon="-1.39670429"><ele>16.799999</ele><time>2017-11-18T10:27:32Z</time></trkpt>
<trkpt lat="47.14986133" lon="-1.39688700"><ele>16.9</ele><time>2017-11-18T10:27:44Z</time></trkpt>
<trkpt lat="47.14986722" lon="-1.39700333"><ele>15.3</ele><time>2017-11-18T10:27:46Z</time></trkpt>
<trkpt lat="47.14987222" lon="-1.39710222"><ele>12.8</ele><time>2017-11-18T10:27:48Z</time></trkpt>
<trkpt lat="47.14986833" lon="-1.39720000"><ele>12.6</ele><time>2017-11-18T10:27:50Z</time></trkpt>
<trkpt lat="47.14987000" lon="-1.39730667"><ele>11.6</ele><time>2017-11-18T10:27:53Z</time></trkpt>
<trkpt lat="47.14987533" lon="-1.39741100"><ele>11.8</ele><time>2017-11-18T10:27:55Z</time></trkpt>
<trkpt lat="47.14987333" lon="-1.39752833"><ele>11.3</ele><time>2017-11-18T10:27:58Z</time></trkpt>
<trkpt lat="47.14986667" lon="-1.39763444"><ele>10.5</ele><time>2017-11-18T10:27:59Z</time></trkpt>
<trkpt lat="47.14987833" lon="-1.39775889"><ele>10</ele><time>2017-11-18T10:28:02Z</time></trkpt>
<trkpt lat="47.14988556" lon="-1.39787556"><ele>10.1</ele><time>2017-11-18T10:28:03Z</time></trkpt>
<trkpt lat="47.14987889" lon="-1.39800444"><ele>10.3</ele><time>2017-11-18T10:28:05Z</time></trkpt>
<trkpt lat="47.14986667" lon="-1.39814444"><ele>10.7</ele><time>2017-11-18T10:28:07Z</time></trkpt>
<trkpt lat="47.14986167" lon="-1.39828944"><ele>10.7</ele><time>2017-11-18T10:28:09Z</time></trkpt>
<trkpt lat="47.14985167" lon="-1.39842778"><ele>11.1</ele><time>2017-11-18T10:28:12Z</time></trkpt>
<trkpt lat="47.14984833" lon="-1.39857278"><ele>10.5</ele><time>2017-11-18T10:28:13Z</time></trkpt>
<trkpt lat="47.14984833" lon="-1.39872333"><ele>10.5</ele><time>2017-11-18T10:28:15Z</time></trkpt>
<trkpt lat="47.14984556" lon="-1.39887056"><ele>10.6</ele><time>2017-11-18T10:28:17Z</time></trkpt>
<trkpt lat="47.14984222" lon="-1.39900778"><ele>10.8</ele><time>2017-11-18T10:28:19Z</time></trkpt>
<trkpt lat="47.14984056" lon="-1.39913333"><ele>11.2</ele><time>2017-11-18T10:28:21Z</time></trkpt>
<trkpt lat="47.14985000" lon="-1.39925333"><ele>11.7</ele><time>2017-11-18T10:28:23Z</time></trkpt>
<trkpt lat="47.14986611" lon="-1.39936889"><ele>12.2</ele><time>2017-11-18T10:28:25Z</time></trkpt>
<trkpt lat="47.14985611" lon="-1.39948167"><ele>11.4</ele><time>2017-11-18T10:28:27Z</time></trkpt>
<trkpt lat="47.14983267" lon="-1.39958567"><ele>10.1</ele><time>2017-11-18T10:28:30Z</time></trkpt>
<trkpt lat="47.14981056" lon="-1.39968056"><ele>9.4</ele><time>2017-11-18T10:28:33Z</time></trkpt>
<trkpt lat="47.14980967" lon="-1.39977667"><ele>9.7</ele><time>2017-11-18T10:28:35Z</time></trkpt>
<trkpt lat="47.14982567" lon="-1.39988767"><ele>11.9</ele><time>2017-11-18T10:28:38Z</time></trkpt>
<trkpt lat="47.14983125" lon="-1.40002396"><ele>11.8</ele><time>2017-11-18T10:28:42Z</time></trkpt>
<trkpt lat="47.14982833" lon="-1.40006667"><ele>12.3</ele><time>2017-11-18T10:30:14Z</time></trkpt>
<trkpt lat="47.14983907" lon="-1.40027278"><ele>12.6</ele><time>2017-11-18T10:30:18Z</time></trkpt>
<trkpt lat="47.14982278" lon="-1.40038694"><ele>11.5</ele><time>2017-11-18T10:30:22Z</time></trkpt>
<trkpt lat="47.14981214" lon="-1.40050190"><ele>10.7</ele><time>2017-11-18T10:30:26Z</time></trkpt>
<trkpt lat="47.14979200" lon="-1.40061200"><ele>10</ele><time>2017-11-18T10:30:30Z</time></trkpt>
<trkpt lat="47.14978567" lon="-1.40072067"><ele>9.8</ele><time>2017-11-18T10:30:33Z</time></trkpt>
<trkpt lat="47.14983810" lon="-1.40078714"><ele>10.1</ele><time>2017-11-18T10:30:36Z</time></trkpt>
<trkpt lat="47.14994282" lon="-1.40079000"><ele>10.7</ele><time>2017-11-18T10:30:42Z</time></trkpt>
<trkpt lat="47.15001963" lon="-1.40077426"><ele>11.8</ele><time>2017-11-18T10:30:49Z</time></trkpt>
<trkpt lat="47.15003400" lon="-1.40065233"><ele>12.9</ele><time>2017-11-18T10:30:53Z</time></trkpt>
<trkpt lat="47.15004333" lon="-1.40053367"><ele>13.4</ele><time>2017-11-18T10:30:56Z</time></trkpt>
<trkpt lat="47.15005000" lon="-1.40041500"><ele>13.8</ele><time>2017-11-18T10:30:59Z</time></trkpt>
<trkpt lat="47.15005095" lon="-1.40030405"><ele>14.2</ele><time>2017-11-18T10:31:02Z</time></trkpt>
<trkpt lat="47.15004889" lon="-1.40020704"><ele>14.5</ele><time>2017-11-18T10:31:07Z</time></trkpt>
<trkpt lat="47.15005167" lon="-1.40013139"><ele>14.8</ele><time>2017-11-18T10:31:11Z</time></trkpt>
<trkpt lat="47.15007967" lon="-1.39999733"><ele>11.8</ele><time>2017-11-18T10:32:53Z</time></trkpt>
<trkpt lat="47.15007056" lon="-1.39988222"><ele>11.8</ele><time>2017-11-18T10:32:55Z</time></trkpt>
<trkpt lat="47.15001833" lon="-1.39977889"><ele>11.9</ele><time>2017-11-18T10:32:57Z</time></trkpt>
<trkpt lat="47.14993389" lon="-1.39969500"><ele>12</ele><time>2017-11-18T10:32:59Z</time></trkpt>
<trkpt lat="47.14983833" lon="-1.39965417"><ele>12</ele><time>2017-11-18T10:33:01Z</time></trkpt>
<trkpt lat="47.14971444" lon="-1.39963722"><ele>12.2</ele><time>2017-11-18T10:33:03Z</time></trkpt>
<trkpt lat="47.14959278" lon="-1.39962111"><ele>12.3</ele><time>2017-11-18T10:33:05Z</time></trkpt>
<trkpt lat="47.14944500" lon="-1.39960167"><ele>12.5</ele><time>2017-11-18T10:33:08Z</time></trkpt>
<trkpt lat="47.14933833" lon="-1.39958778"><ele>12.6</ele><time>2017-11-18T10:33:09Z</time></trkpt>
<trkpt lat="47.14921000" lon="-1.39957111"><ele>12.7</ele><time>2017-11-18T10:33:12Z</time></trkpt>
<trkpt lat="47.14907833" lon="-1.39955444"><ele>12.8</ele><time>2017-11-18T10:33:13Z</time></trkpt>
<trkpt lat="47.14894833" lon="-1.39953889"><ele>13.2</ele><time>2017-11-18T10:33:15Z</time></trkpt>
<trkpt lat="47.14881833" lon="-1.39953722"><ele>13.3</ele><time>2017-11-18T10:33:17Z</time></trkpt>
<trkpt lat="47.14869111" lon="-1.39956056"><ele>13.7</ele><time>2017-11-18T10:33:19Z</time></trkpt>
<trkpt lat="47.14857111" lon="-1.39961556"><ele>14.6</ele><time>2017-11-18T10:33:22Z</time></trkpt>
<trkpt lat="47.14846222" lon="-1.39969722"><ele>16.1</ele><time>2017-11-18T10:33:23Z</time></trkpt>
<trkpt lat="47.14838056" lon="-1.39979056"><ele>17</ele><time>2017-11-18T10:33:25Z</time></trkpt>
<trkpt lat="47.14835611" lon="-1.39989000"><ele>18.200001</ele><time>2017-11-18T10:33:27Z</time></trkpt>
<trkpt lat="47.14837944" lon="-1.40001889"><ele>18.6</ele><time>2017-11-18T10:33:29Z</time></trkpt>
<trkpt lat="47.14839444" lon="-1.40016222"><ele>18.200001</ele><time>2017-11-18T10:33:31Z</time></trkpt>
<trkpt lat="47.14840111" lon="-1.40033444"><ele>16.6</ele><time>2017-11-18T10:33:33Z</time></trkpt>
<trkpt lat="47.14840333" lon="-1.40045167"><ele>15.7</ele><time>2017-11-18T10:33:34Z</time></trkpt>
<trkpt lat="47.14841500" lon="-1.40059944"><ele>14.9</ele><time>2017-11-18T10:33:36Z</time></trkpt>
<trkpt lat="47.14842167" lon="-1.40075722"><ele>14.1</ele><time>2017-11-18T10:33:38Z</time></trkpt>
<trkpt lat="47.14838267" lon="-1.40089033"><ele>14.2</ele><time>2017-11-18T10:33:41Z</time></trkpt>
<trkpt lat="47.14828700" lon="-1.40095333"><ele>14.7</ele><time>2017-11-18T10:33:44Z</time></trkpt>
<trkpt lat="47.14816967" lon="-1.40100700"><ele>15.3</ele><time>2017-11-18T10:33:47Z</time></trkpt>
<trkpt lat="47.14805067" lon="-1.40106533"><ele>15.9</ele><time>2017-11-18T10:33:50Z</time></trkpt>
<trkpt lat="47.14796467" lon="-1.40116067"><ele>16.299999</ele><time>2017-11-18T10:33:53Z</time></trkpt>
<trkpt lat="47.14789667" lon="-1.40129000"><ele>16.5</ele><time>2017-11-18T10:33:56Z</time></trkpt>
<trkpt lat="47.14782633" lon="-1.40138800"><ele>16.9</ele><time>2017-11-18T10:33:59Z</time></trkpt>
<trkpt lat="47.14781717" lon="-1.40150700"><ele>16.799999</ele><time>2017-11-18T10:34:03Z</time></trkpt>
<trkpt lat="47.14791641" lon="-1.40161667"><ele>17</ele><time>2017-11-18T10:34:17Z</time></trkpt>
<trkpt lat="47.14790423" lon="-1.40169821"><ele>17.9</ele><time>2017-11-18T10:34:24Z</time></trkpt>
<trkpt lat="47.14780200" lon="-1.40164378"><ele>20</ele><time>2017-11-18T10:34:32Z</time></trkpt>
<trkpt lat="47.14770472" lon="-1.40159306"><ele>23.5</ele><time>2017-11-18T10:34:40Z</time></trkpt>
<trkpt lat="47.14759976" lon="-1.40157655"><ele>25.799999</ele><time>2017-11-18T10:34:47Z</time></trkpt>
<trkpt lat="47.14750205" lon="-1.40158090"><ele>28.799999</ele><time>2017-11-18T10:34:55Z</time></trkpt>
<trkpt lat="47.14743500" lon="-1.40158833"><ele>29.1</ele><time>2017-11-18T10:35:00Z</time></trkpt>
<trkpt lat="47.14725056" lon="-1.40190944"><ele>38.900002</ele><time>2017-11-18T10:35:46Z</time></trkpt>
<trkpt lat="47.14724500" lon="-1.40192500"><ele>39</ele><time>2017-11-18T10:36:08Z</time></trkpt>
<trkpt lat="47.14722738" lon="-1.40224190"><ele>36.900002</ele><time>2017-11-18T10:36:10Z</time></trkpt>
<trkpt lat="47.14722429" lon="-1.40235548"><ele>36.099998</ele><time>2017-11-18T10:36:14Z</time></trkpt>
<trkpt lat="47.14723548" lon="-1.40245357"><ele>35.400002</ele><time>2017-11-18T10:36:18Z</time></trkpt>
<trkpt lat="47.14725900" lon="-1.40255000"><ele>34.900002</ele><time>2017-11-18T10:36:22Z</time></trkpt>
<trkpt lat="47.14727633" lon="-1.40265267"><ele>34.700001</ele><time>2017-11-18T10:36:25Z</time></trkpt>
<trkpt lat="47.14727267" lon="-1.40276667"><ele>34.799999</ele><time>2017-11-18T10:36:28Z</time></trkpt>
<trkpt lat="47.14725500" lon="-1.40288542"><ele>35</ele><time>2017-11-18T10:36:30Z</time></trkpt>
<trkpt lat="47.14723556" lon="-1.40300611"><ele>35.200001</ele><time>2017-11-18T10:36:33Z</time></trkpt>
<trkpt lat="47.14722222" lon="-1.40309944"><ele>35.5</ele><time>2017-11-18T10:36:35Z</time></trkpt>
<trkpt lat="47.14720667" lon="-1.40320833"><ele>36</ele><time>2017-11-18T10:36:37Z</time></trkpt>
<trkpt lat="47.14718400" lon="-1.40330600"><ele>36.5</ele><time>2017-11-18T10:36:40Z</time></trkpt>
<trkpt lat="47.14714833" lon="-1.40342833"><ele>37.299999</ele><time>2017-11-18T10:36:43Z</time></trkpt>
<trkpt lat="47.14712067" lon="-1.40351267"><ele>38</ele><time>2017-11-18T10:36:46Z</time></trkpt>
<trkpt lat="47.14708500" lon="-1.40361571"><ele>39.099998</ele><time>2017-11-18T10:36:49Z</time></trkpt>
<trkpt lat="47.14705119" lon="-1.40372476"><ele>40.099998</ele><time>2017-11-18T10:36:53Z</time></trkpt>
<trkpt lat="47.14702214" lon="-1.40383690"><ele>40.900002</ele><time>2017-11-18T10:36:57Z</time></trkpt>
<trkpt lat="47.14699262" lon="-1.40394976"><ele>41.900002</ele><time>2017-11-18T10:37:01Z</time></trkpt>
<trkpt lat="47.14696400" lon="-1.40405000"><ele>42.700001</ele><time>2017-11-18T10:37:05Z</time></trkpt>
<trkpt lat="47.14695200" lon="-1.40415467"><ele>43.200001</ele><time>2017-11-18T10:37:08Z</time></trkpt>
<trkpt lat="47.14695367" lon="-1.40427300"><ele>43.5</ele><time>2017-11-18T10:37:11Z</time></trkpt>
<trkpt lat="47.14695567" lon="-1.40439867"><ele>43.700001</ele><time>2017-11-18T10:37:14Z</time></trkpt>
<trkpt lat="47.14695667" lon="-1.40451000"><ele>44</ele><time>2017-11-18T10:37:17Z</time></trkpt>
<trkpt lat="47.14695833" lon="-1.40460278"><ele>44.299999</ele><time>2017-11-18T10:37:18Z</time></trkpt>
<trkpt lat="47.14695833" lon="-1.40469500"><ele>44.700001</ele><time>2017-11-18T10:37:20Z</time></trkpt>
<trkpt lat="47.14695944" lon="-1.40478889"><ele>45</ele><time>2017-11-18T10:37:23Z</time></trkpt>
<trkpt lat="47.14696333" lon="-1.40488389"><ele>45.200001</ele><time>2017-11-18T10:37:24Z</time></trkpt>
<trkpt lat="47.14696333" lon="-1.40498333"><ele>45.299999</ele><time>2017-11-18T10:37:26Z</time></trkpt>
<trkpt lat="47.14696444" lon="-1.40508056"><ele>45.599998</ele><time>2017-11-18T10:37:28Z</time></trkpt>
<trkpt lat="47.14696889" lon="-1.40517444"><ele>45.799999</ele><time>2017-11-18T10:37:30Z</time></trkpt>
<trkpt lat="47.14697556" lon="-1.40526333"><ele>46.099998</ele><time>2017-11-18T10:37:33Z</time></trkpt>
<trkpt lat="47.14698611" lon="-1.40536278"><ele>46.400002</ele><time>2017-11-18T10:37:34Z</time></trkpt>
<trkpt lat="47.14700500" lon="-1.40547000"><ele>46.900002</ele><time>2017-11-18T10:37:36Z</time></trkpt>
<trkpt lat="47.14702778" lon="-1.40558167"><ele>47.200001</ele><time>2017-11-18T10:37:38Z</time></trkpt>
<trkpt lat="47.14705278" lon="-1.40569556"><ele>47.599998</ele><time>2017-11-18T10:37:40Z</time></trkpt>
<trkpt lat="47.14707611" lon="-1.40581333"><ele>47.900002</ele><time>2017-11-18T10:37:42Z</time></trkpt>
<trkpt lat="47.14710111" lon="-1.40593333"><ele>48.299999</ele><time>2017-11-18T10:37:44Z</time></trkpt>
<trkpt lat="47.14712250" lon="-1.40604500"><ele>48.5</ele><time>2017-11-18T10:37:46Z</time></trkpt>
<trkpt lat="47.14714278" lon="-1.40618444"><ele>48.599998</ele><time>2017-11-18T10:37:48Z</time></trkpt>
<trkpt lat="47.14715444" lon="-1.40631278"><ele>48.700001</ele><time>2017-11-18T10:37:50Z</time></trkpt>
<trkpt lat="47.14717667" lon="-1.40644333"><ele>49</ele><time>2017-11-18T10:37:52Z</time></trkpt>
<trkpt lat="47.14719722" lon="-1.40652833"><ele>49.200001</ele><time>2017-11-18T10:37:54Z</time></trkpt>
<trkpt lat="47.14722944" lon="-1.40662167"><ele>49.5</ele><time>2017-11-18T10:37:57Z</time></trkpt>
<trkpt lat="47.14726056" lon="-1.40671556"><ele>49.700001</ele><time>2017-11-18T10:37:58Z</time></trkpt>
<trkpt lat="47.14728167" lon="-1.40681611"><ele>49.799999</ele><time>2017-11-18T10:38:00Z</time></trkpt>
<trkpt lat="47.14730556" lon="-1.40692333"><ele>49.900002</ele><time>2017-11-18T10:38:03Z</time></trkpt>
<trkpt lat="47.14733056" lon="-1.40703611"><ele>49.900002</ele><time>2017-11-18T10:38:04Z</time></trkpt>
<trkpt lat="47.14735778" lon="-1.40714889"><ele>50</ele><time>2017-11-18T10:38:06Z</time></trkpt>
<trkpt lat="47.14739500" lon="-1.40725278"><ele>50</ele><time>2017-11-18T10:38:08Z</time></trkpt>
<trkpt lat="47.14743500" lon="-1.40735611"><ele>49.900002</ele><time>2017-11-18T10:38:10Z</time></trkpt>
<trkpt lat="47.14748167" lon="-1.40745833"><ele>49.700001</ele><time>2017-11-18T10:38:12Z</time></trkpt>
<trkpt lat="47.14753722" lon="-1.40756000"><ele>49.5</ele><time>2017-11-18T10:38:14Z</time></trkpt>
<trkpt lat="47.14759417" lon="-1.40764583"><ele>49.400002</ele><time>2017-11-18T10:38:16Z</time></trkpt>
<trkpt lat="47.14765611" lon="-1.40774889"><ele>49.200001</ele><time>2017-11-18T10:38:18Z</time></trkpt>
<trkpt lat="47.14770389" lon="-1.40785056"><ele>49.099998</ele><time>2017-11-18T10:38:20Z</time></trkpt>
<trkpt lat="47.14775500" lon="-1.40797333"><ele>49.099998</ele><time>2017-11-18T10:38:22Z</time></trkpt>
<trkpt lat="47.14781200" lon="-1.40806500"><ele>49.099998</ele><time>2017-11-18T10:38:25Z</time></trkpt>
<trkpt lat="47.14787167" lon="-1.40816771"><ele>49.200001</ele><time>2017-11-18T10:38:29Z</time></trkpt>
<trkpt lat="47.14794952" lon="-1.40826310"><ele>50.099998</ele><time>2017-11-18T10:44:39Z</time></trkpt>
<trkpt lat="47.14802262" lon="-1.40836333"><ele>50.400002</ele><time>2017-11-18T10:44:43Z</time></trkpt>
<trkpt lat="47.14806733" lon="-1.40846833"><ele>50.400002</ele><time>2017-11-18T10:44:47Z</time></trkpt>
<trkpt lat="47.14799429" lon="-1.40856905"><ele>50.299999</ele><time>2017-11-18T10:44:50Z</time></trkpt>
<trkpt lat="47.14788133" lon="-1.40864533"><ele>50.5</ele><time>2017-11-18T10:44:54Z</time></trkpt>
<trkpt lat="47.14777633" lon="-1.40870667"><ele>50.599998</ele><time>2017-11-18T10:44:57Z</time></trkpt>
<trkpt lat="47.14766143" lon="-1.40877786"><ele>50.400002</ele><time>2017-11-18T10:45:00Z</time></trkpt>
<trkpt lat="47.14756143" lon="-1.40883952"><ele>50</ele><time>2017-11-18T10:45:04Z</time></trkpt>
<trkpt lat="47.14745976" lon="-1.40889929"><ele>49.599998</ele><time>2017-11-18T10:45:08Z</time></trkpt>
<trkpt lat="47.14734694" lon="-1.40896306"><ele>49.299999</ele><time>2017-11-18T10:45:12Z</time></trkpt>
<trkpt lat="47.14727000" lon="-1.40905867"><ele>48.599998</ele><time>2017-11-18T10:45:16Z</time></trkpt>
<trkpt lat="47.14728000" lon="-1.40918833"><ele>47.5</ele><time>2017-11-18T10:45:18Z</time></trkpt>
<trkpt lat="47.14731278" lon="-1.40932500"><ele>46.599998</ele><time>2017-11-18T10:45:20Z</time></trkpt>
<trkpt lat="47.14736167" lon="-1.40951833"><ele>45</ele><time>2017-11-18T10:45:23Z</time></trkpt>
<trkpt lat="47.14739500" lon="-1.40966111"><ele>44.099998</ele><time>2017-11-18T10:45:24Z</time></trkpt>
<trkpt lat="47.14743389" lon="-1.40981889"><ele>43</ele><time>2017-11-18T10:45:27Z</time></trkpt>
<trkpt lat="47.14747056" lon="-1.40997111"><ele>42.099998</ele><time>2017-11-18T10:45:28Z</time></trkpt>
<trkpt lat="47.14750833" lon="-1.41013111"><ele>41.200001</ele><time>2017-11-18T10:45:30Z</time></trkpt>
<trkpt lat="47.14755222" lon="-1.41029833"><ele>40.099998</ele><time>2017-11-18T10:45:32Z</time></trkpt>
<trkpt lat="47.14759611" lon="-1.41046444"><ele>39.200001</ele><time>2017-11-18T10:45:34Z</time></trkpt>
<trkpt lat="47.14763944" lon="-1.41062889"><ele>38.5</ele><time>2017-11-18T10:45:36Z</time></trkpt>
<trkpt lat="47.14768556" lon="-1.41079833"><ele>37.599998</ele><time>2017-11-18T10:45:38Z</time></trkpt>
<trkpt lat="47.14773222" lon="-1.41097111"><ele>36.799999</ele><time>2017-11-18T10:45:40Z</time></trkpt>
<trkpt lat="47.14776333" lon="-1.41109000"><ele>36.099998</ele><time>2017-11-18T10:45:41Z</time></trkpt>
<trkpt lat="47.14778667" lon="-1.41118000"><ele>35.700001</ele><time>2017-11-18T10:45:42Z</time></trkpt>
<trkpt lat="47.14781167" lon="-1.41127000"><ele>35.200001</ele><time>2017-11-18T10:45:44Z</time></trkpt>
<trkpt lat="47.14784944" lon="-1.41141889"><ele>34.5</ele><time>2017-11-18T10:45:45Z</time></trkpt>
<trkpt lat="47.14789167" lon="-1.41158278"><ele>33.700001</ele><time>2017-11-18T10:45:47Z</time></trkpt>
<trkpt lat="47.14793100" lon="-1.41171667"><ele>33.099998</ele><time>2017-11-18T10:45:50Z</time></trkpt>
<trkpt lat="47.14790833" lon="-1.41181048"><ele>32.299999</ele><time>2017-11-18T10:45:53Z</time></trkpt>
<trkpt lat="47.14780100" lon="-1.41192433"><ele>32.099998</ele><time>2017-11-18T10:45:57Z</time></trkpt>
<trkpt lat="47.14767367" lon="-1.41205333"><ele>32.599998</ele><time>2017-11-18T10:46:00Z</time></trkpt>
<trkpt lat="47.14755500" lon="-1.41216600"><ele>33.799999</ele><time>2017-11-18T10:46:03Z</time></trkpt>
<trkpt lat="47.14745233" lon="-1.41226533"><ele>35.299999</ele><time>2017-11-18T10:46:06Z</time></trkpt>
<trkpt lat="47.14734286" lon="-1.41234024"><ele>37</ele><time>2017-11-18T10:46:09Z</time></trkpt>
<trkpt lat="47.14726800" lon="-1.41242800"><ele>36.799999</ele><time>2017-11-18T10:46:13Z</time></trkpt>
<trkpt lat="47.14723611" lon="-1.41255944"><ele>36</ele><time>2017-11-18T10:46:15Z</time></trkpt>
<trkpt lat="47.14720500" lon="-1.41271333"><ele>34.900002</ele><time>2017-11-18T10:46:17Z</time></trkpt>
<trkpt lat="47.14718556" lon="-1.41281722"><ele>34.299999</ele><time>2017-11-18T10:46:19Z</time></trkpt>
<trkpt lat="47.14715300" lon="-1.41294033"><ele>33.700001</ele><time>2017-11-18T10:46:22Z</time></trkpt>
<trkpt lat="47.14712567" lon="-1.41305467"><ele>33.5</ele><time>2017-11-18T10:46:25Z</time></trkpt>
<trkpt lat="47.14710524" lon="-1.41316786"><ele>33.599998</ele><time>2017-11-18T10:46:28Z</time></trkpt>
<trkpt lat="47.14705979" lon="-1.41326542"><ele>33.900002</ele><time>2017-11-18T10:46:33Z</time></trkpt>
<trkpt lat="47.14695357" lon="-1.41325738"><ele>34.599998</ele><time>2017-11-18T10:46:37Z</time></trkpt>
<trkpt lat="47.14684095" lon="-1.41322786"><ele>35.400002</ele><time>2017-11-18T10:46:41Z</time></trkpt>
<trkpt lat="47.14673900" lon="-1.41321567"><ele>36.099998</ele><time>2017-11-18T10:46:45Z</time></trkpt>
<trkpt lat="47.14662556" lon="-1.41321722"><ele>37.200001</ele><time>2017-11-18T10:46:49Z</time></trkpt>
<trkpt lat="47.14652881" lon="-1.41322119"><ele>38.099998</ele><time>2017-11-18T10:46:52Z</time></trkpt>
<trkpt lat="47.14642204" lon="-1.41325278"><ele>39.099998</ele><time>2017-11-18T10:46:57Z</time></trkpt>
<trkpt lat="47.14633833" lon="-1.41333381"><ele>39.799999</ele><time>2017-11-18T10:47:01Z</time></trkpt>
<trkpt lat="47.14629333" lon="-1.41343033"><ele>39.900002</ele><time>2017-11-18T10:47:05Z</time></trkpt>
<trkpt lat="47.14626500" lon="-1.41353250"><ele>39.799999</ele><time>2017-11-18T10:47:08Z</time></trkpt>
<trkpt lat="47.14624833" lon="-1.41362933"><ele>39.799999</ele><time>2017-11-18T10:47:11Z</time></trkpt>
<trkpt lat="47.14622933" lon="-1.41374633"><ele>39.799999</ele><time>2017-11-18T10:47:14Z</time></trkpt>
<trkpt lat="47.14621267" lon="-1.41387267"><ele>39.799999</ele><time>2017-11-18T10:47:17Z</time></trkpt>
<trkpt lat="47.14619333" lon="-1.41398833"><ele>39.599998</ele><time>2017-11-18T10:47:19Z</time></trkpt>
<trkpt lat="47.14616667" lon="-1.41408722"><ele>39.5</ele><time>2017-11-18T10:47:22Z</time></trkpt>
<trkpt lat="47.14611867" lon="-1.41420567"><ele>39.5</ele><time>2017-11-18T10:47:24Z</time></trkpt>
<trkpt lat="47.14603833" lon="-1.41431600"><ele>39.900002</ele><time>2017-11-18T10:47:27Z</time></trkpt>
<trkpt lat="47.14593967" lon="-1.41439533"><ele>40.200001</ele><time>2017-11-18T10:47:30Z</time></trkpt>
<trkpt lat="47.14583300" lon="-1.41444267"><ele>40.5</ele><time>2017-11-18T10:47:33Z</time></trkpt>
<trkpt lat="47.14571857" lon="-1.41447881"><ele>41</ele><time>2017-11-18T10:47:36Z</time></trkpt>
<trkpt lat="47.14560714" lon="-1.41450357"><ele>41.700001</ele><time>2017-11-18T10:47:40Z</time></trkpt>
<trkpt lat="47.14551048" lon="-1.41450976"><ele>42.400002</ele><time>2017-11-18T10:47:44Z</time></trkpt>
<trkpt lat="47.14540583" lon="-1.41451083"><ele>43.200001</ele><time>2017-11-18T10:47:49Z</time></trkpt>
<trkpt lat="47.14529958" lon="-1.41450250"><ele>44.099998</ele><time>2017-11-18T10:47:54Z</time></trkpt>
<trkpt lat="47.14520093" lon="-1.41448593"><ele>44.900002</ele><time>2017-11-18T10:47:59Z</time></trkpt>
<trkpt lat="47.14509111" lon="-1.41449019"><ele>45.700001</ele><time>2017-11-18T10:48:04Z</time></trkpt>
<trkpt lat="47.14500056" lon="-1.41455778"><ele>46.400002</ele><time>2017-11-18T10:48:09Z</time></trkpt>
<trkpt lat="47.14496600" lon="-1.41466033"><ele>46.5</ele><time>2017-11-18T10:48:12Z</time></trkpt>
<trkpt lat="47.14494533" lon="-1.41478100"><ele>46.599998</ele><time>2017-11-18T10:48:15Z</time></trkpt>
<trkpt lat="47.14490867" lon="-1.41489533"><ele>46.799999</ele><time>2017-11-18T10:48:18Z</time></trkpt>
<trkpt lat="47.14487767" lon="-1.41500533"><ele>46.700001</ele><time>2017-11-18T10:48:21Z</time></trkpt>
<trkpt lat="47.14485333" lon="-1.41512556"><ele>46.400002</ele><time>2017-11-18T10:48:23Z</time></trkpt>
<trkpt lat="47.14483722" lon="-1.41523500"><ele>46.400002</ele><time>2017-11-18T10:48:25Z</time></trkpt>
<trkpt lat="47.14482222" lon="-1.41535000"><ele>46.200001</ele><time>2017-11-18T10:48:28Z</time></trkpt>
<trkpt lat="47.14480500" lon="-1.41547000"><ele>46.099998</ele><time>2017-11-18T10:48:29Z</time></trkpt>
<trkpt lat="47.14478611" lon="-1.41559389"><ele>45.799999</ele><time>2017-11-18T10:48:31Z</time></trkpt>
<trkpt lat="47.14476556" lon="-1.41572167"><ele>45.599998</ele><time>2017-11-18T10:48:33Z</time></trkpt>
<trkpt lat="47.14475500" lon="-1.41585611"><ele>45.400002</ele><time>2017-11-18T10:48:35Z</time></trkpt>
<trkpt lat="47.14475278" lon="-1.41598167"><ele>45.299999</ele><time>2017-11-18T10:48:37Z</time></trkpt>
<trkpt lat="47.14474167" lon="-1.41610056"><ele>45.099998</ele><time>2017-11-18T10:48:39Z</time></trkpt>
<trkpt lat="47.14472889" lon="-1.41620611"><ele>45.099998</ele><time>2017-11-18T10:48:41Z</time></trkpt>
<trkpt lat="47.14472167" lon="-1.41631611"><ele>45.5</ele><time>2017-11-18T10:48:43Z</time></trkpt>
<trkpt lat="47.14472889" lon="-1.41643222"><ele>45.400002</ele><time>2017-11-18T10:48:45Z</time></trkpt>
<trkpt lat="47.14474222" lon="-1.41655833"><ele>45.099998</ele><time>2017-11-18T10:48:47Z</time></trkpt>
<trkpt lat="47.14476000" lon="-1.41669389"><ele>44.900002</ele><time>2017-11-18T10:48:49Z</time></trkpt>
<trkpt lat="47.14477750" lon="-1.41681667"><ele>44.799999</ele><time>2017-11-18T10:48:51Z</time></trkpt>
<trkpt lat="47.14479111" lon="-1.41695944"><ele>44.599998</ele><time>2017-11-18T10:48:53Z</time></trkpt>
<trkpt lat="47.14478889" lon="-1.41709500"><ele>44.400002</ele><time>2017-11-18T10:48:55Z</time></trkpt>
<trkpt lat="47.14479000" lon="-1.41726500"><ele>44.200001</ele><time>2017-11-18T10:48:58Z</time></trkpt>
<trkpt lat="47.14478444" lon="-1.41739500"><ele>43.900002</ele><time>2017-11-18T10:48:59Z</time></trkpt>
<trkpt lat="47.14477389" lon="-1.41755333"><ele>43.200001</ele><time>2017-11-18T10:49:01Z</time></trkpt>
<trkpt lat="47.14476667" lon="-1.41771833"><ele>42.099998</ele><time>2017-11-18T10:49:03Z</time></trkpt>
<trkpt lat="47.14476667" lon="-1.41783333"><ele>41.599998</ele><time>2017-11-18T10:49:05Z</time></trkpt>
<trkpt lat="47.14476000" lon="-1.41792333"><ele>41.099998</ele><time>2017-11-18T10:49:06Z</time></trkpt>
<trkpt lat="47.14475167" lon="-1.41801500"><ele>40.599998</ele><time>2017-11-18T10:49:08Z</time></trkpt>
<trkpt lat="47.14474667" lon="-1.41811000"><ele>40.099998</ele><time>2017-11-18T10:49:08Z</time></trkpt>
<trkpt lat="47.14474333" lon="-1.41820667"><ele>39.700001</ele><time>2017-11-18T10:49:08Z</time></trkpt>
<trkpt lat="47.14474333" lon="-1.41830333"><ele>39.200001</ele><time>2017-11-18T10:49:10Z</time></trkpt>
<trkpt lat="47.14474333" lon="-1.41845278"><ele>38.5</ele><time>2017-11-18T10:49:12Z</time></trkpt>
<trkpt lat="47.14474444" lon="-1.41860667"><ele>38</ele><time>2017-11-18T10:49:13Z</time></trkpt>
<trkpt lat="47.14478625" lon="-1.41874042"><ele>37</ele><time>2017-11-18T10:49:17Z</time></trkpt>
<trkpt lat="47.14491056" lon="-1.41874222"><ele>35.099998</ele><time>2017-11-18T10:49:20Z</time></trkpt>
<trkpt lat="47.14502767" lon="-1.41872333"><ele>33.799999</ele><time>2017-11-18T10:49:23Z</time></trkpt>
<trkpt lat="47.14513778" lon="-1.41870333"><ele>32.200001</ele><time>2017-11-18T10:49:25Z</time></trkpt>
<trkpt lat="47.14523389" lon="-1.41868889"><ele>30.799999</ele><time>2017-11-18T10:49:27Z</time></trkpt>
<trkpt lat="47.14534400" lon="-1.41867400"><ele>29.200001</ele><time>2017-11-18T10:49:30Z</time></trkpt>
<trkpt lat="47.14544933" lon="-1.41870167"><ele>28.1</ele><time>2017-11-18T10:49:33Z</time></trkpt>
<trkpt lat="47.14550611" lon="-1.41882556"><ele>27.6</ele><time>2017-11-18T10:49:35Z</time></trkpt>
<trkpt lat="47.14555722" lon="-1.41896111"><ele>27.4</ele><time>2017-11-18T10:49:38Z</time></trkpt>
<trkpt lat="47.14561056" lon="-1.41911222"><ele>27.299999</ele><time>2017-11-18T10:49:39Z</time></trkpt>
<trkpt lat="47.14565056" lon="-1.41927167"><ele>27</ele><time>2017-11-18T10:49:41Z</time></trkpt>
<trkpt lat="47.14568722" lon="-1.41941722"><ele>26.6</ele><time>2017-11-18T10:49:43Z</time></trkpt>
<trkpt lat="47.14573556" lon="-1.41954722"><ele>26.299999</ele><time>2017-11-18T10:49:45Z</time></trkpt>
<trkpt lat="47.14579222" lon="-1.41968389"><ele>25.9</ele><time>2017-11-18T10:49:48Z</time></trkpt>
<trkpt lat="47.14585444" lon="-1.41983889"><ele>25.6</ele><time>2017-11-18T10:49:49Z</time></trkpt>
<trkpt lat="47.14591722" lon="-1.41999833"><ele>25.4</ele><time>2017-11-18T10:49:51Z</time></trkpt>
<trkpt lat="47.14596889" lon="-1.42015944"><ele>25.4</ele><time>2017-11-18T10:49:53Z</time></trkpt>
<trkpt lat="47.14600722" lon="-1.42032167"><ele>25.200001</ele><time>2017-11-18T10:49:55Z</time></trkpt>
<trkpt lat="47.14603944" lon="-1.42048333"><ele>25</ele><time>2017-11-18T10:49:57Z</time></trkpt>
<trkpt lat="47.14607667" lon="-1.42063944"><ele>24.6</ele><time>2017-11-18T10:49:59Z</time></trkpt>
<trkpt lat="47.14611778" lon="-1.42080056"><ele>23.799999</ele><time>2017-11-18T10:50:02Z</time></trkpt>
<trkpt lat="47.14615611" lon="-1.42096389"><ele>22.9</ele><time>2017-11-18T10:50:03Z</time></trkpt>
<trkpt lat="47.14619611" lon="-1.42111778"><ele>21.799999</ele><time>2017-11-18T10:50:05Z</time></trkpt>
<trkpt lat="47.14623778" lon="-1.42126778"><ele>20.799999</ele><time>2017-11-18T10:50:07Z</time></trkpt>
<trkpt lat="47.14627722" lon="-1.42141222"><ele>19.700001</ele><time>2017-11-18T10:50:09Z</time></trkpt>
<trkpt lat="47.14631278" lon="-1.42155889"><ele>18.6</ele><time>2017-11-18T10:50:11Z</time></trkpt>
<trkpt lat="47.14634500" lon="-1.42169333"><ele>18.1</ele><time>2017-11-18T10:50:13Z</time></trkpt>
<trkpt lat="47.14639476" lon="-1.42179214"><ele>17.1</ele><time>2017-11-18T10:50:16Z</time></trkpt>
<trkpt lat="47.14650133" lon="-1.42174900"><ele>15.4</ele><time>2017-11-18T10:50:20Z</time></trkpt>
<trkpt lat="47.14661722" lon="-1.42167556"><ele>13.7</ele><time>2017-11-18T10:50:22Z</time></trkpt>
<trkpt lat="47.14673333" lon="-1.42160611"><ele>12.5</ele><time>2017-11-18T10:50:24Z</time></trkpt>
<trkpt lat="47.14683583" lon="-1.42155417"><ele>11.6</ele><time>2017-11-18T10:50:26Z</time></trkpt>
<trkpt lat="47.14694333" lon="-1.42154056"><ele>10.8</ele><time>2017-11-18T10:50:28Z</time></trkpt>
<trkpt lat="47.14704722" lon="-1.42158278"><ele>10.1</ele><time>2017-11-18T10:50:30Z</time></trkpt>
<trkpt lat="47.14714500" lon="-1.42166278"><ele>9.2</ele><time>2017-11-18T10:50:32Z</time></trkpt>
<trkpt lat="47.14723167" lon="-1.42177611"><ele>8.7</ele><time>2017-11-18T10:50:34Z</time></trkpt>
<trkpt lat="47.14732167" lon="-1.42188556"><ele>8.3</ele><time>2017-11-18T10:50:37Z</time></trkpt>
<trkpt lat="47.14741567" lon="-1.42199400"><ele>8.5</ele><time>2017-11-18T10:50:39Z</time></trkpt>
<trkpt lat="47.14750733" lon="-1.42209367"><ele>8.6</ele><time>2017-11-18T10:50:42Z</time></trkpt>
<trkpt lat="47.14761733" lon="-1.42220933"><ele>8.9</ele><time>2017-11-18T10:50:45Z</time></trkpt>
<trkpt lat="47.14772167" lon="-1.42234083"><ele>9.1</ele><time>2017-11-18T10:50:48Z</time></trkpt>
<trkpt lat="47.14780367" lon="-1.42242233"><ele>9.3</ele><time>2017-11-18T10:50:51Z</time></trkpt>
<trkpt lat="47.14791143" lon="-1.42250405"><ele>9.5</ele><time>2017-11-18T10:50:54Z</time></trkpt>
<trkpt lat="47.14800633" lon="-1.42258100"><ele>9.6</ele><time>2017-11-18T10:50:58Z</time></trkpt>
<trkpt lat="47.14811133" lon="-1.42266367"><ele>9.6</ele><time>2017-11-18T10:51:01Z</time></trkpt>
<trkpt lat="47.14823300" lon="-1.42273167"><ele>10.2</ele><time>2017-11-18T10:51:04Z</time></trkpt>
<trkpt lat="47.14836233" lon="-1.42277467"><ele>10.7</ele><time>2017-11-18T10:51:07Z</time></trkpt>
<trkpt lat="47.14847533" lon="-1.42281800"><ele>11</ele><time>2017-11-18T10:51:10Z</time></trkpt>
<trkpt lat="47.14856567" lon="-1.42285933"><ele>11.1</ele><time>2017-11-18T10:51:13Z</time></trkpt>
<trkpt lat="47.14866750" lon="-1.42286500"><ele>11.6</ele><time>2017-11-18T10:51:15Z</time></trkpt>
<trkpt lat="47.14879000" lon="-1.42286900"><ele>11.8</ele><time>2017-11-18T10:51:19Z</time></trkpt>
<trkpt lat="47.14889000" lon="-1.42286500"><ele>12.4</ele><time>2017-11-18T10:51:21Z</time></trkpt>
<trkpt lat="47.14899389" lon="-1.42287000"><ele>12.3</ele><time>2017-11-18T10:51:23Z</time></trkpt>
<trkpt lat="47.14908889" lon="-1.42288444"><ele>12.7</ele><time>2017-11-18T10:51:25Z</time></trkpt>
<trkpt lat="47.14919833" lon="-1.42290500"><ele>13.1</ele><time>2017-11-18T10:51:27Z</time></trkpt>
<trkpt lat="47.14928000" lon="-1.42291278"><ele>13</ele><time>2017-11-18T10:51:29Z</time></trkpt>
<trkpt lat="47.14936583" lon="-1.42292667"><ele>12.8</ele><time>2017-11-18T10:51:31Z</time></trkpt>
<trkpt lat="47.14948967" lon="-1.42295500"><ele>12.4</ele><time>2017-11-18T10:51:34Z</time></trkpt>
<trkpt lat="47.14959417" lon="-1.42301333"><ele>12.9</ele><time>2017-11-18T10:51:36Z</time></trkpt>
<trkpt lat="47.14971033" lon="-1.42307400"><ele>13.1</ele><time>2017-11-18T10:51:39Z</time></trkpt>
<trkpt lat="47.14982700" lon="-1.42312767"><ele>14</ele><time>2017-11-18T10:51:42Z</time></trkpt>
<trkpt lat="47.14993667" lon="-1.42319333"><ele>14.3</ele><time>2017-11-18T10:51:44Z</time></trkpt>
<trkpt lat="47.15005367" lon="-1.42326800"><ele>14.8</ele><time>2017-11-18T10:51:47Z</time></trkpt>
<trkpt lat="47.15016000" lon="-1.42333222"><ele>15.6</ele><time>2017-11-18T10:51:49Z</time></trkpt>
<trkpt lat="47.15025278" lon="-1.42338167"><ele>16.1</ele><time>2017-11-18T10:51:51Z</time></trkpt>
<trkpt lat="47.15035167" lon="-1.42344722"><ele>16.700001</ele><time>2017-11-18T10:51:53Z</time></trkpt>
<trkpt lat="47.15047500" lon="-1.42354433"><ele>16.799999</ele><time>2017-11-18T10:51:56Z</time></trkpt>
<trkpt lat="47.15057556" lon="-1.42366611"><ele>16.799999</ele><time>2017-11-18T10:51:58Z</time></trkpt>
<trkpt lat="47.15065167" lon="-1.42377000"><ele>16.799999</ele><time>2017-11-18T10:52:00Z</time></trkpt>
<trkpt lat="47.15075033" lon="-1.42388533"><ele>16.6</ele><time>2017-11-18T10:52:03Z</time></trkpt>
<trkpt lat="47.15084278" lon="-1.42399778"><ele>16.299999</ele><time>2017-11-18T10:52:05Z</time></trkpt>
<trkpt lat="47.15090056" lon="-1.42410833"><ele>16.6</ele><time>2017-11-18T10:52:07Z</time></trkpt>
<trkpt lat="47.15092556" lon="-1.42423278"><ele>17.1</ele><time>2017-11-18T10:52:09Z</time></trkpt>
<trkpt lat="47.15094889" lon="-1.42434500"><ele>16.799999</ele><time>2017-11-18T10:52:11Z</time></trkpt>
<trkpt lat="47.15099000" lon="-1.42446067"><ele>17</ele><time>2017-11-18T10:52:14Z</time></trkpt>
<trkpt lat="47.15104056" lon="-1.42457111"><ele>17.700001</ele><time>2017-11-18T10:52:16Z</time></trkpt>
<trkpt lat="47.15109533" lon="-1.42467667"><ele>17.6</ele><time>2017-11-18T10:52:19Z</time></trkpt>
<trkpt lat="47.15115933" lon="-1.42480000"><ele>17.200001</ele><time>2017-11-18T10:52:22Z</time></trkpt>
<trkpt lat="47.15122533" lon="-1.42492667"><ele>16.200001</ele><time>2017-11-18T10:52:25Z</time></trkpt>
<trkpt lat="47.15128944" lon="-1.42502833"><ele>15.9</ele><time>2017-11-18T10:52:28Z</time></trkpt>
<trkpt lat="47.15136700" lon="-1.42514267"><ele>16.5</ele><time>2017-11-18T10:52:30Z</time></trkpt>
<trkpt lat="47.15146667" lon="-1.42526033"><ele>17.6</ele><time>2017-11-18T10:52:33Z</time></trkpt>
<trkpt lat="47.15156667" lon="-1.42537567"><ele>18.5</ele><time>2017-11-18T10:52:36Z</time></trkpt>
<trkpt lat="47.15166700" lon="-1.42549233"><ele>19.200001</ele><time>2017-11-18T10:52:39Z</time></trkpt>
<trkpt lat="47.15175000" lon="-1.42562267"><ele>19.799999</ele><time>2017-11-18T10:52:42Z</time></trkpt>
<trkpt lat="47.15181400" lon="-1.42574733"><ele>20.700001</ele><time>2017-11-18T10:52:45Z</time></trkpt>
<trkpt lat="47.15186700" lon="-1.42585200"><ele>21.6</ele><time>2017-11-18T10:52:48Z</time></trkpt>
<trkpt lat="47.15192033" lon="-1.42594700"><ele>22.5</ele><time>2017-11-18T10:52:51Z</time></trkpt>
<trkpt lat="47.15197267" lon="-1.42604867"><ele>23.799999</ele><time>2017-11-18T10:52:54Z</time></trkpt>
<trkpt lat="47.15201600" lon="-1.42616400"><ele>24.4</ele><time>2017-11-18T10:52:57Z</time></trkpt>
<trkpt lat="47.15206233" lon="-1.42629600"><ele>24.799999</ele><time>2017-11-18T10:53:00Z</time></trkpt>
<trkpt lat="47.15212767" lon="-1.42641333"><ele>25.700001</ele><time>2017-11-18T10:53:03Z</time></trkpt>
<trkpt lat="47.15219633" lon="-1.42651067"><ele>26.9</ele><time>2017-11-18T10:53:06Z</time></trkpt>
<trkpt lat="47.15225933" lon="-1.42660533"><ele>27</ele><time>2017-11-18T10:53:09Z</time></trkpt>
<trkpt lat="47.15230733" lon="-1.42671000"><ele>27.4</ele><time>2017-11-18T10:53:12Z</time></trkpt>
<trkpt lat="47.15234400" lon="-1.42682367"><ele>28.4</ele><time>2017-11-18T10:53:15Z</time></trkpt>
<trkpt lat="47.15236722" lon="-1.42692667"><ele>29</ele><time>2017-11-18T10:53:17Z</time></trkpt>
<trkpt lat="47.15237889" lon="-1.42701889"><ele>29</ele><time>2017-11-18T10:53:19Z</time></trkpt>
<trkpt lat="47.15238417" lon="-1.42710750"><ele>29.1</ele><time>2017-11-18T10:53:21Z</time></trkpt>
<trkpt lat="47.15239056" lon="-1.42721500"><ele>29.5</ele><time>2017-11-18T10:53:23Z</time></trkpt>
<trkpt lat="47.15240111" lon="-1.42731111"><ele>29.5</ele><time>2017-11-18T10:53:25Z</time></trkpt>
<trkpt lat="47.15242000" lon="-1.42742167"><ele>29.799999</ele><time>2017-11-18T10:53:28Z</time></trkpt>
<trkpt lat="47.15243278" lon="-1.42750111"><ele>30.4</ele><time>2017-11-18T10:53:29Z</time></trkpt>
<trkpt lat="47.15245250" lon="-1.42761333"><ele>31</ele><time>2017-11-18T10:53:32Z</time></trkpt>
<trkpt lat="47.15247767" lon="-1.42773800"><ele>31.1</ele><time>2017-11-18T10:53:35Z</time></trkpt>
<trkpt lat="47.15249556" lon="-1.42785333"><ele>31.200001</ele><time>2017-11-18T10:53:38Z</time></trkpt>
<trkpt lat="47.15251500" lon="-1.42795833"><ele>31.299999</ele><time>2017-11-18T10:53:39Z</time></trkpt>
<trkpt lat="47.15253056" lon="-1.42807222"><ele>31.6</ele><time>2017-11-18T10:53:41Z</time></trkpt>
<trkpt lat="47.15254889" lon="-1.42819000"><ele>31.799999</ele><time>2017-11-18T10:53:43Z</time></trkpt>
<trkpt lat="47.15256944" lon="-1.42831667"><ele>31.200001</ele><time>2017-11-18T10:53:45Z</time></trkpt>
<trkpt lat="47.15259667" lon="-1.42848500"><ele>29.299999</ele><time>2017-11-18T10:53:47Z</time></trkpt>
<trkpt lat="47.15261333" lon="-1.42861000"><ele>28.700001</ele><time>2017-11-18T10:53:49Z</time></trkpt>
<trkpt lat="47.15262444" lon="-1.42876389"><ele>28.9</ele><time>2017-11-18T10:53:52Z</time></trkpt>
<trkpt lat="47.15262778" lon="-1.42891889"><ele>28.9</ele><time>2017-11-18T10:53:53Z</time></trkpt>
<trkpt lat="47.15263611" lon="-1.42907833"><ele>29</ele><time>2017-11-18T10:53:55Z</time></trkpt>
<trkpt lat="47.15265389" lon="-1.42923000"><ele>29.1</ele><time>2017-11-18T10:53:57Z</time></trkpt>
<trkpt lat="47.15267611" lon="-1.42936722"><ele>29.299999</ele><time>2017-11-18T10:53:59Z</time></trkpt>
<trkpt lat="47.15269056" lon="-1.42948444"><ele>29.9</ele><time>2017-11-18T10:54:01Z</time></trkpt>
<trkpt lat="47.15266556" lon="-1.42959389"><ele>29.9</ele><time>2017-11-18T10:54:03Z</time></trkpt>
<trkpt lat="47.15259167" lon="-1.42969533"><ele>30.1</ele><time>2017-11-18T10:54:06Z</time></trkpt>
<trkpt lat="47.15250524" lon="-1.42980024"><ele>31.4</ele><time>2017-11-18T10:54:09Z</time></trkpt>
<trkpt lat="47.15240667" lon="-1.42987444"><ele>35.400002</ele><time>2017-11-18T10:54:13Z</time></trkpt>
<trkpt lat="47.15233708" lon="-1.42995750"><ele>34.099998</ele><time>2017-11-18T10:54:17Z</time></trkpt>
<trkpt lat="47.15235056" lon="-1.43005722"><ele>32.799999</ele><time>2017-11-18T10:54:19Z</time></trkpt>
<trkpt lat="47.15239667" lon="-1.43015556"><ele>32.299999</ele><time>2017-11-18T10:54:21Z</time></trkpt>
<trkpt lat="47.15245778" lon="-1.43026333"><ele>32</ele><time>2017-11-18T10:54:23Z</time></trkpt>
<trkpt lat="47.15251611" lon="-1.43038889"><ele>31.5</ele><time>2017-11-18T10:54:25Z</time></trkpt>
<trkpt lat="47.15257056" lon="-1.43054500"><ele>29</ele><time>2017-11-18T10:54:27Z</time></trkpt>
<trkpt lat="47.15260667" lon="-1.43066667"><ele>27.4</ele><time>2017-11-18T10:54:29Z</time></trkpt>
<trkpt lat="47.15263167" lon="-1.43076000"><ele>26.299999</ele><time>2017-11-18T10:54:30Z</time></trkpt>
<trkpt lat="47.15266000" lon="-1.43086000"><ele>24.9</ele><time>2017-11-18T10:54:30Z</time></trkpt>
<trkpt lat="47.15269167" lon="-1.43095833"><ele>23.9</ele><time>2017-11-18T10:54:32Z</time></trkpt>
<trkpt lat="47.15272667" lon="-1.43105667"><ele>22.700001</ele><time>2017-11-18T10:54:32Z</time></trkpt>
<trkpt lat="47.15276000" lon="-1.43116000"><ele>21.200001</ele><time>2017-11-18T10:54:34Z</time></trkpt>
<trkpt lat="47.15279500" lon="-1.43126500"><ele>20</ele><time>2017-11-18T10:54:34Z</time></trkpt>
<trkpt lat="47.15283333" lon="-1.43137833"><ele>18.9</ele><time>2017-11-18T10:54:36Z</time></trkpt>
<trkpt lat="47.15287333" lon="-1.43149500"><ele>17.9</ele><time>2017-11-18T10:54:37Z</time></trkpt>
<trkpt lat="47.15291500" lon="-1.43160833"><ele>17.299999</ele><time>2017-11-18T10:54:37Z</time></trkpt>
<trkpt lat="47.15295667" lon="-1.43172000"><ele>16.5</ele><time>2017-11-18T10:54:39Z</time></trkpt>
<trkpt lat="47.15299500" lon="-1.43183000"><ele>15.8</ele><time>2017-11-18T10:54:39Z</time></trkpt>
<trkpt lat="47.15303000" lon="-1.43193667"><ele>15.2</ele><time>2017-11-18T10:54:41Z</time></trkpt>
<trkpt lat="47.15306000" lon="-1.43204667"><ele>14.7</ele><time>2017-11-18T10:54:42Z</time></trkpt>
<trkpt lat="47.15308333" lon="-1.43215833"><ele>14.3</ele><time>2017-11-18T10:54:42Z</time></trkpt>
<trkpt lat="47.15309667" lon="-1.43227500"><ele>14</ele><time>2017-11-18T10:54:44Z</time></trkpt>
<trkpt lat="47.15309500" lon="-1.43239500"><ele>13.8</ele><time>2017-11-18T10:54:44Z</time></trkpt>
<trkpt lat="47.15308333" lon="-1.43251167"><ele>13.3</ele><time>2017-11-18T10:54:46Z</time></trkpt>
<trkpt lat="47.15306500" lon="-1.43262833"><ele>13.5</ele><time>2017-11-18T10:54:48Z</time></trkpt>
<trkpt lat="47.15304167" lon="-1.43274167"><ele>13.6</ele><time>2017-11-18T10:54:48Z</time></trkpt>
<trkpt lat="47.15301667" lon="-1.43284833"><ele>13.8</ele><time>2017-11-18T10:54:48Z</time></trkpt>
<trkpt lat="47.15299000" lon="-1.43295333"><ele>13.6</ele><time>2017-11-18T10:54:49Z</time></trkpt>
<trkpt lat="47.15296333" lon="-1.43305667"><ele>13.6</ele><time>2017-11-18T10:54:51Z</time></trkpt>
<trkpt lat="47.15293333" lon="-1.43315833"><ele>13.6</ele><time>2017-11-18T10:54:51Z</time></trkpt>
<trkpt lat="47.15290500" lon="-1.43326167"><ele>13.7</ele><time>2017-11-18T10:54:53Z</time></trkpt>
<trkpt lat="47.15287833" lon="-1.43336667"><ele>13.6</ele><time>2017-11-18T10:54:53Z</time></trkpt>
<trkpt lat="47.15285833" lon="-1.43347333"><ele>13.7</ele><time>2017-11-18T10:54:55Z</time></trkpt>
<trkpt lat="47.15284333" lon="-1.43358000"><ele>13.9</ele><time>2017-11-18T10:54:55Z</time></trkpt>
<trkpt lat="47.15283167" lon="-1.43368833"><ele>14</ele><time>2017-11-18T10:54:56Z</time></trkpt>
<trkpt lat="47.15282333" lon="-1.43379500"><ele>13.9</ele><time>2017-11-18T10:54:58Z</time></trkpt>
<trkpt lat="47.15281667" lon="-1.43390333"><ele>13.7</ele><time>2017-11-18T10:54:58Z</time></trkpt>
<trkpt lat="47.15280833" lon="-1.43401000"><ele>14.1</ele><time>2017-11-18T10:55:00Z</time></trkpt>
<trkpt lat="47.15281833" lon="-1.43411500"><ele>14</ele><time>2017-11-18T10:55:00Z</time></trkpt>
<trkpt lat="47.15282833" lon="-1.43422000"><ele>14</ele><time>2017-11-18T10:55:03Z</time></trkpt>
<trkpt lat="47.15284000" lon="-1.43432333"><ele>14.4</ele><time>2017-11-18T10:55:03Z</time></trkpt>
<trkpt lat="47.15285500" lon="-1.43442667"><ele>14.8</ele><time>2017-11-18T10:55:03Z</time></trkpt>
<trkpt lat="47.15287000" lon="-1.43453000"><ele>14.6</ele><time>2017-11-18T10:55:05Z</time></trkpt>
<trkpt lat="47.15289333" lon="-1.43463000"><ele>14.7</ele><time>2017-11-18T10:55:05Z</time></trkpt>
<trkpt lat="47.15291500" lon="-1.43472833"><ele>15.1</ele><time>2017-11-18T10:55:07Z</time></trkpt>
<trkpt lat="47.15294167" lon="-1.43482333"><ele>15.5</ele><time>2017-11-18T10:55:07Z</time></trkpt>
<trkpt lat="47.15297333" lon="-1.43491667"><ele>16</ele><time>2017-11-18T10:55:09Z</time></trkpt>
<trkpt lat="47.15300333" lon="-1.43501000"><ele>16.1</ele><time>2017-11-18T10:55:10Z</time></trkpt>
<trkpt lat="47.15305000" lon="-1.43515833"><ele>15.4</ele><time>2017-11-18T10:55:12Z</time></trkpt>
<trkpt lat="47.15309889" lon="-1.43532333"><ele>15.4</ele><time>2017-11-18T10:55:13Z</time></trkpt>
<trkpt lat="47.15312722" lon="-1.43549889"><ele>14.6</ele><time>2017-11-18T10:55:15Z</time></trkpt>
<trkpt lat="47.15315500" lon="-1.43570000"><ele>14.4</ele><time>2017-11-18T10:55:17Z</time></trkpt>
<trkpt lat="47.15317056" lon="-1.43584444"><ele>14</ele><time>2017-11-18T10:55:19Z</time></trkpt>
<trkpt lat="47.15317556" lon="-1.43601167"><ele>13.9</ele><time>2017-11-18T10:55:21Z</time></trkpt>
<trkpt lat="47.15316278" lon="-1.43616111"><ele>14.5</ele><time>2017-11-18T10:55:23Z</time></trkpt>
<trkpt lat="47.15315944" lon="-1.43630833"><ele>14.6</ele><time>2017-11-18T10:55:25Z</time></trkpt>
<trkpt lat="47.15317000" lon="-1.43649500"><ele>15.4</ele><time>2017-11-18T10:55:28Z</time></trkpt>
<trkpt lat="47.15316444" lon="-1.43663722"><ele>15.6</ele><time>2017-11-18T10:55:29Z</time></trkpt>
<trkpt lat="47.15314667" lon="-1.43677167"><ele>11.8</ele><time>2017-11-18T10:55:31Z</time></trkpt>
<trkpt lat="47.15312000" lon="-1.43694833"><ele>8.6</ele><time>2017-11-18T10:55:33Z</time></trkpt>
<trkpt lat="47.15310722" lon="-1.43707833"><ele>8.9</ele><time>2017-11-18T10:55:34Z</time></trkpt>
<trkpt lat="47.15309389" lon="-1.43724611"><ele>9.3</ele><time>2017-11-18T10:55:36Z</time></trkpt>
<trkpt lat="47.15309833" lon="-1.43740556"><ele>10.5</ele><time>2017-11-18T10:55:38Z</time></trkpt>
<trkpt lat="47.15310778" lon="-1.43755000"><ele>11</ele><time>2017-11-18T10:55:40Z</time></trkpt>
<trkpt lat="47.15312500" lon="-1.43769389"><ele>12.1</ele><time>2017-11-18T10:55:42Z</time></trkpt>
<trkpt lat="47.15314389" lon="-1.43784222"><ele>13.8</ele><time>2017-11-18T10:55:44Z</time></trkpt>
<trkpt lat="47.15314833" lon="-1.43798722"><ele>15.9</ele><time>2017-11-18T10:55:47Z</time></trkpt>
<trkpt lat="47.15314000" lon="-1.43813944"><ele>16.700001</ele><time>2017-11-18T10:55:48Z</time></trkpt>
<trkpt lat="47.15312778" lon="-1.43828056"><ele>17.200001</ele><time>2017-11-18T10:55:50Z</time></trkpt>
<trkpt lat="47.15308611" lon="-1.43840278"><ele>16.200001</ele><time>2017-11-18T10:55:52Z</time></trkpt>
<trkpt lat="47.15304000" lon="-1.43851667"><ele>18.700001</ele><time>2017-11-18T10:55:54Z</time></trkpt>
<trkpt lat="47.15299583" lon="-1.43861917"><ele>22.299999</ele><time>2017-11-18T10:55:56Z</time></trkpt>
<trkpt lat="47.15291889" lon="-1.43873944"><ele>24.4</ele><time>2017-11-18T10:55:58Z</time></trkpt>
<trkpt lat="47.15288000" lon="-1.43884056"><ele>24.9</ele><time>2017-11-18T10:56:00Z</time></trkpt>
<trkpt lat="47.15288722" lon="-1.43893111"><ele>26.200001</ele><time>2017-11-18T10:56:03Z</time></trkpt>
<trkpt lat="47.15292667" lon="-1.43904167"><ele>26.700001</ele><time>2017-11-18T10:56:04Z</time></trkpt>
<trkpt lat="47.15297750" lon="-1.43914583"><ele>24.4</ele><time>2017-11-18T10:56:06Z</time></trkpt>
<trkpt lat="47.15305111" lon="-1.43925667"><ele>24.200001</ele><time>2017-11-18T10:56:08Z</time></trkpt>
<trkpt lat="47.15311889" lon="-1.43935389"><ele>24.200001</ele><time>2017-11-18T10:56:10Z</time></trkpt>
<trkpt lat="47.15320750" lon="-1.43947917"><ele>24.6</ele><time>2017-11-18T10:56:13Z</time></trkpt>
<trkpt lat="47.15327900" lon="-1.43958533"><ele>24.299999</ele><time>2017-11-18T10:56:16Z</time></trkpt>
<trkpt lat="47.15336233" lon="-1.43969933"><ele>23.799999</ele><time>2017-11-18T10:56:19Z</time></trkpt>
<trkpt lat="47.15345167" lon="-1.43982133"><ele>23.6</ele><time>2017-11-18T10:56:22Z</time></trkpt>
<trkpt lat="47.15352889" lon="-1.43992833"><ele>23.200001</ele><time>2017-11-18T10:56:24Z</time></trkpt>
<trkpt lat="47.15359000" lon="-1.44001250"><ele>22.6</ele><time>2017-11-18T10:56:26Z</time></trkpt>
<trkpt lat="47.15366333" lon="-1.44012111"><ele>21.700001</ele><time>2017-11-18T10:56:28Z</time></trkpt>
<trkpt lat="47.15373444" lon="-1.44023333"><ele>20.799999</ele><time>2017-11-18T10:56:30Z</time></trkpt>
<trkpt lat="47.15381167" lon="-1.44039167"><ele>20.1</ele><time>2017-11-18T10:56:32Z</time></trkpt>
<trkpt lat="47.15384833" lon="-1.44053000"><ele>19.6</ele><time>2017-11-18T10:56:34Z</time></trkpt>
<trkpt lat="47.15386500" lon="-1.44070167"><ele>19.1</ele><time>2017-11-18T10:56:36Z</time></trkpt>
<trkpt lat="47.15384611" lon="-1.44086889"><ele>18.5</ele><time>2017-11-18T10:56:38Z</time></trkpt>
<trkpt lat="47.15382167" lon="-1.44102000"><ele>18.200001</ele><time>2017-11-18T10:56:40Z</time></trkpt>
<trkpt lat="47.15379000" lon="-1.44115500"><ele>16</ele><time>2017-11-18T10:56:42Z</time></trkpt>
<trkpt lat="47.15370704" lon="-1.44120815"><ele>13.7</ele><time>2017-11-18T10:56:46Z</time></trkpt>
<trkpt lat="47.15369222" lon="-1.44105778"><ele>10.8</ele><time>2017-11-18T10:56:49Z</time></trkpt>
<trkpt lat="47.15373056" lon="-1.44092667"><ele>9.1</ele><time>2017-11-18T10:56:51Z</time></trkpt>
<trkpt lat="47.15375667" lon="-1.44077333"><ele>8</ele><time>2017-11-18T10:56:53Z</time></trkpt>
<trkpt lat="47.15372833" lon="-1.44060611"><ele>8.9</ele><time>2017-11-18T10:56:55Z</time></trkpt>
<trkpt lat="47.15365833" lon="-1.44045167"><ele>8.7</ele><time>2017-11-18T10:56:58Z</time></trkpt>
<trkpt lat="47.15358533" lon="-1.44040667"><ele>7.9</ele><time>2017-11-18T10:57:00Z</time></trkpt>
<trkpt lat="47.15349200" lon="-1.44050000"><ele>7.7</ele><time>2017-11-18T10:57:03Z</time></trkpt>
<trkpt lat="47.15342778" lon="-1.44062333"><ele>7.6</ele><time>2017-11-18T10:57:05Z</time></trkpt>
<trkpt lat="47.15336611" lon="-1.44072944"><ele>8.2</ele><time>2017-11-18T10:57:07Z</time></trkpt>
<trkpt lat="47.15330111" lon="-1.44083333"><ele>8</ele><time>2017-11-18T10:57:09Z</time></trkpt>
<trkpt lat="47.15323667" lon="-1.44093333"><ele>8.1</ele><time>2017-11-18T10:57:11Z</time></trkpt>
<trkpt lat="47.15315500" lon="-1.44105556"><ele>8.5</ele><time>2017-11-18T10:57:13Z</time></trkpt>
<trkpt lat="47.15308167" lon="-1.44116889"><ele>8.9</ele><time>2017-11-18T10:57:15Z</time></trkpt>
<trkpt lat="47.15299833" lon="-1.44128833"><ele>9</ele><time>2017-11-18T10:57:18Z</time></trkpt>
<trkpt lat="47.15294111" lon="-1.44137556"><ele>8.9</ele><time>2017-11-18T10:57:19Z</time></trkpt>
<trkpt lat="47.15287333" lon="-1.44148722"><ele>9</ele><time>2017-11-18T10:57:21Z</time></trkpt>
<trkpt lat="47.15280333" lon="-1.44159944"><ele>9.3</ele><time>2017-11-18T10:57:23Z</time></trkpt>
<trkpt lat="47.15273444" lon="-1.44171389"><ele>9.2</ele><time>2017-11-18T10:57:25Z</time></trkpt>
<trkpt lat="47.15266667" lon="-1.44183444"><ele>9.4</ele><time>2017-11-18T10:57:28Z</time></trkpt>
<trkpt lat="47.15259722" lon="-1.44195111"><ele>9.7</ele><time>2017-11-18T10:57:29Z</time></trkpt>
<trkpt lat="47.15252556" lon="-1.44206111"><ele>10.5</ele><time>2017-11-18T10:57:31Z</time></trkpt>
<trkpt lat="47.15245667" lon="-1.44218000"><ele>10.6</ele><time>2017-11-18T10:57:33Z</time></trkpt>
<trkpt lat="47.15239167" lon="-1.44231111"><ele>10.5</ele><time>2017-11-18T10:57:35Z</time></trkpt>
<trkpt lat="47.15233556" lon="-1.44244778"><ele>10.3</ele><time>2017-11-18T10:57:37Z</time></trkpt>
<trkpt lat="47.15228111" lon="-1.44257333"><ele>9.9</ele><time>2017-11-18T10:57:39Z</time></trkpt>
<trkpt lat="47.15223250" lon="-1.44269000"><ele>9.6</ele><time>2017-11-18T10:57:41Z</time></trkpt>
<trkpt lat="47.15221889" lon="-1.44284667"><ele>9.9</ele><time>2017-11-18T10:57:43Z</time></trkpt>
<trkpt lat="47.15226500" lon="-1.44298722"><ele>10.1</ele><time>2017-11-18T10:57:45Z</time></trkpt>
<trkpt lat="47.15233167" lon="-1.44311722"><ele>10.8</ele><time>2017-11-18T10:57:47Z</time></trkpt>
<trkpt lat="47.15240611" lon="-1.44324389"><ele>11.2</ele><time>2017-11-18T10:57:49Z</time></trkpt>
<trkpt lat="47.15247056" lon="-1.44337444"><ele>12</ele><time>2017-11-18T10:57:51Z</time></trkpt>
<trkpt lat="47.15251889" lon="-1.44351333"><ele>13.1</ele><time>2017-11-18T10:57:53Z</time></trkpt>
<trkpt lat="47.15256667" lon="-1.44365111"><ele>13.2</ele><time>2017-11-18T10:57:55Z</time></trkpt>
<trkpt lat="47.15263000" lon="-1.44382000"><ele>13.6</ele><time>2017-11-18T10:57:58Z</time></trkpt>
<trkpt lat="47.15267778" lon="-1.44394722"><ele>14</ele><time>2017-11-18T10:57:59Z</time></trkpt>
<trkpt lat="47.15274167" lon="-1.44408889"><ele>14.3</ele><time>2017-11-18T10:58:01Z</time></trkpt>
<trkpt lat="47.15279500" lon="-1.44424000"><ele>14.8</ele><time>2017-11-18T10:58:03Z</time></trkpt>
<trkpt lat="47.15284667" lon="-1.44438222"><ele>15.1</ele><time>2017-11-18T10:58:05Z</time></trkpt>
<trkpt lat="47.15289500" lon="-1.44451278"><ele>15.1</ele><time>2017-11-18T10:58:08Z</time></trkpt>
<trkpt lat="47.15295111" lon="-1.44465000"><ele>14.9</ele><time>2017-11-18T10:58:09Z</time></trkpt>
<trkpt lat="47.15301611" lon="-1.44479000"><ele>14.7</ele><time>2017-11-18T10:58:11Z</time></trkpt>
<trkpt lat="47.15308056" lon="-1.44493222"><ele>14.6</ele><time>2017-11-18T10:58:13Z</time></trkpt>
<trkpt lat="47.15314389" lon="-1.44507889"><ele>14.7</ele><time>2017-11-18T10:58:15Z</time></trkpt>
<trkpt lat="47.15321556" lon="-1.44521889"><ele>14.6</ele><time>2017-11-18T10:58:17Z</time></trkpt>
<trkpt lat="47.15329333" lon="-1.44535167"><ele>14.3</ele><time>2017-11-18T10:58:19Z</time></trkpt>
<trkpt lat="47.15337083" lon="-1.44546583"><ele>14.1</ele><time>2017-11-18T10:58:21Z</time></trkpt>
<trkpt lat="47.15345444" lon="-1.44559278"><ele>13.7</ele><time>2017-11-18T10:58:23Z</time></trkpt>
<trkpt lat="47.15352389" lon="-1.44570000"><ele>13.7</ele><time>2017-11-18T10:58:25Z</time></trkpt>
<trkpt lat="47.15362833" lon="-1.44583250"><ele>13.3</ele><time>2017-11-18T10:58:28Z</time></trkpt>
<trkpt lat="47.15373433" lon="-1.44593000"><ele>13.2</ele><time>2017-11-18T10:58:31Z</time></trkpt>
<trkpt lat="47.15384167" lon="-1.44603000"><ele>13.2</ele><time>2017-11-18T10:58:34Z</time></trkpt>
<trkpt lat="47.15393833" lon="-1.44609900"><ele>13.6</ele><time>2017-11-18T10:58:37Z</time></trkpt>
<trkpt lat="47.15404900" lon="-1.44617967"><ele>13.7</ele><time>2017-11-18T10:58:40Z</time></trkpt>
<trkpt lat="47.15413667" lon="-1.44628111"><ele>13.4</ele><time>2017-11-18T10:58:42Z</time></trkpt>
<trkpt lat="47.15418389" lon="-1.44642222"><ele>11.9</ele><time>2017-11-18T10:58:44Z</time></trkpt>
<trkpt lat="47.15422111" lon="-1.44658389"><ele>10.9</ele><time>2017-11-18T10:58:46Z</time></trkpt>
<trkpt lat="47.15423667" lon="-1.44675444"><ele>10.9</ele><time>2017-11-18T10:58:48Z</time></trkpt>
<trkpt lat="47.15424500" lon="-1.44691833"><ele>11.3</ele><time>2017-11-18T10:58:50Z</time></trkpt>
<trkpt lat="47.15426667" lon="-1.44707333"><ele>10.9</ele><time>2017-11-18T10:58:53Z</time></trkpt>
<trkpt lat="47.15428167" lon="-1.44719000"><ele>11.2</ele><time>2017-11-18T10:58:54Z</time></trkpt>
<trkpt lat="47.15428889" lon="-1.44728389"><ele>12.1</ele><time>2017-11-18T10:58:56Z</time></trkpt>
<trkpt lat="47.15427944" lon="-1.44737944"><ele>13.4</ele><time>2017-11-18T10:58:58Z</time></trkpt>
<trkpt lat="47.15427167" lon="-1.44747389"><ele>13.2</ele><time>2017-11-18T10:59:00Z</time></trkpt>
<trkpt lat="47.15427000" lon="-1.44759389"><ele>10.6</ele><time>2017-11-18T10:59:02Z</time></trkpt>
<trkpt lat="47.15425944" lon="-1.44772278"><ele>10.3</ele><time>2017-11-18T10:59:04Z</time></trkpt>
<trkpt lat="47.15425056" lon="-1.44785167"><ele>10.5</ele><time>2017-11-18T10:59:06Z</time></trkpt>
<trkpt lat="47.15425444" lon="-1.44798611"><ele>9.2</ele><time>2017-11-18T10:59:08Z</time></trkpt>
<trkpt lat="47.15426056" lon="-1.44811222"><ele>8.8</ele><time>2017-11-18T10:59:10Z</time></trkpt>
<trkpt lat="47.15426611" lon="-1.44824556"><ele>9.1</ele><time>2017-11-18T10:59:12Z</time></trkpt>
<trkpt lat="47.15427611" lon="-1.44838944"><ele>9.8</ele><time>2017-11-18T10:59:14Z</time></trkpt>
<trkpt lat="47.15429583" lon="-1.44851833"><ele>9.4</ele><time>2017-11-18T10:59:16Z</time></trkpt>
<trkpt lat="47.15432111" lon="-1.44866500"><ele>8.9</ele><time>2017-11-18T10:59:18Z</time></trkpt>
<trkpt lat="47.15433667" lon="-1.44878944"><ele>9.8</ele><time>2017-11-18T10:59:20Z</time></trkpt>
<trkpt lat="47.15432222" lon="-1.44890833"><ele>11</ele><time>2017-11-18T10:59:22Z</time></trkpt>
<trkpt lat="47.15429944" lon="-1.44903500"><ele>10.8</ele><time>2017-11-18T10:59:24Z</time></trkpt>
<trkpt lat="47.15427611" lon="-1.44915278"><ele>10.2</ele><time>2017-11-18T10:59:26Z</time></trkpt>
<trkpt lat="47.15427500" lon="-1.44927889"><ele>10.4</ele><time>2017-11-18T10:59:28Z</time></trkpt>
<trkpt lat="47.15428611" lon="-1.44941222"><ele>9.1</ele><time>2017-11-18T10:59:30Z</time></trkpt>
<trkpt lat="47.15429833" lon="-1.44952333"><ele>9.2</ele><time>2017-11-18T10:59:32Z</time></trkpt>
<trkpt lat="47.15429167" lon="-1.44964111"><ele>8.7</ele><time>2017-11-18T10:59:34Z</time></trkpt>
<trkpt lat="47.15427056" lon="-1.44978278"><ele>9.6</ele><time>2017-11-18T10:59:37Z</time></trkpt>
<trkpt lat="47.15424611" lon="-1.44992222"><ele>10.7</ele><time>2017-11-18T10:59:38Z</time></trkpt>
<trkpt lat="47.15421778" lon="-1.45005889"><ele>11.9</ele><time>2017-11-18T10:59:40Z</time></trkpt>
<trkpt lat="47.15419611" lon="-1.45019667"><ele>13.2</ele><time>2017-11-18T10:59:42Z</time></trkpt>
<trkpt lat="47.15417944" lon="-1.45034389"><ele>13.9</ele><time>2017-11-18T10:59:44Z</time></trkpt>
<trkpt lat="47.15416722" lon="-1.45050389"><ele>14.8</ele><time>2017-11-18T10:59:46Z</time></trkpt>
<trkpt lat="47.15416722" lon="-1.45067333"><ele>15.2</ele><time>2017-11-18T10:59:48Z</time></trkpt>
<trkpt lat="47.15417556" lon="-1.45083444"><ele>14.8</ele><time>2017-11-18T10:59:50Z</time></trkpt>
<trkpt lat="47.15419389" lon="-1.45098222"><ele>15.4</ele><time>2017-11-18T10:59:52Z</time></trkpt>
<trkpt lat="47.15422833" lon="-1.45111778"><ele>15.9</ele><time>2017-11-18T10:59:54Z</time></trkpt>
<trkpt lat="47.15427500" lon="-1.45123267"><ele>14.5</ele><time>2017-11-18T10:59:57Z</time></trkpt>
<trkpt lat="47.15430278" lon="-1.45134889"><ele>13.9</ele><time>2017-11-18T10:59:59Z</time></trkpt>
<trkpt lat="47.15432056" lon="-1.45145889"><ele>15</ele><time>2017-11-18T11:00:01Z</time></trkpt>
<trkpt lat="47.15434778" lon="-1.45157278"><ele>16.1</ele><time>2017-11-18T11:00:03Z</time></trkpt>
<trkpt lat="47.15437944" lon="-1.45169500"><ele>15.5</ele><time>2017-11-18T11:00:05Z</time></trkpt>
<trkpt lat="47.15441667" lon="-1.45182000"><ele>16.200001</ele><time>2017-11-18T11:00:07Z</time></trkpt>
<trkpt lat="47.15445278" lon="-1.45195167"><ele>16</ele><time>2017-11-18T11:00:09Z</time></trkpt>
<trkpt lat="47.15449333" lon="-1.45208722"><ele>17</ele><time>2017-11-18T11:00:12Z</time></trkpt>
<trkpt lat="47.15453833" lon="-1.45221500"><ele>17.9</ele><time>2017-11-18T11:00:13Z</time></trkpt>
<trkpt lat="47.15461900" lon="-1.45230533"><ele>18.799999</ele><time>2017-11-18T11:00:16Z</time></trkpt>
<trkpt lat="47.15473433" lon="-1.45231767"><ele>18.4</ele><time>2017-11-18T11:00:19Z</time></trkpt>
<trkpt lat="47.15486417" lon="-1.45233583"><ele>16.9</ele><time>2017-11-18T11:00:22Z</time></trkpt>
<trkpt lat="47.15497889" lon="-1.45235167"><ele>15.8</ele><time>2017-11-18T11:00:24Z</time></trkpt>
<trkpt lat="47.15507417" lon="-1.45236833"><ele>14.5</ele><time>2017-11-18T11:00:26Z</time></trkpt>
<trkpt lat="47.15517889" lon="-1.45237222"><ele>14</ele><time>2017-11-18T11:00:28Z</time></trkpt>
<trkpt lat="47.15530200" lon="-1.45233533"><ele>13</ele><time>2017-11-18T11:00:31Z</time></trkpt>
<trkpt lat="47.15541889" lon="-1.45224722"><ele>12</ele><time>2017-11-18T11:00:34Z</time></trkpt>
<trkpt lat="47.15547889" lon="-1.45216333"><ele>11.3</ele><time>2017-11-18T11:00:38Z</time></trkpt>
<trkpt lat="47.15547972" lon="-1.45208500"><ele>11.2</ele><time>2017-11-18T11:00:42Z</time></trkpt>
<trkpt lat="47.15551071" lon="-1.45197310"><ele>13.5</ele><time>2017-11-18T11:00:51Z</time></trkpt>
<trkpt lat="47.15551333" lon="-1.45187214"><ele>13.4</ele><time>2017-11-18T11:00:55Z</time></trkpt>
<trkpt lat="47.15549533" lon="-1.45177033"><ele>14.7</ele><time>2017-11-18T11:00:59Z</time></trkpt>
<trkpt lat="47.15546167" lon="-1.45166667"><ele>15.2</ele><time>2017-11-18T11:01:02Z</time></trkpt>
<trkpt lat="47.15543467" lon="-1.45155733"><ele>15.7</ele><time>2017-11-18T11:01:05Z</time></trkpt>
<trkpt lat="47.15540833" lon="-1.45144933"><ele>16</ele><time>2017-11-18T11:01:08Z</time></trkpt>
<trkpt lat="47.15538500" lon="-1.45134625"><ele>16.1</ele><time>2017-11-18T11:01:11Z</time></trkpt>
<trkpt lat="47.15536067" lon="-1.45123100"><ele>16.5</ele><time>2017-11-18T11:01:14Z</time></trkpt>
<trkpt lat="47.15534067" lon="-1.45112567"><ele>17</ele><time>2017-11-18T11:01:17Z</time></trkpt>
<trkpt lat="47.15535533" lon="-1.45101833"><ele>17.200001</ele><time>2017-11-18T11:01:20Z</time></trkpt>
<trkpt lat="47.15540810" lon="-1.45092357"><ele>17.200001</ele><time>2017-11-18T11:01:23Z</time></trkpt>
<trkpt lat="47.15551167" lon="-1.45086200"><ele>17.700001</ele><time>2017-11-18T11:01:27Z</time></trkpt>
<trkpt lat="47.15561233" lon="-1.45081600"><ele>17.9</ele><time>2017-11-18T11:01:30Z</time></trkpt>
<trkpt lat="47.15572033" lon="-1.45075800"><ele>18</ele><time>2017-11-18T11:01:33Z</time></trkpt>
<trkpt lat="47.15584267" lon="-1.45068800"><ele>17.799999</ele><time>2017-11-18T11:01:36Z</time></trkpt>
<trkpt lat="47.15596667" lon="-1.45062533"><ele>18.200001</ele><time>2017-11-18T11:01:39Z</time></trkpt>
<trkpt lat="47.15608800" lon="-1.45056333"><ele>18.299999</ele><time>2017-11-18T11:01:42Z</time></trkpt>
<trkpt lat="47.15619933" lon="-1.45050733"><ele>19</ele><time>2017-11-18T11:01:45Z</time></trkpt>
<trkpt lat="47.15629733" lon="-1.45046133"><ele>19.799999</ele><time>2017-11-18T11:01:48Z</time></trkpt>
<trkpt lat="47.15639067" lon="-1.45040667"><ele>20.200001</ele><time>2017-11-18T11:01:51Z</time></trkpt>
<trkpt lat="47.15648433" lon="-1.45036233"><ele>20.700001</ele><time>2017-11-18T11:01:54Z</time></trkpt>
<trkpt lat="47.15658286" lon="-1.45031310"><ele>21.4</ele><time>2017-11-18T11:01:57Z</time></trkpt>
<trkpt lat="47.15668905" lon="-1.45025500"><ele>22.1</ele><time>2017-11-18T11:02:01Z</time></trkpt>
<trkpt lat="47.15679524" lon="-1.45023119"><ele>23.4</ele><time>2017-11-18T11:02:05Z</time></trkpt>
<trkpt lat="47.15687667" lon="-1.45030600"><ele>25</ele><time>2017-11-18T11:02:09Z</time></trkpt>
<trkpt lat="47.15694133" lon="-1.45042000"><ele>25.1</ele><time>2017-11-18T11:02:12Z</time></trkpt>
<trkpt lat="47.15700722" lon="-1.45054111"><ele>25.4</ele><time>2017-11-18T11:02:14Z</time></trkpt>
<trkpt lat="47.15706167" lon="-1.45064000"><ele>25.5</ele><time>2017-11-18T11:02:16Z</time></trkpt>
<trkpt lat="47.15711167" lon="-1.45077778"><ele>25.299999</ele><time>2017-11-18T11:02:18Z</time></trkpt>
<trkpt lat="47.15714167" lon="-1.45091111"><ele>26.1</ele><time>2017-11-18T11:02:20Z</time></trkpt>
<trkpt lat="47.15718000" lon="-1.45105833"><ele>26.799999</ele><time>2017-11-18T11:02:22Z</time></trkpt>
<trkpt lat="47.15719889" lon="-1.45115444"><ele>27.5</ele><time>2017-11-18T11:02:24Z</time></trkpt>
<trkpt lat="47.15720917" lon="-1.45125083"><ele>28</ele><time>2017-11-18T11:02:26Z</time></trkpt>
<trkpt lat="47.15721889" lon="-1.45135722"><ele>28.299999</ele><time>2017-11-18T11:02:28Z</time></trkpt>
<trkpt lat="47.15722800" lon="-1.45146800"><ele>29.4</ele><time>2017-11-18T11:02:31Z</time></trkpt>
<trkpt lat="47.15725133" lon="-1.45159933"><ele>30.6</ele><time>2017-11-18T11:02:34Z</time></trkpt>
<trkpt lat="47.15727767" lon="-1.45169600"><ele>31</ele><time>2017-11-18T11:02:37Z</time></trkpt>
<trkpt lat="47.15730500" lon="-1.45179167"><ele>32.299999</ele><time>2017-11-18T11:02:40Z</time></trkpt>
<trkpt lat="47.15733133" lon="-1.45188767"><ele>33.400002</ele><time>2017-11-18T11:02:43Z</time></trkpt>
<trkpt lat="47.15736133" lon="-1.45199067"><ele>34.200001</ele><time>2017-11-18T11:02:46Z</time></trkpt>
<trkpt lat="47.15739200" lon="-1.45209600"><ele>35.400002</ele><time>2017-11-18T11:02:49Z</time></trkpt>
<trkpt lat="47.15741800" lon="-1.45219800"><ele>36.599998</ele><time>2017-11-18T11:02:52Z</time></trkpt>
<trkpt lat="47.15743667" lon="-1.45229000"><ele>37.900002</ele><time>2017-11-18T11:02:55Z</time></trkpt>
<trkpt lat="47.15747367" lon="-1.45238933"><ele>39.5</ele><time>2017-11-18T11:02:58Z</time></trkpt>
<trkpt lat="47.15749833" lon="-1.45247944"><ele>40.099998</ele><time>2017-11-18T11:03:00Z</time></trkpt>
<trkpt lat="47.15751367" lon="-1.45258200"><ele>39.299999</ele><time>2017-11-18T11:03:03Z</time></trkpt>
<trkpt lat="47.15754167" lon="-1.45268133"><ele>40.099998</ele><time>2017-11-18T11:03:06Z</time></trkpt>
<trkpt lat="47.15756433" lon="-1.45278467"><ele>40.5</ele><time>2017-11-18T11:03:09Z</time></trkpt>
<trkpt lat="47.15758133" lon="-1.45289133"><ele>41.200001</ele><time>2017-11-18T11:03:12Z</time></trkpt>
<trkpt lat="47.15759800" lon="-1.45300200"><ele>41.5</ele><time>2017-11-18T11:03:15Z</time></trkpt>
<trkpt lat="47.15761367" lon="-1.45312133"><ele>41.700001</ele><time>2017-11-18T11:03:18Z</time></trkpt>
<trkpt lat="47.15763167" lon="-1.45323000"><ele>41.799999</ele><time>2017-11-18T11:03:20Z</time></trkpt>
<trkpt lat="47.15765222" lon="-1.45333833"><ele>41.799999</ele><time>2017-11-18T11:03:23Z</time></trkpt>
<trkpt lat="47.15766611" lon="-1.45342833"><ele>41.900002</ele><time>2017-11-18T11:03:25Z</time></trkpt>
<trkpt lat="47.15768667" lon="-1.45355250"><ele>42</ele><time>2017-11-18T11:03:28Z</time></trkpt>
<trkpt lat="47.15770400" lon="-1.45364133"><ele>42</ele><time>2017-11-18T11:03:31Z</time></trkpt>
<trkpt lat="47.15774833" lon="-1.45372667"><ele>40.299999</ele><time>2017-11-18T11:03:34Z</time></trkpt>
<trkpt lat="47.15785024" lon="-1.45375048"><ele>40.400002</ele><time>2017-11-18T11:03:38Z</time></trkpt>
<trkpt lat="47.15794976" lon="-1.45376976"><ele>40.5</ele><time>2017-11-18T11:03:42Z</time></trkpt>
<trkpt lat="47.15804952" lon="-1.45378714"><ele>40.700001</ele><time>2017-11-18T11:03:46Z</time></trkpt>
<trkpt lat="47.15814690" lon="-1.45379952"><ele>41.099998</ele><time>2017-11-18T11:03:50Z</time></trkpt>
<trkpt lat="47.15824648" lon="-1.45384370"><ele>41.400002</ele><time>2017-11-18T11:03:55Z</time></trkpt>
<trkpt lat="47.15829533" lon="-1.45394100"><ele>41.299999</ele><time>2017-11-18T11:03:59Z</time></trkpt>
<trkpt lat="47.15829667" lon="-1.45404389"><ele>41.200001</ele><time>2017-11-18T11:04:01Z</time></trkpt>
<trkpt lat="47.15828000" lon="-1.45413778"><ele>41.200001</ele><time>2017-11-18T11:04:03Z</time></trkpt>
<trkpt lat="47.15826333" lon="-1.45423389"><ele>41.400002</ele><time>2017-11-18T11:04:05Z</time></trkpt>
<trkpt lat="47.15826222" lon="-1.45432778"><ele>41.299999</ele><time>2017-11-18T11:04:07Z</time></trkpt>
<trkpt lat="47.15824800" lon="-1.45443900"><ele>41.099998</ele><time>2017-11-18T11:04:10Z</time></trkpt>
<trkpt lat="47.15824444" lon="-1.45454778"><ele>41</ele><time>2017-11-18T11:04:12Z</time></trkpt>
<trkpt lat="47.15824111" lon="-1.45464500"><ele>41</ele><time>2017-11-18T11:04:14Z</time></trkpt>
<trkpt lat="47.15823278" lon="-1.45474500"><ele>41</ele><time>2017-11-18T11:04:17Z</time></trkpt>
<trkpt lat="47.15822889" lon="-1.45484778"><ele>41.099998</ele><time>2017-11-18T11:04:18Z</time></trkpt>
<trkpt lat="47.15822667" lon="-1.45495389"><ele>41.200001</ele><time>2017-11-18T11:04:20Z</time></trkpt>
<trkpt lat="47.15822000" lon="-1.45506056"><ele>41.299999</ele><time>2017-11-18T11:04:22Z</time></trkpt>
<trkpt lat="47.15821000" lon="-1.45516722"><ele>41.5</ele><time>2017-11-18T11:04:24Z</time></trkpt>
<trkpt lat="47.15820250" lon="-1.45526583"><ele>41.5</ele><time>2017-11-18T11:04:26Z</time></trkpt>
<trkpt lat="47.15819333" lon="-1.45538667"><ele>41.200001</ele><time>2017-11-18T11:04:28Z</time></trkpt>
<trkpt lat="47.15818944" lon="-1.45549778"><ele>41.099998</ele><time>2017-11-18T11:04:30Z</time></trkpt>
<trkpt lat="47.15819000" lon="-1.45563167"><ele>41.200001</ele><time>2017-11-18T11:04:33Z</time></trkpt>
<trkpt lat="47.15817389" lon="-1.45572556"><ele>40.400002</ele><time>2017-11-18T11:04:34Z</time></trkpt>
<trkpt lat="47.15815444" lon="-1.45584222"><ele>39.200001</ele><time>2017-11-18T11:04:36Z</time></trkpt>
<trkpt lat="47.15813778" lon="-1.45596000"><ele>38.900002</ele><time>2017-11-18T11:04:38Z</time></trkpt>
<trkpt lat="47.15810667" lon="-1.45607667"><ele>38.799999</ele><time>2017-11-18T11:04:40Z</time></trkpt>
<trkpt lat="47.15803083" lon="-1.45621250"><ele>39</ele><time>2017-11-18T11:04:43Z</time></trkpt>
<trkpt lat="47.15796567" lon="-1.45633067"><ele>39.200001</ele><time>2017-11-18T11:04:46Z</time></trkpt>
<trkpt lat="47.15789556" lon="-1.45643667"><ele>39.400002</ele><time>2017-11-18T11:04:48Z</time></trkpt>
<trkpt lat="47.15782667" lon="-1.45652778"><ele>39.599998</ele><time>2017-11-18T11:04:50Z</time></trkpt>
<trkpt lat="47.15774333" lon="-1.45665000"><ele>39.900002</ele><time>2017-11-18T11:04:52Z</time></trkpt>
<trkpt lat="47.15767667" lon="-1.45674000"><ele>40</ele><time>2017-11-18T11:04:54Z</time></trkpt>
<trkpt lat="47.15760250" lon="-1.45684083"><ele>40.200001</ele><time>2017-11-18T11:04:56Z</time></trkpt>
<trkpt lat="47.15750333" lon="-1.45695889"><ele>39.799999</ele><time>2017-11-18T11:04:58Z</time></trkpt>
<trkpt lat="47.15740611" lon="-1.45707556"><ele>38.5</ele><time>2017-11-18T11:05:00Z</time></trkpt>
<trkpt lat="47.15729167" lon="-1.45719833"><ele>37.299999</ele><time>2017-11-18T11:05:03Z</time></trkpt>
<trkpt lat="47.15721333" lon="-1.45728056"><ele>36.599998</ele><time>2017-11-18T11:05:04Z</time></trkpt>
<trkpt lat="47.15712056" lon="-1.45739000"><ele>35.799999</ele><time>2017-11-18T11:05:06Z</time></trkpt>
<trkpt lat="47.15702889" lon="-1.45749611"><ele>35.400002</ele><time>2017-11-18T11:05:08Z</time></trkpt>
<trkpt lat="47.15691600" lon="-1.45761533"><ele>35.299999</ele><time>2017-11-18T11:05:11Z</time></trkpt>
<trkpt lat="47.15680533" lon="-1.45773233"><ele>35.400002</ele><time>2017-11-18T11:05:14Z</time></trkpt>
<trkpt lat="47.15671767" lon="-1.45782833"><ele>35.5</ele><time>2017-11-18T11:05:17Z</time></trkpt>
<trkpt lat="47.15673095" lon="-1.45794500"><ele>35.799999</ele><time>2017-11-18T11:05:20Z</time></trkpt>
<trkpt lat="47.15678024" lon="-1.45803048"><ele>36.099998</ele><time>2017-11-18T11:05:24Z</time></trkpt>
<trkpt lat="47.15678917" lon="-1.45813250"><ele>36.799999</ele><time>2017-11-18T11:05:28Z</time></trkpt>
<trkpt lat="47.15679367" lon="-1.45822033"><ele>37.5</ele><time>2017-11-18T11:05:31Z</time></trkpt>
<trkpt lat="47.15679433" lon="-1.45833067"><ele>37.900002</ele><time>2017-11-18T11:05:34Z</time></trkpt>
<trkpt lat="47.15677833" lon="-1.45845200"><ele>38.299999</ele><time>2017-11-18T11:05:37Z</time></trkpt>
<trkpt lat="47.15674967" lon="-1.45857167"><ele>38.799999</ele><time>2017-11-18T11:05:40Z</time></trkpt>
<trkpt lat="47.15669567" lon="-1.45869000"><ele>39.900002</ele><time>2017-11-18T11:05:43Z</time></trkpt>
<trkpt lat="47.15660533" lon="-1.45878300"><ele>41.599998</ele><time>2017-11-18T11:05:46Z</time></trkpt>
<trkpt lat="47.15650667" lon="-1.45884633"><ele>43.200001</ele><time>2017-11-18T11:05:49Z</time></trkpt>
<trkpt lat="47.15638133" lon="-1.45890200"><ele>44</ele><time>2017-11-18T11:05:52Z</time></trkpt>
<trkpt lat="47.15627467" lon="-1.45895033"><ele>46.299999</ele><time>2017-11-18T11:05:55Z</time></trkpt>
<trkpt lat="47.15614467" lon="-1.45901033"><ele>45.200001</ele><time>2017-11-18T11:05:58Z</time></trkpt>
<trkpt lat="47.15602917" lon="-1.45906708"><ele>44.5</ele><time>2017-11-18T11:06:00Z</time></trkpt>
<trkpt lat="47.15589967" lon="-1.45916867"><ele>44.5</ele><time>2017-11-18T11:06:04Z</time></trkpt>
<trkpt lat="47.15580167" lon="-1.45927250"><ele>43.200001</ele><time>2017-11-18T11:06:06Z</time></trkpt>
<trkpt lat="47.15567900" lon="-1.45939000"><ele>42.799999</ele><time>2017-11-18T11:06:09Z</time></trkpt>
<trkpt lat="47.15555100" lon="-1.45949867"><ele>43.099998</ele><time>2017-11-18T11:06:12Z</time></trkpt>
<trkpt lat="47.15542278" lon="-1.45958056"><ele>43.799999</ele><time>2017-11-18T11:06:14Z</time></trkpt>
<trkpt lat="47.15530944" lon="-1.45965278"><ele>44.5</ele><time>2017-11-18T11:06:16Z</time></trkpt>
<trkpt lat="47.15520222" lon="-1.45972722"><ele>43</ele><time>2017-11-18T11:06:18Z</time></trkpt>
<trkpt lat="47.15512444" lon="-1.45982000"><ele>40.599998</ele><time>2017-11-18T11:06:20Z</time></trkpt>
<trkpt lat="47.15503444" lon="-1.45993222"><ele>33.200001</ele><time>2017-11-18T11:06:23Z</time></trkpt>
<trkpt lat="47.15493833" lon="-1.46004778"><ele>27.299999</ele><time>2017-11-18T11:06:24Z</time></trkpt>
<trkpt lat="47.15483500" lon="-1.46015389"><ele>25.4</ele><time>2017-11-18T11:06:26Z</time></trkpt>
<trkpt lat="47.15470967" lon="-1.46026600"><ele>23.4</ele><time>2017-11-18T11:06:29Z</time></trkpt>
<trkpt lat="47.15459733" lon="-1.46031500"><ele>21.5</ele><time>2017-11-18T11:06:32Z</time></trkpt>
<trkpt lat="47.15450100" lon="-1.46023000"><ele>20.700001</ele><time>2017-11-18T11:06:35Z</time></trkpt>
<trkpt lat="47.15440167" lon="-1.46009000"><ele>19.9</ele><time>2017-11-18T11:06:38Z</time></trkpt>
<trkpt lat="47.15433389" lon="-1.45999222"><ele>19.6</ele><time>2017-11-18T11:06:40Z</time></trkpt>
<trkpt lat="47.15423778" lon="-1.45986759"><ele>19.1</ele><time>2017-11-18T11:06:44Z</time></trkpt>
<trkpt lat="47.15414733" lon="-1.45990400"><ele>19.799999</ele><time>2017-11-18T11:06:48Z</time></trkpt>
<trkpt lat="47.15406458" lon="-1.45999875"><ele>19.799999</ele><time>2017-11-18T11:06:51Z</time></trkpt>
<trkpt lat="47.15396533" lon="-1.46009767"><ele>20.799999</ele><time>2017-11-18T11:06:54Z</time></trkpt>
<trkpt lat="47.15385200" lon="-1.46015867"><ele>21.5</ele><time>2017-11-18T11:06:57Z</time></trkpt>
<trkpt lat="47.15372167" lon="-1.46019133"><ele>21.5</ele><time>2017-11-18T11:07:00Z</time></trkpt>
<trkpt lat="47.15361222" lon="-1.46026056"><ele>21.5</ele><time>2017-11-18T11:07:02Z</time></trkpt>
<trkpt lat="47.15350833" lon="-1.46034889"><ele>21.6</ele><time>2017-11-18T11:07:04Z</time></trkpt>
<trkpt lat="47.15341083" lon="-1.46043833"><ele>21.299999</ele><time>2017-11-18T11:07:06Z</time></trkpt>
<trkpt lat="47.15331333" lon="-1.46055722"><ele>19.700001</ele><time>2017-11-18T11:07:08Z</time></trkpt>
<trkpt lat="47.15327667" lon="-1.46066611"><ele>20.6</ele><time>2017-11-18T11:07:10Z</time></trkpt>
<trkpt lat="47.15325611" lon="-1.46077222"><ele>21.299999</ele><time>2017-11-18T11:07:12Z</time></trkpt>
<trkpt lat="47.15325400" lon="-1.46088400"><ele>22.5</ele><time>2017-11-18T11:07:15Z</time></trkpt>
<trkpt lat="47.15326222" lon="-1.46099278"><ele>23.1</ele><time>2017-11-18T11:07:17Z</time></trkpt>
<trkpt lat="47.15325944" lon="-1.46109278"><ele>23.700001</ele><time>2017-11-18T11:07:19Z</time></trkpt>
<trkpt lat="47.15325167" lon="-1.46120000"><ele>23.299999</ele><time>2017-11-18T11:07:21Z</time></trkpt>
<trkpt lat="47.15324778" lon="-1.46131778"><ele>22.299999</ele><time>2017-11-18T11:07:23Z</time></trkpt>
<trkpt lat="47.15325278" lon="-1.46143278"><ele>22.799999</ele><time>2017-11-18T11:07:25Z</time></trkpt>
<trkpt lat="47.15326556" lon="-1.46153944"><ele>23.200001</ele><time>2017-11-18T11:07:27Z</time></trkpt>
<trkpt lat="47.15328500" lon="-1.46164500"><ele>23.5</ele><time>2017-11-18T11:07:29Z</time></trkpt>
<trkpt lat="47.15330333" lon="-1.46174778"><ele>23.299999</ele><time>2017-11-18T11:07:31Z</time></trkpt>
<trkpt lat="47.15331889" lon="-1.46187056"><ele>23.200001</ele><time>2017-11-18T11:07:33Z</time></trkpt>
<trkpt lat="47.15331333" lon="-1.46201556"><ele>22.6</ele><time>2017-11-18T11:07:35Z</time></trkpt>
<trkpt lat="47.15330167" lon="-1.46216444"><ele>20.5</ele><time>2017-11-18T11:07:37Z</time></trkpt>
<trkpt lat="47.15328389" lon="-1.46230833"><ele>17.700001</ele><time>2017-11-18T11:07:39Z</time></trkpt>
<trkpt lat="47.15326250" lon="-1.46243250"><ele>17.5</ele><time>2017-11-18T11:07:41Z</time></trkpt>
<trkpt lat="47.15323722" lon="-1.46258444"><ele>17.4</ele><time>2017-11-18T11:07:43Z</time></trkpt>
<trkpt lat="47.15322222" lon="-1.46272944"><ele>17.6</ele><time>2017-11-18T11:07:45Z</time></trkpt>
<trkpt lat="47.15321333" lon="-1.46289000"><ele>17.9</ele><time>2017-11-18T11:07:48Z</time></trkpt>
<trkpt lat="47.15321222" lon="-1.46301389"><ele>18.700001</ele><time>2017-11-18T11:07:49Z</time></trkpt>
<trkpt lat="47.15321722" lon="-1.46315889"><ele>18.5</ele><time>2017-11-18T11:07:52Z</time></trkpt>
<trkpt lat="47.15323056" lon="-1.46331389"><ele>16.799999</ele><time>2017-11-18T11:07:53Z</time></trkpt>
<trkpt lat="47.15324833" lon="-1.46345444"><ele>15.5</ele><time>2017-11-18T11:07:55Z</time></trkpt>
<trkpt lat="47.15327611" lon="-1.46358111"><ele>15.4</ele><time>2017-11-18T11:07:57Z</time></trkpt>
<trkpt lat="47.15330000" lon="-1.46368167"><ele>15.1</ele><time>2017-11-18T11:07:59Z</time></trkpt>
<trkpt lat="47.15330722" lon="-1.46378889"><ele>14.5</ele><time>2017-11-18T11:08:01Z</time></trkpt>
<trkpt lat="47.15329833" lon="-1.46390833"><ele>15.4</ele><time>2017-11-18T11:08:03Z</time></trkpt>
<trkpt lat="47.15323667" lon="-1.46399267"><ele>14.3</ele><time>2017-11-18T11:08:06Z</time></trkpt>
<trkpt lat="47.15311300" lon="-1.46403867"><ele>12.3</ele><time>2017-11-18T11:08:09Z</time></trkpt>
<trkpt lat="47.15299167" lon="-1.46407208"><ele>10.4</ele><time>2017-11-18T11:08:12Z</time></trkpt>
<trkpt lat="47.15289033" lon="-1.46412633"><ele>8.9</ele><time>2017-11-18T11:08:15Z</time></trkpt>
<trkpt lat="47.15287833" lon="-1.46422833"><ele>8.4</ele><time>2017-11-18T11:08:18Z</time></trkpt>
<trkpt lat="47.15292222" lon="-1.46433611"><ele>8.6</ele><time>2017-11-18T11:08:19Z</time></trkpt>
<trkpt lat="47.15298000" lon="-1.46445000"><ele>8.8</ele><time>2017-11-18T11:08:21Z</time></trkpt>
<trkpt lat="47.15304056" lon="-1.46455167"><ele>8.9</ele><time>2017-11-18T11:08:23Z</time></trkpt>
<trkpt lat="47.15309944" lon="-1.46465389"><ele>9.3</ele><time>2017-11-18T11:08:25Z</time></trkpt>
<trkpt lat="47.15314889" lon="-1.46476667"><ele>10</ele><time>2017-11-18T11:08:27Z</time></trkpt>
<trkpt lat="47.15319167" lon="-1.46487500"><ele>10.9</ele><time>2017-11-18T11:08:29Z</time></trkpt>
<trkpt lat="47.15324167" lon="-1.46498056"><ele>11</ele><time>2017-11-18T11:08:31Z</time></trkpt>
<trkpt lat="47.15328833" lon="-1.46509389"><ele>12.2</ele><time>2017-11-18T11:08:33Z</time></trkpt>
<trkpt lat="47.15333556" lon="-1.46520222"><ele>12.6</ele><time>2017-11-18T11:08:35Z</time></trkpt>
<trkpt lat="47.15338167" lon="-1.46531333"><ele>12.8</ele><time>2017-11-18T11:08:37Z</time></trkpt>
<trkpt lat="47.15340444" lon="-1.46539611"><ele>13.3</ele><time>2017-11-18T11:08:39Z</time></trkpt>
<trkpt lat="47.15341000" lon="-1.46551033"><ele>14.3</ele><time>2017-11-18T11:08:42Z</time></trkpt>
<trkpt lat="47.15335367" lon="-1.46563167"><ele>16</ele><time>2017-11-18T11:08:45Z</time></trkpt>
<trkpt lat="47.15329278" lon="-1.46573833"><ele>16.6</ele><time>2017-11-18T11:08:47Z</time></trkpt>
<trkpt lat="47.15325667" lon="-1.46584889"><ele>16.9</ele><time>2017-11-18T11:08:49Z</time></trkpt>
<trkpt lat="47.15321722" lon="-1.46596500"><ele>16.799999</ele><time>2017-11-18T11:08:51Z</time></trkpt>
<trkpt lat="47.15318389" lon="-1.46609056"><ele>16.799999</ele><time>2017-11-18T11:08:53Z</time></trkpt>
<trkpt lat="47.15316444" lon="-1.46622389"><ele>17</ele><time>2017-11-18T11:08:55Z</time></trkpt>
<trkpt lat="47.15316000" lon="-1.46638500"><ele>16.200001</ele><time>2017-11-18T11:08:58Z</time></trkpt>
<trkpt lat="47.15317722" lon="-1.46649444"><ele>15.6</ele><time>2017-11-18T11:08:59Z</time></trkpt>
<trkpt lat="47.15320917" lon="-1.46661667"><ele>14.3</ele><time>2017-11-18T11:09:01Z</time></trkpt>
<trkpt lat="47.15324111" lon="-1.46676056"><ele>14.2</ele><time>2017-11-18T11:09:03Z</time></trkpt>
<trkpt lat="47.15327111" lon="-1.46689444"><ele>13.7</ele><time>2017-11-18T11:09:05Z</time></trkpt>
<trkpt lat="47.15331167" lon="-1.46704500"><ele>13.9</ele><time>2017-11-18T11:09:08Z</time></trkpt>
<trkpt lat="47.15333944" lon="-1.46715889"><ele>14.5</ele><time>2017-11-18T11:09:09Z</time></trkpt>
<trkpt lat="47.15337944" lon="-1.46728667"><ele>15</ele><time>2017-11-18T11:09:12Z</time></trkpt>
<trkpt lat="47.15341889" lon="-1.46741444"><ele>13.4</ele><time>2017-11-18T11:09:13Z</time></trkpt>
<trkpt lat="47.15344667" lon="-1.46754333"><ele>13.3</ele><time>2017-11-18T11:09:15Z</time></trkpt>
<trkpt lat="47.15346722" lon="-1.46767056"><ele>13.3</ele><time>2017-11-18T11:09:17Z</time></trkpt>
<trkpt lat="47.15348333" lon="-1.46779444"><ele>13.2</ele><time>2017-11-18T11:09:19Z</time></trkpt>
<trkpt lat="47.15350056" lon="-1.46791556"><ele>13.4</ele><time>2017-11-18T11:09:21Z</time></trkpt>
<trkpt lat="47.15351833" lon="-1.46803056"><ele>12.7</ele><time>2017-11-18T11:09:23Z</time></trkpt>
<trkpt lat="47.15355767" lon="-1.46815500"><ele>12.3</ele><time>2017-11-18T11:09:26Z</time></trkpt>
<trkpt lat="47.15360619" lon="-1.46826548"><ele>12.3</ele><time>2017-11-18T11:09:29Z</time></trkpt>
<trkpt lat="47.15370410" lon="-1.46836744"><ele>12.9</ele><time>2017-11-18T11:09:46Z</time></trkpt>
<trkpt lat="47.15378667" lon="-1.46842433"><ele>14.8</ele><time>2017-11-18T11:12:06Z</time></trkpt>
<trkpt lat="47.15386500" lon="-1.46852889"><ele>14.9</ele><time>2017-11-18T11:12:08Z</time></trkpt>
<trkpt lat="47.15393556" lon="-1.46863222"><ele>15</ele><time>2017-11-18T11:12:10Z</time></trkpt>
<trkpt lat="47.15401500" lon="-1.46877000"><ele>15</ele><time>2017-11-18T11:12:13Z</time></trkpt>
<trkpt lat="47.15407722" lon="-1.46887278"><ele>15.1</ele><time>2017-11-18T11:12:14Z</time></trkpt>
<trkpt lat="47.15415500" lon="-1.46899444"><ele>15</ele><time>2017-11-18T11:12:16Z</time></trkpt>
<trkpt lat="47.15424000" lon="-1.46911667"><ele>14.8</ele><time>2017-11-18T11:12:18Z</time></trkpt>
<trkpt lat="47.15433000" lon="-1.46923389"><ele>14.3</ele><time>2017-11-18T11:12:20Z</time></trkpt>
<trkpt lat="47.15442167" lon="-1.46934778"><ele>14</ele><time>2017-11-18T11:12:23Z</time></trkpt>
<trkpt lat="47.15451333" lon="-1.46945833"><ele>13.9</ele><time>2017-11-18T11:12:24Z</time></trkpt>
<trkpt lat="47.15460611" lon="-1.46957444"><ele>13.7</ele><time>2017-11-18T11:12:26Z</time></trkpt>
<trkpt lat="47.15470222" lon="-1.46968389"><ele>13.5</ele><time>2017-11-18T11:12:28Z</time></trkpt>
<trkpt lat="47.15480389" lon="-1.46977778"><ele>13.5</ele><time>2017-11-18T11:12:30Z</time></trkpt>
<trkpt lat="47.15491611" lon="-1.46984333"><ele>13.4</ele><time>2017-11-18T11:12:32Z</time></trkpt>
<trkpt lat="47.15503111" lon="-1.46990556"><ele>13.5</ele><time>2017-11-18T11:12:34Z</time></trkpt>
<trkpt lat="47.15513250" lon="-1.46997000"><ele>14.1</ele><time>2017-11-18T11:12:36Z</time></trkpt>
<trkpt lat="47.15524667" lon="-1.47005833"><ele>14.7</ele><time>2017-11-18T11:12:38Z</time></trkpt>
<trkpt lat="47.15534556" lon="-1.47015833"><ele>14.4</ele><time>2017-11-18T11:12:40Z</time></trkpt>
<trkpt lat="47.15546667" lon="-1.47027333"><ele>13.4</ele><time>2017-11-18T11:12:42Z</time></trkpt>
<trkpt lat="47.15556056" lon="-1.47033833"><ele>12.1</ele><time>2017-11-18T11:12:44Z</time></trkpt>
<trkpt lat="47.15567556" lon="-1.47039778"><ele>11.3</ele><time>2017-11-18T11:12:46Z</time></trkpt>
<trkpt lat="47.15579167" lon="-1.47042944"><ele>11</ele><time>2017-11-18T11:12:48Z</time></trkpt>
<trkpt lat="47.15590111" lon="-1.47041722"><ele>11.4</ele><time>2017-11-18T11:12:50Z</time></trkpt>
<trkpt lat="47.15601056" lon="-1.47038278"><ele>11.4</ele><time>2017-11-18T11:12:53Z</time></trkpt>
<trkpt lat="47.15611833" lon="-1.47035222"><ele>11.9</ele><time>2017-11-18T11:12:54Z</time></trkpt>
<trkpt lat="47.15623222" lon="-1.47034722"><ele>12.1</ele><time>2017-11-18T11:12:56Z</time></trkpt>
<trkpt lat="47.15634389" lon="-1.47038444"><ele>12</ele><time>2017-11-18T11:12:58Z</time></trkpt>
<trkpt lat="47.15644056" lon="-1.47047500"><ele>12.3</ele><time>2017-11-18T11:13:00Z</time></trkpt>
<trkpt lat="47.15651944" lon="-1.47059889"><ele>12.2</ele><time>2017-11-18T11:13:03Z</time></trkpt>
<trkpt lat="47.15659222" lon="-1.47071944"><ele>11.9</ele><time>2017-11-18T11:13:04Z</time></trkpt>
<trkpt lat="47.15668444" lon="-1.47081667"><ele>11.5</ele><time>2017-11-18T11:13:07Z</time></trkpt>
<trkpt lat="47.15679333" lon="-1.47088500"><ele>11.5</ele><time>2017-11-18T11:13:08Z</time></trkpt>
<trkpt lat="47.15689722" lon="-1.47096556"><ele>12.2</ele><time>2017-11-18T11:13:10Z</time></trkpt>
<trkpt lat="47.15700389" lon="-1.47105833"><ele>12</ele><time>2017-11-18T11:13:12Z</time></trkpt>
<trkpt lat="47.15710000" lon="-1.47117389"><ele>12.2</ele><time>2017-11-18T11:13:14Z</time></trkpt>
<trkpt lat="47.15718611" lon="-1.47129667"><ele>12.4</ele><time>2017-11-18T11:13:17Z</time></trkpt>
<trkpt lat="47.15727444" lon="-1.47141000"><ele>12.6</ele><time>2017-11-18T11:13:18Z</time></trkpt>
<trkpt lat="47.15736778" lon="-1.47151056"><ele>12.8</ele><time>2017-11-18T11:13:20Z</time></trkpt>
<trkpt lat="47.15746278" lon="-1.47160611"><ele>13.1</ele><time>2017-11-18T11:13:22Z</time></trkpt>
<trkpt lat="47.15755778" lon="-1.47169778"><ele>13.3</ele><time>2017-11-18T11:13:24Z</time></trkpt>
<trkpt lat="47.15763917" lon="-1.47178083"><ele>13.7</ele><time>2017-11-18T11:13:26Z</time></trkpt>
<trkpt lat="47.15775800" lon="-1.47189033"><ele>14.2</ele><time>2017-11-18T11:13:29Z</time></trkpt>
<trkpt lat="47.15786278" lon="-1.47200389"><ele>14.1</ele><time>2017-11-18T11:13:31Z</time></trkpt>
<trkpt lat="47.15794333" lon="-1.47210556"><ele>14.3</ele><time>2017-11-18T11:13:33Z</time></trkpt>
<trkpt lat="47.15801444" lon="-1.47221222"><ele>14.8</ele><time>2017-11-18T11:13:35Z</time></trkpt>
<trkpt lat="47.15807111" lon="-1.47232667"><ele>15.4</ele><time>2017-11-18T11:13:38Z</time></trkpt>
<trkpt lat="47.15811500" lon="-1.47246222"><ele>16.1</ele><time>2017-11-18T11:13:39Z</time></trkpt>
<trkpt lat="47.15817389" lon="-1.47260500"><ele>16.5</ele><time>2017-11-18T11:13:42Z</time></trkpt>
<trkpt lat="47.15824167" lon="-1.47274111"><ele>16.5</ele><time>2017-11-18T11:13:43Z</time></trkpt>
<trkpt lat="47.15831056" lon="-1.47287833"><ele>16.6</ele><time>2017-11-18T11:13:45Z</time></trkpt>
<trkpt lat="47.15838278" lon="-1.47301167"><ele>16.700001</ele><time>2017-11-18T11:13:47Z</time></trkpt>
<trkpt lat="47.15845611" lon="-1.47313611"><ele>16.4</ele><time>2017-11-18T11:13:49Z</time></trkpt>
<trkpt lat="47.15851667" lon="-1.47325167"><ele>16.299999</ele><time>2017-11-18T11:13:51Z</time></trkpt>
<trkpt lat="47.15858500" lon="-1.47340111"><ele>15.5</ele><time>2017-11-18T11:13:53Z</time></trkpt>
<trkpt lat="47.15866167" lon="-1.47352889"><ele>13.9</ele><time>2017-11-18T11:13:55Z</time></trkpt>
<trkpt lat="47.15874833" lon="-1.47366000"><ele>13.9</ele><time>2017-11-18T11:13:57Z</time></trkpt>
<trkpt lat="47.15880278" lon="-1.47375278"><ele>14.2</ele><time>2017-11-18T11:13:59Z</time></trkpt>
<trkpt lat="47.15887000" lon="-1.47386333"><ele>14.6</ele><time>2017-11-18T11:14:01Z</time></trkpt>
<trkpt lat="47.15894278" lon="-1.47398333"><ele>14.4</ele><time>2017-11-18T11:14:03Z</time></trkpt>
<trkpt lat="47.15901444" lon="-1.47410833"><ele>14.3</ele><time>2017-11-18T11:14:05Z</time></trkpt>
<trkpt lat="47.15908833" lon="-1.47422056"><ele>14.4</ele><time>2017-11-18T11:14:08Z</time></trkpt>
<trkpt lat="47.15918185" lon="-1.47433241"><ele>14.6</ele><time>2017-11-18T11:14:11Z</time></trkpt>
<trkpt lat="47.15925800" lon="-1.47439733"><ele>13.5</ele><time>2017-11-18T11:14:15Z</time></trkpt>
<trkpt lat="47.15936133" lon="-1.47449300"><ele>13.6</ele><time>2017-11-18T11:14:18Z</time></trkpt>
<trkpt lat="47.15947278" lon="-1.47456444"><ele>13.4</ele><time>2017-11-18T11:14:20Z</time></trkpt>
<trkpt lat="47.15956222" lon="-1.47465167"><ele>13.6</ele><time>2017-11-18T11:14:22Z</time></trkpt>
<trkpt lat="47.15965222" lon="-1.47476611"><ele>12.9</ele><time>2017-11-18T11:14:24Z</time></trkpt>
<trkpt lat="47.15973889" lon="-1.47487333"><ele>13.8</ele><time>2017-11-18T11:14:26Z</time></trkpt>
<trkpt lat="47.15982389" lon="-1.47497556"><ele>14.6</ele><time>2017-11-18T11:14:28Z</time></trkpt>
<trkpt lat="47.15991000" lon="-1.47508500"><ele>14.6</ele><time>2017-11-18T11:14:30Z</time></trkpt>
<trkpt lat="47.15999056" lon="-1.47518833"><ele>15</ele><time>2017-11-18T11:14:32Z</time></trkpt>
<trkpt lat="47.16008208" lon="-1.47531896"><ele>15.1</ele><time>2017-11-18T11:14:36Z</time></trkpt>
<trkpt lat="47.16016778" lon="-1.47539222"><ele>15</ele><time>2017-11-18T11:14:39Z</time></trkpt>
<trkpt lat="47.16022333" lon="-1.47549500"><ele>15.2</ele><time>2017-11-18T11:14:41Z</time></trkpt>
<trkpt lat="47.16028056" lon="-1.47560611"><ele>15.6</ele><time>2017-11-18T11:14:43Z</time></trkpt>
<trkpt lat="47.16034722" lon="-1.47570778"><ele>15.9</ele><time>2017-11-18T11:14:45Z</time></trkpt>
<trkpt lat="47.16043056" lon="-1.47580444"><ele>16.4</ele><time>2017-11-18T11:14:47Z</time></trkpt>
<trkpt lat="47.16051222" lon="-1.47592333"><ele>17</ele><time>2017-11-18T11:14:49Z</time></trkpt>
<trkpt lat="47.16058722" lon="-1.47605722"><ele>17.1</ele><time>2017-11-18T11:14:51Z</time></trkpt>
<trkpt lat="47.16066000" lon="-1.47619167"><ele>16.6</ele><time>2017-11-18T11:14:53Z</time></trkpt>
<trkpt lat="47.16072889" lon="-1.47632444"><ele>16.1</ele><time>2017-11-18T11:14:55Z</time></trkpt>
<trkpt lat="47.16079222" lon="-1.47646000"><ele>15.9</ele><time>2017-11-18T11:14:57Z</time></trkpt>
<trkpt lat="47.16084333" lon="-1.47660556"><ele>15.9</ele><time>2017-11-18T11:14:59Z</time></trkpt>
<trkpt lat="47.16089667" lon="-1.47674722"><ele>15.7</ele><time>2017-11-18T11:15:02Z</time></trkpt>
<trkpt lat="47.16096611" lon="-1.47687667"><ele>15.7</ele><time>2017-11-18T11:15:03Z</time></trkpt>
<trkpt lat="47.16103389" lon="-1.47700778"><ele>15.6</ele><time>2017-11-18T11:15:05Z</time></trkpt>
<trkpt lat="47.16109556" lon="-1.47714222"><ele>15.6</ele><time>2017-11-18T11:15:07Z</time></trkpt>
<trkpt lat="47.16115111" lon="-1.47728667"><ele>15.8</ele><time>2017-11-18T11:15:09Z</time></trkpt>
<trkpt lat="47.16120278" lon="-1.47743611"><ele>16</ele><time>2017-11-18T11:15:12Z</time></trkpt>
<trkpt lat="47.16125000" lon="-1.47757833"><ele>16</ele><time>2017-11-18T11:15:13Z</time></trkpt>
<trkpt lat="47.16128833" lon="-1.47771722"><ele>15.9</ele><time>2017-11-18T11:15:15Z</time></trkpt>
<trkpt lat="47.16134111" lon="-1.47784667"><ele>16</ele><time>2017-11-18T11:15:17Z</time></trkpt>
<trkpt lat="47.16142389" lon="-1.47794389"><ele>16</ele><time>2017-11-18T11:15:19Z</time></trkpt>
<trkpt lat="47.16151111" lon="-1.47802333"><ele>15.7</ele><time>2017-11-18T11:15:21Z</time></trkpt>
<trkpt lat="47.16155833" lon="-1.47814500"><ele>15.4</ele><time>2017-11-18T11:15:23Z</time></trkpt>
<trkpt lat="47.16157056" lon="-1.47823889"><ele>15.3</ele><time>2017-11-18T11:15:25Z</time></trkpt>
<trkpt lat="47.16159333" lon="-1.47838833"><ele>15</ele><time>2017-11-18T11:15:28Z</time></trkpt>
<trkpt lat="47.16161444" lon="-1.47851444"><ele>15</ele><time>2017-11-18T11:15:29Z</time></trkpt>
<trkpt lat="47.16163111" lon="-1.47867167"><ele>14.9</ele><time>2017-11-18T11:15:31Z</time></trkpt>
<trkpt lat="47.16165056" lon="-1.47883333"><ele>15</ele><time>2017-11-18T11:15:33Z</time></trkpt>
<trkpt lat="47.16169167" lon="-1.47898278"><ele>15.1</ele><time>2017-11-18T11:15:35Z</time></trkpt>
<trkpt lat="47.16174889" lon="-1.47912167"><ele>15</ele><time>2017-11-18T11:15:37Z</time></trkpt>
<trkpt lat="47.16180611" lon="-1.47926333"><ele>14.5</ele><time>2017-11-18T11:15:39Z</time></trkpt>
<trkpt lat="47.16188222" lon="-1.47937889"><ele>14.2</ele><time>2017-11-18T11:15:42Z</time></trkpt>
<trkpt lat="47.16195722" lon="-1.47947778"><ele>13.7</ele><time>2017-11-18T11:15:43Z</time></trkpt>
<trkpt lat="47.16200611" lon="-1.47960611"><ele>13.4</ele><time>2017-11-18T11:15:45Z</time></trkpt>
<trkpt lat="47.16202111" lon="-1.47974278"><ele>13.7</ele><time>2017-11-18T11:15:47Z</time></trkpt>
<trkpt lat="47.16202278" lon="-1.47989389"><ele>13.7</ele><time>2017-11-18T11:15:49Z</time></trkpt>
<trkpt lat="47.16203250" lon="-1.48003667"><ele>13.9</ele><time>2017-11-18T11:15:51Z</time></trkpt>
<trkpt lat="47.16207111" lon="-1.48018889"><ele>14.1</ele><time>2017-11-18T11:15:53Z</time></trkpt>
<trkpt lat="47.16214444" lon="-1.48029833"><ele>14.2</ele><time>2017-11-18T11:15:55Z</time></trkpt>
<trkpt lat="47.16222722" lon="-1.48039556"><ele>14.2</ele><time>2017-11-18T11:15:58Z</time></trkpt>
<trkpt lat="47.16231222" lon="-1.48049389"><ele>14.1</ele><time>2017-11-18T11:15:59Z</time></trkpt>
<trkpt lat="47.16239889" lon="-1.48059389"><ele>14.2</ele><time>2017-11-18T11:16:01Z</time></trkpt>
<trkpt lat="47.16247722" lon="-1.48070556"><ele>14.3</ele><time>2017-11-18T11:16:03Z</time></trkpt>
<trkpt lat="47.16254889" lon="-1.48081833"><ele>14.2</ele><time>2017-11-18T11:16:05Z</time></trkpt>
<trkpt lat="47.16262833" lon="-1.48091889"><ele>14</ele><time>2017-11-18T11:16:07Z</time></trkpt>
<trkpt lat="47.16271222" lon="-1.48101722"><ele>14.1</ele><time>2017-11-18T11:16:09Z</time></trkpt>
<trkpt lat="47.16278917" lon="-1.48110667"><ele>14.1</ele><time>2017-11-18T11:16:11Z</time></trkpt>
<trkpt lat="47.16287500" lon="-1.48121778"><ele>14.5</ele><time>2017-11-18T11:16:13Z</time></trkpt>
<trkpt lat="47.16295500" lon="-1.48131722"><ele>14.9</ele><time>2017-11-18T11:16:15Z</time></trkpt>
<trkpt lat="47.16305333" lon="-1.48143167"><ele>15</ele><time>2017-11-18T11:16:17Z</time></trkpt>
<trkpt lat="47.16311500" lon="-1.48151389"><ele>15.1</ele><time>2017-11-18T11:16:19Z</time></trkpt>
<trkpt lat="47.16317583" lon="-1.48160250"><ele>14.9</ele><time>2017-11-18T11:16:21Z</time></trkpt>
<trkpt lat="47.16326833" lon="-1.48172833"><ele>14.4</ele><time>2017-11-18T11:16:24Z</time></trkpt>
<trkpt lat="47.16336750" lon="-1.48181167"><ele>14.1</ele><time>2017-11-18T11:16:26Z</time></trkpt>
<trkpt lat="47.16348167" lon="-1.48185944"><ele>13.7</ele><time>2017-11-18T11:16:28Z</time></trkpt>
<trkpt lat="47.16359278" lon="-1.48188722"><ele>13.4</ele><time>2017-11-18T11:16:30Z</time></trkpt>
<trkpt lat="47.16372667" lon="-1.48191167"><ele>13.4</ele><time>2017-11-18T11:16:32Z</time></trkpt>
<trkpt lat="47.16382222" lon="-1.48191944"><ele>13.1</ele><time>2017-11-18T11:16:34Z</time></trkpt>
<trkpt lat="47.16393778" lon="-1.48192278"><ele>13</ele><time>2017-11-18T11:16:36Z</time></trkpt>
<trkpt lat="47.16405111" lon="-1.48193000"><ele>12.9</ele><time>2017-11-18T11:16:38Z</time></trkpt>
<trkpt lat="47.16415667" lon="-1.48195333"><ele>13.1</ele><time>2017-11-18T11:16:40Z</time></trkpt>
<trkpt lat="47.16427400" lon="-1.48196967"><ele>13.3</ele><time>2017-11-18T11:16:43Z</time></trkpt>
<trkpt lat="47.16438222" lon="-1.48196778"><ele>13.2</ele><time>2017-11-18T11:16:45Z</time></trkpt>
<trkpt lat="47.16448222" lon="-1.48195667"><ele>13</ele><time>2017-11-18T11:16:48Z</time></trkpt>
<trkpt lat="47.16458667" lon="-1.48194056"><ele>13.1</ele><time>2017-11-18T11:16:49Z</time></trkpt>
<trkpt lat="47.16470400" lon="-1.48188633"><ele>13.2</ele><time>2017-11-18T11:16:52Z</time></trkpt>
<trkpt lat="47.16481167" lon="-1.48177933"><ele>12.5</ele><time>2017-11-18T11:16:55Z</time></trkpt>
<trkpt lat="47.16487633" lon="-1.48166933"><ele>12.5</ele><time>2017-11-18T11:16:58Z</time></trkpt>
<trkpt lat="47.16487300" lon="-1.48155667"><ele>12.4</ele><time>2017-11-18T11:17:01Z</time></trkpt>
<trkpt lat="47.16485556" lon="-1.48145167"><ele>12.3</ele><time>2017-11-18T11:17:03Z</time></trkpt>
<trkpt lat="47.16484444" lon="-1.48135889"><ele>12.5</ele><time>2017-11-18T11:17:05Z</time></trkpt>
<trkpt lat="47.16484467" lon="-1.48124867"><ele>13</ele><time>2017-11-18T11:17:08Z</time></trkpt>
<trkpt lat="47.16484407" lon="-1.48113167"><ele>13.9</ele><time>2017-11-18T11:17:12Z</time></trkpt>
<trkpt lat="47.16484467" lon="-1.48103400"><ele>13</ele><time>2017-11-18T11:17:18Z</time></trkpt>
<trkpt lat="47.16490533" lon="-1.48100533"><ele>13.1</ele><time>2017-11-18T11:17:22Z</time></trkpt>
<trkpt lat="47.16495111" lon="-1.48111333"><ele>13.3</ele><time>2017-11-18T11:17:24Z</time></trkpt>
<trkpt lat="47.16497167" lon="-1.48122889"><ele>13.3</ele><time>2017-11-18T11:17:26Z</time></trkpt>
<trkpt lat="47.16499611" lon="-1.48134833"><ele>13.1</ele><time>2017-11-18T11:17:28Z</time></trkpt>
<trkpt lat="47.16502333" lon="-1.48146833"><ele>13.4</ele><time>2017-11-18T11:17:30Z</time></trkpt>
<trkpt lat="47.16505611" lon="-1.48158722"><ele>13.9</ele><time>2017-11-18T11:17:33Z</time></trkpt>
<trkpt lat="47.16508611" lon="-1.48170556"><ele>14.3</ele><time>2017-11-18T11:17:34Z</time></trkpt>
<trkpt lat="47.16511667" lon="-1.48182222"><ele>14.8</ele><time>2017-11-18T11:17:36Z</time></trkpt>
<trkpt lat="47.16514667" lon="-1.48194278"><ele>15.2</ele><time>2017-11-18T11:17:38Z</time></trkpt>
<trkpt lat="47.16517944" lon="-1.48207000"><ele>15.6</ele><time>2017-11-18T11:17:40Z</time></trkpt>
<trkpt lat="47.16521278" lon="-1.48220222"><ele>15.9</ele><time>2017-11-18T11:17:42Z</time></trkpt>
<trkpt lat="47.16524778" lon="-1.48234278"><ele>16.200001</ele><time>2017-11-18T11:17:44Z</time></trkpt>
<trkpt lat="47.16526833" lon="-1.48248417"><ele>16.299999</ele><time>2017-11-18T11:17:46Z</time></trkpt>
<trkpt lat="47.16525611" lon="-1.48266389"><ele>16.200001</ele><time>2017-11-18T11:17:48Z</time></trkpt>
<trkpt lat="47.16522500" lon="-1.48283556"><ele>15.9</ele><time>2017-11-18T11:17:50Z</time></trkpt>
<trkpt lat="47.16520167" lon="-1.48295500"><ele>15.8</ele><time>2017-11-18T11:17:51Z</time></trkpt>
<trkpt lat="47.16518500" lon="-1.48304667"><ele>15.8</ele><time>2017-11-18T11:17:53Z</time></trkpt>
<trkpt lat="47.16517000" lon="-1.48314167"><ele>15.7</ele><time>2017-11-18T11:17:54Z</time></trkpt>
<trkpt lat="47.16516000" lon="-1.48323333"><ele>15.7</ele><time>2017-11-18T11:17:54Z</time></trkpt>
<trkpt lat="47.16514722" lon="-1.48338278"><ele>15.9</ele><time>2017-11-18T11:17:56Z</time></trkpt>
<trkpt lat="47.16514500" lon="-1.48353333"><ele>16.4</ele><time>2017-11-18T11:17:58Z</time></trkpt>
<trkpt lat="47.16515452" lon="-1.48365643"><ele>16.9</ele><time>2017-11-18T11:18:01Z</time></trkpt>
<trkpt lat="47.16516528" lon="-1.48373028"><ele>16.9</ele><time>2017-11-18T11:18:05Z</time></trkpt>
<trkpt lat="47.16511611" lon="-1.48383500"><ele>16.6</ele><time>2017-11-18T11:18:12Z</time></trkpt>
<trkpt lat="47.16499533" lon="-1.48385700"><ele>17.5</ele><time>2017-11-18T11:18:16Z</time></trkpt>
<trkpt lat="47.16488000" lon="-1.48381400"><ele>19.6</ele><time>2017-11-18T11:18:19Z</time></trkpt>
<trkpt lat="47.16476500" lon="-1.48376700"><ele>20.4</ele><time>2017-11-18T11:18:22Z</time></trkpt>
<trkpt lat="47.16466167" lon="-1.48372733"><ele>19.1</ele><time>2017-11-18T11:18:25Z</time></trkpt>
<trkpt lat="47.16455800" lon="-1.48367800"><ele>18.4</ele><time>2017-11-18T11:18:28Z</time></trkpt>
<trkpt lat="47.16444556" lon="-1.48364944"><ele>18.700001</ele><time>2017-11-18T11:18:30Z</time></trkpt>
<trkpt lat="47.16434833" lon="-1.48360722"><ele>19</ele><time>2017-11-18T11:18:33Z</time></trkpt>
<trkpt lat="47.16424556" lon="-1.48356222"><ele>19.700001</ele><time>2017-11-18T11:18:34Z</time></trkpt>
<trkpt lat="47.16414611" lon="-1.48351889"><ele>20.299999</ele><time>2017-11-18T11:18:36Z</time></trkpt>
<trkpt lat="47.16405500" lon="-1.48347556"><ele>20.9</ele><time>2017-11-18T11:18:38Z</time></trkpt>
<trkpt lat="47.16396222" lon="-1.48343333"><ele>21.4</ele><time>2017-11-18T11:18:40Z</time></trkpt>
<trkpt lat="47.16387056" lon="-1.48339889"><ele>20.700001</ele><time>2017-11-18T11:18:42Z</time></trkpt>
<trkpt lat="47.16377667" lon="-1.48336500"><ele>19</ele><time>2017-11-18T11:18:44Z</time></trkpt>
<trkpt lat="47.16366467" lon="-1.48331200"><ele>18.4</ele><time>2017-11-18T11:18:47Z</time></trkpt>
<trkpt lat="47.16353533" lon="-1.48326400"><ele>16.5</ele><time>2017-11-18T11:18:50Z</time></trkpt>
<trkpt lat="47.16340533" lon="-1.48321233"><ele>15.8</ele><time>2017-11-18T11:18:53Z</time></trkpt>
<trkpt lat="47.16329500" lon="-1.48315958"><ele>14.9</ele><time>2017-11-18T11:18:55Z</time></trkpt>
<trkpt lat="47.16318185" lon="-1.48309278"><ele>13.9</ele><time>2017-11-18T11:19:00Z</time></trkpt>
<trkpt lat="47.16307042" lon="-1.48305542"><ele>21.200001</ele><time>2017-11-18T11:19:46Z</time></trkpt>
<trkpt lat="47.16306083" lon="-1.48308119"><ele>18.299999</ele><time>2017-11-18T11:20:48Z</time></trkpt>
<trkpt lat="47.16323976" lon="-1.48306452"><ele>19.5</ele><time>2017-11-18T11:21:23Z</time></trkpt>
<trkpt lat="47.16324400" lon="-1.48303900"><ele>19.5</ele><time>2017-11-18T11:21:27Z</time></trkpt>
<trkpt lat="47.16312667" lon="-1.48303611"><ele>17.700001</ele><time>2017-11-18T11:21:29Z</time></trkpt>
<trkpt lat="47.16306117" lon="-1.48305650"><ele>20.200001</ele><time>2017-11-18T11:21:39Z</time></trkpt>
<trkpt lat="47.16314917" lon="-1.48306021"><ele>25.1</ele><time>2017-11-18T11:21:50Z</time></trkpt>
<trkpt lat="47.16302300" lon="-1.48296033"><ele>20.9</ele><time>2017-11-18T11:21:54Z</time></trkpt>
<trkpt lat="47.16296758" lon="-1.48290242"><ele>21.299999</ele><time>2017-11-18T11:21:58Z</time></trkpt>
<trkpt lat="47.16319000" lon="-1.48296000"><ele>17.200001</ele><time>2017-11-18T11:22:02Z</time></trkpt>
<trkpt lat="47.16329722" lon="-1.48298111"><ele>13.6</ele><time>2017-11-18T11:22:04Z</time></trkpt>
<trkpt lat="47.16339476" lon="-1.48300071"><ele>10.9</ele><time>2017-11-18T11:22:07Z</time></trkpt>
<trkpt lat="47.16349548" lon="-1.48301095"><ele>9</ele><time>2017-11-18T11:22:11Z</time></trkpt>
<trkpt lat="47.16355333" lon="-1.48301500"><ele>7.9</ele><time>2017-11-18T11:22:14Z</time></trkpt>
</trkseg></trk></gpx>